<?xml version="1.0" encoding="UTF-8" standalone="no" ?>
<gpx xmlns="http://www.topografix.com/GPX/1/1" xmlns:xsi="http://www.w3.org/2001/XMLSchema-instance" xsi:schemaLocation="http://www.topografix.com/GPX/1/1 http://www.topografix.com/GPX/1/1/gpx.xsd" version="1.1" creator="VisuGPX - https://www.visugpx.com">
  <metadata>
    <name>sortie vtt 20 nov</name>
    <desc><![CDATA[20 novembre 2011 : sortie club]]></desc>
  </metadata>
  <trk>
    <name><![CDATA[2011-11-20 09:15]]></name>
    <desc><![CDATA[]]></desc>
    <trkseg>
      <trkpt lat="44.00592" lon="4.31728">
        <ele>187.4</ele>
        <time>2011-11-20T08:15:17Z</time>
      </trkpt>
      <trkpt lat="44.00592" lon="4.31728">
        <ele>187.4</ele>
        <time>2011-11-20T08:15:17Z</time>
      </trkpt>
      <trkpt lat="44.00592" lon="4.31728">
        <ele>187.4</ele>
        <time>2011-11-20T08:15:22Z</time>
      </trkpt>
      <trkpt lat="44.00595" lon="4.31724">
        <ele>186.4</ele>
        <time>2011-11-20T08:15:28Z</time>
      </trkpt>
      <trkpt lat="44.00599" lon="4.3172">
        <ele>186.7</ele>
        <time>2011-11-20T08:15:50Z</time>
      </trkpt>
      <trkpt lat="44.00595" lon="4.31718">
        <ele>190.4</ele>
        <time>2011-11-20T08:16:12Z</time>
      </trkpt>
      <trkpt lat="44.0059" lon="4.3172">
        <ele>191.2</ele>
        <time>2011-11-20T08:16:16Z</time>
      </trkpt>
      <trkpt lat="44.00586" lon="4.31725">
        <ele>190.2</ele>
        <time>2011-11-20T08:17:07Z</time>
      </trkpt>
      <trkpt lat="44.00581" lon="4.31728">
        <ele>190.4</ele>
        <time>2011-11-20T08:17:10Z</time>
      </trkpt>
      <trkpt lat="44.00577" lon="4.31734">
        <ele>190.6</ele>
        <time>2011-11-20T08:17:13Z</time>
      </trkpt>
      <trkpt lat="44.00574" lon="4.3174">
        <ele>190.4</ele>
        <time>2011-11-20T08:17:16Z</time>
      </trkpt>
      <trkpt lat="44.00569" lon="4.31745">
        <ele>190.2</ele>
        <time>2011-11-20T08:17:19Z</time>
      </trkpt>
      <trkpt lat="44.00563" lon="4.31751">
        <ele>190</ele>
        <time>2011-11-20T08:17:22Z</time>
      </trkpt>
      <trkpt lat="44.0056" lon="4.31757">
        <ele>190.2</ele>
        <time>2011-11-20T08:17:24Z</time>
      </trkpt>
      <trkpt lat="44.0055" lon="4.31771">
        <ele>190.5</ele>
        <time>2011-11-20T08:17:26Z</time>
      </trkpt>
      <trkpt lat="44.00544" lon="4.31779">
        <ele>190.6</ele>
        <time>2011-11-20T08:17:28Z</time>
      </trkpt>
      <trkpt lat="44.00538" lon="4.31788">
        <ele>190.6</ele>
        <time>2011-11-20T08:17:30Z</time>
      </trkpt>
      <trkpt lat="44.00534" lon="4.31798">
        <ele>190.6</ele>
        <time>2011-11-20T08:17:32Z</time>
      </trkpt>
      <trkpt lat="44.00531" lon="4.31809">
        <ele>190.4</ele>
        <time>2011-11-20T08:17:34Z</time>
      </trkpt>
      <trkpt lat="44.00528" lon="4.3182">
        <ele>190.2</ele>
        <time>2011-11-20T08:17:36Z</time>
      </trkpt>
      <trkpt lat="44.00526" lon="4.31826">
        <ele>190.4</ele>
        <time>2011-11-20T08:17:37Z</time>
      </trkpt>
      <trkpt lat="44.00524" lon="4.31837">
        <ele>190.7</ele>
        <time>2011-11-20T08:17:39Z</time>
      </trkpt>
      <trkpt lat="44.00522" lon="4.31849">
        <ele>190.9</ele>
        <time>2011-11-20T08:17:41Z</time>
      </trkpt>
      <trkpt lat="44.00521" lon="4.31855">
        <ele>190.8</ele>
        <time>2011-11-20T08:17:42Z</time>
      </trkpt>
      <trkpt lat="44.00521" lon="4.31862">
        <ele>191</ele>
        <time>2011-11-20T08:17:43Z</time>
      </trkpt>
      <trkpt lat="44.0052" lon="4.31868">
        <ele>190.9</ele>
        <time>2011-11-20T08:17:44Z</time>
      </trkpt>
      <trkpt lat="44.00519" lon="4.3188">
        <ele>191</ele>
        <time>2011-11-20T08:17:46Z</time>
      </trkpt>
      <trkpt lat="44.00519" lon="4.31887">
        <ele>190.9</ele>
        <time>2011-11-20T08:17:47Z</time>
      </trkpt>
      <trkpt lat="44.00519" lon="4.31893">
        <ele>191</ele>
        <time>2011-11-20T08:17:48Z</time>
      </trkpt>
      <trkpt lat="44.00518" lon="4.31905">
        <ele>190.9</ele>
        <time>2011-11-20T08:17:50Z</time>
      </trkpt>
      <trkpt lat="44.00518" lon="4.31917">
        <ele>190.7</ele>
        <time>2011-11-20T08:17:52Z</time>
      </trkpt>
      <trkpt lat="44.00519" lon="4.31929">
        <ele>190.4</ele>
        <time>2011-11-20T08:17:54Z</time>
      </trkpt>
      <trkpt lat="44.0052" lon="4.31935">
        <ele>190.2</ele>
        <time>2011-11-20T08:17:55Z</time>
      </trkpt>
      <trkpt lat="44.00521" lon="4.31941">
        <ele>190.2</ele>
        <time>2011-11-20T08:17:56Z</time>
      </trkpt>
      <trkpt lat="44.00522" lon="4.31948">
        <ele>190.1</ele>
        <time>2011-11-20T08:17:57Z</time>
      </trkpt>
      <trkpt lat="44.00523" lon="4.31955">
        <ele>190.2</ele>
        <time>2011-11-20T08:17:58Z</time>
      </trkpt>
      <trkpt lat="44.00524" lon="4.31962">
        <ele>190.2</ele>
        <time>2011-11-20T08:17:59Z</time>
      </trkpt>
      <trkpt lat="44.00525" lon="4.3197">
        <ele>190.3</ele>
        <time>2011-11-20T08:18:00Z</time>
      </trkpt>
      <trkpt lat="44.00526" lon="4.31977">
        <ele>190.3</ele>
        <time>2011-11-20T08:18:01Z</time>
      </trkpt>
      <trkpt lat="44.00528" lon="4.31985">
        <ele>190.3</ele>
        <time>2011-11-20T08:18:02Z</time>
      </trkpt>
      <trkpt lat="44.00529" lon="4.31993">
        <ele>190.4</ele>
        <time>2011-11-20T08:18:03Z</time>
      </trkpt>
      <trkpt lat="44.0053" lon="4.32001">
        <ele>190.5</ele>
        <time>2011-11-20T08:18:04Z</time>
      </trkpt>
      <trkpt lat="44.00531" lon="4.32009">
        <ele>190.5</ele>
        <time>2011-11-20T08:18:05Z</time>
      </trkpt>
      <trkpt lat="44.00532" lon="4.32017">
        <ele>190.4</ele>
        <time>2011-11-20T08:18:06Z</time>
      </trkpt>
      <trkpt lat="44.00534" lon="4.32026">
        <ele>190.4</ele>
        <time>2011-11-20T08:18:07Z</time>
      </trkpt>
      <trkpt lat="44.00534" lon="4.32034">
        <ele>190.6</ele>
        <time>2011-11-20T08:18:08Z</time>
      </trkpt>
      <trkpt lat="44.00536" lon="4.32043">
        <ele>190.5</ele>
        <time>2011-11-20T08:18:09Z</time>
      </trkpt>
      <trkpt lat="44.00536" lon="4.32052">
        <ele>190.4</ele>
        <time>2011-11-20T08:18:10Z</time>
      </trkpt>
      <trkpt lat="44.00537" lon="4.3206">
        <ele>190.2</ele>
        <time>2011-11-20T08:18:11Z</time>
      </trkpt>
      <trkpt lat="44.00538" lon="4.3207">
        <ele>190.1</ele>
        <time>2011-11-20T08:18:12Z</time>
      </trkpt>
      <trkpt lat="44.00538" lon="4.32079">
        <ele>189.9</ele>
        <time>2011-11-20T08:18:13Z</time>
      </trkpt>
      <trkpt lat="44.00538" lon="4.32088">
        <ele>189.8</ele>
        <time>2011-11-20T08:18:14Z</time>
      </trkpt>
      <trkpt lat="44.00539" lon="4.32097">
        <ele>189.5</ele>
        <time>2011-11-20T08:18:15Z</time>
      </trkpt>
      <trkpt lat="44.00539" lon="4.32106">
        <ele>189.4</ele>
        <time>2011-11-20T08:18:16Z</time>
      </trkpt>
      <trkpt lat="44.00539" lon="4.32115">
        <ele>189.3</ele>
        <time>2011-11-20T08:18:17Z</time>
      </trkpt>
      <trkpt lat="44.00539" lon="4.32125">
        <ele>189.2</ele>
        <time>2011-11-20T08:18:18Z</time>
      </trkpt>
      <trkpt lat="44.00539" lon="4.32135">
        <ele>189</ele>
        <time>2011-11-20T08:18:19Z</time>
      </trkpt>
      <trkpt lat="44.00539" lon="4.32144">
        <ele>188.8</ele>
        <time>2011-11-20T08:18:20Z</time>
      </trkpt>
      <trkpt lat="44.0054" lon="4.32154">
        <ele>188.7</ele>
        <time>2011-11-20T08:18:21Z</time>
      </trkpt>
      <trkpt lat="44.0054" lon="4.32164">
        <ele>188.4</ele>
        <time>2011-11-20T08:18:22Z</time>
      </trkpt>
      <trkpt lat="44.0054" lon="4.32173">
        <ele>188.4</ele>
        <time>2011-11-20T08:18:23Z</time>
      </trkpt>
      <trkpt lat="44.0054" lon="4.32183">
        <ele>188.2</ele>
        <time>2011-11-20T08:18:24Z</time>
      </trkpt>
      <trkpt lat="44.0054" lon="4.32193">
        <ele>188</ele>
        <time>2011-11-20T08:18:25Z</time>
      </trkpt>
      <trkpt lat="44.0054" lon="4.32202">
        <ele>187.7</ele>
        <time>2011-11-20T08:18:26Z</time>
      </trkpt>
      <trkpt lat="44.0054" lon="4.32212">
        <ele>187.5</ele>
        <time>2011-11-20T08:18:27Z</time>
      </trkpt>
      <trkpt lat="44.0054" lon="4.32222">
        <ele>187.1</ele>
        <time>2011-11-20T08:18:28Z</time>
      </trkpt>
      <trkpt lat="44.0054" lon="4.32231">
        <ele>186.7</ele>
        <time>2011-11-20T08:18:29Z</time>
      </trkpt>
      <trkpt lat="44.0054" lon="4.3224">
        <ele>186.3</ele>
        <time>2011-11-20T08:18:30Z</time>
      </trkpt>
      <trkpt lat="44.0054" lon="4.32249">
        <ele>186</ele>
        <time>2011-11-20T08:18:31Z</time>
      </trkpt>
      <trkpt lat="44.0054" lon="4.32258">
        <ele>185.7</ele>
        <time>2011-11-20T08:18:32Z</time>
      </trkpt>
      <trkpt lat="44.0054" lon="4.32266">
        <ele>185.4</ele>
        <time>2011-11-20T08:18:33Z</time>
      </trkpt>
      <trkpt lat="44.0054" lon="4.32275">
        <ele>185.1</ele>
        <time>2011-11-20T08:18:34Z</time>
      </trkpt>
      <trkpt lat="44.0054" lon="4.32284">
        <ele>184.8</ele>
        <time>2011-11-20T08:18:35Z</time>
      </trkpt>
      <trkpt lat="44.0054" lon="4.32292">
        <ele>184.4</ele>
        <time>2011-11-20T08:18:36Z</time>
      </trkpt>
      <trkpt lat="44.0054" lon="4.32301">
        <ele>184.1</ele>
        <time>2011-11-20T08:18:37Z</time>
      </trkpt>
      <trkpt lat="44.0054" lon="4.32309">
        <ele>183.8</ele>
        <time>2011-11-20T08:18:38Z</time>
      </trkpt>
      <trkpt lat="44.0054" lon="4.32317">
        <ele>183.6</ele>
        <time>2011-11-20T08:18:39Z</time>
      </trkpt>
      <trkpt lat="44.0054" lon="4.32325">
        <ele>183.3</ele>
        <time>2011-11-20T08:18:40Z</time>
      </trkpt>
      <trkpt lat="44.0054" lon="4.32333">
        <ele>183.1</ele>
        <time>2011-11-20T08:18:41Z</time>
      </trkpt>
      <trkpt lat="44.0054" lon="4.32341">
        <ele>182.9</ele>
        <time>2011-11-20T08:18:42Z</time>
      </trkpt>
      <trkpt lat="44.0054" lon="4.32349">
        <ele>182.7</ele>
        <time>2011-11-20T08:18:43Z</time>
      </trkpt>
      <trkpt lat="44.00541" lon="4.32356">
        <ele>182.6</ele>
        <time>2011-11-20T08:18:44Z</time>
      </trkpt>
      <trkpt lat="44.00541" lon="4.32364">
        <ele>182.5</ele>
        <time>2011-11-20T08:18:45Z</time>
      </trkpt>
      <trkpt lat="44.00541" lon="4.32372">
        <ele>182.4</ele>
        <time>2011-11-20T08:18:46Z</time>
      </trkpt>
      <trkpt lat="44.00541" lon="4.3238">
        <ele>182.2</ele>
        <time>2011-11-20T08:18:47Z</time>
      </trkpt>
      <trkpt lat="44.00541" lon="4.32388">
        <ele>182</ele>
        <time>2011-11-20T08:18:48Z</time>
      </trkpt>
      <trkpt lat="44.00541" lon="4.32397">
        <ele>181.9</ele>
        <time>2011-11-20T08:18:49Z</time>
      </trkpt>
      <trkpt lat="44.00541" lon="4.32405">
        <ele>181.7</ele>
        <time>2011-11-20T08:18:50Z</time>
      </trkpt>
      <trkpt lat="44.00541" lon="4.32413">
        <ele>181.5</ele>
        <time>2011-11-20T08:18:51Z</time>
      </trkpt>
      <trkpt lat="44.00541" lon="4.32422">
        <ele>181.3</ele>
        <time>2011-11-20T08:18:52Z</time>
      </trkpt>
      <trkpt lat="44.00541" lon="4.3243">
        <ele>181.2</ele>
        <time>2011-11-20T08:18:53Z</time>
      </trkpt>
      <trkpt lat="44.00542" lon="4.32438">
        <ele>181</ele>
        <time>2011-11-20T08:18:54Z</time>
      </trkpt>
      <trkpt lat="44.00542" lon="4.32446">
        <ele>180.9</ele>
        <time>2011-11-20T08:18:55Z</time>
      </trkpt>
      <trkpt lat="44.00542" lon="4.32454">
        <ele>180.9</ele>
        <time>2011-11-20T08:18:56Z</time>
      </trkpt>
      <trkpt lat="44.00542" lon="4.32462">
        <ele>180.8</ele>
        <time>2011-11-20T08:18:57Z</time>
      </trkpt>
      <trkpt lat="44.00542" lon="4.32471">
        <ele>180.7</ele>
        <time>2011-11-20T08:18:58Z</time>
      </trkpt>
      <trkpt lat="44.00542" lon="4.32479">
        <ele>180.5</ele>
        <time>2011-11-20T08:18:59Z</time>
      </trkpt>
      <trkpt lat="44.00542" lon="4.32488">
        <ele>180.3</ele>
        <time>2011-11-20T08:19:00Z</time>
      </trkpt>
      <trkpt lat="44.00543" lon="4.32496">
        <ele>180.2</ele>
        <time>2011-11-20T08:19:01Z</time>
      </trkpt>
      <trkpt lat="44.00543" lon="4.32504">
        <ele>180</ele>
        <time>2011-11-20T08:19:02Z</time>
      </trkpt>
      <trkpt lat="44.00543" lon="4.32512">
        <ele>179.8</ele>
        <time>2011-11-20T08:19:03Z</time>
      </trkpt>
      <trkpt lat="44.00543" lon="4.3252">
        <ele>179.7</ele>
        <time>2011-11-20T08:19:04Z</time>
      </trkpt>
      <trkpt lat="44.00544" lon="4.32528">
        <ele>179.5</ele>
        <time>2011-11-20T08:19:05Z</time>
      </trkpt>
      <trkpt lat="44.00544" lon="4.32536">
        <ele>179.3</ele>
        <time>2011-11-20T08:19:06Z</time>
      </trkpt>
      <trkpt lat="44.00544" lon="4.32544">
        <ele>179.1</ele>
        <time>2011-11-20T08:19:07Z</time>
      </trkpt>
      <trkpt lat="44.00544" lon="4.32552">
        <ele>179</ele>
        <time>2011-11-20T08:19:08Z</time>
      </trkpt>
      <trkpt lat="44.00544" lon="4.3256">
        <ele>178.8</ele>
        <time>2011-11-20T08:19:09Z</time>
      </trkpt>
      <trkpt lat="44.00544" lon="4.32569">
        <ele>178.7</ele>
        <time>2011-11-20T08:19:10Z</time>
      </trkpt>
      <trkpt lat="44.00544" lon="4.32577">
        <ele>178.6</ele>
        <time>2011-11-20T08:19:11Z</time>
      </trkpt>
      <trkpt lat="44.00544" lon="4.32585">
        <ele>178.4</ele>
        <time>2011-11-20T08:19:12Z</time>
      </trkpt>
      <trkpt lat="44.00544" lon="4.32593">
        <ele>178.3</ele>
        <time>2011-11-20T08:19:13Z</time>
      </trkpt>
      <trkpt lat="44.00544" lon="4.32601">
        <ele>178.1</ele>
        <time>2011-11-20T08:19:14Z</time>
      </trkpt>
      <trkpt lat="44.00544" lon="4.3261">
        <ele>177.8</ele>
        <time>2011-11-20T08:19:15Z</time>
      </trkpt>
      <trkpt lat="44.00545" lon="4.32618">
        <ele>177.6</ele>
        <time>2011-11-20T08:19:16Z</time>
      </trkpt>
      <trkpt lat="44.00545" lon="4.32626">
        <ele>177.4</ele>
        <time>2011-11-20T08:19:17Z</time>
      </trkpt>
      <trkpt lat="44.00545" lon="4.32634">
        <ele>177</ele>
        <time>2011-11-20T08:19:18Z</time>
      </trkpt>
      <trkpt lat="44.00545" lon="4.32642">
        <ele>176.7</ele>
        <time>2011-11-20T08:19:19Z</time>
      </trkpt>
      <trkpt lat="44.00545" lon="4.32651">
        <ele>176.4</ele>
        <time>2011-11-20T08:19:20Z</time>
      </trkpt>
      <trkpt lat="44.00545" lon="4.32659">
        <ele>176.1</ele>
        <time>2011-11-20T08:19:21Z</time>
      </trkpt>
      <trkpt lat="44.00545" lon="4.32667">
        <ele>175.9</ele>
        <time>2011-11-20T08:19:22Z</time>
      </trkpt>
      <trkpt lat="44.00546" lon="4.32676">
        <ele>175.5</ele>
        <time>2011-11-20T08:19:23Z</time>
      </trkpt>
      <trkpt lat="44.00546" lon="4.32684">
        <ele>175.1</ele>
        <time>2011-11-20T08:19:24Z</time>
      </trkpt>
      <trkpt lat="44.00546" lon="4.32693">
        <ele>174.7</ele>
        <time>2011-11-20T08:19:25Z</time>
      </trkpt>
      <trkpt lat="44.00546" lon="4.32701">
        <ele>174.5</ele>
        <time>2011-11-20T08:19:26Z</time>
      </trkpt>
      <trkpt lat="44.00547" lon="4.32708">
        <ele>174.4</ele>
        <time>2011-11-20T08:19:27Z</time>
      </trkpt>
      <trkpt lat="44.00547" lon="4.32716">
        <ele>174.3</ele>
        <time>2011-11-20T08:19:28Z</time>
      </trkpt>
      <trkpt lat="44.00547" lon="4.32724">
        <ele>174</ele>
        <time>2011-11-20T08:19:29Z</time>
      </trkpt>
      <trkpt lat="44.00547" lon="4.32732">
        <ele>173.8</ele>
        <time>2011-11-20T08:19:30Z</time>
      </trkpt>
      <trkpt lat="44.00547" lon="4.32739">
        <ele>173.6</ele>
        <time>2011-11-20T08:19:31Z</time>
      </trkpt>
      <trkpt lat="44.00547" lon="4.32747">
        <ele>173.4</ele>
        <time>2011-11-20T08:19:32Z</time>
      </trkpt>
      <trkpt lat="44.00547" lon="4.32754">
        <ele>173.3</ele>
        <time>2011-11-20T08:19:33Z</time>
      </trkpt>
      <trkpt lat="44.00547" lon="4.32762">
        <ele>173.1</ele>
        <time>2011-11-20T08:19:34Z</time>
      </trkpt>
      <trkpt lat="44.00547" lon="4.3277">
        <ele>172.9</ele>
        <time>2011-11-20T08:19:35Z</time>
      </trkpt>
      <trkpt lat="44.00548" lon="4.32778">
        <ele>172.8</ele>
        <time>2011-11-20T08:19:36Z</time>
      </trkpt>
      <trkpt lat="44.00548" lon="4.32785">
        <ele>172.7</ele>
        <time>2011-11-20T08:19:37Z</time>
      </trkpt>
      <trkpt lat="44.00548" lon="4.32793">
        <ele>172.7</ele>
        <time>2011-11-20T08:19:38Z</time>
      </trkpt>
      <trkpt lat="44.00548" lon="4.32801">
        <ele>172.5</ele>
        <time>2011-11-20T08:19:39Z</time>
      </trkpt>
      <trkpt lat="44.00548" lon="4.32808">
        <ele>172.5</ele>
        <time>2011-11-20T08:19:40Z</time>
      </trkpt>
      <trkpt lat="44.00548" lon="4.32816">
        <ele>172.3</ele>
        <time>2011-11-20T08:19:41Z</time>
      </trkpt>
      <trkpt lat="44.00548" lon="4.32824">
        <ele>172</ele>
        <time>2011-11-20T08:19:42Z</time>
      </trkpt>
      <trkpt lat="44.00548" lon="4.32831">
        <ele>171.9</ele>
        <time>2011-11-20T08:19:43Z</time>
      </trkpt>
      <trkpt lat="44.00547" lon="4.32839">
        <ele>171.7</ele>
        <time>2011-11-20T08:19:44Z</time>
      </trkpt>
      <trkpt lat="44.00546" lon="4.32846">
        <ele>171.5</ele>
        <time>2011-11-20T08:19:45Z</time>
      </trkpt>
      <trkpt lat="44.00545" lon="4.32854">
        <ele>171.4</ele>
        <time>2011-11-20T08:19:46Z</time>
      </trkpt>
      <trkpt lat="44.00544" lon="4.32862">
        <ele>171.2</ele>
        <time>2011-11-20T08:19:47Z</time>
      </trkpt>
      <trkpt lat="44.00542" lon="4.3287">
        <ele>171.1</ele>
        <time>2011-11-20T08:19:48Z</time>
      </trkpt>
      <trkpt lat="44.00539" lon="4.32877">
        <ele>171.1</ele>
        <time>2011-11-20T08:19:49Z</time>
      </trkpt>
      <trkpt lat="44.00536" lon="4.32884">
        <ele>170.9</ele>
        <time>2011-11-20T08:19:50Z</time>
      </trkpt>
      <trkpt lat="44.00533" lon="4.32892">
        <ele>170.4</ele>
        <time>2011-11-20T08:19:51Z</time>
      </trkpt>
      <trkpt lat="44.00529" lon="4.329">
        <ele>170.1</ele>
        <time>2011-11-20T08:19:52Z</time>
      </trkpt>
      <trkpt lat="44.00524" lon="4.32908">
        <ele>169.8</ele>
        <time>2011-11-20T08:19:53Z</time>
      </trkpt>
      <trkpt lat="44.00517" lon="4.32915">
        <ele>169.3</ele>
        <time>2011-11-20T08:19:54Z</time>
      </trkpt>
      <trkpt lat="44.00511" lon="4.32923">
        <ele>169.1</ele>
        <time>2011-11-20T08:19:55Z</time>
      </trkpt>
      <trkpt lat="44.00505" lon="4.3293">
        <ele>168.9</ele>
        <time>2011-11-20T08:19:56Z</time>
      </trkpt>
      <trkpt lat="44.00498" lon="4.32938">
        <ele>168.6</ele>
        <time>2011-11-20T08:19:57Z</time>
      </trkpt>
      <trkpt lat="44.00492" lon="4.32946">
        <ele>168.2</ele>
        <time>2011-11-20T08:19:58Z</time>
      </trkpt>
      <trkpt lat="44.00486" lon="4.32953">
        <ele>167.9</ele>
        <time>2011-11-20T08:19:59Z</time>
      </trkpt>
      <trkpt lat="44.0048" lon="4.32961">
        <ele>167.6</ele>
        <time>2011-11-20T08:20:00Z</time>
      </trkpt>
      <trkpt lat="44.00474" lon="4.32968">
        <ele>167.3</ele>
        <time>2011-11-20T08:20:01Z</time>
      </trkpt>
      <trkpt lat="44.00469" lon="4.32975">
        <ele>167.1</ele>
        <time>2011-11-20T08:20:02Z</time>
      </trkpt>
      <trkpt lat="44.00463" lon="4.32982">
        <ele>166.9</ele>
        <time>2011-11-20T08:20:03Z</time>
      </trkpt>
      <trkpt lat="44.00458" lon="4.3299">
        <ele>166.6</ele>
        <time>2011-11-20T08:20:04Z</time>
      </trkpt>
      <trkpt lat="44.00453" lon="4.32996">
        <ele>166.4</ele>
        <time>2011-11-20T08:20:05Z</time>
      </trkpt>
      <trkpt lat="44.00448" lon="4.33004">
        <ele>166.2</ele>
        <time>2011-11-20T08:20:06Z</time>
      </trkpt>
      <trkpt lat="44.00443" lon="4.33011">
        <ele>166</ele>
        <time>2011-11-20T08:20:07Z</time>
      </trkpt>
      <trkpt lat="44.00438" lon="4.33018">
        <ele>165.6</ele>
        <time>2011-11-20T08:20:08Z</time>
      </trkpt>
      <trkpt lat="44.00432" lon="4.33025">
        <ele>165.3</ele>
        <time>2011-11-20T08:20:09Z</time>
      </trkpt>
      <trkpt lat="44.00427" lon="4.33032">
        <ele>165</ele>
        <time>2011-11-20T08:20:10Z</time>
      </trkpt>
      <trkpt lat="44.00422" lon="4.3304">
        <ele>164.7</ele>
        <time>2011-11-20T08:20:11Z</time>
      </trkpt>
      <trkpt lat="44.00416" lon="4.33047">
        <ele>164.4</ele>
        <time>2011-11-20T08:20:12Z</time>
      </trkpt>
      <trkpt lat="44.00411" lon="4.33055">
        <ele>164.2</ele>
        <time>2011-11-20T08:20:13Z</time>
      </trkpt>
      <trkpt lat="44.00405" lon="4.33063">
        <ele>163.6</ele>
        <time>2011-11-20T08:20:14Z</time>
      </trkpt>
      <trkpt lat="44.00401" lon="4.33072">
        <ele>162.8</ele>
        <time>2011-11-20T08:20:15Z</time>
      </trkpt>
      <trkpt lat="44.00397" lon="4.33082">
        <ele>162.4</ele>
        <time>2011-11-20T08:20:16Z</time>
      </trkpt>
      <trkpt lat="44.00394" lon="4.33092">
        <ele>162</ele>
        <time>2011-11-20T08:20:17Z</time>
      </trkpt>
      <trkpt lat="44.00393" lon="4.33103">
        <ele>161.1</ele>
        <time>2011-11-20T08:20:18Z</time>
      </trkpt>
      <trkpt lat="44.00392" lon="4.33114">
        <ele>160.7</ele>
        <time>2011-11-20T08:20:19Z</time>
      </trkpt>
      <trkpt lat="44.00392" lon="4.33126">
        <ele>159.9</ele>
        <time>2011-11-20T08:20:20Z</time>
      </trkpt>
      <trkpt lat="44.00392" lon="4.33138">
        <ele>159.7</ele>
        <time>2011-11-20T08:20:21Z</time>
      </trkpt>
      <trkpt lat="44.00392" lon="4.33149">
        <ele>159.2</ele>
        <time>2011-11-20T08:20:22Z</time>
      </trkpt>
      <trkpt lat="44.00392" lon="4.3316">
        <ele>158.8</ele>
        <time>2011-11-20T08:20:23Z</time>
      </trkpt>
      <trkpt lat="44.00393" lon="4.33172">
        <ele>158.2</ele>
        <time>2011-11-20T08:20:24Z</time>
      </trkpt>
      <trkpt lat="44.00393" lon="4.33183">
        <ele>157.4</ele>
        <time>2011-11-20T08:20:25Z</time>
      </trkpt>
      <trkpt lat="44.00393" lon="4.33194">
        <ele>156.7</ele>
        <time>2011-11-20T08:20:26Z</time>
      </trkpt>
      <trkpt lat="44.00394" lon="4.33205">
        <ele>156.4</ele>
        <time>2011-11-20T08:20:27Z</time>
      </trkpt>
      <trkpt lat="44.00394" lon="4.33215">
        <ele>156.4</ele>
        <time>2011-11-20T08:20:28Z</time>
      </trkpt>
      <trkpt lat="44.00395" lon="4.33224">
        <ele>156.1</ele>
        <time>2011-11-20T08:20:29Z</time>
      </trkpt>
      <trkpt lat="44.00395" lon="4.33234">
        <ele>155.8</ele>
        <time>2011-11-20T08:20:30Z</time>
      </trkpt>
      <trkpt lat="44.00395" lon="4.33244">
        <ele>155.6</ele>
        <time>2011-11-20T08:20:31Z</time>
      </trkpt>
      <trkpt lat="44.00396" lon="4.33255">
        <ele>155.3</ele>
        <time>2011-11-20T08:20:32Z</time>
      </trkpt>
      <trkpt lat="44.00396" lon="4.33265">
        <ele>155.2</ele>
        <time>2011-11-20T08:20:33Z</time>
      </trkpt>
      <trkpt lat="44.00396" lon="4.33275">
        <ele>154.9</ele>
        <time>2011-11-20T08:20:34Z</time>
      </trkpt>
      <trkpt lat="44.00396" lon="4.33285">
        <ele>154.6</ele>
        <time>2011-11-20T08:20:35Z</time>
      </trkpt>
      <trkpt lat="44.00395" lon="4.33294">
        <ele>154.6</ele>
        <time>2011-11-20T08:20:36Z</time>
      </trkpt>
      <trkpt lat="44.00394" lon="4.33302">
        <ele>154.7</ele>
        <time>2011-11-20T08:20:37Z</time>
      </trkpt>
      <trkpt lat="44.00394" lon="4.33311">
        <ele>154.5</ele>
        <time>2011-11-20T08:20:38Z</time>
      </trkpt>
      <trkpt lat="44.00393" lon="4.33319">
        <ele>154.4</ele>
        <time>2011-11-20T08:20:39Z</time>
      </trkpt>
      <trkpt lat="44.00392" lon="4.33327">
        <ele>153.9</ele>
        <time>2011-11-20T08:20:40Z</time>
      </trkpt>
      <trkpt lat="44.00391" lon="4.33335">
        <ele>153.9</ele>
        <time>2011-11-20T08:20:41Z</time>
      </trkpt>
      <trkpt lat="44.00389" lon="4.33341">
        <ele>154.5</ele>
        <time>2011-11-20T08:20:42Z</time>
      </trkpt>
      <trkpt lat="44.00388" lon="4.33348">
        <ele>154.5</ele>
        <time>2011-11-20T08:20:43Z</time>
      </trkpt>
      <trkpt lat="44.00387" lon="4.33356">
        <ele>154.6</ele>
        <time>2011-11-20T08:20:44Z</time>
      </trkpt>
      <trkpt lat="44.00386" lon="4.33363">
        <ele>154.6</ele>
        <time>2011-11-20T08:20:45Z</time>
      </trkpt>
      <trkpt lat="44.00385" lon="4.3337">
        <ele>154.9</ele>
        <time>2011-11-20T08:20:46Z</time>
      </trkpt>
      <trkpt lat="44.00383" lon="4.33376">
        <ele>154.7</ele>
        <time>2011-11-20T08:20:47Z</time>
      </trkpt>
      <trkpt lat="44.00382" lon="4.33383">
        <ele>154.5</ele>
        <time>2011-11-20T08:20:48Z</time>
      </trkpt>
      <trkpt lat="44.0038" lon="4.3339">
        <ele>154.4</ele>
        <time>2011-11-20T08:20:49Z</time>
      </trkpt>
      <trkpt lat="44.00379" lon="4.33397">
        <ele>154.1</ele>
        <time>2011-11-20T08:20:50Z</time>
      </trkpt>
      <trkpt lat="44.00378" lon="4.33404">
        <ele>154</ele>
        <time>2011-11-20T08:20:51Z</time>
      </trkpt>
      <trkpt lat="44.00377" lon="4.3341">
        <ele>153.9</ele>
        <time>2011-11-20T08:20:52Z</time>
      </trkpt>
      <trkpt lat="44.00376" lon="4.33416">
        <ele>154</ele>
        <time>2011-11-20T08:20:53Z</time>
      </trkpt>
      <trkpt lat="44.00374" lon="4.33422">
        <ele>154</ele>
        <time>2011-11-20T08:20:54Z</time>
      </trkpt>
      <trkpt lat="44.00374" lon="4.33428">
        <ele>154.2</ele>
        <time>2011-11-20T08:20:55Z</time>
      </trkpt>
      <trkpt lat="44.00372" lon="4.3344">
        <ele>154.2</ele>
        <time>2011-11-20T08:20:57Z</time>
      </trkpt>
      <trkpt lat="44.0037" lon="4.33452">
        <ele>154.7</ele>
        <time>2011-11-20T08:20:59Z</time>
      </trkpt>
      <trkpt lat="44.00368" lon="4.33464">
        <ele>155</ele>
        <time>2011-11-20T08:21:01Z</time>
      </trkpt>
      <trkpt lat="44.00366" lon="4.3347">
        <ele>154.9</ele>
        <time>2011-11-20T08:21:02Z</time>
      </trkpt>
      <trkpt lat="44.00365" lon="4.33477">
        <ele>154.7</ele>
        <time>2011-11-20T08:21:03Z</time>
      </trkpt>
      <trkpt lat="44.00364" lon="4.33489">
        <ele>155</ele>
        <time>2011-11-20T08:21:05Z</time>
      </trkpt>
      <trkpt lat="44.00362" lon="4.335">
        <ele>155.3</ele>
        <time>2011-11-20T08:21:07Z</time>
      </trkpt>
      <trkpt lat="44.0036" lon="4.33511">
        <ele>155.2</ele>
        <time>2011-11-20T08:21:09Z</time>
      </trkpt>
      <trkpt lat="44.00358" lon="4.33522">
        <ele>155</ele>
        <time>2011-11-20T08:21:11Z</time>
      </trkpt>
      <trkpt lat="44.00357" lon="4.33532">
        <ele>155.3</ele>
        <time>2011-11-20T08:21:13Z</time>
      </trkpt>
      <trkpt lat="44.00356" lon="4.33541">
        <ele>155.5</ele>
        <time>2011-11-20T08:21:15Z</time>
      </trkpt>
      <trkpt lat="44.00354" lon="4.3355">
        <ele>156.1</ele>
        <time>2011-11-20T08:21:17Z</time>
      </trkpt>
      <trkpt lat="44.00352" lon="4.33559">
        <ele>156.1</ele>
        <time>2011-11-20T08:21:19Z</time>
      </trkpt>
      <trkpt lat="44.0035" lon="4.33568">
        <ele>156.3</ele>
        <time>2011-11-20T08:21:21Z</time>
      </trkpt>
      <trkpt lat="44.00348" lon="4.33578">
        <ele>156.4</ele>
        <time>2011-11-20T08:21:23Z</time>
      </trkpt>
      <trkpt lat="44.00346" lon="4.33587">
        <ele>156.7</ele>
        <time>2011-11-20T08:21:25Z</time>
      </trkpt>
      <trkpt lat="44.00344" lon="4.33595">
        <ele>156.7</ele>
        <time>2011-11-20T08:21:27Z</time>
      </trkpt>
      <trkpt lat="44.00342" lon="4.33603">
        <ele>156.8</ele>
        <time>2011-11-20T08:21:29Z</time>
      </trkpt>
      <trkpt lat="44.0034" lon="4.33612">
        <ele>156.8</ele>
        <time>2011-11-20T08:21:31Z</time>
      </trkpt>
      <trkpt lat="44.00338" lon="4.33621">
        <ele>156.9</ele>
        <time>2011-11-20T08:21:33Z</time>
      </trkpt>
      <trkpt lat="44.00338" lon="4.33629">
        <ele>156.7</ele>
        <time>2011-11-20T08:21:35Z</time>
      </trkpt>
      <trkpt lat="44.00337" lon="4.33638">
        <ele>156.5</ele>
        <time>2011-11-20T08:21:37Z</time>
      </trkpt>
      <trkpt lat="44.00335" lon="4.33646">
        <ele>156.6</ele>
        <time>2011-11-20T08:21:39Z</time>
      </trkpt>
      <trkpt lat="44.00335" lon="4.33654">
        <ele>157.2</ele>
        <time>2011-11-20T08:21:41Z</time>
      </trkpt>
      <trkpt lat="44.00334" lon="4.33664">
        <ele>157.6</ele>
        <time>2011-11-20T08:21:43Z</time>
      </trkpt>
      <trkpt lat="44.00333" lon="4.33674">
        <ele>157.9</ele>
        <time>2011-11-20T08:21:45Z</time>
      </trkpt>
      <trkpt lat="44.00332" lon="4.33684">
        <ele>158.7</ele>
        <time>2011-11-20T08:21:47Z</time>
      </trkpt>
      <trkpt lat="44.00331" lon="4.33694">
        <ele>159.3</ele>
        <time>2011-11-20T08:21:49Z</time>
      </trkpt>
      <trkpt lat="44.0033" lon="4.33703">
        <ele>159.8</ele>
        <time>2011-11-20T08:21:51Z</time>
      </trkpt>
      <trkpt lat="44.00329" lon="4.33712">
        <ele>160</ele>
        <time>2011-11-20T08:21:53Z</time>
      </trkpt>
      <trkpt lat="44.00328" lon="4.33722">
        <ele>160.3</ele>
        <time>2011-11-20T08:21:55Z</time>
      </trkpt>
      <trkpt lat="44.00327" lon="4.3373">
        <ele>160.7</ele>
        <time>2011-11-20T08:21:57Z</time>
      </trkpt>
      <trkpt lat="44.00327" lon="4.33738">
        <ele>161</ele>
        <time>2011-11-20T08:21:59Z</time>
      </trkpt>
      <trkpt lat="44.00326" lon="4.33748">
        <ele>161</ele>
        <time>2011-11-20T08:22:01Z</time>
      </trkpt>
      <trkpt lat="44.00326" lon="4.33758">
        <ele>161.2</ele>
        <time>2011-11-20T08:22:03Z</time>
      </trkpt>
      <trkpt lat="44.00325" lon="4.33768">
        <ele>161.2</ele>
        <time>2011-11-20T08:22:05Z</time>
      </trkpt>
      <trkpt lat="44.00325" lon="4.33778">
        <ele>161.1</ele>
        <time>2011-11-20T08:22:07Z</time>
      </trkpt>
      <trkpt lat="44.00324" lon="4.33788">
        <ele>161.1</ele>
        <time>2011-11-20T08:22:09Z</time>
      </trkpt>
      <trkpt lat="44.00324" lon="4.33799">
        <ele>161</ele>
        <time>2011-11-20T08:22:11Z</time>
      </trkpt>
      <trkpt lat="44.00323" lon="4.3381">
        <ele>160.9</ele>
        <time>2011-11-20T08:22:13Z</time>
      </trkpt>
      <trkpt lat="44.00323" lon="4.3382">
        <ele>160.7</ele>
        <time>2011-11-20T08:22:15Z</time>
      </trkpt>
      <trkpt lat="44.00322" lon="4.33831">
        <ele>160.7</ele>
        <time>2011-11-20T08:22:17Z</time>
      </trkpt>
      <trkpt lat="44.00321" lon="4.33841">
        <ele>161.2</ele>
        <time>2011-11-20T08:22:19Z</time>
      </trkpt>
      <trkpt lat="44.00321" lon="4.3385">
        <ele>161.3</ele>
        <time>2011-11-20T08:22:21Z</time>
      </trkpt>
      <trkpt lat="44.0032" lon="4.3386">
        <ele>161.4</ele>
        <time>2011-11-20T08:22:23Z</time>
      </trkpt>
      <trkpt lat="44.0032" lon="4.3387">
        <ele>161.3</ele>
        <time>2011-11-20T08:22:25Z</time>
      </trkpt>
      <trkpt lat="44.00319" lon="4.3388">
        <ele>161.4</ele>
        <time>2011-11-20T08:22:27Z</time>
      </trkpt>
      <trkpt lat="44.00319" lon="4.3389">
        <ele>161.6</ele>
        <time>2011-11-20T08:22:29Z</time>
      </trkpt>
      <trkpt lat="44.00318" lon="4.339">
        <ele>161.4</ele>
        <time>2011-11-20T08:22:31Z</time>
      </trkpt>
      <trkpt lat="44.00318" lon="4.3391">
        <ele>161.2</ele>
        <time>2011-11-20T08:22:33Z</time>
      </trkpt>
      <trkpt lat="44.00318" lon="4.3392">
        <ele>160.9</ele>
        <time>2011-11-20T08:22:35Z</time>
      </trkpt>
      <trkpt lat="44.00318" lon="4.33929">
        <ele>160.9</ele>
        <time>2011-11-20T08:22:37Z</time>
      </trkpt>
      <trkpt lat="44.00318" lon="4.33938">
        <ele>161.5</ele>
        <time>2011-11-20T08:22:39Z</time>
      </trkpt>
      <trkpt lat="44.00318" lon="4.33947">
        <ele>161.6</ele>
        <time>2011-11-20T08:22:41Z</time>
      </trkpt>
      <trkpt lat="44.00317" lon="4.33956">
        <ele>161.7</ele>
        <time>2011-11-20T08:22:43Z</time>
      </trkpt>
      <trkpt lat="44.00316" lon="4.33966">
        <ele>161.6</ele>
        <time>2011-11-20T08:22:45Z</time>
      </trkpt>
      <trkpt lat="44.00315" lon="4.33976">
        <ele>161.3</ele>
        <time>2011-11-20T08:22:47Z</time>
      </trkpt>
      <trkpt lat="44.00314" lon="4.33984">
        <ele>161.4</ele>
        <time>2011-11-20T08:22:49Z</time>
      </trkpt>
      <trkpt lat="44.00314" lon="4.33993">
        <ele>161.4</ele>
        <time>2011-11-20T08:22:51Z</time>
      </trkpt>
      <trkpt lat="44.00314" lon="4.34002">
        <ele>161.5</ele>
        <time>2011-11-20T08:22:53Z</time>
      </trkpt>
      <trkpt lat="44.00312" lon="4.34013">
        <ele>161.5</ele>
        <time>2011-11-20T08:22:55Z</time>
      </trkpt>
      <trkpt lat="44.0031" lon="4.34023">
        <ele>161.5</ele>
        <time>2011-11-20T08:22:57Z</time>
      </trkpt>
      <trkpt lat="44.00308" lon="4.34032">
        <ele>161.3</ele>
        <time>2011-11-20T08:22:59Z</time>
      </trkpt>
      <trkpt lat="44.00306" lon="4.34041">
        <ele>162</ele>
        <time>2011-11-20T08:23:01Z</time>
      </trkpt>
      <trkpt lat="44.00304" lon="4.34051">
        <ele>162.2</ele>
        <time>2011-11-20T08:23:03Z</time>
      </trkpt>
      <trkpt lat="44.00302" lon="4.3406">
        <ele>162.7</ele>
        <time>2011-11-20T08:23:05Z</time>
      </trkpt>
      <trkpt lat="44.003" lon="4.34069">
        <ele>163.2</ele>
        <time>2011-11-20T08:23:07Z</time>
      </trkpt>
      <trkpt lat="44.00299" lon="4.34079">
        <ele>163.3</ele>
        <time>2011-11-20T08:23:09Z</time>
      </trkpt>
      <trkpt lat="44.00298" lon="4.34089">
        <ele>163.6</ele>
        <time>2011-11-20T08:23:11Z</time>
      </trkpt>
      <trkpt lat="44.00296" lon="4.34097">
        <ele>163.8</ele>
        <time>2011-11-20T08:23:13Z</time>
      </trkpt>
      <trkpt lat="44.00294" lon="4.34106">
        <ele>163.9</ele>
        <time>2011-11-20T08:23:15Z</time>
      </trkpt>
      <trkpt lat="44.00293" lon="4.34116">
        <ele>164.2</ele>
        <time>2011-11-20T08:23:17Z</time>
      </trkpt>
      <trkpt lat="44.00291" lon="4.34126">
        <ele>164.6</ele>
        <time>2011-11-20T08:23:19Z</time>
      </trkpt>
      <trkpt lat="44.0029" lon="4.34135">
        <ele>164.9</ele>
        <time>2011-11-20T08:23:21Z</time>
      </trkpt>
      <trkpt lat="44.0029" lon="4.34143">
        <ele>165.3</ele>
        <time>2011-11-20T08:23:23Z</time>
      </trkpt>
      <trkpt lat="44.00289" lon="4.3415">
        <ele>165.7</ele>
        <time>2011-11-20T08:23:25Z</time>
      </trkpt>
      <trkpt lat="44.00289" lon="4.34157">
        <ele>166</ele>
        <time>2011-11-20T08:23:27Z</time>
      </trkpt>
      <trkpt lat="44.0029" lon="4.34164">
        <ele>167.1</ele>
        <time>2011-11-20T08:23:30Z</time>
      </trkpt>
      <trkpt lat="44.00292" lon="4.34172">
        <ele>168.2</ele>
        <time>2011-11-20T08:23:44Z</time>
      </trkpt>
      <trkpt lat="44.00294" lon="4.34184">
        <ele>165.1</ele>
        <time>2011-11-20T08:27:38Z</time>
      </trkpt>
      <trkpt lat="44.00295" lon="4.34192">
        <ele>165.4</ele>
        <time>2011-11-20T08:27:42Z</time>
      </trkpt>
      <trkpt lat="44.00296" lon="4.342">
        <ele>165.7</ele>
        <time>2011-11-20T08:27:45Z</time>
      </trkpt>
      <trkpt lat="44.00298" lon="4.34208">
        <ele>165.9</ele>
        <time>2011-11-20T08:27:48Z</time>
      </trkpt>
      <trkpt lat="44.00299" lon="4.34214">
        <ele>165.9</ele>
        <time>2011-11-20T08:27:50Z</time>
      </trkpt>
      <trkpt lat="44.00301" lon="4.3422">
        <ele>166.1</ele>
        <time>2011-11-20T08:27:52Z</time>
      </trkpt>
      <trkpt lat="44.00303" lon="4.34227">
        <ele>166.4</ele>
        <time>2011-11-20T08:27:54Z</time>
      </trkpt>
      <trkpt lat="44.00304" lon="4.34235">
        <ele>166.7</ele>
        <time>2011-11-20T08:27:56Z</time>
      </trkpt>
      <trkpt lat="44.00307" lon="4.34241">
        <ele>166.9</ele>
        <time>2011-11-20T08:27:58Z</time>
      </trkpt>
      <trkpt lat="44.00311" lon="4.34244">
        <ele>167.1</ele>
        <time>2011-11-20T08:28:00Z</time>
      </trkpt>
      <trkpt lat="44.00317" lon="4.34244">
        <ele>166.9</ele>
        <time>2011-11-20T08:28:03Z</time>
      </trkpt>
      <trkpt lat="44.00322" lon="4.34242">
        <ele>167.6</ele>
        <time>2011-11-20T08:28:05Z</time>
      </trkpt>
      <trkpt lat="44.00327" lon="4.34242">
        <ele>167.8</ele>
        <time>2011-11-20T08:28:07Z</time>
      </trkpt>
      <trkpt lat="44.00333" lon="4.34241">
        <ele>167.8</ele>
        <time>2011-11-20T08:28:09Z</time>
      </trkpt>
      <trkpt lat="44.00339" lon="4.34241">
        <ele>168</ele>
        <time>2011-11-20T08:28:11Z</time>
      </trkpt>
      <trkpt lat="44.00346" lon="4.3424">
        <ele>168.4</ele>
        <time>2011-11-20T08:28:13Z</time>
      </trkpt>
      <trkpt lat="44.00354" lon="4.3424">
        <ele>168.7</ele>
        <time>2011-11-20T08:28:15Z</time>
      </trkpt>
      <trkpt lat="44.00361" lon="4.34239">
        <ele>168.6</ele>
        <time>2011-11-20T08:28:17Z</time>
      </trkpt>
      <trkpt lat="44.00367" lon="4.3424">
        <ele>168.7</ele>
        <time>2011-11-20T08:28:19Z</time>
      </trkpt>
      <trkpt lat="44.00373" lon="4.34241">
        <ele>168.7</ele>
        <time>2011-11-20T08:28:21Z</time>
      </trkpt>
      <trkpt lat="44.00381" lon="4.3424">
        <ele>168.7</ele>
        <time>2011-11-20T08:28:23Z</time>
      </trkpt>
      <trkpt lat="44.00389" lon="4.34239">
        <ele>168.6</ele>
        <time>2011-11-20T08:28:25Z</time>
      </trkpt>
      <trkpt lat="44.00395" lon="4.34238">
        <ele>168.3</ele>
        <time>2011-11-20T08:28:27Z</time>
      </trkpt>
      <trkpt lat="44.00401" lon="4.34237">
        <ele>168.3</ele>
        <time>2011-11-20T08:28:29Z</time>
      </trkpt>
      <trkpt lat="44.00407" lon="4.34236">
        <ele>168.3</ele>
        <time>2011-11-20T08:28:31Z</time>
      </trkpt>
      <trkpt lat="44.00413" lon="4.34235">
        <ele>168.6</ele>
        <time>2011-11-20T08:28:33Z</time>
      </trkpt>
      <trkpt lat="44.00418" lon="4.34234">
        <ele>168.3</ele>
        <time>2011-11-20T08:28:35Z</time>
      </trkpt>
      <trkpt lat="44.00423" lon="4.34234">
        <ele>168.1</ele>
        <time>2011-11-20T08:28:37Z</time>
      </trkpt>
      <trkpt lat="44.00427" lon="4.34234">
        <ele>167.9</ele>
        <time>2011-11-20T08:28:39Z</time>
      </trkpt>
      <trkpt lat="44.00432" lon="4.34233">
        <ele>167.9</ele>
        <time>2011-11-20T08:28:41Z</time>
      </trkpt>
      <trkpt lat="44.00439" lon="4.34233">
        <ele>167.8</ele>
        <time>2011-11-20T08:28:44Z</time>
      </trkpt>
      <trkpt lat="44.00444" lon="4.34233">
        <ele>168.4</ele>
        <time>2011-11-20T08:28:46Z</time>
      </trkpt>
      <trkpt lat="44.00449" lon="4.34232">
        <ele>169.4</ele>
        <time>2011-11-20T08:28:48Z</time>
      </trkpt>
      <trkpt lat="44.00454" lon="4.34232">
        <ele>170.1</ele>
        <time>2011-11-20T08:28:50Z</time>
      </trkpt>
      <trkpt lat="44.0046" lon="4.34232">
        <ele>170.2</ele>
        <time>2011-11-20T08:28:52Z</time>
      </trkpt>
      <trkpt lat="44.00465" lon="4.34231">
        <ele>171</ele>
        <time>2011-11-20T08:28:54Z</time>
      </trkpt>
      <trkpt lat="44.00471" lon="4.34232">
        <ele>171</ele>
        <time>2011-11-20T08:28:57Z</time>
      </trkpt>
      <trkpt lat="44.00478" lon="4.34233">
        <ele>171.3</ele>
        <time>2011-11-20T08:29:00Z</time>
      </trkpt>
      <trkpt lat="44.00483" lon="4.34236">
        <ele>172.2</ele>
        <time>2011-11-20T08:29:03Z</time>
      </trkpt>
      <trkpt lat="44.00488" lon="4.3424">
        <ele>172.9</ele>
        <time>2011-11-20T08:29:06Z</time>
      </trkpt>
      <trkpt lat="44.00493" lon="4.34245">
        <ele>173.5</ele>
        <time>2011-11-20T08:29:09Z</time>
      </trkpt>
      <trkpt lat="44.00498" lon="4.34249">
        <ele>174.4</ele>
        <time>2011-11-20T08:29:11Z</time>
      </trkpt>
      <trkpt lat="44.00502" lon="4.34252">
        <ele>175.2</ele>
        <time>2011-11-20T08:29:13Z</time>
      </trkpt>
      <trkpt lat="44.00506" lon="4.34255">
        <ele>176.2</ele>
        <time>2011-11-20T08:29:15Z</time>
      </trkpt>
      <trkpt lat="44.00512" lon="4.34259">
        <ele>176.9</ele>
        <time>2011-11-20T08:29:17Z</time>
      </trkpt>
      <trkpt lat="44.00518" lon="4.34263">
        <ele>177.2</ele>
        <time>2011-11-20T08:29:20Z</time>
      </trkpt>
      <trkpt lat="44.00522" lon="4.34266">
        <ele>177.5</ele>
        <time>2011-11-20T08:29:22Z</time>
      </trkpt>
      <trkpt lat="44.00527" lon="4.34268">
        <ele>177.8</ele>
        <time>2011-11-20T08:29:24Z</time>
      </trkpt>
      <trkpt lat="44.00533" lon="4.34272">
        <ele>177.9</ele>
        <time>2011-11-20T08:29:26Z</time>
      </trkpt>
      <trkpt lat="44.00538" lon="4.34274">
        <ele>178</ele>
        <time>2011-11-20T08:29:28Z</time>
      </trkpt>
      <trkpt lat="44.00543" lon="4.34276">
        <ele>177.7</ele>
        <time>2011-11-20T08:29:30Z</time>
      </trkpt>
      <trkpt lat="44.00548" lon="4.3428">
        <ele>177.7</ele>
        <time>2011-11-20T08:29:32Z</time>
      </trkpt>
      <trkpt lat="44.00552" lon="4.34285">
        <ele>178.1</ele>
        <time>2011-11-20T08:29:34Z</time>
      </trkpt>
      <trkpt lat="44.00555" lon="4.34292">
        <ele>178.2</ele>
        <time>2011-11-20T08:29:36Z</time>
      </trkpt>
      <trkpt lat="44.00555" lon="4.34298">
        <ele>177.9</ele>
        <time>2011-11-20T08:29:38Z</time>
      </trkpt>
      <trkpt lat="44.00555" lon="4.34306">
        <ele>177.9</ele>
        <time>2011-11-20T08:29:40Z</time>
      </trkpt>
      <trkpt lat="44.00554" lon="4.34315">
        <ele>178.2</ele>
        <time>2011-11-20T08:29:42Z</time>
      </trkpt>
      <trkpt lat="44.00554" lon="4.34323">
        <ele>178.7</ele>
        <time>2011-11-20T08:29:44Z</time>
      </trkpt>
      <trkpt lat="44.00552" lon="4.34331">
        <ele>179.5</ele>
        <time>2011-11-20T08:29:46Z</time>
      </trkpt>
      <trkpt lat="44.0055" lon="4.34338">
        <ele>180.1</ele>
        <time>2011-11-20T08:29:48Z</time>
      </trkpt>
      <trkpt lat="44.00548" lon="4.34344">
        <ele>180.6</ele>
        <time>2011-11-20T08:29:50Z</time>
      </trkpt>
      <trkpt lat="44.00547" lon="4.34351">
        <ele>181</ele>
        <time>2011-11-20T08:29:52Z</time>
      </trkpt>
      <trkpt lat="44.00545" lon="4.34358">
        <ele>181.4</ele>
        <time>2011-11-20T08:29:54Z</time>
      </trkpt>
      <trkpt lat="44.00544" lon="4.34366">
        <ele>181.5</ele>
        <time>2011-11-20T08:29:56Z</time>
      </trkpt>
      <trkpt lat="44.00545" lon="4.34373">
        <ele>181.3</ele>
        <time>2011-11-20T08:29:58Z</time>
      </trkpt>
      <trkpt lat="44.00545" lon="4.34381">
        <ele>181.6</ele>
        <time>2011-11-20T08:30:00Z</time>
      </trkpt>
      <trkpt lat="44.00546" lon="4.34388">
        <ele>181.6</ele>
        <time>2011-11-20T08:30:02Z</time>
      </trkpt>
      <trkpt lat="44.00547" lon="4.34397">
        <ele>181</ele>
        <time>2011-11-20T08:30:04Z</time>
      </trkpt>
      <trkpt lat="44.00548" lon="4.34405">
        <ele>180.9</ele>
        <time>2011-11-20T08:30:06Z</time>
      </trkpt>
      <trkpt lat="44.00549" lon="4.34412">
        <ele>181.2</ele>
        <time>2011-11-20T08:30:08Z</time>
      </trkpt>
      <trkpt lat="44.0055" lon="4.34419">
        <ele>181.3</ele>
        <time>2011-11-20T08:30:10Z</time>
      </trkpt>
      <trkpt lat="44.00552" lon="4.34426">
        <ele>181.6</ele>
        <time>2011-11-20T08:30:12Z</time>
      </trkpt>
      <trkpt lat="44.00554" lon="4.34433">
        <ele>181.9</ele>
        <time>2011-11-20T08:30:14Z</time>
      </trkpt>
      <trkpt lat="44.00558" lon="4.3444">
        <ele>182.4</ele>
        <time>2011-11-20T08:30:17Z</time>
      </trkpt>
      <trkpt lat="44.00562" lon="4.34443">
        <ele>182.6</ele>
        <time>2011-11-20T08:30:19Z</time>
      </trkpt>
      <trkpt lat="44.00566" lon="4.34446">
        <ele>182.9</ele>
        <time>2011-11-20T08:30:21Z</time>
      </trkpt>
      <trkpt lat="44.00572" lon="4.34447">
        <ele>183.2</ele>
        <time>2011-11-20T08:30:23Z</time>
      </trkpt>
      <trkpt lat="44.00577" lon="4.34451">
        <ele>183.5</ele>
        <time>2011-11-20T08:30:26Z</time>
      </trkpt>
      <trkpt lat="44.00582" lon="4.34455">
        <ele>183.6</ele>
        <time>2011-11-20T08:30:28Z</time>
      </trkpt>
      <trkpt lat="44.00587" lon="4.34461">
        <ele>184.2</ele>
        <time>2011-11-20T08:30:30Z</time>
      </trkpt>
      <trkpt lat="44.00591" lon="4.34468">
        <ele>184.1</ele>
        <time>2011-11-20T08:30:32Z</time>
      </trkpt>
      <trkpt lat="44.00595" lon="4.34475">
        <ele>184</ele>
        <time>2011-11-20T08:30:34Z</time>
      </trkpt>
      <trkpt lat="44.00598" lon="4.34481">
        <ele>184.1</ele>
        <time>2011-11-20T08:30:36Z</time>
      </trkpt>
      <trkpt lat="44.00602" lon="4.34486">
        <ele>183.7</ele>
        <time>2011-11-20T08:30:38Z</time>
      </trkpt>
      <trkpt lat="44.00605" lon="4.3449">
        <ele>183.6</ele>
        <time>2011-11-20T08:30:40Z</time>
      </trkpt>
      <trkpt lat="44.00608" lon="4.34495">
        <ele>184.5</ele>
        <time>2011-11-20T08:30:42Z</time>
      </trkpt>
      <trkpt lat="44.00611" lon="4.34499">
        <ele>184.7</ele>
        <time>2011-11-20T08:30:44Z</time>
      </trkpt>
      <trkpt lat="44.00615" lon="4.34504">
        <ele>184.9</ele>
        <time>2011-11-20T08:30:46Z</time>
      </trkpt>
      <trkpt lat="44.00619" lon="4.3451">
        <ele>184.5</ele>
        <time>2011-11-20T08:30:49Z</time>
      </trkpt>
      <trkpt lat="44.00624" lon="4.34514">
        <ele>184.2</ele>
        <time>2011-11-20T08:30:52Z</time>
      </trkpt>
      <trkpt lat="44.00629" lon="4.34516">
        <ele>184.3</ele>
        <time>2011-11-20T08:30:54Z</time>
      </trkpt>
      <trkpt lat="44.00633" lon="4.3452">
        <ele>184.1</ele>
        <time>2011-11-20T08:30:56Z</time>
      </trkpt>
      <trkpt lat="44.00638" lon="4.34523">
        <ele>184.1</ele>
        <time>2011-11-20T08:30:58Z</time>
      </trkpt>
      <trkpt lat="44.00643" lon="4.34526">
        <ele>184.2</ele>
        <time>2011-11-20T08:31:00Z</time>
      </trkpt>
      <trkpt lat="44.00648" lon="4.34529">
        <ele>184.4</ele>
        <time>2011-11-20T08:31:02Z</time>
      </trkpt>
      <trkpt lat="44.00653" lon="4.34532">
        <ele>185.3</ele>
        <time>2011-11-20T08:31:05Z</time>
      </trkpt>
      <trkpt lat="44.00659" lon="4.34538">
        <ele>185.9</ele>
        <time>2011-11-20T08:31:10Z</time>
      </trkpt>
      <trkpt lat="44.00664" lon="4.34541">
        <ele>186.3</ele>
        <time>2011-11-20T08:31:12Z</time>
      </trkpt>
      <trkpt lat="44.00669" lon="4.34543">
        <ele>186.6</ele>
        <time>2011-11-20T08:31:15Z</time>
      </trkpt>
      <trkpt lat="44.00676" lon="4.34545">
        <ele>186.4</ele>
        <time>2011-11-20T08:31:18Z</time>
      </trkpt>
      <trkpt lat="44.0068" lon="4.34548">
        <ele>186.7</ele>
        <time>2011-11-20T08:31:20Z</time>
      </trkpt>
      <trkpt lat="44.00684" lon="4.3455">
        <ele>186.8</ele>
        <time>2011-11-20T08:31:22Z</time>
      </trkpt>
      <trkpt lat="44.0069" lon="4.34554">
        <ele>186.4</ele>
        <time>2011-11-20T08:31:25Z</time>
      </trkpt>
      <trkpt lat="44.00694" lon="4.34558">
        <ele>186.3</ele>
        <time>2011-11-20T08:31:27Z</time>
      </trkpt>
      <trkpt lat="44.00698" lon="4.34563">
        <ele>186.1</ele>
        <time>2011-11-20T08:31:29Z</time>
      </trkpt>
      <trkpt lat="44.00702" lon="4.34567">
        <ele>186</ele>
        <time>2011-11-20T08:31:31Z</time>
      </trkpt>
      <trkpt lat="44.00706" lon="4.34572">
        <ele>185.7</ele>
        <time>2011-11-20T08:31:33Z</time>
      </trkpt>
      <trkpt lat="44.00709" lon="4.34578">
        <ele>185.5</ele>
        <time>2011-11-20T08:31:35Z</time>
      </trkpt>
      <trkpt lat="44.00713" lon="4.34582">
        <ele>185.9</ele>
        <time>2011-11-20T08:31:37Z</time>
      </trkpt>
      <trkpt lat="44.00716" lon="4.34588">
        <ele>186.4</ele>
        <time>2011-11-20T08:31:39Z</time>
      </trkpt>
      <trkpt lat="44.0072" lon="4.34594">
        <ele>186.8</ele>
        <time>2011-11-20T08:31:41Z</time>
      </trkpt>
      <trkpt lat="44.00722" lon="4.34599">
        <ele>186.9</ele>
        <time>2011-11-20T08:31:43Z</time>
      </trkpt>
      <trkpt lat="44.00726" lon="4.34604">
        <ele>187.4</ele>
        <time>2011-11-20T08:31:45Z</time>
      </trkpt>
      <trkpt lat="44.0073" lon="4.34609">
        <ele>187.4</ele>
        <time>2011-11-20T08:31:47Z</time>
      </trkpt>
      <trkpt lat="44.00733" lon="4.34614">
        <ele>187.6</ele>
        <time>2011-11-20T08:31:49Z</time>
      </trkpt>
      <trkpt lat="44.00736" lon="4.34619">
        <ele>188</ele>
        <time>2011-11-20T08:31:51Z</time>
      </trkpt>
      <trkpt lat="44.0074" lon="4.34624">
        <ele>188.1</ele>
        <time>2011-11-20T08:31:53Z</time>
      </trkpt>
      <trkpt lat="44.00743" lon="4.3463">
        <ele>188</ele>
        <time>2011-11-20T08:31:55Z</time>
      </trkpt>
      <trkpt lat="44.00747" lon="4.34635">
        <ele>187.9</ele>
        <time>2011-11-20T08:31:57Z</time>
      </trkpt>
      <trkpt lat="44.00751" lon="4.34641">
        <ele>188.6</ele>
        <time>2011-11-20T08:31:59Z</time>
      </trkpt>
      <trkpt lat="44.00755" lon="4.3465">
        <ele>189.1</ele>
        <time>2011-11-20T08:32:01Z</time>
      </trkpt>
      <trkpt lat="44.0076" lon="4.3466">
        <ele>189.2</ele>
        <time>2011-11-20T08:32:03Z</time>
      </trkpt>
      <trkpt lat="44.00764" lon="4.34667">
        <ele>189.8</ele>
        <time>2011-11-20T08:32:05Z</time>
      </trkpt>
      <trkpt lat="44.00768" lon="4.34673">
        <ele>189.5</ele>
        <time>2011-11-20T08:32:07Z</time>
      </trkpt>
      <trkpt lat="44.00771" lon="4.34679">
        <ele>189.3</ele>
        <time>2011-11-20T08:32:09Z</time>
      </trkpt>
      <trkpt lat="44.00775" lon="4.34683">
        <ele>189.1</ele>
        <time>2011-11-20T08:32:11Z</time>
      </trkpt>
      <trkpt lat="44.00779" lon="4.34689">
        <ele>189.2</ele>
        <time>2011-11-20T08:32:14Z</time>
      </trkpt>
      <trkpt lat="44.00783" lon="4.34694">
        <ele>189.2</ele>
        <time>2011-11-20T08:32:16Z</time>
      </trkpt>
      <trkpt lat="44.00787" lon="4.347">
        <ele>189.8</ele>
        <time>2011-11-20T08:32:19Z</time>
      </trkpt>
      <trkpt lat="44.0079" lon="4.34706">
        <ele>190.4</ele>
        <time>2011-11-20T08:32:22Z</time>
      </trkpt>
      <trkpt lat="44.00793" lon="4.34711">
        <ele>190.9</ele>
        <time>2011-11-20T08:32:24Z</time>
      </trkpt>
      <trkpt lat="44.00799" lon="4.34719">
        <ele>191.2</ele>
        <time>2011-11-20T08:32:26Z</time>
      </trkpt>
      <trkpt lat="44.00803" lon="4.34725">
        <ele>191.4</ele>
        <time>2011-11-20T08:32:29Z</time>
      </trkpt>
      <trkpt lat="44.00807" lon="4.3473">
        <ele>191.6</ele>
        <time>2011-11-20T08:32:31Z</time>
      </trkpt>
      <trkpt lat="44.0081" lon="4.34735">
        <ele>191.6</ele>
        <time>2011-11-20T08:32:33Z</time>
      </trkpt>
      <trkpt lat="44.00814" lon="4.3474">
        <ele>191.4</ele>
        <time>2011-11-20T08:32:35Z</time>
      </trkpt>
      <trkpt lat="44.00818" lon="4.34746">
        <ele>191.5</ele>
        <time>2011-11-20T08:32:37Z</time>
      </trkpt>
      <trkpt lat="44.00822" lon="4.34752">
        <ele>191.7</ele>
        <time>2011-11-20T08:32:40Z</time>
      </trkpt>
      <trkpt lat="44.00825" lon="4.34757">
        <ele>192.3</ele>
        <time>2011-11-20T08:32:42Z</time>
      </trkpt>
      <trkpt lat="44.00829" lon="4.34762">
        <ele>192.7</ele>
        <time>2011-11-20T08:32:44Z</time>
      </trkpt>
      <trkpt lat="44.00832" lon="4.3477">
        <ele>192.8</ele>
        <time>2011-11-20T08:32:47Z</time>
      </trkpt>
      <trkpt lat="44.00833" lon="4.34779">
        <ele>193.7</ele>
        <time>2011-11-20T08:32:50Z</time>
      </trkpt>
      <trkpt lat="44.00833" lon="4.34787">
        <ele>194.7</ele>
        <time>2011-11-20T08:32:52Z</time>
      </trkpt>
      <trkpt lat="44.00835" lon="4.34792">
        <ele>195.4</ele>
        <time>2011-11-20T08:32:54Z</time>
      </trkpt>
      <trkpt lat="44.00839" lon="4.348">
        <ele>195.5</ele>
        <time>2011-11-20T08:32:57Z</time>
      </trkpt>
      <trkpt lat="44.00842" lon="4.34806">
        <ele>195.6</ele>
        <time>2011-11-20T08:32:59Z</time>
      </trkpt>
      <trkpt lat="44.00845" lon="4.34811">
        <ele>195.5</ele>
        <time>2011-11-20T08:33:01Z</time>
      </trkpt>
      <trkpt lat="44.00849" lon="4.34818">
        <ele>194.7</ele>
        <time>2011-11-20T08:33:04Z</time>
      </trkpt>
      <trkpt lat="44.00851" lon="4.34824">
        <ele>194.7</ele>
        <time>2011-11-20T08:33:06Z</time>
      </trkpt>
      <trkpt lat="44.00854" lon="4.34829">
        <ele>194.6</ele>
        <time>2011-11-20T08:33:08Z</time>
      </trkpt>
      <trkpt lat="44.00857" lon="4.34834">
        <ele>194.9</ele>
        <time>2011-11-20T08:33:10Z</time>
      </trkpt>
      <trkpt lat="44.00861" lon="4.3484">
        <ele>195.7</ele>
        <time>2011-11-20T08:33:13Z</time>
      </trkpt>
      <trkpt lat="44.00865" lon="4.34844">
        <ele>196.2</ele>
        <time>2011-11-20T08:33:15Z</time>
      </trkpt>
      <trkpt lat="44.0087" lon="4.34847">
        <ele>196.3</ele>
        <time>2011-11-20T08:33:18Z</time>
      </trkpt>
      <trkpt lat="44.00875" lon="4.3485">
        <ele>196.4</ele>
        <time>2011-11-20T08:33:20Z</time>
      </trkpt>
      <trkpt lat="44.00878" lon="4.34855">
        <ele>196.6</ele>
        <time>2011-11-20T08:33:22Z</time>
      </trkpt>
      <trkpt lat="44.00883" lon="4.3486">
        <ele>196.5</ele>
        <time>2011-11-20T08:33:25Z</time>
      </trkpt>
      <trkpt lat="44.00886" lon="4.34866">
        <ele>197</ele>
        <time>2011-11-20T08:33:27Z</time>
      </trkpt>
      <trkpt lat="44.00891" lon="4.34873">
        <ele>197.6</ele>
        <time>2011-11-20T08:33:29Z</time>
      </trkpt>
      <trkpt lat="44.00896" lon="4.3488">
        <ele>197.9</ele>
        <time>2011-11-20T08:33:31Z</time>
      </trkpt>
      <trkpt lat="44.00901" lon="4.34886">
        <ele>197.9</ele>
        <time>2011-11-20T08:33:33Z</time>
      </trkpt>
      <trkpt lat="44.00906" lon="4.34894">
        <ele>198.2</ele>
        <time>2011-11-20T08:33:35Z</time>
      </trkpt>
      <trkpt lat="44.00913" lon="4.349">
        <ele>198.4</ele>
        <time>2011-11-20T08:33:37Z</time>
      </trkpt>
      <trkpt lat="44.00919" lon="4.34907">
        <ele>199.1</ele>
        <time>2011-11-20T08:33:39Z</time>
      </trkpt>
      <trkpt lat="44.00924" lon="4.34914">
        <ele>199.8</ele>
        <time>2011-11-20T08:33:41Z</time>
      </trkpt>
      <trkpt lat="44.00928" lon="4.34921">
        <ele>200.1</ele>
        <time>2011-11-20T08:33:43Z</time>
      </trkpt>
      <trkpt lat="44.00932" lon="4.34928">
        <ele>199.7</ele>
        <time>2011-11-20T08:33:45Z</time>
      </trkpt>
      <trkpt lat="44.00935" lon="4.34933">
        <ele>199.7</ele>
        <time>2011-11-20T08:33:47Z</time>
      </trkpt>
      <trkpt lat="44.00939" lon="4.34939">
        <ele>200</ele>
        <time>2011-11-20T08:33:49Z</time>
      </trkpt>
      <trkpt lat="44.00943" lon="4.34944">
        <ele>199.9</ele>
        <time>2011-11-20T08:33:51Z</time>
      </trkpt>
      <trkpt lat="44.00947" lon="4.34951">
        <ele>200</ele>
        <time>2011-11-20T08:33:53Z</time>
      </trkpt>
      <trkpt lat="44.00951" lon="4.34957">
        <ele>200.3</ele>
        <time>2011-11-20T08:33:55Z</time>
      </trkpt>
      <trkpt lat="44.00956" lon="4.34963">
        <ele>200.8</ele>
        <time>2011-11-20T08:33:57Z</time>
      </trkpt>
      <trkpt lat="44.0096" lon="4.34969">
        <ele>201.3</ele>
        <time>2011-11-20T08:33:59Z</time>
      </trkpt>
      <trkpt lat="44.00966" lon="4.34975">
        <ele>201.5</ele>
        <time>2011-11-20T08:34:01Z</time>
      </trkpt>
      <trkpt lat="44.0097" lon="4.3498">
        <ele>201.7</ele>
        <time>2011-11-20T08:34:03Z</time>
      </trkpt>
      <trkpt lat="44.00974" lon="4.34985">
        <ele>201.6</ele>
        <time>2011-11-20T08:34:05Z</time>
      </trkpt>
      <trkpt lat="44.00971" lon="4.34997">
        <ele>201.8</ele>
        <time>2011-11-20T08:34:14Z</time>
      </trkpt>
      <trkpt lat="44.00966" lon="4.35003">
        <ele>202.3</ele>
        <time>2011-11-20T08:34:17Z</time>
      </trkpt>
      <trkpt lat="44.00964" lon="4.35008">
        <ele>202.7</ele>
        <time>2011-11-20T08:34:19Z</time>
      </trkpt>
      <trkpt lat="44.00958" lon="4.35013">
        <ele>203.5</ele>
        <time>2011-11-20T08:34:22Z</time>
      </trkpt>
      <trkpt lat="44.00954" lon="4.35017">
        <ele>203.7</ele>
        <time>2011-11-20T08:34:25Z</time>
      </trkpt>
      <trkpt lat="44.00949" lon="4.35023">
        <ele>203.8</ele>
        <time>2011-11-20T08:34:28Z</time>
      </trkpt>
      <trkpt lat="44.00945" lon="4.35026">
        <ele>204.2</ele>
        <time>2011-11-20T08:34:31Z</time>
      </trkpt>
      <trkpt lat="44.0094" lon="4.35031">
        <ele>204.3</ele>
        <time>2011-11-20T08:34:34Z</time>
      </trkpt>
      <trkpt lat="44.00933" lon="4.35045">
        <ele>206</ele>
        <time>2011-11-20T08:34:42Z</time>
      </trkpt>
      <trkpt lat="44.00932" lon="4.35051">
        <ele>206.4</ele>
        <time>2011-11-20T08:34:45Z</time>
      </trkpt>
      <trkpt lat="44.00914" lon="4.35067">
        <ele>205.8</ele>
        <time>2011-11-20T08:35:02Z</time>
      </trkpt>
      <trkpt lat="44.00891" lon="4.35082">
        <ele>209.2</ele>
        <time>2011-11-20T08:38:02Z</time>
      </trkpt>
      <trkpt lat="44.00887" lon="4.35087">
        <ele>209.4</ele>
        <time>2011-11-20T08:38:04Z</time>
      </trkpt>
      <trkpt lat="44.00879" lon="4.35094">
        <ele>209.7</ele>
        <time>2011-11-20T08:38:06Z</time>
      </trkpt>
      <trkpt lat="44.00872" lon="4.35102">
        <ele>210</ele>
        <time>2011-11-20T08:38:08Z</time>
      </trkpt>
      <trkpt lat="44.00867" lon="4.35109">
        <ele>209.8</ele>
        <time>2011-11-20T08:38:10Z</time>
      </trkpt>
      <trkpt lat="44.00862" lon="4.35115">
        <ele>209.9</ele>
        <time>2011-11-20T08:38:12Z</time>
      </trkpt>
      <trkpt lat="44.00857" lon="4.35122">
        <ele>209.9</ele>
        <time>2011-11-20T08:38:14Z</time>
      </trkpt>
      <trkpt lat="44.00851" lon="4.35128">
        <ele>209.6</ele>
        <time>2011-11-20T08:38:16Z</time>
      </trkpt>
      <trkpt lat="44.00845" lon="4.35133">
        <ele>209.5</ele>
        <time>2011-11-20T08:38:18Z</time>
      </trkpt>
      <trkpt lat="44.0084" lon="4.35138">
        <ele>209</ele>
        <time>2011-11-20T08:38:20Z</time>
      </trkpt>
      <trkpt lat="44.00834" lon="4.35142">
        <ele>208.6</ele>
        <time>2011-11-20T08:38:22Z</time>
      </trkpt>
      <trkpt lat="44.0083" lon="4.35147">
        <ele>208</ele>
        <time>2011-11-20T08:38:24Z</time>
      </trkpt>
      <trkpt lat="44.00826" lon="4.35152">
        <ele>207.5</ele>
        <time>2011-11-20T08:38:26Z</time>
      </trkpt>
      <trkpt lat="44.00823" lon="4.35157">
        <ele>207.4</ele>
        <time>2011-11-20T08:38:28Z</time>
      </trkpt>
      <trkpt lat="44.00818" lon="4.35162">
        <ele>207.4</ele>
        <time>2011-11-20T08:38:30Z</time>
      </trkpt>
      <trkpt lat="44.00814" lon="4.35166">
        <ele>207.1</ele>
        <time>2011-11-20T08:38:32Z</time>
      </trkpt>
      <trkpt lat="44.00809" lon="4.35171">
        <ele>207.4</ele>
        <time>2011-11-20T08:38:34Z</time>
      </trkpt>
      <trkpt lat="44.00803" lon="4.35176">
        <ele>207.1</ele>
        <time>2011-11-20T08:38:36Z</time>
      </trkpt>
      <trkpt lat="44.00798" lon="4.35181">
        <ele>207</ele>
        <time>2011-11-20T08:38:38Z</time>
      </trkpt>
      <trkpt lat="44.00794" lon="4.35186">
        <ele>206.9</ele>
        <time>2011-11-20T08:38:40Z</time>
      </trkpt>
      <trkpt lat="44.00789" lon="4.35192">
        <ele>207.1</ele>
        <time>2011-11-20T08:38:42Z</time>
      </trkpt>
      <trkpt lat="44.00785" lon="4.35197">
        <ele>207.2</ele>
        <time>2011-11-20T08:38:44Z</time>
      </trkpt>
      <trkpt lat="44.00781" lon="4.35203">
        <ele>207.7</ele>
        <time>2011-11-20T08:38:46Z</time>
      </trkpt>
      <trkpt lat="44.00779" lon="4.3521">
        <ele>207.9</ele>
        <time>2011-11-20T08:38:48Z</time>
      </trkpt>
      <trkpt lat="44.00776" lon="4.35218">
        <ele>207.8</ele>
        <time>2011-11-20T08:38:50Z</time>
      </trkpt>
      <trkpt lat="44.00774" lon="4.35225">
        <ele>207.6</ele>
        <time>2011-11-20T08:38:52Z</time>
      </trkpt>
      <trkpt lat="44.00772" lon="4.35232">
        <ele>206.8</ele>
        <time>2011-11-20T08:38:54Z</time>
      </trkpt>
      <trkpt lat="44.00769" lon="4.35239">
        <ele>204.7</ele>
        <time>2011-11-20T08:38:56Z</time>
      </trkpt>
      <trkpt lat="44.00765" lon="4.35245">
        <ele>204.3</ele>
        <time>2011-11-20T08:38:58Z</time>
      </trkpt>
      <trkpt lat="44.0076" lon="4.35251">
        <ele>204.6</ele>
        <time>2011-11-20T08:39:00Z</time>
      </trkpt>
      <trkpt lat="44.00754" lon="4.35256">
        <ele>204.2</ele>
        <time>2011-11-20T08:39:02Z</time>
      </trkpt>
      <trkpt lat="44.0075" lon="4.35263">
        <ele>203.1</ele>
        <time>2011-11-20T08:39:04Z</time>
      </trkpt>
      <trkpt lat="44.00744" lon="4.35269">
        <ele>203</ele>
        <time>2011-11-20T08:39:06Z</time>
      </trkpt>
      <trkpt lat="44.00738" lon="4.35275">
        <ele>202.1</ele>
        <time>2011-11-20T08:39:08Z</time>
      </trkpt>
      <trkpt lat="44.0073" lon="4.35282">
        <ele>201.3</ele>
        <time>2011-11-20T08:39:10Z</time>
      </trkpt>
      <trkpt lat="44.00724" lon="4.35289">
        <ele>200.7</ele>
        <time>2011-11-20T08:39:12Z</time>
      </trkpt>
      <trkpt lat="44.00721" lon="4.35294">
        <ele>201</ele>
        <time>2011-11-20T08:39:13Z</time>
      </trkpt>
      <trkpt lat="44.00718" lon="4.35299">
        <ele>201</ele>
        <time>2011-11-20T08:39:14Z</time>
      </trkpt>
      <trkpt lat="44.00712" lon="4.35309">
        <ele>200.8</ele>
        <time>2011-11-20T08:39:16Z</time>
      </trkpt>
      <trkpt lat="44.00707" lon="4.35318">
        <ele>200.6</ele>
        <time>2011-11-20T08:39:18Z</time>
      </trkpt>
      <trkpt lat="44.007" lon="4.35326">
        <ele>200.1</ele>
        <time>2011-11-20T08:39:20Z</time>
      </trkpt>
      <trkpt lat="44.00693" lon="4.35334">
        <ele>199.6</ele>
        <time>2011-11-20T08:39:22Z</time>
      </trkpt>
      <trkpt lat="44.00689" lon="4.35338">
        <ele>199.4</ele>
        <time>2011-11-20T08:39:23Z</time>
      </trkpt>
      <trkpt lat="44.00685" lon="4.35342">
        <ele>199.2</ele>
        <time>2011-11-20T08:39:24Z</time>
      </trkpt>
      <trkpt lat="44.00678" lon="4.35348">
        <ele>198.6</ele>
        <time>2011-11-20T08:39:26Z</time>
      </trkpt>
      <trkpt lat="44.0067" lon="4.35355">
        <ele>197.6</ele>
        <time>2011-11-20T08:39:28Z</time>
      </trkpt>
      <trkpt lat="44.00666" lon="4.35359">
        <ele>197</ele>
        <time>2011-11-20T08:39:29Z</time>
      </trkpt>
      <trkpt lat="44.00662" lon="4.35363">
        <ele>196.6</ele>
        <time>2011-11-20T08:39:30Z</time>
      </trkpt>
      <trkpt lat="44.00658" lon="4.35368">
        <ele>196.3</ele>
        <time>2011-11-20T08:39:31Z</time>
      </trkpt>
      <trkpt lat="44.00653" lon="4.35372">
        <ele>195.7</ele>
        <time>2011-11-20T08:39:32Z</time>
      </trkpt>
      <trkpt lat="44.00648" lon="4.35375">
        <ele>195.2</ele>
        <time>2011-11-20T08:39:33Z</time>
      </trkpt>
      <trkpt lat="44.00644" lon="4.35379">
        <ele>194.7</ele>
        <time>2011-11-20T08:39:34Z</time>
      </trkpt>
      <trkpt lat="44.00639" lon="4.35382">
        <ele>194.3</ele>
        <time>2011-11-20T08:39:35Z</time>
      </trkpt>
      <trkpt lat="44.00634" lon="4.35385">
        <ele>194</ele>
        <time>2011-11-20T08:39:36Z</time>
      </trkpt>
      <trkpt lat="44.0063" lon="4.35388">
        <ele>193.6</ele>
        <time>2011-11-20T08:39:37Z</time>
      </trkpt>
      <trkpt lat="44.00626" lon="4.35392">
        <ele>192.9</ele>
        <time>2011-11-20T08:39:38Z</time>
      </trkpt>
      <trkpt lat="44.00621" lon="4.35396">
        <ele>192.5</ele>
        <time>2011-11-20T08:39:39Z</time>
      </trkpt>
      <trkpt lat="44.00616" lon="4.35401">
        <ele>192.4</ele>
        <time>2011-11-20T08:39:40Z</time>
      </trkpt>
      <trkpt lat="44.00611" lon="4.35406">
        <ele>192.3</ele>
        <time>2011-11-20T08:39:41Z</time>
      </trkpt>
      <trkpt lat="44.00605" lon="4.35412">
        <ele>192.2</ele>
        <time>2011-11-20T08:39:42Z</time>
      </trkpt>
      <trkpt lat="44.006" lon="4.35417">
        <ele>192</ele>
        <time>2011-11-20T08:39:43Z</time>
      </trkpt>
      <trkpt lat="44.00596" lon="4.35422">
        <ele>191.9</ele>
        <time>2011-11-20T08:39:44Z</time>
      </trkpt>
      <trkpt lat="44.00591" lon="4.35428">
        <ele>191.8</ele>
        <time>2011-11-20T08:39:45Z</time>
      </trkpt>
      <trkpt lat="44.00587" lon="4.35433">
        <ele>191.6</ele>
        <time>2011-11-20T08:39:46Z</time>
      </trkpt>
      <trkpt lat="44.00582" lon="4.35439">
        <ele>191.6</ele>
        <time>2011-11-20T08:39:47Z</time>
      </trkpt>
      <trkpt lat="44.00577" lon="4.35443">
        <ele>191.3</ele>
        <time>2011-11-20T08:39:48Z</time>
      </trkpt>
      <trkpt lat="44.00572" lon="4.35447">
        <ele>191.2</ele>
        <time>2011-11-20T08:39:49Z</time>
      </trkpt>
      <trkpt lat="44.00566" lon="4.3545">
        <ele>190.9</ele>
        <time>2011-11-20T08:39:50Z</time>
      </trkpt>
      <trkpt lat="44.00562" lon="4.35454">
        <ele>190.5</ele>
        <time>2011-11-20T08:39:51Z</time>
      </trkpt>
      <trkpt lat="44.00556" lon="4.3546">
        <ele>190.2</ele>
        <time>2011-11-20T08:39:53Z</time>
      </trkpt>
      <trkpt lat="44.00548" lon="4.35464">
        <ele>190.1</ele>
        <time>2011-11-20T08:39:55Z</time>
      </trkpt>
      <trkpt lat="44.00541" lon="4.35466">
        <ele>189.7</ele>
        <time>2011-11-20T08:39:57Z</time>
      </trkpt>
      <trkpt lat="44.00534" lon="4.35468">
        <ele>189.8</ele>
        <time>2011-11-20T08:39:59Z</time>
      </trkpt>
      <trkpt lat="44.00527" lon="4.3547">
        <ele>189.6</ele>
        <time>2011-11-20T08:40:01Z</time>
      </trkpt>
      <trkpt lat="44.0052" lon="4.35472">
        <ele>189.2</ele>
        <time>2011-11-20T08:40:03Z</time>
      </trkpt>
      <trkpt lat="44.00515" lon="4.35474">
        <ele>188.9</ele>
        <time>2011-11-20T08:40:05Z</time>
      </trkpt>
      <trkpt lat="44.0051" lon="4.35475">
        <ele>187.4</ele>
        <time>2011-11-20T08:40:08Z</time>
      </trkpt>
      <trkpt lat="44.00501" lon="4.35478">
        <ele>183</ele>
        <time>2011-11-20T08:40:27Z</time>
      </trkpt>
      <trkpt lat="44.00508" lon="4.35474">
        <ele>182.8</ele>
        <time>2011-11-20T08:40:30Z</time>
      </trkpt>
      <trkpt lat="44.00515" lon="4.35471">
        <ele>182.7</ele>
        <time>2011-11-20T08:40:32Z</time>
      </trkpt>
      <trkpt lat="44.00523" lon="4.35467">
        <ele>183</ele>
        <time>2011-11-20T08:40:34Z</time>
      </trkpt>
      <trkpt lat="44.0053" lon="4.35465">
        <ele>183.3</ele>
        <time>2011-11-20T08:40:36Z</time>
      </trkpt>
      <trkpt lat="44.00537" lon="4.35463">
        <ele>183.5</ele>
        <time>2011-11-20T08:40:38Z</time>
      </trkpt>
      <trkpt lat="44.00545" lon="4.35461">
        <ele>183.4</ele>
        <time>2011-11-20T08:40:40Z</time>
      </trkpt>
      <trkpt lat="44.00553" lon="4.35461">
        <ele>183.6</ele>
        <time>2011-11-20T08:40:42Z</time>
      </trkpt>
      <trkpt lat="44.00561" lon="4.35463">
        <ele>183.9</ele>
        <time>2011-11-20T08:40:44Z</time>
      </trkpt>
      <trkpt lat="44.00567" lon="4.35465">
        <ele>183.5</ele>
        <time>2011-11-20T08:40:46Z</time>
      </trkpt>
      <trkpt lat="44.00572" lon="4.35465">
        <ele>183.7</ele>
        <time>2011-11-20T08:40:49Z</time>
      </trkpt>
      <trkpt lat="44.00578" lon="4.35465">
        <ele>183.4</ele>
        <time>2011-11-20T08:40:51Z</time>
      </trkpt>
      <trkpt lat="44.00585" lon="4.35467">
        <ele>183.2</ele>
        <time>2011-11-20T08:40:53Z</time>
      </trkpt>
      <trkpt lat="44.00592" lon="4.35469">
        <ele>183.8</ele>
        <time>2011-11-20T08:40:55Z</time>
      </trkpt>
      <trkpt lat="44.00598" lon="4.3547">
        <ele>184.1</ele>
        <time>2011-11-20T08:40:57Z</time>
      </trkpt>
      <trkpt lat="44.00604" lon="4.35472">
        <ele>184</ele>
        <time>2011-11-20T08:41:00Z</time>
      </trkpt>
      <trkpt lat="44.0061" lon="4.35474">
        <ele>184.1</ele>
        <time>2011-11-20T08:41:03Z</time>
      </trkpt>
      <trkpt lat="44.00617" lon="4.35475">
        <ele>184.4</ele>
        <time>2011-11-20T08:41:06Z</time>
      </trkpt>
      <trkpt lat="44.00623" lon="4.35475">
        <ele>185.1</ele>
        <time>2011-11-20T08:41:09Z</time>
      </trkpt>
      <trkpt lat="44.00628" lon="4.35475">
        <ele>184.7</ele>
        <time>2011-11-20T08:41:11Z</time>
      </trkpt>
      <trkpt lat="44.00633" lon="4.35476">
        <ele>184.7</ele>
        <time>2011-11-20T08:41:14Z</time>
      </trkpt>
      <trkpt lat="44.00639" lon="4.35476">
        <ele>185.7</ele>
        <time>2011-11-20T08:41:17Z</time>
      </trkpt>
      <trkpt lat="44.00644" lon="4.35477">
        <ele>186.2</ele>
        <time>2011-11-20T08:41:20Z</time>
      </trkpt>
      <trkpt lat="44.0065" lon="4.35478">
        <ele>186.4</ele>
        <time>2011-11-20T08:41:22Z</time>
      </trkpt>
      <trkpt lat="44.00655" lon="4.35478">
        <ele>186.7</ele>
        <time>2011-11-20T08:41:24Z</time>
      </trkpt>
      <trkpt lat="44.00662" lon="4.35478">
        <ele>186.8</ele>
        <time>2011-11-20T08:41:26Z</time>
      </trkpt>
      <trkpt lat="44.00669" lon="4.35478">
        <ele>187.1</ele>
        <time>2011-11-20T08:41:28Z</time>
      </trkpt>
      <trkpt lat="44.00676" lon="4.35478">
        <ele>187.5</ele>
        <time>2011-11-20T08:41:30Z</time>
      </trkpt>
      <trkpt lat="44.00684" lon="4.35477">
        <ele>187.8</ele>
        <time>2011-11-20T08:41:32Z</time>
      </trkpt>
      <trkpt lat="44.00691" lon="4.35476">
        <ele>188.5</ele>
        <time>2011-11-20T08:41:34Z</time>
      </trkpt>
      <trkpt lat="44.00699" lon="4.35476">
        <ele>189.1</ele>
        <time>2011-11-20T08:41:36Z</time>
      </trkpt>
      <trkpt lat="44.00706" lon="4.35475">
        <ele>189.4</ele>
        <time>2011-11-20T08:41:38Z</time>
      </trkpt>
      <trkpt lat="44.00712" lon="4.35475">
        <ele>189.6</ele>
        <time>2011-11-20T08:41:40Z</time>
      </trkpt>
      <trkpt lat="44.00718" lon="4.35474">
        <ele>189.4</ele>
        <time>2011-11-20T08:41:42Z</time>
      </trkpt>
      <trkpt lat="44.00724" lon="4.35473">
        <ele>189.1</ele>
        <time>2011-11-20T08:41:44Z</time>
      </trkpt>
      <trkpt lat="44.0073" lon="4.35472">
        <ele>189.6</ele>
        <time>2011-11-20T08:41:46Z</time>
      </trkpt>
      <trkpt lat="44.00736" lon="4.35472">
        <ele>190.4</ele>
        <time>2011-11-20T08:41:48Z</time>
      </trkpt>
      <trkpt lat="44.00743" lon="4.35472">
        <ele>191.1</ele>
        <time>2011-11-20T08:41:50Z</time>
      </trkpt>
      <trkpt lat="44.0075" lon="4.35473">
        <ele>191.2</ele>
        <time>2011-11-20T08:41:52Z</time>
      </trkpt>
      <trkpt lat="44.00756" lon="4.35473">
        <ele>191.5</ele>
        <time>2011-11-20T08:41:55Z</time>
      </trkpt>
      <trkpt lat="44.00763" lon="4.35472">
        <ele>194.8</ele>
        <time>2011-11-20T08:42:18Z</time>
      </trkpt>
      <trkpt lat="44.00768" lon="4.35472">
        <ele>194.8</ele>
        <time>2011-11-20T08:42:20Z</time>
      </trkpt>
      <trkpt lat="44.00772" lon="4.35472">
        <ele>194.9</ele>
        <time>2011-11-20T08:42:22Z</time>
      </trkpt>
      <trkpt lat="44.00777" lon="4.35471">
        <ele>195</ele>
        <time>2011-11-20T08:42:24Z</time>
      </trkpt>
      <trkpt lat="44.00782" lon="4.35471">
        <ele>195.3</ele>
        <time>2011-11-20T08:42:26Z</time>
      </trkpt>
      <trkpt lat="44.00789" lon="4.35471">
        <ele>195.8</ele>
        <time>2011-11-20T08:42:28Z</time>
      </trkpt>
      <trkpt lat="44.00795" lon="4.3547">
        <ele>195.9</ele>
        <time>2011-11-20T08:42:30Z</time>
      </trkpt>
      <trkpt lat="44.008" lon="4.35469">
        <ele>196.1</ele>
        <time>2011-11-20T08:42:32Z</time>
      </trkpt>
      <trkpt lat="44.00805" lon="4.35468">
        <ele>196</ele>
        <time>2011-11-20T08:42:34Z</time>
      </trkpt>
      <trkpt lat="44.00809" lon="4.35468">
        <ele>196.5</ele>
        <time>2011-11-20T08:42:36Z</time>
      </trkpt>
      <trkpt lat="44.00816" lon="4.35467">
        <ele>196.9</ele>
        <time>2011-11-20T08:42:39Z</time>
      </trkpt>
      <trkpt lat="44.00821" lon="4.35467">
        <ele>197.5</ele>
        <time>2011-11-20T08:42:41Z</time>
      </trkpt>
      <trkpt lat="44.00826" lon="4.35466">
        <ele>197.9</ele>
        <time>2011-11-20T08:42:43Z</time>
      </trkpt>
      <trkpt lat="44.00832" lon="4.35466">
        <ele>198.1</ele>
        <time>2011-11-20T08:42:45Z</time>
      </trkpt>
      <trkpt lat="44.00837" lon="4.35465">
        <ele>198.2</ele>
        <time>2011-11-20T08:42:47Z</time>
      </trkpt>
      <trkpt lat="44.00842" lon="4.35465">
        <ele>198.3</ele>
        <time>2011-11-20T08:42:49Z</time>
      </trkpt>
      <trkpt lat="44.00847" lon="4.35464">
        <ele>199</ele>
        <time>2011-11-20T08:42:51Z</time>
      </trkpt>
      <trkpt lat="44.00851" lon="4.35463">
        <ele>199.5</ele>
        <time>2011-11-20T08:42:53Z</time>
      </trkpt>
      <trkpt lat="44.00856" lon="4.35462">
        <ele>199.7</ele>
        <time>2011-11-20T08:42:55Z</time>
      </trkpt>
      <trkpt lat="44.00862" lon="4.35462">
        <ele>199.6</ele>
        <time>2011-11-20T08:42:57Z</time>
      </trkpt>
      <trkpt lat="44.00868" lon="4.35461">
        <ele>199.7</ele>
        <time>2011-11-20T08:42:59Z</time>
      </trkpt>
      <trkpt lat="44.00873" lon="4.35461">
        <ele>199.9</ele>
        <time>2011-11-20T08:43:01Z</time>
      </trkpt>
      <trkpt lat="44.00878" lon="4.35461">
        <ele>200</ele>
        <time>2011-11-20T08:43:03Z</time>
      </trkpt>
      <trkpt lat="44.00883" lon="4.35461">
        <ele>200.2</ele>
        <time>2011-11-20T08:43:05Z</time>
      </trkpt>
      <trkpt lat="44.00889" lon="4.35461">
        <ele>200.7</ele>
        <time>2011-11-20T08:43:07Z</time>
      </trkpt>
      <trkpt lat="44.00894" lon="4.35462">
        <ele>201.2</ele>
        <time>2011-11-20T08:43:09Z</time>
      </trkpt>
      <trkpt lat="44.009" lon="4.35462">
        <ele>201.6</ele>
        <time>2011-11-20T08:43:11Z</time>
      </trkpt>
      <trkpt lat="44.00905" lon="4.35463">
        <ele>201.8</ele>
        <time>2011-11-20T08:43:13Z</time>
      </trkpt>
      <trkpt lat="44.00909" lon="4.35463">
        <ele>202.4</ele>
        <time>2011-11-20T08:43:15Z</time>
      </trkpt>
      <trkpt lat="44.00914" lon="4.35463">
        <ele>202.8</ele>
        <time>2011-11-20T08:43:17Z</time>
      </trkpt>
      <trkpt lat="44.00919" lon="4.35463">
        <ele>203.2</ele>
        <time>2011-11-20T08:43:19Z</time>
      </trkpt>
      <trkpt lat="44.00926" lon="4.35464">
        <ele>203.7</ele>
        <time>2011-11-20T08:43:22Z</time>
      </trkpt>
      <trkpt lat="44.00931" lon="4.35464">
        <ele>203.9</ele>
        <time>2011-11-20T08:43:24Z</time>
      </trkpt>
      <trkpt lat="44.00937" lon="4.35464">
        <ele>204.4</ele>
        <time>2011-11-20T08:43:26Z</time>
      </trkpt>
      <trkpt lat="44.00943" lon="4.35463">
        <ele>205</ele>
        <time>2011-11-20T08:43:28Z</time>
      </trkpt>
      <trkpt lat="44.00948" lon="4.35463">
        <ele>205</ele>
        <time>2011-11-20T08:43:30Z</time>
      </trkpt>
      <trkpt lat="44.00954" lon="4.35463">
        <ele>204.9</ele>
        <time>2011-11-20T08:43:32Z</time>
      </trkpt>
      <trkpt lat="44.0096" lon="4.35463">
        <ele>205.5</ele>
        <time>2011-11-20T08:43:35Z</time>
      </trkpt>
      <trkpt lat="44.00965" lon="4.35463">
        <ele>206.3</ele>
        <time>2011-11-20T08:43:38Z</time>
      </trkpt>
      <trkpt lat="44.0097" lon="4.35463">
        <ele>204.8</ele>
        <time>2011-11-20T08:44:23Z</time>
      </trkpt>
      <trkpt lat="44.00975" lon="4.35463">
        <ele>205</ele>
        <time>2011-11-20T08:44:26Z</time>
      </trkpt>
      <trkpt lat="44.00982" lon="4.35462">
        <ele>205.9</ele>
        <time>2011-11-20T08:44:37Z</time>
      </trkpt>
      <trkpt lat="44.00988" lon="4.35461">
        <ele>206.4</ele>
        <time>2011-11-20T08:44:39Z</time>
      </trkpt>
      <trkpt lat="44.00995" lon="4.35459">
        <ele>206.7</ele>
        <time>2011-11-20T08:44:41Z</time>
      </trkpt>
      <trkpt lat="44.01" lon="4.35458">
        <ele>207.3</ele>
        <time>2011-11-20T08:44:43Z</time>
      </trkpt>
      <trkpt lat="44.01005" lon="4.35457">
        <ele>207.8</ele>
        <time>2011-11-20T08:44:45Z</time>
      </trkpt>
      <trkpt lat="44.01012" lon="4.35458">
        <ele>208.4</ele>
        <time>2011-11-20T08:44:48Z</time>
      </trkpt>
      <trkpt lat="44.01016" lon="4.35458">
        <ele>208.6</ele>
        <time>2011-11-20T08:44:50Z</time>
      </trkpt>
      <trkpt lat="44.01022" lon="4.35459">
        <ele>208.9</ele>
        <time>2011-11-20T08:44:53Z</time>
      </trkpt>
      <trkpt lat="44.01027" lon="4.3546">
        <ele>209.4</ele>
        <time>2011-11-20T08:44:55Z</time>
      </trkpt>
      <trkpt lat="44.01032" lon="4.3546">
        <ele>209.8</ele>
        <time>2011-11-20T08:44:57Z</time>
      </trkpt>
      <trkpt lat="44.01036" lon="4.3546">
        <ele>209.8</ele>
        <time>2011-11-20T08:44:59Z</time>
      </trkpt>
      <trkpt lat="44.01043" lon="4.3546">
        <ele>210.4</ele>
        <time>2011-11-20T08:45:02Z</time>
      </trkpt>
      <trkpt lat="44.01049" lon="4.3546">
        <ele>210.7</ele>
        <time>2011-11-20T08:45:04Z</time>
      </trkpt>
      <trkpt lat="44.01054" lon="4.3546">
        <ele>210.5</ele>
        <time>2011-11-20T08:45:06Z</time>
      </trkpt>
      <trkpt lat="44.01058" lon="4.35461">
        <ele>210.1</ele>
        <time>2011-11-20T08:45:08Z</time>
      </trkpt>
      <trkpt lat="44.01064" lon="4.35462">
        <ele>210.5</ele>
        <time>2011-11-20T08:45:10Z</time>
      </trkpt>
      <trkpt lat="44.01069" lon="4.35463">
        <ele>210.3</ele>
        <time>2011-11-20T08:45:12Z</time>
      </trkpt>
      <trkpt lat="44.01074" lon="4.35463">
        <ele>210.3</ele>
        <time>2011-11-20T08:45:14Z</time>
      </trkpt>
      <trkpt lat="44.0108" lon="4.35464">
        <ele>210.1</ele>
        <time>2011-11-20T08:45:16Z</time>
      </trkpt>
      <trkpt lat="44.01084" lon="4.35464">
        <ele>210.1</ele>
        <time>2011-11-20T08:45:18Z</time>
      </trkpt>
      <trkpt lat="44.01089" lon="4.35465">
        <ele>210.6</ele>
        <time>2011-11-20T08:45:20Z</time>
      </trkpt>
      <trkpt lat="44.01094" lon="4.35464">
        <ele>211.3</ele>
        <time>2011-11-20T08:45:22Z</time>
      </trkpt>
      <trkpt lat="44.01099" lon="4.35464">
        <ele>212.3</ele>
        <time>2011-11-20T08:45:24Z</time>
      </trkpt>
      <trkpt lat="44.01104" lon="4.35463">
        <ele>213.1</ele>
        <time>2011-11-20T08:45:26Z</time>
      </trkpt>
      <trkpt lat="44.01108" lon="4.35463">
        <ele>213.8</ele>
        <time>2011-11-20T08:45:28Z</time>
      </trkpt>
      <trkpt lat="44.01115" lon="4.35462">
        <ele>214.6</ele>
        <time>2011-11-20T08:45:30Z</time>
      </trkpt>
      <trkpt lat="44.01119" lon="4.35461">
        <ele>214.8</ele>
        <time>2011-11-20T08:45:32Z</time>
      </trkpt>
      <trkpt lat="44.01124" lon="4.35459">
        <ele>215.8</ele>
        <time>2011-11-20T08:45:34Z</time>
      </trkpt>
      <trkpt lat="44.01131" lon="4.35457">
        <ele>216.1</ele>
        <time>2011-11-20T08:45:36Z</time>
      </trkpt>
      <trkpt lat="44.01138" lon="4.35453">
        <ele>216.4</ele>
        <time>2011-11-20T08:45:38Z</time>
      </trkpt>
      <trkpt lat="44.01146" lon="4.3545">
        <ele>217.1</ele>
        <time>2011-11-20T08:45:40Z</time>
      </trkpt>
      <trkpt lat="44.01153" lon="4.35447">
        <ele>217.7</ele>
        <time>2011-11-20T08:45:42Z</time>
      </trkpt>
      <trkpt lat="44.0116" lon="4.35443">
        <ele>217.7</ele>
        <time>2011-11-20T08:45:44Z</time>
      </trkpt>
      <trkpt lat="44.01167" lon="4.3544">
        <ele>218.1</ele>
        <time>2011-11-20T08:45:46Z</time>
      </trkpt>
      <trkpt lat="44.01174" lon="4.35437">
        <ele>218.9</ele>
        <time>2011-11-20T08:45:48Z</time>
      </trkpt>
      <trkpt lat="44.0118" lon="4.35434">
        <ele>219.4</ele>
        <time>2011-11-20T08:45:50Z</time>
      </trkpt>
      <trkpt lat="44.01187" lon="4.35429">
        <ele>219.4</ele>
        <time>2011-11-20T08:45:52Z</time>
      </trkpt>
      <trkpt lat="44.01193" lon="4.35424">
        <ele>220.1</ele>
        <time>2011-11-20T08:45:54Z</time>
      </trkpt>
      <trkpt lat="44.01198" lon="4.3542">
        <ele>220.8</ele>
        <time>2011-11-20T08:45:56Z</time>
      </trkpt>
      <trkpt lat="44.01204" lon="4.35415">
        <ele>222</ele>
        <time>2011-11-20T08:45:58Z</time>
      </trkpt>
      <trkpt lat="44.0121" lon="4.3541">
        <ele>222.6</ele>
        <time>2011-11-20T08:46:00Z</time>
      </trkpt>
      <trkpt lat="44.01218" lon="4.35406">
        <ele>222.8</ele>
        <time>2011-11-20T08:46:02Z</time>
      </trkpt>
      <trkpt lat="44.01223" lon="4.35406">
        <ele>222</ele>
        <time>2011-11-20T08:46:03Z</time>
      </trkpt>
      <trkpt lat="44.01231" lon="4.35408">
        <ele>221.8</ele>
        <time>2011-11-20T08:46:05Z</time>
      </trkpt>
      <trkpt lat="44.01235" lon="4.35414">
        <ele>222.1</ele>
        <time>2011-11-20T08:46:07Z</time>
      </trkpt>
      <trkpt lat="44.01239" lon="4.35422">
        <ele>221.9</ele>
        <time>2011-11-20T08:46:09Z</time>
      </trkpt>
      <trkpt lat="44.01242" lon="4.35431">
        <ele>221.7</ele>
        <time>2011-11-20T08:46:11Z</time>
      </trkpt>
      <trkpt lat="44.01245" lon="4.35437">
        <ele>221.8</ele>
        <time>2011-11-20T08:46:13Z</time>
      </trkpt>
      <trkpt lat="44.01246" lon="4.35445">
        <ele>221.4</ele>
        <time>2011-11-20T08:46:15Z</time>
      </trkpt>
      <trkpt lat="44.01245" lon="4.35453">
        <ele>220.9</ele>
        <time>2011-11-20T08:46:17Z</time>
      </trkpt>
      <trkpt lat="44.01242" lon="4.3546">
        <ele>221.1</ele>
        <time>2011-11-20T08:46:19Z</time>
      </trkpt>
      <trkpt lat="44.01238" lon="4.35467">
        <ele>220.7</ele>
        <time>2011-11-20T08:46:21Z</time>
      </trkpt>
      <trkpt lat="44.01235" lon="4.35474">
        <ele>220.3</ele>
        <time>2011-11-20T08:46:23Z</time>
      </trkpt>
      <trkpt lat="44.01231" lon="4.35479">
        <ele>220</ele>
        <time>2011-11-20T08:46:25Z</time>
      </trkpt>
      <trkpt lat="44.01228" lon="4.35485">
        <ele>219.8</ele>
        <time>2011-11-20T08:46:27Z</time>
      </trkpt>
      <trkpt lat="44.01224" lon="4.35491">
        <ele>219.4</ele>
        <time>2011-11-20T08:46:29Z</time>
      </trkpt>
      <trkpt lat="44.01219" lon="4.35499">
        <ele>218.9</ele>
        <time>2011-11-20T08:46:31Z</time>
      </trkpt>
      <trkpt lat="44.01212" lon="4.35507">
        <ele>218.6</ele>
        <time>2011-11-20T08:46:33Z</time>
      </trkpt>
      <trkpt lat="44.01206" lon="4.35514">
        <ele>218.1</ele>
        <time>2011-11-20T08:46:35Z</time>
      </trkpt>
      <trkpt lat="44.012" lon="4.35522">
        <ele>218.2</ele>
        <time>2011-11-20T08:46:37Z</time>
      </trkpt>
      <trkpt lat="44.01196" lon="4.35532">
        <ele>218.2</ele>
        <time>2011-11-20T08:46:39Z</time>
      </trkpt>
      <trkpt lat="44.01194" lon="4.35541">
        <ele>218.2</ele>
        <time>2011-11-20T08:46:41Z</time>
      </trkpt>
      <trkpt lat="44.01192" lon="4.35549">
        <ele>218</ele>
        <time>2011-11-20T08:46:43Z</time>
      </trkpt>
      <trkpt lat="44.01189" lon="4.35558">
        <ele>218.4</ele>
        <time>2011-11-20T08:46:45Z</time>
      </trkpt>
      <trkpt lat="44.01186" lon="4.35564">
        <ele>218.3</ele>
        <time>2011-11-20T08:46:46Z</time>
      </trkpt>
      <trkpt lat="44.0118" lon="4.35572">
        <ele>218.4</ele>
        <time>2011-11-20T08:46:48Z</time>
      </trkpt>
      <trkpt lat="44.01176" lon="4.35582">
        <ele>218.3</ele>
        <time>2011-11-20T08:46:50Z</time>
      </trkpt>
      <trkpt lat="44.01173" lon="4.35587">
        <ele>218.1</ele>
        <time>2011-11-20T08:46:51Z</time>
      </trkpt>
      <trkpt lat="44.01171" lon="4.35592">
        <ele>217.8</ele>
        <time>2011-11-20T08:46:52Z</time>
      </trkpt>
      <trkpt lat="44.01165" lon="4.35601">
        <ele>217.3</ele>
        <time>2011-11-20T08:46:54Z</time>
      </trkpt>
      <trkpt lat="44.01159" lon="4.35608">
        <ele>216.6</ele>
        <time>2011-11-20T08:46:56Z</time>
      </trkpt>
      <trkpt lat="44.01152" lon="4.35614">
        <ele>216.5</ele>
        <time>2011-11-20T08:46:58Z</time>
      </trkpt>
      <trkpt lat="44.01146" lon="4.35621">
        <ele>216.8</ele>
        <time>2011-11-20T08:47:00Z</time>
      </trkpt>
      <trkpt lat="44.0114" lon="4.35629">
        <ele>216.4</ele>
        <time>2011-11-20T08:47:02Z</time>
      </trkpt>
      <trkpt lat="44.01133" lon="4.35636">
        <ele>216.5</ele>
        <time>2011-11-20T08:47:04Z</time>
      </trkpt>
      <trkpt lat="44.01128" lon="4.35643">
        <ele>216.5</ele>
        <time>2011-11-20T08:47:06Z</time>
      </trkpt>
      <trkpt lat="44.01123" lon="4.35652">
        <ele>215.8</ele>
        <time>2011-11-20T08:47:08Z</time>
      </trkpt>
      <trkpt lat="44.01119" lon="4.3566">
        <ele>215.2</ele>
        <time>2011-11-20T08:47:10Z</time>
      </trkpt>
      <trkpt lat="44.01114" lon="4.35668">
        <ele>215.3</ele>
        <time>2011-11-20T08:47:12Z</time>
      </trkpt>
      <trkpt lat="44.01108" lon="4.35674">
        <ele>215.4</ele>
        <time>2011-11-20T08:47:14Z</time>
      </trkpt>
      <trkpt lat="44.01104" lon="4.3568">
        <ele>215.4</ele>
        <time>2011-11-20T08:47:16Z</time>
      </trkpt>
      <trkpt lat="44.01099" lon="4.35684">
        <ele>215.3</ele>
        <time>2011-11-20T08:47:18Z</time>
      </trkpt>
      <trkpt lat="44.01094" lon="4.3569">
        <ele>215.3</ele>
        <time>2011-11-20T08:47:20Z</time>
      </trkpt>
      <trkpt lat="44.0109" lon="4.35697">
        <ele>215.5</ele>
        <time>2011-11-20T08:47:22Z</time>
      </trkpt>
      <trkpt lat="44.01084" lon="4.35703">
        <ele>215.6</ele>
        <time>2011-11-20T08:47:24Z</time>
      </trkpt>
      <trkpt lat="44.01078" lon="4.35709">
        <ele>215.8</ele>
        <time>2011-11-20T08:47:26Z</time>
      </trkpt>
      <trkpt lat="44.01072" lon="4.35712">
        <ele>215.8</ele>
        <time>2011-11-20T08:47:28Z</time>
      </trkpt>
      <trkpt lat="44.01066" lon="4.35718">
        <ele>215.5</ele>
        <time>2011-11-20T08:47:30Z</time>
      </trkpt>
      <trkpt lat="44.0106" lon="4.35723">
        <ele>215.2</ele>
        <time>2011-11-20T08:47:32Z</time>
      </trkpt>
      <trkpt lat="44.01054" lon="4.35729">
        <ele>214.9</ele>
        <time>2011-11-20T08:47:34Z</time>
      </trkpt>
      <trkpt lat="44.0105" lon="4.35736">
        <ele>215</ele>
        <time>2011-11-20T08:47:36Z</time>
      </trkpt>
      <trkpt lat="44.01046" lon="4.35744">
        <ele>215.3</ele>
        <time>2011-11-20T08:47:38Z</time>
      </trkpt>
      <trkpt lat="44.01042" lon="4.35752">
        <ele>215.5</ele>
        <time>2011-11-20T08:47:40Z</time>
      </trkpt>
      <trkpt lat="44.01036" lon="4.3576">
        <ele>215.7</ele>
        <time>2011-11-20T08:47:42Z</time>
      </trkpt>
      <trkpt lat="44.01029" lon="4.35767">
        <ele>215.4</ele>
        <time>2011-11-20T08:47:44Z</time>
      </trkpt>
      <trkpt lat="44.01024" lon="4.35774">
        <ele>215.3</ele>
        <time>2011-11-20T08:47:46Z</time>
      </trkpt>
      <trkpt lat="44.01018" lon="4.35781">
        <ele>215</ele>
        <time>2011-11-20T08:47:48Z</time>
      </trkpt>
      <trkpt lat="44.01013" lon="4.3579">
        <ele>215.2</ele>
        <time>2011-11-20T08:47:50Z</time>
      </trkpt>
      <trkpt lat="44.01009" lon="4.35798">
        <ele>214.8</ele>
        <time>2011-11-20T08:47:52Z</time>
      </trkpt>
      <trkpt lat="44.01005" lon="4.35808">
        <ele>213.8</ele>
        <time>2011-11-20T08:47:54Z</time>
      </trkpt>
      <trkpt lat="44.01001" lon="4.35818">
        <ele>212.3</ele>
        <time>2011-11-20T08:47:56Z</time>
      </trkpt>
      <trkpt lat="44.00998" lon="4.35825">
        <ele>211.6</ele>
        <time>2011-11-20T08:47:58Z</time>
      </trkpt>
      <trkpt lat="44.00994" lon="4.35832">
        <ele>211.1</ele>
        <time>2011-11-20T08:48:01Z</time>
      </trkpt>
      <trkpt lat="44.00988" lon="4.35839">
        <ele>210.2</ele>
        <time>2011-11-20T08:48:07Z</time>
      </trkpt>
      <trkpt lat="44.00983" lon="4.3584">
        <ele>209.7</ele>
        <time>2011-11-20T08:48:10Z</time>
      </trkpt>
      <trkpt lat="44.00977" lon="4.3584">
        <ele>208.1</ele>
        <time>2011-11-20T08:48:13Z</time>
      </trkpt>
      <trkpt lat="44.00976" lon="4.35846">
        <ele>207.9</ele>
        <time>2011-11-20T08:48:17Z</time>
      </trkpt>
      <trkpt lat="44.00971" lon="4.35851">
        <ele>206.1</ele>
        <time>2011-11-20T08:48:30Z</time>
      </trkpt>
      <trkpt lat="44.00967" lon="4.35855">
        <ele>205.8</ele>
        <time>2011-11-20T08:48:32Z</time>
      </trkpt>
      <trkpt lat="44.00961" lon="4.35861">
        <ele>205.4</ele>
        <time>2011-11-20T08:48:35Z</time>
      </trkpt>
      <trkpt lat="44.00957" lon="4.35868">
        <ele>205</ele>
        <time>2011-11-20T08:48:37Z</time>
      </trkpt>
      <trkpt lat="44.00953" lon="4.35875">
        <ele>204.9</ele>
        <time>2011-11-20T08:48:39Z</time>
      </trkpt>
      <trkpt lat="44.0095" lon="4.35882">
        <ele>205.1</ele>
        <time>2011-11-20T08:48:41Z</time>
      </trkpt>
      <trkpt lat="44.00945" lon="4.35889">
        <ele>205.1</ele>
        <time>2011-11-20T08:48:43Z</time>
      </trkpt>
      <trkpt lat="44.00941" lon="4.35896">
        <ele>205.5</ele>
        <time>2011-11-20T08:48:45Z</time>
      </trkpt>
      <trkpt lat="44.00938" lon="4.35903">
        <ele>205.6</ele>
        <time>2011-11-20T08:48:47Z</time>
      </trkpt>
      <trkpt lat="44.00936" lon="4.35909">
        <ele>205.7</ele>
        <time>2011-11-20T08:48:49Z</time>
      </trkpt>
      <trkpt lat="44.00935" lon="4.35918">
        <ele>205.4</ele>
        <time>2011-11-20T08:48:51Z</time>
      </trkpt>
      <trkpt lat="44.00933" lon="4.35927">
        <ele>205.8</ele>
        <time>2011-11-20T08:48:53Z</time>
      </trkpt>
      <trkpt lat="44.00932" lon="4.35938">
        <ele>206.1</ele>
        <time>2011-11-20T08:48:55Z</time>
      </trkpt>
      <trkpt lat="44.00932" lon="4.35946">
        <ele>206</ele>
        <time>2011-11-20T08:48:56Z</time>
      </trkpt>
      <trkpt lat="44.00931" lon="4.35953">
        <ele>206</ele>
        <time>2011-11-20T08:48:57Z</time>
      </trkpt>
      <trkpt lat="44.0093" lon="4.35959">
        <ele>206.4</ele>
        <time>2011-11-20T08:48:58Z</time>
      </trkpt>
      <trkpt lat="44.00929" lon="4.3597">
        <ele>206.6</ele>
        <time>2011-11-20T08:49:00Z</time>
      </trkpt>
      <trkpt lat="44.00928" lon="4.35976">
        <ele>206.7</ele>
        <time>2011-11-20T08:49:02Z</time>
      </trkpt>
      <trkpt lat="44.00928" lon="4.35983">
        <ele>206.7</ele>
        <time>2011-11-20T08:49:04Z</time>
      </trkpt>
      <trkpt lat="44.00929" lon="4.3599">
        <ele>205.8</ele>
        <time>2011-11-20T08:49:06Z</time>
      </trkpt>
      <trkpt lat="44.00929" lon="4.35997">
        <ele>205.7</ele>
        <time>2011-11-20T08:49:08Z</time>
      </trkpt>
      <trkpt lat="44.00928" lon="4.36004">
        <ele>205.7</ele>
        <time>2011-11-20T08:49:10Z</time>
      </trkpt>
      <trkpt lat="44.00928" lon="4.3601">
        <ele>205.6</ele>
        <time>2011-11-20T08:49:12Z</time>
      </trkpt>
      <trkpt lat="44.00926" lon="4.36016">
        <ele>205.3</ele>
        <time>2011-11-20T08:49:14Z</time>
      </trkpt>
      <trkpt lat="44.00923" lon="4.36022">
        <ele>204.9</ele>
        <time>2011-11-20T08:49:17Z</time>
      </trkpt>
      <trkpt lat="44.00921" lon="4.3603">
        <ele>204.9</ele>
        <time>2011-11-20T08:49:20Z</time>
      </trkpt>
      <trkpt lat="44.00919" lon="4.36037">
        <ele>204.8</ele>
        <time>2011-11-20T08:49:24Z</time>
      </trkpt>
      <trkpt lat="44.00917" lon="4.36043">
        <ele>204.9</ele>
        <time>2011-11-20T08:49:27Z</time>
      </trkpt>
      <trkpt lat="44.00916" lon="4.36051">
        <ele>204.9</ele>
        <time>2011-11-20T08:49:30Z</time>
      </trkpt>
      <trkpt lat="44.00914" lon="4.36057">
        <ele>204.4</ele>
        <time>2011-11-20T08:49:32Z</time>
      </trkpt>
      <trkpt lat="44.00912" lon="4.36063">
        <ele>203.8</ele>
        <time>2011-11-20T08:49:34Z</time>
      </trkpt>
      <trkpt lat="44.0091" lon="4.36071">
        <ele>203.8</ele>
        <time>2011-11-20T08:49:36Z</time>
      </trkpt>
      <trkpt lat="44.00908" lon="4.36079">
        <ele>203.5</ele>
        <time>2011-11-20T08:49:38Z</time>
      </trkpt>
      <trkpt lat="44.00907" lon="4.36087">
        <ele>203</ele>
        <time>2011-11-20T08:49:40Z</time>
      </trkpt>
      <trkpt lat="44.00905" lon="4.36094">
        <ele>202.7</ele>
        <time>2011-11-20T08:49:42Z</time>
      </trkpt>
      <trkpt lat="44.00903" lon="4.36104">
        <ele>202.2</ele>
        <time>2011-11-20T08:49:45Z</time>
      </trkpt>
      <trkpt lat="44.00902" lon="4.36111">
        <ele>201.7</ele>
        <time>2011-11-20T08:49:47Z</time>
      </trkpt>
      <trkpt lat="44.009" lon="4.36118">
        <ele>201.3</ele>
        <time>2011-11-20T08:49:49Z</time>
      </trkpt>
      <trkpt lat="44.00897" lon="4.36124">
        <ele>201.1</ele>
        <time>2011-11-20T08:49:51Z</time>
      </trkpt>
      <trkpt lat="44.00895" lon="4.36131">
        <ele>200.9</ele>
        <time>2011-11-20T08:49:53Z</time>
      </trkpt>
      <trkpt lat="44.00893" lon="4.3614">
        <ele>201.1</ele>
        <time>2011-11-20T08:49:55Z</time>
      </trkpt>
      <trkpt lat="44.00891" lon="4.36151">
        <ele>201.8</ele>
        <time>2011-11-20T08:49:57Z</time>
      </trkpt>
      <trkpt lat="44.00889" lon="4.36157">
        <ele>201.7</ele>
        <time>2011-11-20T08:49:58Z</time>
      </trkpt>
      <trkpt lat="44.00887" lon="4.36165">
        <ele>201.9</ele>
        <time>2011-11-20T08:49:59Z</time>
      </trkpt>
      <trkpt lat="44.00885" lon="4.36172">
        <ele>202.3</ele>
        <time>2011-11-20T08:50:00Z</time>
      </trkpt>
      <trkpt lat="44.00882" lon="4.36179">
        <ele>202.3</ele>
        <time>2011-11-20T08:50:01Z</time>
      </trkpt>
      <trkpt lat="44.0088" lon="4.36185">
        <ele>202</ele>
        <time>2011-11-20T08:50:02Z</time>
      </trkpt>
      <trkpt lat="44.00878" lon="4.3619">
        <ele>201.9</ele>
        <time>2011-11-20T08:50:03Z</time>
      </trkpt>
      <trkpt lat="44.00873" lon="4.36199">
        <ele>201.9</ele>
        <time>2011-11-20T08:50:05Z</time>
      </trkpt>
      <trkpt lat="44.00868" lon="4.36209">
        <ele>202</ele>
        <time>2011-11-20T08:50:07Z</time>
      </trkpt>
      <trkpt lat="44.00866" lon="4.36214">
        <ele>202.2</ele>
        <time>2011-11-20T08:50:08Z</time>
      </trkpt>
      <trkpt lat="44.00863" lon="4.36221">
        <ele>202.3</ele>
        <time>2011-11-20T08:50:09Z</time>
      </trkpt>
      <trkpt lat="44.0086" lon="4.36227">
        <ele>202.1</ele>
        <time>2011-11-20T08:50:10Z</time>
      </trkpt>
      <trkpt lat="44.00857" lon="4.36233">
        <ele>201.8</ele>
        <time>2011-11-20T08:50:11Z</time>
      </trkpt>
      <trkpt lat="44.00856" lon="4.36239">
        <ele>201.7</ele>
        <time>2011-11-20T08:50:12Z</time>
      </trkpt>
      <trkpt lat="44.00854" lon="4.36246">
        <ele>201.4</ele>
        <time>2011-11-20T08:50:13Z</time>
      </trkpt>
      <trkpt lat="44.00851" lon="4.36252">
        <ele>201.2</ele>
        <time>2011-11-20T08:50:14Z</time>
      </trkpt>
      <trkpt lat="44.00849" lon="4.36258">
        <ele>200.7</ele>
        <time>2011-11-20T08:50:15Z</time>
      </trkpt>
      <trkpt lat="44.00846" lon="4.36264">
        <ele>200.3</ele>
        <time>2011-11-20T08:50:16Z</time>
      </trkpt>
      <trkpt lat="44.00844" lon="4.3627">
        <ele>200.1</ele>
        <time>2011-11-20T08:50:17Z</time>
      </trkpt>
      <trkpt lat="44.00842" lon="4.36276">
        <ele>199.7</ele>
        <time>2011-11-20T08:50:18Z</time>
      </trkpt>
      <trkpt lat="44.0084" lon="4.36283">
        <ele>199.3</ele>
        <time>2011-11-20T08:50:19Z</time>
      </trkpt>
      <trkpt lat="44.00837" lon="4.36289">
        <ele>199.2</ele>
        <time>2011-11-20T08:50:20Z</time>
      </trkpt>
      <trkpt lat="44.00835" lon="4.36295">
        <ele>199.3</ele>
        <time>2011-11-20T08:50:21Z</time>
      </trkpt>
      <trkpt lat="44.00833" lon="4.36301">
        <ele>199.3</ele>
        <time>2011-11-20T08:50:22Z</time>
      </trkpt>
      <trkpt lat="44.00828" lon="4.36311">
        <ele>199.3</ele>
        <time>2011-11-20T08:50:24Z</time>
      </trkpt>
      <trkpt lat="44.00824" lon="4.36322">
        <ele>199.5</ele>
        <time>2011-11-20T08:50:26Z</time>
      </trkpt>
      <trkpt lat="44.00819" lon="4.36332">
        <ele>199.9</ele>
        <time>2011-11-20T08:50:28Z</time>
      </trkpt>
      <trkpt lat="44.00814" lon="4.3634">
        <ele>200</ele>
        <time>2011-11-20T08:50:30Z</time>
      </trkpt>
      <trkpt lat="44.0081" lon="4.36349">
        <ele>200.2</ele>
        <time>2011-11-20T08:50:32Z</time>
      </trkpt>
      <trkpt lat="44.00806" lon="4.36358">
        <ele>200.3</ele>
        <time>2011-11-20T08:50:34Z</time>
      </trkpt>
      <trkpt lat="44.00802" lon="4.36368">
        <ele>200.7</ele>
        <time>2011-11-20T08:50:36Z</time>
      </trkpt>
      <trkpt lat="44.00798" lon="4.36377">
        <ele>200.3</ele>
        <time>2011-11-20T08:50:38Z</time>
      </trkpt>
      <trkpt lat="44.00794" lon="4.36385">
        <ele>200</ele>
        <time>2011-11-20T08:50:40Z</time>
      </trkpt>
      <trkpt lat="44.00789" lon="4.36392">
        <ele>200</ele>
        <time>2011-11-20T08:50:42Z</time>
      </trkpt>
      <trkpt lat="44.00784" lon="4.364">
        <ele>200.2</ele>
        <time>2011-11-20T08:50:44Z</time>
      </trkpt>
      <trkpt lat="44.00778" lon="4.36409">
        <ele>200</ele>
        <time>2011-11-20T08:50:46Z</time>
      </trkpt>
      <trkpt lat="44.00774" lon="4.36414">
        <ele>199.8</ele>
        <time>2011-11-20T08:50:47Z</time>
      </trkpt>
      <trkpt lat="44.00768" lon="4.36422">
        <ele>199.8</ele>
        <time>2011-11-20T08:50:49Z</time>
      </trkpt>
      <trkpt lat="44.00763" lon="4.3643">
        <ele>200</ele>
        <time>2011-11-20T08:50:51Z</time>
      </trkpt>
      <trkpt lat="44.00756" lon="4.36438">
        <ele>199.6</ele>
        <time>2011-11-20T08:50:53Z</time>
      </trkpt>
      <trkpt lat="44.00752" lon="4.36441">
        <ele>199.5</ele>
        <time>2011-11-20T08:50:54Z</time>
      </trkpt>
      <trkpt lat="44.00748" lon="4.36446">
        <ele>199.3</ele>
        <time>2011-11-20T08:50:55Z</time>
      </trkpt>
      <trkpt lat="44.00743" lon="4.3645">
        <ele>199.3</ele>
        <time>2011-11-20T08:50:56Z</time>
      </trkpt>
      <trkpt lat="44.00738" lon="4.36455">
        <ele>199.3</ele>
        <time>2011-11-20T08:50:57Z</time>
      </trkpt>
      <trkpt lat="44.00733" lon="4.3646">
        <ele>199.1</ele>
        <time>2011-11-20T08:50:58Z</time>
      </trkpt>
      <trkpt lat="44.00729" lon="4.36466">
        <ele>199.4</ele>
        <time>2011-11-20T08:50:59Z</time>
      </trkpt>
      <trkpt lat="44.00726" lon="4.36472">
        <ele>199.4</ele>
        <time>2011-11-20T08:51:00Z</time>
      </trkpt>
      <trkpt lat="44.00722" lon="4.36478">
        <ele>199.4</ele>
        <time>2011-11-20T08:51:01Z</time>
      </trkpt>
      <trkpt lat="44.00719" lon="4.36484">
        <ele>199.4</ele>
        <time>2011-11-20T08:51:02Z</time>
      </trkpt>
      <trkpt lat="44.00717" lon="4.3649">
        <ele>199.5</ele>
        <time>2011-11-20T08:51:03Z</time>
      </trkpt>
      <trkpt lat="44.00714" lon="4.36501">
        <ele>199.7</ele>
        <time>2011-11-20T08:51:05Z</time>
      </trkpt>
      <trkpt lat="44.00711" lon="4.36511">
        <ele>199.9</ele>
        <time>2011-11-20T08:51:07Z</time>
      </trkpt>
      <trkpt lat="44.00707" lon="4.36521">
        <ele>199.7</ele>
        <time>2011-11-20T08:51:09Z</time>
      </trkpt>
      <trkpt lat="44.00702" lon="4.36531">
        <ele>199.8</ele>
        <time>2011-11-20T08:51:11Z</time>
      </trkpt>
      <trkpt lat="44.00697" lon="4.3654">
        <ele>199.6</ele>
        <time>2011-11-20T08:51:13Z</time>
      </trkpt>
      <trkpt lat="44.00692" lon="4.36548">
        <ele>199.3</ele>
        <time>2011-11-20T08:51:15Z</time>
      </trkpt>
      <trkpt lat="44.00687" lon="4.36556">
        <ele>199.3</ele>
        <time>2011-11-20T08:51:17Z</time>
      </trkpt>
      <trkpt lat="44.00683" lon="4.36562">
        <ele>199.1</ele>
        <time>2011-11-20T08:51:19Z</time>
      </trkpt>
      <trkpt lat="44.00679" lon="4.36567">
        <ele>198.3</ele>
        <time>2011-11-20T08:51:21Z</time>
      </trkpt>
      <trkpt lat="44.00674" lon="4.36573">
        <ele>197.5</ele>
        <time>2011-11-20T08:51:23Z</time>
      </trkpt>
      <trkpt lat="44.00668" lon="4.36581">
        <ele>197.3</ele>
        <time>2011-11-20T08:51:25Z</time>
      </trkpt>
      <trkpt lat="44.00662" lon="4.36589">
        <ele>197.1</ele>
        <time>2011-11-20T08:51:27Z</time>
      </trkpt>
      <trkpt lat="44.00656" lon="4.36598">
        <ele>197.2</ele>
        <time>2011-11-20T08:51:29Z</time>
      </trkpt>
      <trkpt lat="44.00649" lon="4.36606">
        <ele>197.4</ele>
        <time>2011-11-20T08:51:31Z</time>
      </trkpt>
      <trkpt lat="44.00643" lon="4.36615">
        <ele>197.6</ele>
        <time>2011-11-20T08:51:33Z</time>
      </trkpt>
      <trkpt lat="44.00638" lon="4.36625">
        <ele>197.7</ele>
        <time>2011-11-20T08:51:35Z</time>
      </trkpt>
      <trkpt lat="44.00633" lon="4.36635">
        <ele>197.2</ele>
        <time>2011-11-20T08:51:37Z</time>
      </trkpt>
      <trkpt lat="44.00631" lon="4.36641">
        <ele>197.1</ele>
        <time>2011-11-20T08:51:38Z</time>
      </trkpt>
      <trkpt lat="44.00626" lon="4.36649">
        <ele>196.9</ele>
        <time>2011-11-20T08:51:40Z</time>
      </trkpt>
      <trkpt lat="44.00626" lon="4.36656">
        <ele>196.6</ele>
        <time>2011-11-20T08:51:42Z</time>
      </trkpt>
      <trkpt lat="44.00627" lon="4.36665">
        <ele>196.2</ele>
        <time>2011-11-20T08:51:44Z</time>
      </trkpt>
      <trkpt lat="44.00625" lon="4.36676">
        <ele>195.5</ele>
        <time>2011-11-20T08:51:46Z</time>
      </trkpt>
      <trkpt lat="44.00622" lon="4.36682">
        <ele>195</ele>
        <time>2011-11-20T08:51:47Z</time>
      </trkpt>
      <trkpt lat="44.00619" lon="4.36688">
        <ele>194.7</ele>
        <time>2011-11-20T08:51:48Z</time>
      </trkpt>
      <trkpt lat="44.00616" lon="4.36695">
        <ele>194.2</ele>
        <time>2011-11-20T08:51:49Z</time>
      </trkpt>
      <trkpt lat="44.00613" lon="4.36701">
        <ele>194.1</ele>
        <time>2011-11-20T08:51:50Z</time>
      </trkpt>
      <trkpt lat="44.00611" lon="4.36707">
        <ele>193.9</ele>
        <time>2011-11-20T08:51:51Z</time>
      </trkpt>
      <trkpt lat="44.00608" lon="4.36713">
        <ele>193.9</ele>
        <time>2011-11-20T08:51:52Z</time>
      </trkpt>
      <trkpt lat="44.00606" lon="4.36718">
        <ele>193.8</ele>
        <time>2011-11-20T08:51:53Z</time>
      </trkpt>
      <trkpt lat="44.00603" lon="4.36724">
        <ele>193.9</ele>
        <time>2011-11-20T08:51:54Z</time>
      </trkpt>
      <trkpt lat="44.006" lon="4.36729">
        <ele>193.5</ele>
        <time>2011-11-20T08:51:55Z</time>
      </trkpt>
      <trkpt lat="44.00597" lon="4.36735">
        <ele>193.7</ele>
        <time>2011-11-20T08:51:56Z</time>
      </trkpt>
      <trkpt lat="44.00593" lon="4.36739">
        <ele>193.8</ele>
        <time>2011-11-20T08:51:57Z</time>
      </trkpt>
      <trkpt lat="44.00589" lon="4.36744">
        <ele>193.6</ele>
        <time>2011-11-20T08:51:58Z</time>
      </trkpt>
      <trkpt lat="44.00583" lon="4.36751">
        <ele>193.5</ele>
        <time>2011-11-20T08:52:00Z</time>
      </trkpt>
      <trkpt lat="44.00576" lon="4.3676">
        <ele>193</ele>
        <time>2011-11-20T08:52:02Z</time>
      </trkpt>
      <trkpt lat="44.00573" lon="4.36765">
        <ele>192.8</ele>
        <time>2011-11-20T08:52:03Z</time>
      </trkpt>
      <trkpt lat="44.0057" lon="4.3677">
        <ele>192.7</ele>
        <time>2011-11-20T08:52:04Z</time>
      </trkpt>
      <trkpt lat="44.00566" lon="4.36775">
        <ele>192.5</ele>
        <time>2011-11-20T08:52:05Z</time>
      </trkpt>
      <trkpt lat="44.00563" lon="4.3678">
        <ele>192.4</ele>
        <time>2011-11-20T08:52:06Z</time>
      </trkpt>
      <trkpt lat="44.00559" lon="4.36785">
        <ele>192.2</ele>
        <time>2011-11-20T08:52:07Z</time>
      </trkpt>
      <trkpt lat="44.00555" lon="4.3679">
        <ele>192.2</ele>
        <time>2011-11-20T08:52:08Z</time>
      </trkpt>
      <trkpt lat="44.00551" lon="4.36794">
        <ele>192.4</ele>
        <time>2011-11-20T08:52:09Z</time>
      </trkpt>
      <trkpt lat="44.00545" lon="4.36802">
        <ele>192.8</ele>
        <time>2011-11-20T08:52:11Z</time>
      </trkpt>
      <trkpt lat="44.00538" lon="4.3681">
        <ele>193.2</ele>
        <time>2011-11-20T08:52:13Z</time>
      </trkpt>
      <trkpt lat="44.00532" lon="4.36816">
        <ele>193.9</ele>
        <time>2011-11-20T08:52:15Z</time>
      </trkpt>
      <trkpt lat="44.00525" lon="4.36821">
        <ele>193.9</ele>
        <time>2011-11-20T08:52:17Z</time>
      </trkpt>
      <trkpt lat="44.0052" lon="4.36829">
        <ele>193.9</ele>
        <time>2011-11-20T08:52:19Z</time>
      </trkpt>
      <trkpt lat="44.00515" lon="4.36838">
        <ele>193.6</ele>
        <time>2011-11-20T08:52:21Z</time>
      </trkpt>
      <trkpt lat="44.00511" lon="4.36847">
        <ele>193.2</ele>
        <time>2011-11-20T08:52:23Z</time>
      </trkpt>
      <trkpt lat="44.00509" lon="4.36858">
        <ele>193.2</ele>
        <time>2011-11-20T08:52:25Z</time>
      </trkpt>
      <trkpt lat="44.0051" lon="4.36867">
        <ele>192.4</ele>
        <time>2011-11-20T08:52:27Z</time>
      </trkpt>
      <trkpt lat="44.00512" lon="4.36875">
        <ele>190.1</ele>
        <time>2011-11-20T08:52:39Z</time>
      </trkpt>
      <trkpt lat="44.00517" lon="4.3688">
        <ele>189.8</ele>
        <time>2011-11-20T08:52:42Z</time>
      </trkpt>
      <trkpt lat="44.00521" lon="4.36884">
        <ele>190.3</ele>
        <time>2011-11-20T08:52:46Z</time>
      </trkpt>
      <trkpt lat="44.00523" lon="4.36893">
        <ele>190.5</ele>
        <time>2011-11-20T08:52:50Z</time>
      </trkpt>
      <trkpt lat="44.00523" lon="4.36901">
        <ele>190.9</ele>
        <time>2011-11-20T08:52:52Z</time>
      </trkpt>
      <trkpt lat="44.00523" lon="4.36909">
        <ele>190.9</ele>
        <time>2011-11-20T08:52:54Z</time>
      </trkpt>
      <trkpt lat="44.00526" lon="4.36918">
        <ele>190.4</ele>
        <time>2011-11-20T08:52:56Z</time>
      </trkpt>
      <trkpt lat="44.0053" lon="4.36929">
        <ele>190.2</ele>
        <time>2011-11-20T08:52:58Z</time>
      </trkpt>
      <trkpt lat="44.0053" lon="4.3694">
        <ele>190.7</ele>
        <time>2011-11-20T08:53:00Z</time>
      </trkpt>
      <trkpt lat="44.0053" lon="4.36948">
        <ele>191</ele>
        <time>2011-11-20T08:53:01Z</time>
      </trkpt>
      <trkpt lat="44.0053" lon="4.36955">
        <ele>191.2</ele>
        <time>2011-11-20T08:53:02Z</time>
      </trkpt>
      <trkpt lat="44.00531" lon="4.36962">
        <ele>191.4</ele>
        <time>2011-11-20T08:53:03Z</time>
      </trkpt>
      <trkpt lat="44.00531" lon="4.36969">
        <ele>191.4</ele>
        <time>2011-11-20T08:53:04Z</time>
      </trkpt>
      <trkpt lat="44.00531" lon="4.3698">
        <ele>191.4</ele>
        <time>2011-11-20T08:53:05Z</time>
      </trkpt>
      <trkpt lat="44.00532" lon="4.36988">
        <ele>191.1</ele>
        <time>2011-11-20T08:53:08Z</time>
      </trkpt>
      <trkpt lat="44.00529" lon="4.36996">
        <ele>190.7</ele>
        <time>2011-11-20T08:53:11Z</time>
      </trkpt>
      <trkpt lat="44.00527" lon="4.37004">
        <ele>190.4</ele>
        <time>2011-11-20T08:53:14Z</time>
      </trkpt>
      <trkpt lat="44.00526" lon="4.3701">
        <ele>190.2</ele>
        <time>2011-11-20T08:53:16Z</time>
      </trkpt>
      <trkpt lat="44.00525" lon="4.37018">
        <ele>190.2</ele>
        <time>2011-11-20T08:53:18Z</time>
      </trkpt>
      <trkpt lat="44.00523" lon="4.37028">
        <ele>189.8</ele>
        <time>2011-11-20T08:53:20Z</time>
      </trkpt>
      <trkpt lat="44.0052" lon="4.37038">
        <ele>189.6</ele>
        <time>2011-11-20T08:53:22Z</time>
      </trkpt>
      <trkpt lat="44.00515" lon="4.37049">
        <ele>188.9</ele>
        <time>2011-11-20T08:53:24Z</time>
      </trkpt>
      <trkpt lat="44.00512" lon="4.37055">
        <ele>188.9</ele>
        <time>2011-11-20T08:53:25Z</time>
      </trkpt>
      <trkpt lat="44.0051" lon="4.37062">
        <ele>189</ele>
        <time>2011-11-20T08:53:26Z</time>
      </trkpt>
      <trkpt lat="44.00509" lon="4.37069">
        <ele>189.1</ele>
        <time>2011-11-20T08:53:27Z</time>
      </trkpt>
      <trkpt lat="44.00507" lon="4.37077">
        <ele>188.7</ele>
        <time>2011-11-20T08:53:28Z</time>
      </trkpt>
      <trkpt lat="44.00505" lon="4.37084">
        <ele>188.5</ele>
        <time>2011-11-20T08:53:29Z</time>
      </trkpt>
      <trkpt lat="44.00503" lon="4.37091">
        <ele>188.2</ele>
        <time>2011-11-20T08:53:30Z</time>
      </trkpt>
      <trkpt lat="44.00502" lon="4.37099">
        <ele>188.4</ele>
        <time>2011-11-20T08:53:31Z</time>
      </trkpt>
      <trkpt lat="44.00502" lon="4.37106">
        <ele>188.1</ele>
        <time>2011-11-20T08:53:32Z</time>
      </trkpt>
      <trkpt lat="44.00501" lon="4.37114">
        <ele>187.7</ele>
        <time>2011-11-20T08:53:33Z</time>
      </trkpt>
      <trkpt lat="44.00501" lon="4.37121">
        <ele>187.5</ele>
        <time>2011-11-20T08:53:34Z</time>
      </trkpt>
      <trkpt lat="44.005" lon="4.37128">
        <ele>187.3</ele>
        <time>2011-11-20T08:53:35Z</time>
      </trkpt>
      <trkpt lat="44.005" lon="4.37137">
        <ele>186.9</ele>
        <time>2011-11-20T08:53:37Z</time>
      </trkpt>
      <trkpt lat="44.00507" lon="4.37141">
        <ele>184.4</ele>
        <time>2011-11-20T08:54:01Z</time>
      </trkpt>
      <trkpt lat="44.00513" lon="4.37141">
        <ele>184.6</ele>
        <time>2011-11-20T08:54:04Z</time>
      </trkpt>
      <trkpt lat="44.00518" lon="4.3714">
        <ele>185</ele>
        <time>2011-11-20T08:54:07Z</time>
      </trkpt>
      <trkpt lat="44.00523" lon="4.37138">
        <ele>185.1</ele>
        <time>2011-11-20T08:54:10Z</time>
      </trkpt>
      <trkpt lat="44.00529" lon="4.37137">
        <ele>185.1</ele>
        <time>2011-11-20T08:54:13Z</time>
      </trkpt>
      <trkpt lat="44.00534" lon="4.37136">
        <ele>185.3</ele>
        <time>2011-11-20T08:54:15Z</time>
      </trkpt>
      <trkpt lat="44.00539" lon="4.37134">
        <ele>185</ele>
        <time>2011-11-20T08:54:17Z</time>
      </trkpt>
      <trkpt lat="44.00545" lon="4.37134">
        <ele>185</ele>
        <time>2011-11-20T08:54:19Z</time>
      </trkpt>
      <trkpt lat="44.0055" lon="4.37133">
        <ele>185.3</ele>
        <time>2011-11-20T08:54:21Z</time>
      </trkpt>
      <trkpt lat="44.00556" lon="4.37132">
        <ele>185.3</ele>
        <time>2011-11-20T08:54:23Z</time>
      </trkpt>
      <trkpt lat="44.00562" lon="4.37131">
        <ele>185.1</ele>
        <time>2011-11-20T08:54:25Z</time>
      </trkpt>
      <trkpt lat="44.00568" lon="4.37131">
        <ele>184.8</ele>
        <time>2011-11-20T08:54:27Z</time>
      </trkpt>
      <trkpt lat="44.00574" lon="4.3713">
        <ele>184.8</ele>
        <time>2011-11-20T08:54:29Z</time>
      </trkpt>
      <trkpt lat="44.00581" lon="4.37128">
        <ele>184.7</ele>
        <time>2011-11-20T08:54:31Z</time>
      </trkpt>
      <trkpt lat="44.00587" lon="4.37127">
        <ele>184.8</ele>
        <time>2011-11-20T08:54:33Z</time>
      </trkpt>
      <trkpt lat="44.00593" lon="4.37125">
        <ele>184.8</ele>
        <time>2011-11-20T08:54:35Z</time>
      </trkpt>
      <trkpt lat="44.00598" lon="4.37121">
        <ele>184.8</ele>
        <time>2011-11-20T08:54:37Z</time>
      </trkpt>
      <trkpt lat="44.00604" lon="4.37117">
        <ele>184.4</ele>
        <time>2011-11-20T08:54:40Z</time>
      </trkpt>
      <trkpt lat="44.00607" lon="4.37113">
        <ele>184.4</ele>
        <time>2011-11-20T08:54:42Z</time>
      </trkpt>
      <trkpt lat="44.00612" lon="4.37111">
        <ele>184.3</ele>
        <time>2011-11-20T08:54:44Z</time>
      </trkpt>
      <trkpt lat="44.00616" lon="4.37108">
        <ele>184.7</ele>
        <time>2011-11-20T08:54:46Z</time>
      </trkpt>
      <trkpt lat="44.0062" lon="4.37105">
        <ele>184.9</ele>
        <time>2011-11-20T08:54:48Z</time>
      </trkpt>
      <trkpt lat="44.00624" lon="4.37101">
        <ele>185.1</ele>
        <time>2011-11-20T08:54:50Z</time>
      </trkpt>
      <trkpt lat="44.00629" lon="4.37099">
        <ele>185.2</ele>
        <time>2011-11-20T08:54:52Z</time>
      </trkpt>
      <trkpt lat="44.00634" lon="4.37096">
        <ele>185</ele>
        <time>2011-11-20T08:54:54Z</time>
      </trkpt>
      <trkpt lat="44.00639" lon="4.37093">
        <ele>185.4</ele>
        <time>2011-11-20T08:54:56Z</time>
      </trkpt>
      <trkpt lat="44.00644" lon="4.3709">
        <ele>185.9</ele>
        <time>2011-11-20T08:54:58Z</time>
      </trkpt>
      <trkpt lat="44.00649" lon="4.37086">
        <ele>186.7</ele>
        <time>2011-11-20T08:55:00Z</time>
      </trkpt>
      <trkpt lat="44.00654" lon="4.37083">
        <ele>187.2</ele>
        <time>2011-11-20T08:55:02Z</time>
      </trkpt>
      <trkpt lat="44.00659" lon="4.37079">
        <ele>187.5</ele>
        <time>2011-11-20T08:55:04Z</time>
      </trkpt>
      <trkpt lat="44.00663" lon="4.37075">
        <ele>187.7</ele>
        <time>2011-11-20T08:55:06Z</time>
      </trkpt>
      <trkpt lat="44.00669" lon="4.37071">
        <ele>188</ele>
        <time>2011-11-20T08:55:08Z</time>
      </trkpt>
      <trkpt lat="44.00674" lon="4.37065">
        <ele>188.1</ele>
        <time>2011-11-20T08:55:10Z</time>
      </trkpt>
      <trkpt lat="44.0068" lon="4.3706">
        <ele>188.6</ele>
        <time>2011-11-20T08:55:12Z</time>
      </trkpt>
      <trkpt lat="44.00685" lon="4.37054">
        <ele>188.9</ele>
        <time>2011-11-20T08:55:14Z</time>
      </trkpt>
      <trkpt lat="44.0069" lon="4.3705">
        <ele>189.6</ele>
        <time>2011-11-20T08:55:16Z</time>
      </trkpt>
      <trkpt lat="44.00694" lon="4.37045">
        <ele>190.6</ele>
        <time>2011-11-20T08:55:18Z</time>
      </trkpt>
      <trkpt lat="44.00699" lon="4.37039">
        <ele>191</ele>
        <time>2011-11-20T08:55:20Z</time>
      </trkpt>
      <trkpt lat="44.00704" lon="4.37035">
        <ele>191.6</ele>
        <time>2011-11-20T08:55:22Z</time>
      </trkpt>
      <trkpt lat="44.00709" lon="4.37031">
        <ele>192.2</ele>
        <time>2011-11-20T08:55:24Z</time>
      </trkpt>
      <trkpt lat="44.00715" lon="4.37025">
        <ele>193.3</ele>
        <time>2011-11-20T08:55:26Z</time>
      </trkpt>
      <trkpt lat="44.0072" lon="4.37021">
        <ele>193.6</ele>
        <time>2011-11-20T08:55:28Z</time>
      </trkpt>
      <trkpt lat="44.00726" lon="4.37018">
        <ele>193.6</ele>
        <time>2011-11-20T08:55:30Z</time>
      </trkpt>
      <trkpt lat="44.00732" lon="4.37014">
        <ele>193.9</ele>
        <time>2011-11-20T08:55:32Z</time>
      </trkpt>
      <trkpt lat="44.00739" lon="4.3701">
        <ele>194.8</ele>
        <time>2011-11-20T08:55:34Z</time>
      </trkpt>
      <trkpt lat="44.00744" lon="4.37005">
        <ele>195.1</ele>
        <time>2011-11-20T08:55:36Z</time>
      </trkpt>
      <trkpt lat="44.00749" lon="4.36999">
        <ele>195.8</ele>
        <time>2011-11-20T08:55:38Z</time>
      </trkpt>
      <trkpt lat="44.00755" lon="4.36994">
        <ele>196.5</ele>
        <time>2011-11-20T08:55:40Z</time>
      </trkpt>
      <trkpt lat="44.00759" lon="4.36988">
        <ele>197.2</ele>
        <time>2011-11-20T08:55:42Z</time>
      </trkpt>
      <trkpt lat="44.00764" lon="4.36982">
        <ele>197.7</ele>
        <time>2011-11-20T08:55:44Z</time>
      </trkpt>
      <trkpt lat="44.00767" lon="4.36975">
        <ele>197.7</ele>
        <time>2011-11-20T08:55:46Z</time>
      </trkpt>
      <trkpt lat="44.00772" lon="4.36968">
        <ele>198.5</ele>
        <time>2011-11-20T08:55:48Z</time>
      </trkpt>
      <trkpt lat="44.00776" lon="4.36962">
        <ele>198.2</ele>
        <time>2011-11-20T08:55:50Z</time>
      </trkpt>
      <trkpt lat="44.00782" lon="4.36958">
        <ele>198.7</ele>
        <time>2011-11-20T08:55:52Z</time>
      </trkpt>
      <trkpt lat="44.00787" lon="4.36953">
        <ele>199</ele>
        <time>2011-11-20T08:55:54Z</time>
      </trkpt>
      <trkpt lat="44.00794" lon="4.36949">
        <ele>199.4</ele>
        <time>2011-11-20T08:55:56Z</time>
      </trkpt>
      <trkpt lat="44.008" lon="4.36945">
        <ele>199.7</ele>
        <time>2011-11-20T08:55:58Z</time>
      </trkpt>
      <trkpt lat="44.00806" lon="4.3694">
        <ele>199.8</ele>
        <time>2011-11-20T08:56:00Z</time>
      </trkpt>
      <trkpt lat="44.00811" lon="4.36934">
        <ele>200.6</ele>
        <time>2011-11-20T08:56:02Z</time>
      </trkpt>
      <trkpt lat="44.00816" lon="4.36929">
        <ele>201.2</ele>
        <time>2011-11-20T08:56:04Z</time>
      </trkpt>
      <trkpt lat="44.00822" lon="4.36924">
        <ele>201.8</ele>
        <time>2011-11-20T08:56:06Z</time>
      </trkpt>
      <trkpt lat="44.00827" lon="4.36918">
        <ele>201.8</ele>
        <time>2011-11-20T08:56:08Z</time>
      </trkpt>
      <trkpt lat="44.00832" lon="4.36912">
        <ele>201.9</ele>
        <time>2011-11-20T08:56:10Z</time>
      </trkpt>
      <trkpt lat="44.00837" lon="4.36906">
        <ele>202.5</ele>
        <time>2011-11-20T08:56:12Z</time>
      </trkpt>
      <trkpt lat="44.00842" lon="4.36898">
        <ele>203</ele>
        <time>2011-11-20T08:56:14Z</time>
      </trkpt>
      <trkpt lat="44.00847" lon="4.36892">
        <ele>203.2</ele>
        <time>2011-11-20T08:56:16Z</time>
      </trkpt>
      <trkpt lat="44.00852" lon="4.36885">
        <ele>203.7</ele>
        <time>2011-11-20T08:56:18Z</time>
      </trkpt>
      <trkpt lat="44.00856" lon="4.36879">
        <ele>204</ele>
        <time>2011-11-20T08:56:20Z</time>
      </trkpt>
      <trkpt lat="44.0086" lon="4.36873">
        <ele>204.2</ele>
        <time>2011-11-20T08:56:22Z</time>
      </trkpt>
      <trkpt lat="44.00864" lon="4.36868">
        <ele>204.4</ele>
        <time>2011-11-20T08:56:24Z</time>
      </trkpt>
      <trkpt lat="44.00868" lon="4.36864">
        <ele>204.6</ele>
        <time>2011-11-20T08:56:26Z</time>
      </trkpt>
      <trkpt lat="44.00871" lon="4.36858">
        <ele>204.4</ele>
        <time>2011-11-20T08:56:28Z</time>
      </trkpt>
      <trkpt lat="44.00874" lon="4.36853">
        <ele>204.5</ele>
        <time>2011-11-20T08:56:30Z</time>
      </trkpt>
      <trkpt lat="44.00878" lon="4.36848">
        <ele>204.6</ele>
        <time>2011-11-20T08:56:32Z</time>
      </trkpt>
      <trkpt lat="44.00882" lon="4.36844">
        <ele>204.6</ele>
        <time>2011-11-20T08:56:34Z</time>
      </trkpt>
      <trkpt lat="44.00886" lon="4.36838">
        <ele>204.8</ele>
        <time>2011-11-20T08:56:36Z</time>
      </trkpt>
      <trkpt lat="44.0089" lon="4.36832">
        <ele>205.2</ele>
        <time>2011-11-20T08:56:38Z</time>
      </trkpt>
      <trkpt lat="44.00895" lon="4.36827">
        <ele>205.6</ele>
        <time>2011-11-20T08:56:40Z</time>
      </trkpt>
      <trkpt lat="44.00899" lon="4.36821">
        <ele>205.7</ele>
        <time>2011-11-20T08:56:42Z</time>
      </trkpt>
      <trkpt lat="44.00904" lon="4.36815">
        <ele>206</ele>
        <time>2011-11-20T08:56:44Z</time>
      </trkpt>
      <trkpt lat="44.00909" lon="4.36809">
        <ele>206.5</ele>
        <time>2011-11-20T08:56:46Z</time>
      </trkpt>
      <trkpt lat="44.00914" lon="4.36803">
        <ele>206.6</ele>
        <time>2011-11-20T08:56:48Z</time>
      </trkpt>
      <trkpt lat="44.00918" lon="4.36797">
        <ele>206.8</ele>
        <time>2011-11-20T08:56:50Z</time>
      </trkpt>
      <trkpt lat="44.00922" lon="4.36791">
        <ele>206.9</ele>
        <time>2011-11-20T08:56:52Z</time>
      </trkpt>
      <trkpt lat="44.00927" lon="4.36784">
        <ele>207</ele>
        <time>2011-11-20T08:56:54Z</time>
      </trkpt>
      <trkpt lat="44.00932" lon="4.36778">
        <ele>207.4</ele>
        <time>2011-11-20T08:56:56Z</time>
      </trkpt>
      <trkpt lat="44.00936" lon="4.36772">
        <ele>207.7</ele>
        <time>2011-11-20T08:56:58Z</time>
      </trkpt>
      <trkpt lat="44.00941" lon="4.36766">
        <ele>207.9</ele>
        <time>2011-11-20T08:57:00Z</time>
      </trkpt>
      <trkpt lat="44.00946" lon="4.3676">
        <ele>208.3</ele>
        <time>2011-11-20T08:57:02Z</time>
      </trkpt>
      <trkpt lat="44.0095" lon="4.36753">
        <ele>208.5</ele>
        <time>2011-11-20T08:57:04Z</time>
      </trkpt>
      <trkpt lat="44.00955" lon="4.36748">
        <ele>208.8</ele>
        <time>2011-11-20T08:57:06Z</time>
      </trkpt>
      <trkpt lat="44.0096" lon="4.36742">
        <ele>209.2</ele>
        <time>2011-11-20T08:57:08Z</time>
      </trkpt>
      <trkpt lat="44.00964" lon="4.36736">
        <ele>209.3</ele>
        <time>2011-11-20T08:57:10Z</time>
      </trkpt>
      <trkpt lat="44.00968" lon="4.36728">
        <ele>209.4</ele>
        <time>2011-11-20T08:57:12Z</time>
      </trkpt>
      <trkpt lat="44.00971" lon="4.3672">
        <ele>209.6</ele>
        <time>2011-11-20T08:57:14Z</time>
      </trkpt>
      <trkpt lat="44.00974" lon="4.36713">
        <ele>209.9</ele>
        <time>2011-11-20T08:57:16Z</time>
      </trkpt>
      <trkpt lat="44.00978" lon="4.36708">
        <ele>210.3</ele>
        <time>2011-11-20T08:57:18Z</time>
      </trkpt>
      <trkpt lat="44.00982" lon="4.36705">
        <ele>210.5</ele>
        <time>2011-11-20T08:57:20Z</time>
      </trkpt>
      <trkpt lat="44.00989" lon="4.36705">
        <ele>210.3</ele>
        <time>2011-11-20T08:57:23Z</time>
      </trkpt>
      <trkpt lat="44.00994" lon="4.36706">
        <ele>210.5</ele>
        <time>2011-11-20T08:57:25Z</time>
      </trkpt>
      <trkpt lat="44.01" lon="4.36707">
        <ele>210.5</ele>
        <time>2011-11-20T08:57:27Z</time>
      </trkpt>
      <trkpt lat="44.01004" lon="4.36708">
        <ele>210.6</ele>
        <time>2011-11-20T08:57:29Z</time>
      </trkpt>
      <trkpt lat="44.01009" lon="4.36709">
        <ele>210.4</ele>
        <time>2011-11-20T08:57:31Z</time>
      </trkpt>
      <trkpt lat="44.01014" lon="4.36709">
        <ele>210.5</ele>
        <time>2011-11-20T08:57:33Z</time>
      </trkpt>
      <trkpt lat="44.0102" lon="4.3671">
        <ele>210.5</ele>
        <time>2011-11-20T08:57:35Z</time>
      </trkpt>
      <trkpt lat="44.01026" lon="4.36712">
        <ele>210.3</ele>
        <time>2011-11-20T08:57:37Z</time>
      </trkpt>
      <trkpt lat="44.01031" lon="4.36713">
        <ele>210.8</ele>
        <time>2011-11-20T08:57:39Z</time>
      </trkpt>
      <trkpt lat="44.01037" lon="4.36715">
        <ele>210.9</ele>
        <time>2011-11-20T08:57:41Z</time>
      </trkpt>
      <trkpt lat="44.01042" lon="4.36714">
        <ele>211.6</ele>
        <time>2011-11-20T08:57:43Z</time>
      </trkpt>
      <trkpt lat="44.01046" lon="4.36709">
        <ele>212.3</ele>
        <time>2011-11-20T08:57:46Z</time>
      </trkpt>
      <trkpt lat="44.01047" lon="4.36702">
        <ele>213.3</ele>
        <time>2011-11-20T08:57:48Z</time>
      </trkpt>
      <trkpt lat="44.01047" lon="4.36694">
        <ele>213.4</ele>
        <time>2011-11-20T08:57:50Z</time>
      </trkpt>
      <trkpt lat="44.01049" lon="4.36687">
        <ele>213.6</ele>
        <time>2011-11-20T08:57:52Z</time>
      </trkpt>
      <trkpt lat="44.01053" lon="4.36679">
        <ele>213.9</ele>
        <time>2011-11-20T08:57:54Z</time>
      </trkpt>
      <trkpt lat="44.01059" lon="4.36677">
        <ele>214.3</ele>
        <time>2011-11-20T08:57:56Z</time>
      </trkpt>
      <trkpt lat="44.01064" lon="4.36676">
        <ele>214.4</ele>
        <time>2011-11-20T08:57:58Z</time>
      </trkpt>
      <trkpt lat="44.01071" lon="4.36674">
        <ele>214.3</ele>
        <time>2011-11-20T08:58:00Z</time>
      </trkpt>
      <trkpt lat="44.01075" lon="4.36669">
        <ele>214.4</ele>
        <time>2011-11-20T08:58:02Z</time>
      </trkpt>
      <trkpt lat="44.01079" lon="4.36664">
        <ele>214.5</ele>
        <time>2011-11-20T08:58:04Z</time>
      </trkpt>
      <trkpt lat="44.01083" lon="4.3666">
        <ele>214.6</ele>
        <time>2011-11-20T08:58:06Z</time>
      </trkpt>
      <trkpt lat="44.01087" lon="4.36654">
        <ele>214.9</ele>
        <time>2011-11-20T08:58:08Z</time>
      </trkpt>
      <trkpt lat="44.01092" lon="4.3665">
        <ele>215.3</ele>
        <time>2011-11-20T08:58:10Z</time>
      </trkpt>
      <trkpt lat="44.01098" lon="4.36645">
        <ele>215.9</ele>
        <time>2011-11-20T08:58:12Z</time>
      </trkpt>
      <trkpt lat="44.01104" lon="4.36642">
        <ele>216.2</ele>
        <time>2011-11-20T08:58:14Z</time>
      </trkpt>
      <trkpt lat="44.01109" lon="4.36638">
        <ele>216</ele>
        <time>2011-11-20T08:58:16Z</time>
      </trkpt>
      <trkpt lat="44.01117" lon="4.36635">
        <ele>215.7</ele>
        <time>2011-11-20T08:58:18Z</time>
      </trkpt>
      <trkpt lat="44.01122" lon="4.3663">
        <ele>215.2</ele>
        <time>2011-11-20T08:58:20Z</time>
      </trkpt>
      <trkpt lat="44.01128" lon="4.36626">
        <ele>214.7</ele>
        <time>2011-11-20T08:58:22Z</time>
      </trkpt>
      <trkpt lat="44.01135" lon="4.36622">
        <ele>214.5</ele>
        <time>2011-11-20T08:58:24Z</time>
      </trkpt>
      <trkpt lat="44.01141" lon="4.3662">
        <ele>214.8</ele>
        <time>2011-11-20T08:58:26Z</time>
      </trkpt>
      <trkpt lat="44.01147" lon="4.3662">
        <ele>214.8</ele>
        <time>2011-11-20T08:58:28Z</time>
      </trkpt>
      <trkpt lat="44.01151" lon="4.36617">
        <ele>215.5</ele>
        <time>2011-11-20T08:58:30Z</time>
      </trkpt>
      <trkpt lat="44.01158" lon="4.36615">
        <ele>215.6</ele>
        <time>2011-11-20T08:58:32Z</time>
      </trkpt>
      <trkpt lat="44.01165" lon="4.36613">
        <ele>215.8</ele>
        <time>2011-11-20T08:58:34Z</time>
      </trkpt>
      <trkpt lat="44.01171" lon="4.36611">
        <ele>215.8</ele>
        <time>2011-11-20T08:58:36Z</time>
      </trkpt>
      <trkpt lat="44.01177" lon="4.36611">
        <ele>216.1</ele>
        <time>2011-11-20T08:58:38Z</time>
      </trkpt>
      <trkpt lat="44.01183" lon="4.36613">
        <ele>216.2</ele>
        <time>2011-11-20T08:58:40Z</time>
      </trkpt>
      <trkpt lat="44.01188" lon="4.36615">
        <ele>216.3</ele>
        <time>2011-11-20T08:58:42Z</time>
      </trkpt>
      <trkpt lat="44.01195" lon="4.36615">
        <ele>216</ele>
        <time>2011-11-20T08:58:44Z</time>
      </trkpt>
      <trkpt lat="44.01201" lon="4.36614">
        <ele>215.9</ele>
        <time>2011-11-20T08:58:46Z</time>
      </trkpt>
      <trkpt lat="44.01208" lon="4.36611">
        <ele>216</ele>
        <time>2011-11-20T08:58:48Z</time>
      </trkpt>
      <trkpt lat="44.01215" lon="4.36608">
        <ele>215.9</ele>
        <time>2011-11-20T08:58:50Z</time>
      </trkpt>
      <trkpt lat="44.01221" lon="4.36607">
        <ele>215.4</ele>
        <time>2011-11-20T08:58:52Z</time>
      </trkpt>
      <trkpt lat="44.01227" lon="4.36606">
        <ele>215.5</ele>
        <time>2011-11-20T08:58:54Z</time>
      </trkpt>
      <trkpt lat="44.01234" lon="4.36607">
        <ele>216</ele>
        <time>2011-11-20T08:58:56Z</time>
      </trkpt>
      <trkpt lat="44.01241" lon="4.36608">
        <ele>216.5</ele>
        <time>2011-11-20T08:58:58Z</time>
      </trkpt>
      <trkpt lat="44.01248" lon="4.36609">
        <ele>216.3</ele>
        <time>2011-11-20T08:59:00Z</time>
      </trkpt>
      <trkpt lat="44.01255" lon="4.3661">
        <ele>216</ele>
        <time>2011-11-20T08:59:02Z</time>
      </trkpt>
      <trkpt lat="44.0126" lon="4.36612">
        <ele>215.3</ele>
        <time>2011-11-20T08:59:04Z</time>
      </trkpt>
      <trkpt lat="44.01264" lon="4.36613">
        <ele>215.3</ele>
        <time>2011-11-20T08:59:07Z</time>
      </trkpt>
      <trkpt lat="44.01269" lon="4.36617">
        <ele>216.7</ele>
        <time>2011-11-20T08:59:26Z</time>
      </trkpt>
      <trkpt lat="44.01271" lon="4.36625">
        <ele>216.6</ele>
        <time>2011-11-20T08:59:27Z</time>
      </trkpt>
      <trkpt lat="44.01276" lon="4.3663">
        <ele>216.8</ele>
        <time>2011-11-20T08:59:29Z</time>
      </trkpt>
      <trkpt lat="44.01279" lon="4.36634">
        <ele>217.1</ele>
        <time>2011-11-20T08:59:31Z</time>
      </trkpt>
      <trkpt lat="44.01284" lon="4.36634">
        <ele>217.6</ele>
        <time>2011-11-20T08:59:33Z</time>
      </trkpt>
      <trkpt lat="44.01289" lon="4.36635">
        <ele>218.3</ele>
        <time>2011-11-20T08:59:35Z</time>
      </trkpt>
      <trkpt lat="44.01294" lon="4.36639">
        <ele>218.2</ele>
        <time>2011-11-20T08:59:37Z</time>
      </trkpt>
      <trkpt lat="44.013" lon="4.36644">
        <ele>218.4</ele>
        <time>2011-11-20T08:59:39Z</time>
      </trkpt>
      <trkpt lat="44.01305" lon="4.36652">
        <ele>218.8</ele>
        <time>2011-11-20T08:59:41Z</time>
      </trkpt>
      <trkpt lat="44.01311" lon="4.3666">
        <ele>219.2</ele>
        <time>2011-11-20T08:59:43Z</time>
      </trkpt>
      <trkpt lat="44.01316" lon="4.3667">
        <ele>218.7</ele>
        <time>2011-11-20T08:59:45Z</time>
      </trkpt>
      <trkpt lat="44.01318" lon="4.36681">
        <ele>218.1</ele>
        <time>2011-11-20T08:59:47Z</time>
      </trkpt>
      <trkpt lat="44.01315" lon="4.36691">
        <ele>217.8</ele>
        <time>2011-11-20T08:59:49Z</time>
      </trkpt>
      <trkpt lat="44.01308" lon="4.36697">
        <ele>217.6</ele>
        <time>2011-11-20T08:59:51Z</time>
      </trkpt>
      <trkpt lat="44.01299" lon="4.36698">
        <ele>217.3</ele>
        <time>2011-11-20T08:59:53Z</time>
      </trkpt>
      <trkpt lat="44.0129" lon="4.36698">
        <ele>216.5</ele>
        <time>2011-11-20T08:59:55Z</time>
      </trkpt>
      <trkpt lat="44.01283" lon="4.36701">
        <ele>215.9</ele>
        <time>2011-11-20T08:59:57Z</time>
      </trkpt>
      <trkpt lat="44.01277" lon="4.36705">
        <ele>215.5</ele>
        <time>2011-11-20T09:00:00Z</time>
      </trkpt>
      <trkpt lat="44.01271" lon="4.36707">
        <ele>215.5</ele>
        <time>2011-11-20T09:00:10Z</time>
      </trkpt>
      <trkpt lat="44.01265" lon="4.36711">
        <ele>215.4</ele>
        <time>2011-11-20T09:00:13Z</time>
      </trkpt>
      <trkpt lat="44.0126" lon="4.36716">
        <ele>215.2</ele>
        <time>2011-11-20T09:00:15Z</time>
      </trkpt>
      <trkpt lat="44.01255" lon="4.36719">
        <ele>215.4</ele>
        <time>2011-11-20T09:00:17Z</time>
      </trkpt>
      <trkpt lat="44.01251" lon="4.36724">
        <ele>215.5</ele>
        <time>2011-11-20T09:00:19Z</time>
      </trkpt>
      <trkpt lat="44.01247" lon="4.3673">
        <ele>215.5</ele>
        <time>2011-11-20T09:00:22Z</time>
      </trkpt>
      <trkpt lat="44.01241" lon="4.36732">
        <ele>215.3</ele>
        <time>2011-11-20T09:00:26Z</time>
      </trkpt>
      <trkpt lat="44.01238" lon="4.36737">
        <ele>215.7</ele>
        <time>2011-11-20T09:00:29Z</time>
      </trkpt>
      <trkpt lat="44.01236" lon="4.36744">
        <ele>215.6</ele>
        <time>2011-11-20T09:00:32Z</time>
      </trkpt>
      <trkpt lat="44.01235" lon="4.3675">
        <ele>215.6</ele>
        <time>2011-11-20T09:00:36Z</time>
      </trkpt>
      <trkpt lat="44.01235" lon="4.3675">
        <ele>215.6</ele>
        <time>2011-11-20T09:00:36Z</time>
      </trkpt>
      <trkpt lat="44.01235" lon="4.3675">
        <ele>215.6</ele>
        <time>2011-11-20T09:00:39Z</time>
      </trkpt>
      <trkpt lat="44.0123" lon="4.36755">
        <ele>215.4</ele>
        <time>2011-11-20T09:00:41Z</time>
      </trkpt>
      <trkpt lat="44.01226" lon="4.36758">
        <ele>215.5</ele>
        <time>2011-11-20T09:00:43Z</time>
      </trkpt>
      <trkpt lat="44.01222" lon="4.36762">
        <ele>215.5</ele>
        <time>2011-11-20T09:00:46Z</time>
      </trkpt>
      <trkpt lat="44.01216" lon="4.36767">
        <ele>215.3</ele>
        <time>2011-11-20T09:00:51Z</time>
      </trkpt>
      <trkpt lat="44.01212" lon="4.36774">
        <ele>215.7</ele>
        <time>2011-11-20T09:00:53Z</time>
      </trkpt>
      <trkpt lat="44.01208" lon="4.3678">
        <ele>215.8</ele>
        <time>2011-11-20T09:00:55Z</time>
      </trkpt>
      <trkpt lat="44.01206" lon="4.36786">
        <ele>215.8</ele>
        <time>2011-11-20T09:00:57Z</time>
      </trkpt>
      <trkpt lat="44.01203" lon="4.36794">
        <ele>216</ele>
        <time>2011-11-20T09:00:59Z</time>
      </trkpt>
      <trkpt lat="44.012" lon="4.368">
        <ele>216.5</ele>
        <time>2011-11-20T09:01:01Z</time>
      </trkpt>
      <trkpt lat="44.01198" lon="4.36806">
        <ele>216.4</ele>
        <time>2011-11-20T09:01:04Z</time>
      </trkpt>
      <trkpt lat="44.01196" lon="4.36813">
        <ele>216</ele>
        <time>2011-11-20T09:01:06Z</time>
      </trkpt>
      <trkpt lat="44.01193" lon="4.36824">
        <ele>216</ele>
        <time>2011-11-20T09:01:08Z</time>
      </trkpt>
      <trkpt lat="44.01191" lon="4.3683">
        <ele>215.9</ele>
        <time>2011-11-20T09:01:09Z</time>
      </trkpt>
      <trkpt lat="44.01189" lon="4.36836">
        <ele>215.9</ele>
        <time>2011-11-20T09:01:10Z</time>
      </trkpt>
      <trkpt lat="44.01187" lon="4.36844">
        <ele>215.8</ele>
        <time>2011-11-20T09:01:12Z</time>
      </trkpt>
      <trkpt lat="44.01187" lon="4.3685">
        <ele>215.3</ele>
        <time>2011-11-20T09:01:16Z</time>
      </trkpt>
      <trkpt lat="44.01187" lon="4.3685">
        <ele>215.3</ele>
        <time>2011-11-20T09:01:16Z</time>
      </trkpt>
      <trkpt lat="44.01187" lon="4.3685">
        <ele>215.3</ele>
        <time>2011-11-20T09:02:10Z</time>
      </trkpt>
      <trkpt lat="44.01187" lon="4.3686">
        <ele>215.9</ele>
        <time>2011-11-20T09:02:13Z</time>
      </trkpt>
      <trkpt lat="44.01185" lon="4.36866">
        <ele>216</ele>
        <time>2011-11-20T09:02:15Z</time>
      </trkpt>
      <trkpt lat="44.01183" lon="4.36872">
        <ele>216.3</ele>
        <time>2011-11-20T09:02:17Z</time>
      </trkpt>
      <trkpt lat="44.01178" lon="4.36877">
        <ele>216.8</ele>
        <time>2011-11-20T09:02:19Z</time>
      </trkpt>
      <trkpt lat="44.01175" lon="4.36882">
        <ele>217.4</ele>
        <time>2011-11-20T09:02:21Z</time>
      </trkpt>
      <trkpt lat="44.01172" lon="4.3689">
        <ele>217.2</ele>
        <time>2011-11-20T09:02:23Z</time>
      </trkpt>
      <trkpt lat="44.01167" lon="4.36894">
        <ele>217</ele>
        <time>2011-11-20T09:02:25Z</time>
      </trkpt>
      <trkpt lat="44.01162" lon="4.36898">
        <ele>216.8</ele>
        <time>2011-11-20T09:02:28Z</time>
      </trkpt>
      <trkpt lat="44.01157" lon="4.36898">
        <ele>216.8</ele>
        <time>2011-11-20T09:02:31Z</time>
      </trkpt>
      <trkpt lat="44.01151" lon="4.36901">
        <ele>216.8</ele>
        <time>2011-11-20T09:02:33Z</time>
      </trkpt>
      <trkpt lat="44.01146" lon="4.36904">
        <ele>216.5</ele>
        <time>2011-11-20T09:02:35Z</time>
      </trkpt>
      <trkpt lat="44.01141" lon="4.36908">
        <ele>216.2</ele>
        <time>2011-11-20T09:02:37Z</time>
      </trkpt>
      <trkpt lat="44.01138" lon="4.36914">
        <ele>216.1</ele>
        <time>2011-11-20T09:02:39Z</time>
      </trkpt>
      <trkpt lat="44.01133" lon="4.3692">
        <ele>216.2</ele>
        <time>2011-11-20T09:02:41Z</time>
      </trkpt>
      <trkpt lat="44.01128" lon="4.36928">
        <ele>216.2</ele>
        <time>2011-11-20T09:02:43Z</time>
      </trkpt>
      <trkpt lat="44.01126" lon="4.36937">
        <ele>216.1</ele>
        <time>2011-11-20T09:02:45Z</time>
      </trkpt>
      <trkpt lat="44.01125" lon="4.36945">
        <ele>216</ele>
        <time>2011-11-20T09:02:48Z</time>
      </trkpt>
      <trkpt lat="44.01127" lon="4.36954">
        <ele>217.3</ele>
        <time>2011-11-20T09:02:51Z</time>
      </trkpt>
      <trkpt lat="44.01128" lon="4.36963">
        <ele>217.1</ele>
        <time>2011-11-20T09:02:53Z</time>
      </trkpt>
      <trkpt lat="44.01129" lon="4.36973">
        <ele>217.1</ele>
        <time>2011-11-20T09:02:55Z</time>
      </trkpt>
      <trkpt lat="44.01131" lon="4.36985">
        <ele>216.4</ele>
        <time>2011-11-20T09:02:57Z</time>
      </trkpt>
      <trkpt lat="44.01133" lon="4.36996">
        <ele>216.2</ele>
        <time>2011-11-20T09:02:59Z</time>
      </trkpt>
      <trkpt lat="44.01132" lon="4.37008">
        <ele>215.5</ele>
        <time>2011-11-20T09:03:01Z</time>
      </trkpt>
      <trkpt lat="44.01128" lon="4.37017">
        <ele>215.2</ele>
        <time>2011-11-20T09:03:03Z</time>
      </trkpt>
      <trkpt lat="44.01122" lon="4.37026">
        <ele>215.3</ele>
        <time>2011-11-20T09:03:05Z</time>
      </trkpt>
      <trkpt lat="44.01116" lon="4.37032">
        <ele>216.2</ele>
        <time>2011-11-20T09:03:07Z</time>
      </trkpt>
      <trkpt lat="44.0111" lon="4.3704">
        <ele>216.6</ele>
        <time>2011-11-20T09:03:09Z</time>
      </trkpt>
      <trkpt lat="44.01104" lon="4.37047">
        <ele>217.2</ele>
        <time>2011-11-20T09:03:11Z</time>
      </trkpt>
      <trkpt lat="44.01098" lon="4.37056">
        <ele>217.6</ele>
        <time>2011-11-20T09:03:13Z</time>
      </trkpt>
      <trkpt lat="44.01091" lon="4.37062">
        <ele>217.3</ele>
        <time>2011-11-20T09:03:15Z</time>
      </trkpt>
      <trkpt lat="44.01084" lon="4.37066">
        <ele>216.4</ele>
        <time>2011-11-20T09:03:17Z</time>
      </trkpt>
      <trkpt lat="44.01076" lon="4.37069">
        <ele>216</ele>
        <time>2011-11-20T09:03:19Z</time>
      </trkpt>
      <trkpt lat="44.01072" lon="4.3707">
        <ele>215.9</ele>
        <time>2011-11-20T09:03:20Z</time>
      </trkpt>
      <trkpt lat="44.01066" lon="4.37072">
        <ele>215.9</ele>
        <time>2011-11-20T09:03:21Z</time>
      </trkpt>
      <trkpt lat="44.01061" lon="4.37074">
        <ele>215.4</ele>
        <time>2011-11-20T09:03:22Z</time>
      </trkpt>
      <trkpt lat="44.01056" lon="4.37075">
        <ele>215.3</ele>
        <time>2011-11-20T09:03:23Z</time>
      </trkpt>
      <trkpt lat="44.0105" lon="4.37077">
        <ele>215.3</ele>
        <time>2011-11-20T09:03:24Z</time>
      </trkpt>
      <trkpt lat="44.01046" lon="4.37078">
        <ele>215.1</ele>
        <time>2011-11-20T09:03:25Z</time>
      </trkpt>
      <trkpt lat="44.01038" lon="4.3708">
        <ele>214.4</ele>
        <time>2011-11-20T09:03:27Z</time>
      </trkpt>
      <trkpt lat="44.01032" lon="4.37086">
        <ele>213.2</ele>
        <time>2011-11-20T09:03:29Z</time>
      </trkpt>
      <trkpt lat="44.01028" lon="4.37094">
        <ele>212</ele>
        <time>2011-11-20T09:03:31Z</time>
      </trkpt>
      <trkpt lat="44.01025" lon="4.37103">
        <ele>212.3</ele>
        <time>2011-11-20T09:03:33Z</time>
      </trkpt>
      <trkpt lat="44.01021" lon="4.37112">
        <ele>212.5</ele>
        <time>2011-11-20T09:03:35Z</time>
      </trkpt>
      <trkpt lat="44.01016" lon="4.37122">
        <ele>212.4</ele>
        <time>2011-11-20T09:03:37Z</time>
      </trkpt>
      <trkpt lat="44.01012" lon="4.37131">
        <ele>212.2</ele>
        <time>2011-11-20T09:03:39Z</time>
      </trkpt>
      <trkpt lat="44.0101" lon="4.37138">
        <ele>212.4</ele>
        <time>2011-11-20T09:03:41Z</time>
      </trkpt>
      <trkpt lat="44.01008" lon="4.37145">
        <ele>212.1</ele>
        <time>2011-11-20T09:03:43Z</time>
      </trkpt>
      <trkpt lat="44.01005" lon="4.37151">
        <ele>212.1</ele>
        <time>2011-11-20T09:03:45Z</time>
      </trkpt>
      <trkpt lat="44.01001" lon="4.37156">
        <ele>211.9</ele>
        <time>2011-11-20T09:03:47Z</time>
      </trkpt>
      <trkpt lat="44.00997" lon="4.37163">
        <ele>211.6</ele>
        <time>2011-11-20T09:03:49Z</time>
      </trkpt>
      <trkpt lat="44.00993" lon="4.37172">
        <ele>211.6</ele>
        <time>2011-11-20T09:03:51Z</time>
      </trkpt>
      <trkpt lat="44.0099" lon="4.37182">
        <ele>211.7</ele>
        <time>2011-11-20T09:03:53Z</time>
      </trkpt>
      <trkpt lat="44.00988" lon="4.37192">
        <ele>211.7</ele>
        <time>2011-11-20T09:03:55Z</time>
      </trkpt>
      <trkpt lat="44.00986" lon="4.37203">
        <ele>211.5</ele>
        <time>2011-11-20T09:03:57Z</time>
      </trkpt>
      <trkpt lat="44.00983" lon="4.37213">
        <ele>211.6</ele>
        <time>2011-11-20T09:03:59Z</time>
      </trkpt>
      <trkpt lat="44.00981" lon="4.37225">
        <ele>211.1</ele>
        <time>2011-11-20T09:04:01Z</time>
      </trkpt>
      <trkpt lat="44.0098" lon="4.37234">
        <ele>210.4</ele>
        <time>2011-11-20T09:04:03Z</time>
      </trkpt>
      <trkpt lat="44.00979" lon="4.37245">
        <ele>209.8</ele>
        <time>2011-11-20T09:04:05Z</time>
      </trkpt>
      <trkpt lat="44.00979" lon="4.37251">
        <ele>209.4</ele>
        <time>2011-11-20T09:04:06Z</time>
      </trkpt>
      <trkpt lat="44.00977" lon="4.37262">
        <ele>208.8</ele>
        <time>2011-11-20T09:04:08Z</time>
      </trkpt>
      <trkpt lat="44.00973" lon="4.3727">
        <ele>207.7</ele>
        <time>2011-11-20T09:04:10Z</time>
      </trkpt>
      <trkpt lat="44.00968" lon="4.37277">
        <ele>206.9</ele>
        <time>2011-11-20T09:04:12Z</time>
      </trkpt>
      <trkpt lat="44.00963" lon="4.37283">
        <ele>206.2</ele>
        <time>2011-11-20T09:04:14Z</time>
      </trkpt>
      <trkpt lat="44.0096" lon="4.37291">
        <ele>205.6</ele>
        <time>2011-11-20T09:04:16Z</time>
      </trkpt>
      <trkpt lat="44.00956" lon="4.37298">
        <ele>205.1</ele>
        <time>2011-11-20T09:04:18Z</time>
      </trkpt>
      <trkpt lat="44.00954" lon="4.37308">
        <ele>205.2</ele>
        <time>2011-11-20T09:04:20Z</time>
      </trkpt>
      <trkpt lat="44.00952" lon="4.37318">
        <ele>205.4</ele>
        <time>2011-11-20T09:04:22Z</time>
      </trkpt>
      <trkpt lat="44.00948" lon="4.37329">
        <ele>205.4</ele>
        <time>2011-11-20T09:04:24Z</time>
      </trkpt>
      <trkpt lat="44.00946" lon="4.37335">
        <ele>205.3</ele>
        <time>2011-11-20T09:04:25Z</time>
      </trkpt>
      <trkpt lat="44.00944" lon="4.37341">
        <ele>205</ele>
        <time>2011-11-20T09:04:26Z</time>
      </trkpt>
      <trkpt lat="44.00941" lon="4.37346">
        <ele>204.6</ele>
        <time>2011-11-20T09:04:27Z</time>
      </trkpt>
      <trkpt lat="44.00939" lon="4.37352">
        <ele>204.3</ele>
        <time>2011-11-20T09:04:28Z</time>
      </trkpt>
      <trkpt lat="44.00936" lon="4.37358">
        <ele>204.1</ele>
        <time>2011-11-20T09:04:29Z</time>
      </trkpt>
      <trkpt lat="44.00934" lon="4.37363">
        <ele>203.9</ele>
        <time>2011-11-20T09:04:30Z</time>
      </trkpt>
      <trkpt lat="44.00931" lon="4.37369">
        <ele>203.8</ele>
        <time>2011-11-20T09:04:31Z</time>
      </trkpt>
      <trkpt lat="44.00926" lon="4.37379">
        <ele>203.5</ele>
        <time>2011-11-20T09:04:33Z</time>
      </trkpt>
      <trkpt lat="44.00922" lon="4.37384">
        <ele>203.5</ele>
        <time>2011-11-20T09:04:34Z</time>
      </trkpt>
      <trkpt lat="44.0092" lon="4.37389">
        <ele>203.2</ele>
        <time>2011-11-20T09:04:35Z</time>
      </trkpt>
      <trkpt lat="44.00915" lon="4.37398">
        <ele>202.9</ele>
        <time>2011-11-20T09:04:37Z</time>
      </trkpt>
      <trkpt lat="44.00911" lon="4.37403">
        <ele>202.8</ele>
        <time>2011-11-20T09:04:38Z</time>
      </trkpt>
      <trkpt lat="44.00908" lon="4.37407">
        <ele>202.9</ele>
        <time>2011-11-20T09:04:39Z</time>
      </trkpt>
      <trkpt lat="44.00904" lon="4.37412">
        <ele>202.7</ele>
        <time>2011-11-20T09:04:40Z</time>
      </trkpt>
      <trkpt lat="44.00899" lon="4.37416">
        <ele>202.6</ele>
        <time>2011-11-20T09:04:41Z</time>
      </trkpt>
      <trkpt lat="44.00895" lon="4.3742">
        <ele>202.4</ele>
        <time>2011-11-20T09:04:42Z</time>
      </trkpt>
      <trkpt lat="44.0089" lon="4.37424">
        <ele>202.2</ele>
        <time>2011-11-20T09:04:43Z</time>
      </trkpt>
      <trkpt lat="44.00886" lon="4.37428">
        <ele>202.2</ele>
        <time>2011-11-20T09:04:44Z</time>
      </trkpt>
      <trkpt lat="44.00882" lon="4.37431">
        <ele>202</ele>
        <time>2011-11-20T09:04:45Z</time>
      </trkpt>
      <trkpt lat="44.00878" lon="4.37435">
        <ele>201.8</ele>
        <time>2011-11-20T09:04:46Z</time>
      </trkpt>
      <trkpt lat="44.00874" lon="4.37438">
        <ele>201.7</ele>
        <time>2011-11-20T09:04:47Z</time>
      </trkpt>
      <trkpt lat="44.00867" lon="4.37448">
        <ele>201.6</ele>
        <time>2011-11-20T09:04:49Z</time>
      </trkpt>
      <trkpt lat="44.00864" lon="4.37453">
        <ele>201.4</ele>
        <time>2011-11-20T09:04:50Z</time>
      </trkpt>
      <trkpt lat="44.00861" lon="4.37459">
        <ele>201.2</ele>
        <time>2011-11-20T09:04:51Z</time>
      </trkpt>
      <trkpt lat="44.00858" lon="4.37469">
        <ele>200.3</ele>
        <time>2011-11-20T09:04:53Z</time>
      </trkpt>
      <trkpt lat="44.00856" lon="4.3748">
        <ele>199.7</ele>
        <time>2011-11-20T09:04:55Z</time>
      </trkpt>
      <trkpt lat="44.00855" lon="4.37488">
        <ele>198.7</ele>
        <time>2011-11-20T09:04:58Z</time>
      </trkpt>
      <trkpt lat="44.00848" lon="4.37497">
        <ele>190.9</ele>
        <time>2011-11-20T09:05:53Z</time>
      </trkpt>
      <trkpt lat="44.00843" lon="4.37502">
        <ele>191.4</ele>
        <time>2011-11-20T09:05:56Z</time>
      </trkpt>
      <trkpt lat="44.00839" lon="4.37507">
        <ele>191.9</ele>
        <time>2011-11-20T09:05:58Z</time>
      </trkpt>
      <trkpt lat="44.00834" lon="4.37512">
        <ele>192.4</ele>
        <time>2011-11-20T09:06:00Z</time>
      </trkpt>
      <trkpt lat="44.00828" lon="4.37518">
        <ele>192.7</ele>
        <time>2011-11-20T09:06:02Z</time>
      </trkpt>
      <trkpt lat="44.00822" lon="4.37525">
        <ele>192.9</ele>
        <time>2011-11-20T09:06:04Z</time>
      </trkpt>
      <trkpt lat="44.00818" lon="4.37529">
        <ele>192.9</ele>
        <time>2011-11-20T09:06:05Z</time>
      </trkpt>
      <trkpt lat="44.00815" lon="4.37532">
        <ele>193</ele>
        <time>2011-11-20T09:06:06Z</time>
      </trkpt>
      <trkpt lat="44.0081" lon="4.37536">
        <ele>193</ele>
        <time>2011-11-20T09:06:07Z</time>
      </trkpt>
      <trkpt lat="44.00807" lon="4.37541">
        <ele>193.1</ele>
        <time>2011-11-20T09:06:08Z</time>
      </trkpt>
      <trkpt lat="44.00803" lon="4.37545">
        <ele>193.2</ele>
        <time>2011-11-20T09:06:09Z</time>
      </trkpt>
      <trkpt lat="44.00799" lon="4.37551">
        <ele>193.3</ele>
        <time>2011-11-20T09:06:10Z</time>
      </trkpt>
      <trkpt lat="44.00797" lon="4.37558">
        <ele>193.6</ele>
        <time>2011-11-20T09:06:11Z</time>
      </trkpt>
      <trkpt lat="44.00793" lon="4.37564">
        <ele>193.7</ele>
        <time>2011-11-20T09:06:12Z</time>
      </trkpt>
      <trkpt lat="44.0079" lon="4.37569">
        <ele>193.9</ele>
        <time>2011-11-20T09:06:13Z</time>
      </trkpt>
      <trkpt lat="44.00785" lon="4.3758">
        <ele>194.3</ele>
        <time>2011-11-20T09:06:15Z</time>
      </trkpt>
      <trkpt lat="44.00782" lon="4.3759">
        <ele>194.8</ele>
        <time>2011-11-20T09:06:17Z</time>
      </trkpt>
      <trkpt lat="44.00778" lon="4.37602">
        <ele>194.6</ele>
        <time>2011-11-20T09:06:19Z</time>
      </trkpt>
      <trkpt lat="44.00776" lon="4.37607">
        <ele>194.3</ele>
        <time>2011-11-20T09:06:20Z</time>
      </trkpt>
      <trkpt lat="44.00774" lon="4.37613">
        <ele>194.4</ele>
        <time>2011-11-20T09:06:21Z</time>
      </trkpt>
      <trkpt lat="44.00772" lon="4.3762">
        <ele>194.4</ele>
        <time>2011-11-20T09:06:22Z</time>
      </trkpt>
      <trkpt lat="44.0077" lon="4.37627">
        <ele>194.3</ele>
        <time>2011-11-20T09:06:23Z</time>
      </trkpt>
      <trkpt lat="44.00768" lon="4.37634">
        <ele>194.3</ele>
        <time>2011-11-20T09:06:24Z</time>
      </trkpt>
      <trkpt lat="44.00765" lon="4.37642">
        <ele>194.2</ele>
        <time>2011-11-20T09:06:25Z</time>
      </trkpt>
      <trkpt lat="44.00763" lon="4.37649">
        <ele>194</ele>
        <time>2011-11-20T09:06:26Z</time>
      </trkpt>
      <trkpt lat="44.0076" lon="4.37657">
        <ele>193.8</ele>
        <time>2011-11-20T09:06:27Z</time>
      </trkpt>
      <trkpt lat="44.00758" lon="4.37663">
        <ele>193.5</ele>
        <time>2011-11-20T09:06:28Z</time>
      </trkpt>
      <trkpt lat="44.00755" lon="4.37673">
        <ele>193.3</ele>
        <time>2011-11-20T09:06:30Z</time>
      </trkpt>
      <trkpt lat="44.0076" lon="4.37674">
        <ele>191.4</ele>
        <time>2011-11-20T09:06:36Z</time>
      </trkpt>
      <trkpt lat="44.00763" lon="4.37669">
        <ele>191</ele>
        <time>2011-11-20T09:06:38Z</time>
      </trkpt>
      <trkpt lat="44.00767" lon="4.37663">
        <ele>190.9</ele>
        <time>2011-11-20T09:06:40Z</time>
      </trkpt>
      <trkpt lat="44.00771" lon="4.37657">
        <ele>190.5</ele>
        <time>2011-11-20T09:06:42Z</time>
      </trkpt>
      <trkpt lat="44.00775" lon="4.3765">
        <ele>190.4</ele>
        <time>2011-11-20T09:06:44Z</time>
      </trkpt>
      <trkpt lat="44.00779" lon="4.37643">
        <ele>190.3</ele>
        <time>2011-11-20T09:06:46Z</time>
      </trkpt>
      <trkpt lat="44.00785" lon="4.37636">
        <ele>190.5</ele>
        <time>2011-11-20T09:06:48Z</time>
      </trkpt>
      <trkpt lat="44.00792" lon="4.37632">
        <ele>190.8</ele>
        <time>2011-11-20T09:06:50Z</time>
      </trkpt>
      <trkpt lat="44.008" lon="4.37632">
        <ele>190.4</ele>
        <time>2011-11-20T09:06:52Z</time>
      </trkpt>
      <trkpt lat="44.00794" lon="4.37633">
        <ele>187.4</ele>
        <time>2011-11-20T09:07:05Z</time>
      </trkpt>
      <trkpt lat="44.00788" lon="4.37636">
        <ele>187.7</ele>
        <time>2011-11-20T09:07:08Z</time>
      </trkpt>
      <trkpt lat="44.00783" lon="4.37643">
        <ele>188.2</ele>
        <time>2011-11-20T09:07:10Z</time>
      </trkpt>
      <trkpt lat="44.00778" lon="4.37652">
        <ele>188.5</ele>
        <time>2011-11-20T09:07:12Z</time>
      </trkpt>
      <trkpt lat="44.00775" lon="4.37658">
        <ele>188.7</ele>
        <time>2011-11-20T09:07:13Z</time>
      </trkpt>
      <trkpt lat="44.00772" lon="4.37663">
        <ele>189</ele>
        <time>2011-11-20T09:07:14Z</time>
      </trkpt>
      <trkpt lat="44.00767" lon="4.37673">
        <ele>189.3</ele>
        <time>2011-11-20T09:07:16Z</time>
      </trkpt>
      <trkpt lat="44.00761" lon="4.37681">
        <ele>189.3</ele>
        <time>2011-11-20T09:07:18Z</time>
      </trkpt>
      <trkpt lat="44.00757" lon="4.37688">
        <ele>190</ele>
        <time>2011-11-20T09:07:20Z</time>
      </trkpt>
      <trkpt lat="44.00752" lon="4.37697">
        <ele>189.9</ele>
        <time>2011-11-20T09:07:22Z</time>
      </trkpt>
      <trkpt lat="44.00746" lon="4.37704">
        <ele>190</ele>
        <time>2011-11-20T09:07:24Z</time>
      </trkpt>
      <trkpt lat="44.0074" lon="4.37713">
        <ele>189.9</ele>
        <time>2011-11-20T09:07:26Z</time>
      </trkpt>
      <trkpt lat="44.00737" lon="4.37718">
        <ele>189.9</ele>
        <time>2011-11-20T09:07:27Z</time>
      </trkpt>
      <trkpt lat="44.00735" lon="4.37725">
        <ele>189.8</ele>
        <time>2011-11-20T09:07:28Z</time>
      </trkpt>
      <trkpt lat="44.00733" lon="4.37731">
        <ele>189.6</ele>
        <time>2011-11-20T09:07:29Z</time>
      </trkpt>
      <trkpt lat="44.0073" lon="4.37737">
        <ele>189.3</ele>
        <time>2011-11-20T09:07:30Z</time>
      </trkpt>
      <trkpt lat="44.00727" lon="4.37743">
        <ele>189.1</ele>
        <time>2011-11-20T09:07:31Z</time>
      </trkpt>
      <trkpt lat="44.00723" lon="4.3775">
        <ele>189</ele>
        <time>2011-11-20T09:07:32Z</time>
      </trkpt>
      <trkpt lat="44.00718" lon="4.37755">
        <ele>188.9</ele>
        <time>2011-11-20T09:07:33Z</time>
      </trkpt>
      <trkpt lat="44.00713" lon="4.3776">
        <ele>188.8</ele>
        <time>2011-11-20T09:07:34Z</time>
      </trkpt>
      <trkpt lat="44.0071" lon="4.37765">
        <ele>188.9</ele>
        <time>2011-11-20T09:07:35Z</time>
      </trkpt>
      <trkpt lat="44.00704" lon="4.37769">
        <ele>188.8</ele>
        <time>2011-11-20T09:07:37Z</time>
      </trkpt>
      <trkpt lat="44.00709" lon="4.37773">
        <ele>187.1</ele>
        <time>2011-11-20T09:07:42Z</time>
      </trkpt>
      <trkpt lat="44.00714" lon="4.37779">
        <ele>186.7</ele>
        <time>2011-11-20T09:07:44Z</time>
      </trkpt>
      <trkpt lat="44.0072" lon="4.37786">
        <ele>186.6</ele>
        <time>2011-11-20T09:07:46Z</time>
      </trkpt>
      <trkpt lat="44.00724" lon="4.37793">
        <ele>186.4</ele>
        <time>2011-11-20T09:07:48Z</time>
      </trkpt>
      <trkpt lat="44.00727" lon="4.37798">
        <ele>183.8</ele>
        <time>2011-11-20T09:07:52Z</time>
      </trkpt>
      <trkpt lat="44.00727" lon="4.37798">
        <ele>183.8</ele>
        <time>2011-11-20T09:07:52Z</time>
      </trkpt>
      <trkpt lat="44.00727" lon="4.37798">
        <ele>183.8</ele>
        <time>2011-11-20T09:08:11Z</time>
      </trkpt>
      <trkpt lat="44.00725" lon="4.37792">
        <ele>179.7</ele>
        <time>2011-11-20T09:08:15Z</time>
      </trkpt>
      <trkpt lat="44.00723" lon="4.37784">
        <ele>179.7</ele>
        <time>2011-11-20T09:08:17Z</time>
      </trkpt>
      <trkpt lat="44.00718" lon="4.37778">
        <ele>179.6</ele>
        <time>2011-11-20T09:08:19Z</time>
      </trkpt>
      <trkpt lat="44.00712" lon="4.37773">
        <ele>179.9</ele>
        <time>2011-11-20T09:08:21Z</time>
      </trkpt>
      <trkpt lat="44.00708" lon="4.37768">
        <ele>179.7</ele>
        <time>2011-11-20T09:08:23Z</time>
      </trkpt>
      <trkpt lat="44.00702" lon="4.37769">
        <ele>180.7</ele>
        <time>2011-11-20T09:08:33Z</time>
      </trkpt>
      <trkpt lat="44.00699" lon="4.37777">
        <ele>181.2</ele>
        <time>2011-11-20T09:08:34Z</time>
      </trkpt>
      <trkpt lat="44.00692" lon="4.37781">
        <ele>181.6</ele>
        <time>2011-11-20T09:08:36Z</time>
      </trkpt>
      <trkpt lat="44.00685" lon="4.37787">
        <ele>182</ele>
        <time>2011-11-20T09:08:38Z</time>
      </trkpt>
      <trkpt lat="44.0068" lon="4.37789">
        <ele>182.2</ele>
        <time>2011-11-20T09:08:39Z</time>
      </trkpt>
      <trkpt lat="44.00676" lon="4.37791">
        <ele>182.6</ele>
        <time>2011-11-20T09:08:40Z</time>
      </trkpt>
      <trkpt lat="44.00671" lon="4.37793">
        <ele>182.8</ele>
        <time>2011-11-20T09:08:41Z</time>
      </trkpt>
      <trkpt lat="44.00667" lon="4.37795">
        <ele>182.9</ele>
        <time>2011-11-20T09:08:42Z</time>
      </trkpt>
      <trkpt lat="44.00662" lon="4.37797">
        <ele>182.9</ele>
        <time>2011-11-20T09:08:43Z</time>
      </trkpt>
      <trkpt lat="44.00657" lon="4.378">
        <ele>183.2</ele>
        <time>2011-11-20T09:08:44Z</time>
      </trkpt>
      <trkpt lat="44.00648" lon="4.37803">
        <ele>184</ele>
        <time>2011-11-20T09:08:46Z</time>
      </trkpt>
      <trkpt lat="44.00644" lon="4.37804">
        <ele>184.4</ele>
        <time>2011-11-20T09:08:47Z</time>
      </trkpt>
      <trkpt lat="44.00639" lon="4.37806">
        <ele>184.6</ele>
        <time>2011-11-20T09:08:48Z</time>
      </trkpt>
      <trkpt lat="44.00634" lon="4.37808">
        <ele>184.7</ele>
        <time>2011-11-20T09:08:49Z</time>
      </trkpt>
      <trkpt lat="44.0063" lon="4.3781">
        <ele>184.9</ele>
        <time>2011-11-20T09:08:50Z</time>
      </trkpt>
      <trkpt lat="44.00625" lon="4.37812">
        <ele>184.9</ele>
        <time>2011-11-20T09:08:51Z</time>
      </trkpt>
      <trkpt lat="44.00617" lon="4.37815">
        <ele>184.5</ele>
        <time>2011-11-20T09:08:53Z</time>
      </trkpt>
      <trkpt lat="44.00611" lon="4.37824">
        <ele>182</ele>
        <time>2011-11-20T09:09:08Z</time>
      </trkpt>
      <trkpt lat="44.00606" lon="4.37828">
        <ele>181.7</ele>
        <time>2011-11-20T09:09:10Z</time>
      </trkpt>
      <trkpt lat="44.006" lon="4.37832">
        <ele>181</ele>
        <time>2011-11-20T09:09:12Z</time>
      </trkpt>
      <trkpt lat="44.00591" lon="4.37836">
        <ele>181.1</ele>
        <time>2011-11-20T09:09:14Z</time>
      </trkpt>
      <trkpt lat="44.00583" lon="4.37844">
        <ele>181.2</ele>
        <time>2011-11-20T09:09:16Z</time>
      </trkpt>
      <trkpt lat="44.0058" lon="4.37848">
        <ele>181.1</ele>
        <time>2011-11-20T09:09:17Z</time>
      </trkpt>
      <trkpt lat="44.0056" lon="4.37881">
        <ele>180.4</ele>
        <time>2011-11-20T09:09:21Z</time>
      </trkpt>
      <trkpt lat="44.0055" lon="4.37889">
        <ele>179.2</ele>
        <time>2011-11-20T09:09:22Z</time>
      </trkpt>
      <trkpt lat="44.00555" lon="4.37895">
        <ele>179.7</ele>
        <time>2011-11-20T09:09:23Z</time>
      </trkpt>
      <trkpt lat="44.00547" lon="4.37894">
        <ele>179.1</ele>
        <time>2011-11-20T09:09:24Z</time>
      </trkpt>
      <trkpt lat="44.00556" lon="4.37892">
        <ele>175.8</ele>
        <time>2011-11-20T09:09:25Z</time>
      </trkpt>
      <trkpt lat="44.00544" lon="4.37893">
        <ele>181.5</ele>
        <time>2011-11-20T09:09:26Z</time>
      </trkpt>
      <trkpt lat="44.00533" lon="4.37919">
        <ele>154.5</ele>
        <time>2011-11-20T09:09:28Z</time>
      </trkpt>
      <trkpt lat="44.00528" lon="4.37922">
        <ele>164.7</ele>
        <time>2011-11-20T09:09:31Z</time>
      </trkpt>
      <trkpt lat="44.00524" lon="4.37931">
        <ele>164.4</ele>
        <time>2011-11-20T09:09:33Z</time>
      </trkpt>
      <trkpt lat="44.00518" lon="4.37938">
        <ele>169</ele>
        <time>2011-11-20T09:09:35Z</time>
      </trkpt>
      <trkpt lat="44.00513" lon="4.37945">
        <ele>172.1</ele>
        <time>2011-11-20T09:09:37Z</time>
      </trkpt>
      <trkpt lat="44.00509" lon="4.37949">
        <ele>173.6</ele>
        <time>2011-11-20T09:09:39Z</time>
      </trkpt>
      <trkpt lat="44.00515" lon="4.37946">
        <ele>182</ele>
        <time>2011-11-20T09:09:48Z</time>
      </trkpt>
      <trkpt lat="44.00522" lon="4.37944">
        <ele>179.8</ele>
        <time>2011-11-20T09:09:50Z</time>
      </trkpt>
      <trkpt lat="44.00528" lon="4.37939">
        <ele>177</ele>
        <time>2011-11-20T09:09:52Z</time>
      </trkpt>
      <trkpt lat="44.00534" lon="4.37934">
        <ele>174.5</ele>
        <time>2011-11-20T09:09:54Z</time>
      </trkpt>
      <trkpt lat="44.00541" lon="4.37929">
        <ele>172.9</ele>
        <time>2011-11-20T09:09:56Z</time>
      </trkpt>
      <trkpt lat="44.00551" lon="4.37926">
        <ele>171.1</ele>
        <time>2011-11-20T09:09:58Z</time>
      </trkpt>
      <trkpt lat="44.00557" lon="4.37925">
        <ele>171</ele>
        <time>2011-11-20T09:09:59Z</time>
      </trkpt>
      <trkpt lat="44.00564" lon="4.37928">
        <ele>170.3</ele>
        <time>2011-11-20T09:10:00Z</time>
      </trkpt>
      <trkpt lat="44.0057" lon="4.3793">
        <ele>169.8</ele>
        <time>2011-11-20T09:10:01Z</time>
      </trkpt>
      <trkpt lat="44.00574" lon="4.37934">
        <ele>169.2</ele>
        <time>2011-11-20T09:10:02Z</time>
      </trkpt>
      <trkpt lat="44.00578" lon="4.37938">
        <ele>168.8</ele>
        <time>2011-11-20T09:10:03Z</time>
      </trkpt>
      <trkpt lat="44.00582" lon="4.37942">
        <ele>168.4</ele>
        <time>2011-11-20T09:10:04Z</time>
      </trkpt>
      <trkpt lat="44.00585" lon="4.37946">
        <ele>167.8</ele>
        <time>2011-11-20T09:10:05Z</time>
      </trkpt>
      <trkpt lat="44.00588" lon="4.3795">
        <ele>167</ele>
        <time>2011-11-20T09:10:06Z</time>
      </trkpt>
      <trkpt lat="44.00595" lon="4.37957">
        <ele>165.7</ele>
        <time>2011-11-20T09:10:08Z</time>
      </trkpt>
      <trkpt lat="44.00602" lon="4.37962">
        <ele>164.7</ele>
        <time>2011-11-20T09:10:10Z</time>
      </trkpt>
      <trkpt lat="44.00608" lon="4.37964">
        <ele>164.6</ele>
        <time>2011-11-20T09:10:12Z</time>
      </trkpt>
      <trkpt lat="44.00613" lon="4.37963">
        <ele>165.1</ele>
        <time>2011-11-20T09:10:14Z</time>
      </trkpt>
      <trkpt lat="44.00618" lon="4.37963">
        <ele>165.3</ele>
        <time>2011-11-20T09:10:16Z</time>
      </trkpt>
      <trkpt lat="44.00624" lon="4.37965">
        <ele>165.2</ele>
        <time>2011-11-20T09:10:18Z</time>
      </trkpt>
      <trkpt lat="44.0063" lon="4.37971">
        <ele>165.1</ele>
        <time>2011-11-20T09:10:20Z</time>
      </trkpt>
      <trkpt lat="44.00636" lon="4.37977">
        <ele>164.9</ele>
        <time>2011-11-20T09:10:22Z</time>
      </trkpt>
      <trkpt lat="44.00642" lon="4.37984">
        <ele>164.7</ele>
        <time>2011-11-20T09:10:24Z</time>
      </trkpt>
      <trkpt lat="44.00647" lon="4.37992">
        <ele>164.8</ele>
        <time>2011-11-20T09:10:26Z</time>
      </trkpt>
      <trkpt lat="44.00652" lon="4.38">
        <ele>165</ele>
        <time>2011-11-20T09:10:28Z</time>
      </trkpt>
      <trkpt lat="44.00656" lon="4.38008">
        <ele>165.2</ele>
        <time>2011-11-20T09:10:30Z</time>
      </trkpt>
      <trkpt lat="44.0066" lon="4.38013">
        <ele>165.1</ele>
        <time>2011-11-20T09:10:32Z</time>
      </trkpt>
      <trkpt lat="44.00666" lon="4.38015">
        <ele>165.3</ele>
        <time>2011-11-20T09:10:34Z</time>
      </trkpt>
      <trkpt lat="44.00672" lon="4.38014">
        <ele>166.1</ele>
        <time>2011-11-20T09:10:36Z</time>
      </trkpt>
      <trkpt lat="44.00679" lon="4.38012">
        <ele>166.7</ele>
        <time>2011-11-20T09:10:38Z</time>
      </trkpt>
      <trkpt lat="44.00687" lon="4.3801">
        <ele>167.3</ele>
        <time>2011-11-20T09:10:40Z</time>
      </trkpt>
      <trkpt lat="44.00694" lon="4.3801">
        <ele>167.7</ele>
        <time>2011-11-20T09:10:42Z</time>
      </trkpt>
      <trkpt lat="44.00702" lon="4.3801">
        <ele>168</ele>
        <time>2011-11-20T09:10:44Z</time>
      </trkpt>
      <trkpt lat="44.00708" lon="4.38013">
        <ele>168.5</ele>
        <time>2011-11-20T09:10:46Z</time>
      </trkpt>
      <trkpt lat="44.00713" lon="4.38022">
        <ele>169.4</ele>
        <time>2011-11-20T09:10:48Z</time>
      </trkpt>
      <trkpt lat="44.00715" lon="4.38033">
        <ele>170.2</ele>
        <time>2011-11-20T09:10:50Z</time>
      </trkpt>
      <trkpt lat="44.00715" lon="4.38044">
        <ele>170.7</ele>
        <time>2011-11-20T09:10:52Z</time>
      </trkpt>
      <trkpt lat="44.00714" lon="4.38054">
        <ele>171.2</ele>
        <time>2011-11-20T09:10:54Z</time>
      </trkpt>
      <trkpt lat="44.00712" lon="4.38064">
        <ele>171.5</ele>
        <time>2011-11-20T09:10:56Z</time>
      </trkpt>
      <trkpt lat="44.00711" lon="4.38074">
        <ele>171.7</ele>
        <time>2011-11-20T09:10:58Z</time>
      </trkpt>
      <trkpt lat="44.00711" lon="4.38082">
        <ele>171.7</ele>
        <time>2011-11-20T09:11:00Z</time>
      </trkpt>
      <trkpt lat="44.00711" lon="4.3809">
        <ele>171.6</ele>
        <time>2011-11-20T09:11:02Z</time>
      </trkpt>
      <trkpt lat="44.0071" lon="4.381">
        <ele>171.7</ele>
        <time>2011-11-20T09:11:04Z</time>
      </trkpt>
      <trkpt lat="44.0071" lon="4.38109">
        <ele>171.9</ele>
        <time>2011-11-20T09:11:06Z</time>
      </trkpt>
      <trkpt lat="44.00711" lon="4.38118">
        <ele>172</ele>
        <time>2011-11-20T09:11:08Z</time>
      </trkpt>
      <trkpt lat="44.00712" lon="4.38124">
        <ele>172.1</ele>
        <time>2011-11-20T09:11:10Z</time>
      </trkpt>
      <trkpt lat="44.00715" lon="4.38132">
        <ele>172</ele>
        <time>2011-11-20T09:11:13Z</time>
      </trkpt>
      <trkpt lat="44.00716" lon="4.38142">
        <ele>171.9</ele>
        <time>2011-11-20T09:11:16Z</time>
      </trkpt>
      <trkpt lat="44.00716" lon="4.38148">
        <ele>172</ele>
        <time>2011-11-20T09:11:18Z</time>
      </trkpt>
      <trkpt lat="44.00714" lon="4.38155">
        <ele>172.1</ele>
        <time>2011-11-20T09:11:20Z</time>
      </trkpt>
      <trkpt lat="44.00711" lon="4.38161">
        <ele>172.2</ele>
        <time>2011-11-20T09:11:22Z</time>
      </trkpt>
      <trkpt lat="44.00708" lon="4.38168">
        <ele>172.3</ele>
        <time>2011-11-20T09:11:25Z</time>
      </trkpt>
      <trkpt lat="44.00712" lon="4.38164">
        <ele>170.4</ele>
        <time>2011-11-20T09:12:26Z</time>
      </trkpt>
      <trkpt lat="44.00708" lon="4.38156">
        <ele>176.2</ele>
        <time>2011-11-20T09:13:19Z</time>
      </trkpt>
      <trkpt lat="44.00718" lon="4.38161">
        <ele>173.7</ele>
        <time>2011-11-20T09:13:21Z</time>
      </trkpt>
      <trkpt lat="44.00713" lon="4.3816">
        <ele>167.2</ele>
        <time>2011-11-20T09:14:20Z</time>
      </trkpt>
      <trkpt lat="44.00711" lon="4.38166">
        <ele>169</ele>
        <time>2011-11-20T09:14:24Z</time>
      </trkpt>
      <trkpt lat="44.0071" lon="4.38174">
        <ele>169.8</ele>
        <time>2011-11-20T09:14:26Z</time>
      </trkpt>
      <trkpt lat="44.00709" lon="4.38182">
        <ele>169.8</ele>
        <time>2011-11-20T09:14:29Z</time>
      </trkpt>
      <trkpt lat="44.00711" lon="4.38188">
        <ele>167.5</ele>
        <time>2011-11-20T09:14:56Z</time>
      </trkpt>
      <trkpt lat="44.00707" lon="4.38193">
        <ele>168.2</ele>
        <time>2011-11-20T09:15:00Z</time>
      </trkpt>
      <trkpt lat="44.007" lon="4.38196">
        <ele>167.9</ele>
        <time>2011-11-20T09:15:03Z</time>
      </trkpt>
      <trkpt lat="44.00694" lon="4.38199">
        <ele>167.8</ele>
        <time>2011-11-20T09:15:05Z</time>
      </trkpt>
      <trkpt lat="44.00685" lon="4.382">
        <ele>167</ele>
        <time>2011-11-20T09:15:07Z</time>
      </trkpt>
      <trkpt lat="44.0068" lon="4.38202">
        <ele>166.8</ele>
        <time>2011-11-20T09:15:08Z</time>
      </trkpt>
      <trkpt lat="44.00672" lon="4.38204">
        <ele>166.4</ele>
        <time>2011-11-20T09:15:10Z</time>
      </trkpt>
      <trkpt lat="44.00665" lon="4.38206">
        <ele>165.9</ele>
        <time>2011-11-20T09:15:12Z</time>
      </trkpt>
      <trkpt lat="44.00659" lon="4.38209">
        <ele>165.4</ele>
        <time>2011-11-20T09:15:14Z</time>
      </trkpt>
      <trkpt lat="44.00653" lon="4.38211">
        <ele>165.1</ele>
        <time>2011-11-20T09:15:16Z</time>
      </trkpt>
      <trkpt lat="44.00646" lon="4.38212">
        <ele>165.3</ele>
        <time>2011-11-20T09:15:18Z</time>
      </trkpt>
      <trkpt lat="44.00639" lon="4.38214">
        <ele>165.2</ele>
        <time>2011-11-20T09:15:20Z</time>
      </trkpt>
      <trkpt lat="44.00631" lon="4.38218">
        <ele>164.9</ele>
        <time>2011-11-20T09:15:22Z</time>
      </trkpt>
      <trkpt lat="44.00624" lon="4.38222">
        <ele>164.9</ele>
        <time>2011-11-20T09:15:24Z</time>
      </trkpt>
      <trkpt lat="44.00615" lon="4.38226">
        <ele>164.7</ele>
        <time>2011-11-20T09:15:26Z</time>
      </trkpt>
      <trkpt lat="44.00609" lon="4.38227">
        <ele>164.3</ele>
        <time>2011-11-20T09:15:27Z</time>
      </trkpt>
      <trkpt lat="44.00604" lon="4.38228">
        <ele>164.1</ele>
        <time>2011-11-20T09:15:28Z</time>
      </trkpt>
      <trkpt lat="44.00598" lon="4.38229">
        <ele>163.8</ele>
        <time>2011-11-20T09:15:29Z</time>
      </trkpt>
      <trkpt lat="44.00593" lon="4.38231">
        <ele>163.8</ele>
        <time>2011-11-20T09:15:30Z</time>
      </trkpt>
      <trkpt lat="44.00589" lon="4.38232">
        <ele>163.3</ele>
        <time>2011-11-20T09:15:31Z</time>
      </trkpt>
      <trkpt lat="44.0058" lon="4.38236">
        <ele>163</ele>
        <time>2011-11-20T09:15:33Z</time>
      </trkpt>
      <trkpt lat="44.00572" lon="4.3824">
        <ele>162.8</ele>
        <time>2011-11-20T09:15:35Z</time>
      </trkpt>
      <trkpt lat="44.00565" lon="4.38245">
        <ele>162.4</ele>
        <time>2011-11-20T09:15:37Z</time>
      </trkpt>
      <trkpt lat="44.00561" lon="4.38251">
        <ele>162</ele>
        <time>2011-11-20T09:15:39Z</time>
      </trkpt>
      <trkpt lat="44.00558" lon="4.38256">
        <ele>161.5</ele>
        <time>2011-11-20T09:15:41Z</time>
      </trkpt>
      <trkpt lat="44.00554" lon="4.3826">
        <ele>160.4</ele>
        <time>2011-11-20T09:15:45Z</time>
      </trkpt>
      <trkpt lat="44.00548" lon="4.3826">
        <ele>160.3</ele>
        <time>2011-11-20T09:15:48Z</time>
      </trkpt>
      <trkpt lat="44.00542" lon="4.38258">
        <ele>160.6</ele>
        <time>2011-11-20T09:15:51Z</time>
      </trkpt>
      <trkpt lat="44.00536" lon="4.38255">
        <ele>160.9</ele>
        <time>2011-11-20T09:15:54Z</time>
      </trkpt>
      <trkpt lat="44.0053" lon="4.38252">
        <ele>160.7</ele>
        <time>2011-11-20T09:15:57Z</time>
      </trkpt>
      <trkpt lat="44.00525" lon="4.3825">
        <ele>160</ele>
        <time>2011-11-20T09:16:00Z</time>
      </trkpt>
      <trkpt lat="44.0053" lon="4.38251">
        <ele>161.4</ele>
        <time>2011-11-20T09:16:09Z</time>
      </trkpt>
      <trkpt lat="44.00537" lon="4.38253">
        <ele>161.4</ele>
        <time>2011-11-20T09:16:11Z</time>
      </trkpt>
      <trkpt lat="44.00545" lon="4.38254">
        <ele>161.7</ele>
        <time>2011-11-20T09:16:13Z</time>
      </trkpt>
      <trkpt lat="44.00551" lon="4.38255">
        <ele>161.8</ele>
        <time>2011-11-20T09:16:14Z</time>
      </trkpt>
      <trkpt lat="44.00558" lon="4.38258">
        <ele>161.2</ele>
        <time>2011-11-20T09:16:16Z</time>
      </trkpt>
      <trkpt lat="44.00566" lon="4.38265">
        <ele>160.3</ele>
        <time>2011-11-20T09:16:18Z</time>
      </trkpt>
      <trkpt lat="44.00572" lon="4.38269">
        <ele>159.9</ele>
        <time>2011-11-20T09:16:19Z</time>
      </trkpt>
      <trkpt lat="44.00577" lon="4.38272">
        <ele>159.5</ele>
        <time>2011-11-20T09:16:20Z</time>
      </trkpt>
      <trkpt lat="44.00582" lon="4.38276">
        <ele>159.3</ele>
        <time>2011-11-20T09:16:21Z</time>
      </trkpt>
      <trkpt lat="44.00588" lon="4.38279">
        <ele>158.9</ele>
        <time>2011-11-20T09:16:22Z</time>
      </trkpt>
      <trkpt lat="44.00593" lon="4.38282">
        <ele>158.7</ele>
        <time>2011-11-20T09:16:23Z</time>
      </trkpt>
      <trkpt lat="44.00597" lon="4.38286">
        <ele>158.4</ele>
        <time>2011-11-20T09:16:24Z</time>
      </trkpt>
      <trkpt lat="44.00601" lon="4.38291">
        <ele>158.2</ele>
        <time>2011-11-20T09:16:25Z</time>
      </trkpt>
      <trkpt lat="44.00605" lon="4.38296">
        <ele>158.2</ele>
        <time>2011-11-20T09:16:26Z</time>
      </trkpt>
      <trkpt lat="44.00608" lon="4.383">
        <ele>157.6</ele>
        <time>2011-11-20T09:16:27Z</time>
      </trkpt>
      <trkpt lat="44.00615" lon="4.38306">
        <ele>156.7</ele>
        <time>2011-11-20T09:16:29Z</time>
      </trkpt>
      <trkpt lat="44.00622" lon="4.38313">
        <ele>155.8</ele>
        <time>2011-11-20T09:16:31Z</time>
      </trkpt>
      <trkpt lat="44.00629" lon="4.3832">
        <ele>155.3</ele>
        <time>2011-11-20T09:16:33Z</time>
      </trkpt>
      <trkpt lat="44.00633" lon="4.38323">
        <ele>155.2</ele>
        <time>2011-11-20T09:16:34Z</time>
      </trkpt>
      <trkpt lat="44.0064" lon="4.38329">
        <ele>154.8</ele>
        <time>2011-11-20T09:16:36Z</time>
      </trkpt>
      <trkpt lat="44.00644" lon="4.38332">
        <ele>154.4</ele>
        <time>2011-11-20T09:16:37Z</time>
      </trkpt>
      <trkpt lat="44.00648" lon="4.38336">
        <ele>154.1</ele>
        <time>2011-11-20T09:16:38Z</time>
      </trkpt>
      <trkpt lat="44.00653" lon="4.38339">
        <ele>154.1</ele>
        <time>2011-11-20T09:16:39Z</time>
      </trkpt>
      <trkpt lat="44.00657" lon="4.38342">
        <ele>154</ele>
        <time>2011-11-20T09:16:40Z</time>
      </trkpt>
      <trkpt lat="44.00661" lon="4.38346">
        <ele>153.8</ele>
        <time>2011-11-20T09:16:41Z</time>
      </trkpt>
      <trkpt lat="44.00665" lon="4.38349">
        <ele>153.5</ele>
        <time>2011-11-20T09:16:42Z</time>
      </trkpt>
      <trkpt lat="44.0067" lon="4.38353">
        <ele>153.2</ele>
        <time>2011-11-20T09:16:43Z</time>
      </trkpt>
      <trkpt lat="44.00674" lon="4.38356">
        <ele>152.8</ele>
        <time>2011-11-20T09:16:44Z</time>
      </trkpt>
      <trkpt lat="44.00679" lon="4.38359">
        <ele>152.4</ele>
        <time>2011-11-20T09:16:45Z</time>
      </trkpt>
      <trkpt lat="44.00683" lon="4.38362">
        <ele>152</ele>
        <time>2011-11-20T09:16:46Z</time>
      </trkpt>
      <trkpt lat="44.0069" lon="4.38366">
        <ele>151.2</ele>
        <time>2011-11-20T09:16:48Z</time>
      </trkpt>
      <trkpt lat="44.00695" lon="4.38371">
        <ele>150.8</ele>
        <time>2011-11-20T09:16:50Z</time>
      </trkpt>
      <trkpt lat="44.007" lon="4.38374">
        <ele>150.2</ele>
        <time>2011-11-20T09:16:57Z</time>
      </trkpt>
      <trkpt lat="44.00703" lon="4.38382">
        <ele>150.2</ele>
        <time>2011-11-20T09:17:02Z</time>
      </trkpt>
      <trkpt lat="44.00701" lon="4.38388">
        <ele>150.4</ele>
        <time>2011-11-20T09:17:05Z</time>
      </trkpt>
      <trkpt lat="44.00698" lon="4.38394">
        <ele>149.6</ele>
        <time>2011-11-20T09:17:08Z</time>
      </trkpt>
      <trkpt lat="44.00694" lon="4.38401">
        <ele>149.5</ele>
        <time>2011-11-20T09:17:10Z</time>
      </trkpt>
      <trkpt lat="44.00691" lon="4.38407">
        <ele>149.4</ele>
        <time>2011-11-20T09:17:13Z</time>
      </trkpt>
      <trkpt lat="44.00686" lon="4.38409">
        <ele>149.3</ele>
        <time>2011-11-20T09:17:17Z</time>
      </trkpt>
      <trkpt lat="44.00681" lon="4.38407">
        <ele>149.4</ele>
        <time>2011-11-20T09:17:21Z</time>
      </trkpt>
      <trkpt lat="44.00676" lon="4.38406">
        <ele>149.2</ele>
        <time>2011-11-20T09:17:24Z</time>
      </trkpt>
      <trkpt lat="44.00671" lon="4.38405">
        <ele>149.1</ele>
        <time>2011-11-20T09:17:26Z</time>
      </trkpt>
      <trkpt lat="44.00665" lon="4.38404">
        <ele>149.1</ele>
        <time>2011-11-20T09:17:28Z</time>
      </trkpt>
      <trkpt lat="44.00656" lon="4.38405">
        <ele>148.8</ele>
        <time>2011-11-20T09:17:30Z</time>
      </trkpt>
      <trkpt lat="44.00646" lon="4.38406">
        <ele>148.9</ele>
        <time>2011-11-20T09:17:32Z</time>
      </trkpt>
      <trkpt lat="44.00638" lon="4.38407">
        <ele>148.8</ele>
        <time>2011-11-20T09:17:34Z</time>
      </trkpt>
      <trkpt lat="44.00632" lon="4.38407">
        <ele>148.6</ele>
        <time>2011-11-20T09:17:36Z</time>
      </trkpt>
      <trkpt lat="44.00625" lon="4.38408">
        <ele>148.3</ele>
        <time>2011-11-20T09:17:38Z</time>
      </trkpt>
      <trkpt lat="44.00618" lon="4.3841">
        <ele>148.4</ele>
        <time>2011-11-20T09:17:40Z</time>
      </trkpt>
      <trkpt lat="44.00611" lon="4.38413">
        <ele>148.4</ele>
        <time>2011-11-20T09:17:42Z</time>
      </trkpt>
      <trkpt lat="44.00604" lon="4.38413">
        <ele>148.8</ele>
        <time>2011-11-20T09:17:44Z</time>
      </trkpt>
      <trkpt lat="44.00598" lon="4.38412">
        <ele>149.2</ele>
        <time>2011-11-20T09:17:46Z</time>
      </trkpt>
      <trkpt lat="44.00591" lon="4.38409">
        <ele>149.5</ele>
        <time>2011-11-20T09:17:48Z</time>
      </trkpt>
      <trkpt lat="44.00583" lon="4.38405">
        <ele>149.8</ele>
        <time>2011-11-20T09:17:50Z</time>
      </trkpt>
      <trkpt lat="44.00578" lon="4.38403">
        <ele>149.9</ele>
        <time>2011-11-20T09:17:51Z</time>
      </trkpt>
      <trkpt lat="44.00573" lon="4.384">
        <ele>149.9</ele>
        <time>2011-11-20T09:17:52Z</time>
      </trkpt>
      <trkpt lat="44.00568" lon="4.38396">
        <ele>150.1</ele>
        <time>2011-11-20T09:17:53Z</time>
      </trkpt>
      <trkpt lat="44.00564" lon="4.38394">
        <ele>150.2</ele>
        <time>2011-11-20T09:17:54Z</time>
      </trkpt>
      <trkpt lat="44.00559" lon="4.38392">
        <ele>150.2</ele>
        <time>2011-11-20T09:17:55Z</time>
      </trkpt>
      <trkpt lat="44.00555" lon="4.3839">
        <ele>150.1</ele>
        <time>2011-11-20T09:17:56Z</time>
      </trkpt>
      <trkpt lat="44.0055" lon="4.38388">
        <ele>150.2</ele>
        <time>2011-11-20T09:17:57Z</time>
      </trkpt>
      <trkpt lat="44.00544" lon="4.38387">
        <ele>150.5</ele>
        <time>2011-11-20T09:17:58Z</time>
      </trkpt>
      <trkpt lat="44.00539" lon="4.38385">
        <ele>150.6</ele>
        <time>2011-11-20T09:17:59Z</time>
      </trkpt>
      <trkpt lat="44.00535" lon="4.38384">
        <ele>150.5</ele>
        <time>2011-11-20T09:18:00Z</time>
      </trkpt>
      <trkpt lat="44.0053" lon="4.38383">
        <ele>150.1</ele>
        <time>2011-11-20T09:18:01Z</time>
      </trkpt>
      <trkpt lat="44.00524" lon="4.38381">
        <ele>149.1</ele>
        <time>2011-11-20T09:18:02Z</time>
      </trkpt>
      <trkpt lat="44.00515" lon="4.38378">
        <ele>148</ele>
        <time>2011-11-20T09:18:04Z</time>
      </trkpt>
      <trkpt lat="44.00507" lon="4.38376">
        <ele>147.4</ele>
        <time>2011-11-20T09:18:06Z</time>
      </trkpt>
      <trkpt lat="44.00502" lon="4.38375">
        <ele>147.2</ele>
        <time>2011-11-20T09:18:08Z</time>
      </trkpt>
      <trkpt lat="44.00498" lon="4.38376">
        <ele>146.6</ele>
        <time>2011-11-20T09:18:11Z</time>
      </trkpt>
      <trkpt lat="44.00493" lon="4.38378">
        <ele>145.4</ele>
        <time>2011-11-20T09:18:17Z</time>
      </trkpt>
      <trkpt lat="44.00488" lon="4.38379">
        <ele>143.8</ele>
        <time>2011-11-20T09:18:25Z</time>
      </trkpt>
      <trkpt lat="44.00483" lon="4.38377">
        <ele>143.1</ele>
        <time>2011-11-20T09:18:29Z</time>
      </trkpt>
      <trkpt lat="44.00479" lon="4.38372">
        <ele>142.5</ele>
        <time>2011-11-20T09:18:32Z</time>
      </trkpt>
      <trkpt lat="44.00474" lon="4.38366">
        <ele>142.2</ele>
        <time>2011-11-20T09:18:35Z</time>
      </trkpt>
      <trkpt lat="44.0047" lon="4.38362">
        <ele>141.9</ele>
        <time>2011-11-20T09:18:37Z</time>
      </trkpt>
      <trkpt lat="44.00464" lon="4.38359">
        <ele>142.1</ele>
        <time>2011-11-20T09:18:40Z</time>
      </trkpt>
      <trkpt lat="44.00457" lon="4.38363">
        <ele>142.7</ele>
        <time>2011-11-20T09:18:43Z</time>
      </trkpt>
      <trkpt lat="44.00452" lon="4.38367">
        <ele>142.8</ele>
        <time>2011-11-20T09:18:45Z</time>
      </trkpt>
      <trkpt lat="44.00449" lon="4.38371">
        <ele>143</ele>
        <time>2011-11-20T09:18:47Z</time>
      </trkpt>
      <trkpt lat="44.00445" lon="4.38375">
        <ele>143.3</ele>
        <time>2011-11-20T09:18:49Z</time>
      </trkpt>
      <trkpt lat="44.0044" lon="4.38379">
        <ele>143.5</ele>
        <time>2011-11-20T09:18:51Z</time>
      </trkpt>
      <trkpt lat="44.00436" lon="4.38385">
        <ele>144</ele>
        <time>2011-11-20T09:18:53Z</time>
      </trkpt>
      <trkpt lat="44.00433" lon="4.38392">
        <ele>144.5</ele>
        <time>2011-11-20T09:18:55Z</time>
      </trkpt>
      <trkpt lat="44.00432" lon="4.384">
        <ele>144.8</ele>
        <time>2011-11-20T09:18:57Z</time>
      </trkpt>
      <trkpt lat="44.00432" lon="4.38407">
        <ele>144.8</ele>
        <time>2011-11-20T09:18:59Z</time>
      </trkpt>
      <trkpt lat="44.00435" lon="4.38417">
        <ele>144.1</ele>
        <time>2011-11-20T09:19:01Z</time>
      </trkpt>
      <trkpt lat="44.0044" lon="4.38418">
        <ele>143.4</ele>
        <time>2011-11-20T09:19:03Z</time>
      </trkpt>
      <trkpt lat="44.00445" lon="4.38429">
        <ele>141.2</ele>
        <time>2011-11-20T09:19:22Z</time>
      </trkpt>
      <trkpt lat="44.00451" lon="4.38431">
        <ele>141.8</ele>
        <time>2011-11-20T09:19:26Z</time>
      </trkpt>
      <trkpt lat="44.00456" lon="4.38434">
        <ele>141.5</ele>
        <time>2011-11-20T09:19:29Z</time>
      </trkpt>
      <trkpt lat="44.00462" lon="4.38436">
        <ele>141.3</ele>
        <time>2011-11-20T09:19:31Z</time>
      </trkpt>
      <trkpt lat="44.00469" lon="4.3844">
        <ele>141.3</ele>
        <time>2011-11-20T09:19:33Z</time>
      </trkpt>
      <trkpt lat="44.00477" lon="4.38444">
        <ele>141</ele>
        <time>2011-11-20T09:19:35Z</time>
      </trkpt>
      <trkpt lat="44.00481" lon="4.38446">
        <ele>141</ele>
        <time>2011-11-20T09:19:36Z</time>
      </trkpt>
      <trkpt lat="44.0049" lon="4.3845">
        <ele>140.8</ele>
        <time>2011-11-20T09:19:38Z</time>
      </trkpt>
      <trkpt lat="44.00494" lon="4.38453">
        <ele>140.6</ele>
        <time>2011-11-20T09:19:39Z</time>
      </trkpt>
      <trkpt lat="44.00499" lon="4.38455">
        <ele>140.4</ele>
        <time>2011-11-20T09:19:40Z</time>
      </trkpt>
      <trkpt lat="44.00507" lon="4.3846">
        <ele>140.2</ele>
        <time>2011-11-20T09:19:42Z</time>
      </trkpt>
      <trkpt lat="44.00512" lon="4.38463">
        <ele>140.1</ele>
        <time>2011-11-20T09:19:43Z</time>
      </trkpt>
      <trkpt lat="44.00516" lon="4.38467">
        <ele>139.9</ele>
        <time>2011-11-20T09:19:44Z</time>
      </trkpt>
      <trkpt lat="44.00521" lon="4.38471">
        <ele>139.9</ele>
        <time>2011-11-20T09:19:45Z</time>
      </trkpt>
      <trkpt lat="44.00526" lon="4.38474">
        <ele>139.8</ele>
        <time>2011-11-20T09:19:46Z</time>
      </trkpt>
      <trkpt lat="44.00531" lon="4.38478">
        <ele>139.6</ele>
        <time>2011-11-20T09:19:47Z</time>
      </trkpt>
      <trkpt lat="44.00536" lon="4.38482">
        <ele>139.5</ele>
        <time>2011-11-20T09:19:48Z</time>
      </trkpt>
      <trkpt lat="44.0054" lon="4.38485">
        <ele>139.2</ele>
        <time>2011-11-20T09:19:49Z</time>
      </trkpt>
      <trkpt lat="44.00544" lon="4.38488">
        <ele>139.1</ele>
        <time>2011-11-20T09:19:50Z</time>
      </trkpt>
      <trkpt lat="44.00548" lon="4.38491">
        <ele>138.9</ele>
        <time>2011-11-20T09:19:51Z</time>
      </trkpt>
      <trkpt lat="44.00552" lon="4.38495">
        <ele>138.7</ele>
        <time>2011-11-20T09:19:52Z</time>
      </trkpt>
      <trkpt lat="44.00556" lon="4.38498">
        <ele>138.5</ele>
        <time>2011-11-20T09:19:53Z</time>
      </trkpt>
      <trkpt lat="44.00561" lon="4.38501">
        <ele>138.4</ele>
        <time>2011-11-20T09:19:54Z</time>
      </trkpt>
      <trkpt lat="44.00565" lon="4.38504">
        <ele>138.3</ele>
        <time>2011-11-20T09:19:55Z</time>
      </trkpt>
      <trkpt lat="44.00569" lon="4.38507">
        <ele>138.2</ele>
        <time>2011-11-20T09:19:56Z</time>
      </trkpt>
      <trkpt lat="44.00573" lon="4.38511">
        <ele>138.2</ele>
        <time>2011-11-20T09:19:57Z</time>
      </trkpt>
      <trkpt lat="44.0058" lon="4.38516">
        <ele>137.8</ele>
        <time>2011-11-20T09:19:59Z</time>
      </trkpt>
      <trkpt lat="44.00587" lon="4.38521">
        <ele>137.5</ele>
        <time>2011-11-20T09:20:01Z</time>
      </trkpt>
      <trkpt lat="44.00594" lon="4.38526">
        <ele>137.3</ele>
        <time>2011-11-20T09:20:03Z</time>
      </trkpt>
      <trkpt lat="44.00601" lon="4.38531">
        <ele>136.9</ele>
        <time>2011-11-20T09:20:05Z</time>
      </trkpt>
      <trkpt lat="44.00608" lon="4.38533">
        <ele>136.7</ele>
        <time>2011-11-20T09:20:07Z</time>
      </trkpt>
      <trkpt lat="44.00614" lon="4.38534">
        <ele>136.6</ele>
        <time>2011-11-20T09:20:09Z</time>
      </trkpt>
      <trkpt lat="44.0062" lon="4.38533">
        <ele>136.6</ele>
        <time>2011-11-20T09:20:11Z</time>
      </trkpt>
      <trkpt lat="44.00625" lon="4.38532">
        <ele>136.5</ele>
        <time>2011-11-20T09:20:13Z</time>
      </trkpt>
      <trkpt lat="44.00632" lon="4.3853">
        <ele>136</ele>
        <time>2011-11-20T09:20:16Z</time>
      </trkpt>
      <trkpt lat="44.00637" lon="4.38528">
        <ele>135.7</ele>
        <time>2011-11-20T09:20:19Z</time>
      </trkpt>
      <trkpt lat="44.00642" lon="4.38531">
        <ele>135.1</ele>
        <time>2011-11-20T09:20:24Z</time>
      </trkpt>
      <trkpt lat="44.00646" lon="4.38536">
        <ele>135</ele>
        <time>2011-11-20T09:20:29Z</time>
      </trkpt>
      <trkpt lat="44.00647" lon="4.38543">
        <ele>135.8</ele>
        <time>2011-11-20T09:20:32Z</time>
      </trkpt>
      <trkpt lat="44.0065" lon="4.3855">
        <ele>135.6</ele>
        <time>2011-11-20T09:20:35Z</time>
      </trkpt>
      <trkpt lat="44.00652" lon="4.38556">
        <ele>135</ele>
        <time>2011-11-20T09:20:37Z</time>
      </trkpt>
      <trkpt lat="44.00655" lon="4.38562">
        <ele>134.6</ele>
        <time>2011-11-20T09:20:39Z</time>
      </trkpt>
      <trkpt lat="44.00659" lon="4.38568">
        <ele>135.3</ele>
        <time>2011-11-20T09:20:41Z</time>
      </trkpt>
      <trkpt lat="44.00661" lon="4.38573">
        <ele>135.9</ele>
        <time>2011-11-20T09:20:43Z</time>
      </trkpt>
      <trkpt lat="44.00664" lon="4.3858">
        <ele>136.3</ele>
        <time>2011-11-20T09:20:46Z</time>
      </trkpt>
      <trkpt lat="44.00665" lon="4.38586">
        <ele>137.2</ele>
        <time>2011-11-20T09:20:51Z</time>
      </trkpt>
      <trkpt lat="44.00666" lon="4.38593">
        <ele>138</ele>
        <time>2011-11-20T09:20:54Z</time>
      </trkpt>
      <trkpt lat="44.00667" lon="4.38602">
        <ele>138.6</ele>
        <time>2011-11-20T09:20:57Z</time>
      </trkpt>
      <trkpt lat="44.00669" lon="4.38611">
        <ele>138.6</ele>
        <time>2011-11-20T09:21:00Z</time>
      </trkpt>
      <trkpt lat="44.0067" lon="4.38617">
        <ele>138.7</ele>
        <time>2011-11-20T09:21:02Z</time>
      </trkpt>
      <trkpt lat="44.00671" lon="4.38626">
        <ele>138.8</ele>
        <time>2011-11-20T09:21:05Z</time>
      </trkpt>
      <trkpt lat="44.00673" lon="4.38634">
        <ele>138.8</ele>
        <time>2011-11-20T09:21:08Z</time>
      </trkpt>
      <trkpt lat="44.00673" lon="4.38642">
        <ele>138.8</ele>
        <time>2011-11-20T09:21:11Z</time>
      </trkpt>
      <trkpt lat="44.00674" lon="4.3865">
        <ele>138.7</ele>
        <time>2011-11-20T09:21:14Z</time>
      </trkpt>
      <trkpt lat="44.00675" lon="4.38659">
        <ele>138.8</ele>
        <time>2011-11-20T09:21:17Z</time>
      </trkpt>
      <trkpt lat="44.00677" lon="4.38668">
        <ele>139</ele>
        <time>2011-11-20T09:21:20Z</time>
      </trkpt>
      <trkpt lat="44.00679" lon="4.38677">
        <ele>139.1</ele>
        <time>2011-11-20T09:21:23Z</time>
      </trkpt>
      <trkpt lat="44.0068" lon="4.38685">
        <ele>139.1</ele>
        <time>2011-11-20T09:21:26Z</time>
      </trkpt>
      <trkpt lat="44.00682" lon="4.38692">
        <ele>139.2</ele>
        <time>2011-11-20T09:21:28Z</time>
      </trkpt>
      <trkpt lat="44.00683" lon="4.38698">
        <ele>139.2</ele>
        <time>2011-11-20T09:21:30Z</time>
      </trkpt>
      <trkpt lat="44.00686" lon="4.38705">
        <ele>139.2</ele>
        <time>2011-11-20T09:21:32Z</time>
      </trkpt>
      <trkpt lat="44.00688" lon="4.38712">
        <ele>139.3</ele>
        <time>2011-11-20T09:21:34Z</time>
      </trkpt>
      <trkpt lat="44.0069" lon="4.38718">
        <ele>139.4</ele>
        <time>2011-11-20T09:21:36Z</time>
      </trkpt>
      <trkpt lat="44.00696" lon="4.38716">
        <ele>138.5</ele>
        <time>2011-11-20T09:21:54Z</time>
      </trkpt>
      <trkpt lat="44.00701" lon="4.38714">
        <ele>138.6</ele>
        <time>2011-11-20T09:21:56Z</time>
      </trkpt>
      <trkpt lat="44.00707" lon="4.38711">
        <ele>139</ele>
        <time>2011-11-20T09:21:58Z</time>
      </trkpt>
      <trkpt lat="44.00712" lon="4.38709">
        <ele>138.8</ele>
        <time>2011-11-20T09:22:00Z</time>
      </trkpt>
      <trkpt lat="44.00718" lon="4.38706">
        <ele>138.7</ele>
        <time>2011-11-20T09:22:02Z</time>
      </trkpt>
      <trkpt lat="44.00723" lon="4.38703">
        <ele>138.7</ele>
        <time>2011-11-20T09:22:04Z</time>
      </trkpt>
      <trkpt lat="44.00727" lon="4.38701">
        <ele>138.9</ele>
        <time>2011-11-20T09:22:06Z</time>
      </trkpt>
      <trkpt lat="44.00732" lon="4.38698">
        <ele>139.1</ele>
        <time>2011-11-20T09:22:08Z</time>
      </trkpt>
      <trkpt lat="44.00736" lon="4.38696">
        <ele>139.3</ele>
        <time>2011-11-20T09:22:10Z</time>
      </trkpt>
      <trkpt lat="44.00741" lon="4.38695">
        <ele>139.5</ele>
        <time>2011-11-20T09:22:13Z</time>
      </trkpt>
      <trkpt lat="44.00746" lon="4.38696">
        <ele>139.6</ele>
        <time>2011-11-20T09:22:17Z</time>
      </trkpt>
      <trkpt lat="44.00751" lon="4.38699">
        <ele>140.1</ele>
        <time>2011-11-20T09:22:21Z</time>
      </trkpt>
      <trkpt lat="44.00755" lon="4.38703">
        <ele>140.4</ele>
        <time>2011-11-20T09:22:25Z</time>
      </trkpt>
      <trkpt lat="44.00758" lon="4.38708">
        <ele>140.8</ele>
        <time>2011-11-20T09:22:29Z</time>
      </trkpt>
      <trkpt lat="44.00762" lon="4.38714">
        <ele>141.2</ele>
        <time>2011-11-20T09:22:34Z</time>
      </trkpt>
      <trkpt lat="44.00764" lon="4.38719">
        <ele>141.4</ele>
        <time>2011-11-20T09:22:38Z</time>
      </trkpt>
      <trkpt lat="44.00767" lon="4.38726">
        <ele>141.7</ele>
        <time>2011-11-20T09:22:42Z</time>
      </trkpt>
      <trkpt lat="44.00771" lon="4.38733">
        <ele>141.7</ele>
        <time>2011-11-20T09:22:45Z</time>
      </trkpt>
      <trkpt lat="44.00774" lon="4.38739">
        <ele>141.8</ele>
        <time>2011-11-20T09:22:48Z</time>
      </trkpt>
      <trkpt lat="44.00777" lon="4.38745">
        <ele>142</ele>
        <time>2011-11-20T09:22:52Z</time>
      </trkpt>
      <trkpt lat="44.0078" lon="4.38752">
        <ele>142.8</ele>
        <time>2011-11-20T09:22:56Z</time>
      </trkpt>
      <trkpt lat="44.00781" lon="4.3876">
        <ele>143.2</ele>
        <time>2011-11-20T09:22:59Z</time>
      </trkpt>
      <trkpt lat="44.00784" lon="4.38766">
        <ele>143.8</ele>
        <time>2011-11-20T09:23:02Z</time>
      </trkpt>
      <trkpt lat="44.00788" lon="4.38773">
        <ele>144.3</ele>
        <time>2011-11-20T09:23:05Z</time>
      </trkpt>
      <trkpt lat="44.00792" lon="4.38779">
        <ele>144.4</ele>
        <time>2011-11-20T09:23:08Z</time>
      </trkpt>
      <trkpt lat="44.00797" lon="4.38783">
        <ele>144.8</ele>
        <time>2011-11-20T09:23:10Z</time>
      </trkpt>
      <trkpt lat="44.008" lon="4.38787">
        <ele>144.8</ele>
        <time>2011-11-20T09:23:12Z</time>
      </trkpt>
      <trkpt lat="44.00805" lon="4.38792">
        <ele>145.1</ele>
        <time>2011-11-20T09:23:14Z</time>
      </trkpt>
      <trkpt lat="44.0081" lon="4.38798">
        <ele>144.8</ele>
        <time>2011-11-20T09:23:16Z</time>
      </trkpt>
      <trkpt lat="44.00814" lon="4.38801">
        <ele>144.2</ele>
        <time>2011-11-20T09:23:17Z</time>
      </trkpt>
      <trkpt lat="44.00818" lon="4.38806">
        <ele>144.3</ele>
        <time>2011-11-20T09:23:19Z</time>
      </trkpt>
      <trkpt lat="44.00823" lon="4.38811">
        <ele>144.3</ele>
        <time>2011-11-20T09:23:21Z</time>
      </trkpt>
      <trkpt lat="44.00828" lon="4.38816">
        <ele>144.4</ele>
        <time>2011-11-20T09:23:23Z</time>
      </trkpt>
      <trkpt lat="44.00832" lon="4.3882">
        <ele>144.7</ele>
        <time>2011-11-20T09:23:25Z</time>
      </trkpt>
      <trkpt lat="44.00837" lon="4.38824">
        <ele>144.8</ele>
        <time>2011-11-20T09:23:27Z</time>
      </trkpt>
      <trkpt lat="44.00842" lon="4.38827">
        <ele>145</ele>
        <time>2011-11-20T09:23:29Z</time>
      </trkpt>
      <trkpt lat="44.00848" lon="4.38829">
        <ele>145.5</ele>
        <time>2011-11-20T09:23:31Z</time>
      </trkpt>
      <trkpt lat="44.00853" lon="4.38823">
        <ele>146.6</ele>
        <time>2011-11-20T09:23:34Z</time>
      </trkpt>
      <trkpt lat="44.00858" lon="4.38817">
        <ele>146.8</ele>
        <time>2011-11-20T09:23:36Z</time>
      </trkpt>
      <trkpt lat="44.00863" lon="4.38809">
        <ele>147.2</ele>
        <time>2011-11-20T09:23:38Z</time>
      </trkpt>
      <trkpt lat="44.0087" lon="4.38802">
        <ele>147.1</ele>
        <time>2011-11-20T09:23:40Z</time>
      </trkpt>
      <trkpt lat="44.00875" lon="4.38794">
        <ele>147</ele>
        <time>2011-11-20T09:23:42Z</time>
      </trkpt>
      <trkpt lat="44.00881" lon="4.38786">
        <ele>146.7</ele>
        <time>2011-11-20T09:23:44Z</time>
      </trkpt>
      <trkpt lat="44.00886" lon="4.38778">
        <ele>146.5</ele>
        <time>2011-11-20T09:23:46Z</time>
      </trkpt>
      <trkpt lat="44.00891" lon="4.3877">
        <ele>146.3</ele>
        <time>2011-11-20T09:23:48Z</time>
      </trkpt>
      <trkpt lat="44.00895" lon="4.38763">
        <ele>146.1</ele>
        <time>2011-11-20T09:23:50Z</time>
      </trkpt>
      <trkpt lat="44.00899" lon="4.38756">
        <ele>145.8</ele>
        <time>2011-11-20T09:23:52Z</time>
      </trkpt>
      <trkpt lat="44.00903" lon="4.3875">
        <ele>145.5</ele>
        <time>2011-11-20T09:23:54Z</time>
      </trkpt>
      <trkpt lat="44.00908" lon="4.38743">
        <ele>144.3</ele>
        <time>2011-11-20T09:23:56Z</time>
      </trkpt>
      <trkpt lat="44.00912" lon="4.38736">
        <ele>143.6</ele>
        <time>2011-11-20T09:23:58Z</time>
      </trkpt>
      <trkpt lat="44.00916" lon="4.3873">
        <ele>143.1</ele>
        <time>2011-11-20T09:24:00Z</time>
      </trkpt>
      <trkpt lat="44.0092" lon="4.38724">
        <ele>142.9</ele>
        <time>2011-11-20T09:24:02Z</time>
      </trkpt>
      <trkpt lat="44.00923" lon="4.38718">
        <ele>142.7</ele>
        <time>2011-11-20T09:24:04Z</time>
      </trkpt>
      <trkpt lat="44.00926" lon="4.38712">
        <ele>142.7</ele>
        <time>2011-11-20T09:24:06Z</time>
      </trkpt>
      <trkpt lat="44.00929" lon="4.38706">
        <ele>142.6</ele>
        <time>2011-11-20T09:24:08Z</time>
      </trkpt>
      <trkpt lat="44.00933" lon="4.38699">
        <ele>142.7</ele>
        <time>2011-11-20T09:24:11Z</time>
      </trkpt>
      <trkpt lat="44.00936" lon="4.38694">
        <ele>142.8</ele>
        <time>2011-11-20T09:24:13Z</time>
      </trkpt>
      <trkpt lat="44.0094" lon="4.38688">
        <ele>142.9</ele>
        <time>2011-11-20T09:24:15Z</time>
      </trkpt>
      <trkpt lat="44.00943" lon="4.38681">
        <ele>143</ele>
        <time>2011-11-20T09:24:17Z</time>
      </trkpt>
      <trkpt lat="44.00947" lon="4.38673">
        <ele>143</ele>
        <time>2011-11-20T09:24:19Z</time>
      </trkpt>
      <trkpt lat="44.00952" lon="4.38666">
        <ele>142.9</ele>
        <time>2011-11-20T09:24:21Z</time>
      </trkpt>
      <trkpt lat="44.00956" lon="4.38658">
        <ele>143</ele>
        <time>2011-11-20T09:24:23Z</time>
      </trkpt>
      <trkpt lat="44.0096" lon="4.3865">
        <ele>142.8</ele>
        <time>2011-11-20T09:24:25Z</time>
      </trkpt>
      <trkpt lat="44.00964" lon="4.38643">
        <ele>142.8</ele>
        <time>2011-11-20T09:24:27Z</time>
      </trkpt>
      <trkpt lat="44.00968" lon="4.38637">
        <ele>143</ele>
        <time>2011-11-20T09:24:29Z</time>
      </trkpt>
      <trkpt lat="44.00972" lon="4.3863">
        <ele>143</ele>
        <time>2011-11-20T09:24:31Z</time>
      </trkpt>
      <trkpt lat="44.00976" lon="4.38622">
        <ele>143.2</ele>
        <time>2011-11-20T09:24:33Z</time>
      </trkpt>
      <trkpt lat="44.00979" lon="4.38614">
        <ele>142.9</ele>
        <time>2011-11-20T09:24:35Z</time>
      </trkpt>
      <trkpt lat="44.00983" lon="4.38605">
        <ele>142.7</ele>
        <time>2011-11-20T09:24:37Z</time>
      </trkpt>
      <trkpt lat="44.00988" lon="4.38595">
        <ele>142.5</ele>
        <time>2011-11-20T09:24:39Z</time>
      </trkpt>
      <trkpt lat="44.00991" lon="4.3859">
        <ele>142.3</ele>
        <time>2011-11-20T09:24:40Z</time>
      </trkpt>
      <trkpt lat="44.00997" lon="4.3858">
        <ele>142.3</ele>
        <time>2011-11-20T09:24:42Z</time>
      </trkpt>
      <trkpt lat="44.01003" lon="4.38572">
        <ele>142.4</ele>
        <time>2011-11-20T09:24:44Z</time>
      </trkpt>
      <trkpt lat="44.01009" lon="4.38563">
        <ele>142.4</ele>
        <time>2011-11-20T09:24:46Z</time>
      </trkpt>
      <trkpt lat="44.01015" lon="4.38556">
        <ele>142.5</ele>
        <time>2011-11-20T09:24:48Z</time>
      </trkpt>
      <trkpt lat="44.0102" lon="4.38549">
        <ele>142.5</ele>
        <time>2011-11-20T09:24:50Z</time>
      </trkpt>
      <trkpt lat="44.01027" lon="4.38545">
        <ele>142.3</ele>
        <time>2011-11-20T09:24:52Z</time>
      </trkpt>
      <trkpt lat="44.01034" lon="4.38541">
        <ele>142.2</ele>
        <time>2011-11-20T09:24:54Z</time>
      </trkpt>
      <trkpt lat="44.01039" lon="4.38539">
        <ele>142.1</ele>
        <time>2011-11-20T09:24:55Z</time>
      </trkpt>
      <trkpt lat="44.01043" lon="4.38537">
        <ele>142</ele>
        <time>2011-11-20T09:24:56Z</time>
      </trkpt>
      <trkpt lat="44.01048" lon="4.38535">
        <ele>142</ele>
        <time>2011-11-20T09:24:57Z</time>
      </trkpt>
      <trkpt lat="44.01052" lon="4.38535">
        <ele>142.2</ele>
        <time>2011-11-20T09:24:58Z</time>
      </trkpt>
      <trkpt lat="44.01061" lon="4.38534">
        <ele>142.3</ele>
        <time>2011-11-20T09:25:00Z</time>
      </trkpt>
      <trkpt lat="44.01066" lon="4.38534">
        <ele>142.2</ele>
        <time>2011-11-20T09:25:01Z</time>
      </trkpt>
      <trkpt lat="44.01075" lon="4.38535">
        <ele>142.1</ele>
        <time>2011-11-20T09:25:03Z</time>
      </trkpt>
      <trkpt lat="44.01083" lon="4.38536">
        <ele>142.1</ele>
        <time>2011-11-20T09:25:05Z</time>
      </trkpt>
      <trkpt lat="44.01092" lon="4.38536">
        <ele>142.1</ele>
        <time>2011-11-20T09:25:07Z</time>
      </trkpt>
      <trkpt lat="44.011" lon="4.38536">
        <ele>142.2</ele>
        <time>2011-11-20T09:25:09Z</time>
      </trkpt>
      <trkpt lat="44.01109" lon="4.38536">
        <ele>142.3</ele>
        <time>2011-11-20T09:25:11Z</time>
      </trkpt>
      <trkpt lat="44.01116" lon="4.38536">
        <ele>142.3</ele>
        <time>2011-11-20T09:25:13Z</time>
      </trkpt>
      <trkpt lat="44.01123" lon="4.38535">
        <ele>142.1</ele>
        <time>2011-11-20T09:25:15Z</time>
      </trkpt>
      <trkpt lat="44.0113" lon="4.38534">
        <ele>142</ele>
        <time>2011-11-20T09:25:17Z</time>
      </trkpt>
      <trkpt lat="44.01136" lon="4.38532">
        <ele>142.4</ele>
        <time>2011-11-20T09:25:19Z</time>
      </trkpt>
      <trkpt lat="44.01142" lon="4.3853">
        <ele>142</ele>
        <time>2011-11-20T09:25:21Z</time>
      </trkpt>
      <trkpt lat="44.0115" lon="4.38529">
        <ele>141.4</ele>
        <time>2011-11-20T09:25:23Z</time>
      </trkpt>
      <trkpt lat="44.01157" lon="4.38528">
        <ele>141.2</ele>
        <time>2011-11-20T09:25:25Z</time>
      </trkpt>
      <trkpt lat="44.01164" lon="4.38527">
        <ele>141.1</ele>
        <time>2011-11-20T09:25:27Z</time>
      </trkpt>
      <trkpt lat="44.01171" lon="4.38525">
        <ele>141.4</ele>
        <time>2011-11-20T09:25:29Z</time>
      </trkpt>
      <trkpt lat="44.01177" lon="4.38523">
        <ele>141.4</ele>
        <time>2011-11-20T09:25:31Z</time>
      </trkpt>
      <trkpt lat="44.01184" lon="4.38521">
        <ele>141.2</ele>
        <time>2011-11-20T09:25:33Z</time>
      </trkpt>
      <trkpt lat="44.0119" lon="4.3852">
        <ele>140.9</ele>
        <time>2011-11-20T09:25:35Z</time>
      </trkpt>
      <trkpt lat="44.01196" lon="4.38519">
        <ele>141</ele>
        <time>2011-11-20T09:25:37Z</time>
      </trkpt>
      <trkpt lat="44.01202" lon="4.38519">
        <ele>141.2</ele>
        <time>2011-11-20T09:25:39Z</time>
      </trkpt>
      <trkpt lat="44.01208" lon="4.38518">
        <ele>141.2</ele>
        <time>2011-11-20T09:25:41Z</time>
      </trkpt>
      <trkpt lat="44.01213" lon="4.38516">
        <ele>141.5</ele>
        <time>2011-11-20T09:25:43Z</time>
      </trkpt>
      <trkpt lat="44.01218" lon="4.38515">
        <ele>141.9</ele>
        <time>2011-11-20T09:25:45Z</time>
      </trkpt>
      <trkpt lat="44.01224" lon="4.38514">
        <ele>142.3</ele>
        <time>2011-11-20T09:25:48Z</time>
      </trkpt>
      <trkpt lat="44.01229" lon="4.38514">
        <ele>142.5</ele>
        <time>2011-11-20T09:25:50Z</time>
      </trkpt>
      <trkpt lat="44.01235" lon="4.38514">
        <ele>142.5</ele>
        <time>2011-11-20T09:25:52Z</time>
      </trkpt>
      <trkpt lat="44.01241" lon="4.38513">
        <ele>142.5</ele>
        <time>2011-11-20T09:25:54Z</time>
      </trkpt>
      <trkpt lat="44.01247" lon="4.38512">
        <ele>143</ele>
        <time>2011-11-20T09:25:56Z</time>
      </trkpt>
      <trkpt lat="44.01252" lon="4.38511">
        <ele>143.5</ele>
        <time>2011-11-20T09:25:58Z</time>
      </trkpt>
      <trkpt lat="44.0126" lon="4.38506">
        <ele>145.2</ele>
        <time>2011-11-20T09:26:00Z</time>
      </trkpt>
      <trkpt lat="44.01266" lon="4.38504">
        <ele>145.1</ele>
        <time>2011-11-20T09:26:02Z</time>
      </trkpt>
      <trkpt lat="44.01273" lon="4.38502">
        <ele>144.8</ele>
        <time>2011-11-20T09:26:04Z</time>
      </trkpt>
      <trkpt lat="44.01279" lon="4.385">
        <ele>144.7</ele>
        <time>2011-11-20T09:26:06Z</time>
      </trkpt>
      <trkpt lat="44.01286" lon="4.38499">
        <ele>144.6</ele>
        <time>2011-11-20T09:26:08Z</time>
      </trkpt>
      <trkpt lat="44.01292" lon="4.38497">
        <ele>144.5</ele>
        <time>2011-11-20T09:26:10Z</time>
      </trkpt>
      <trkpt lat="44.01298" lon="4.38494">
        <ele>144.9</ele>
        <time>2011-11-20T09:26:12Z</time>
      </trkpt>
      <trkpt lat="44.01303" lon="4.38491">
        <ele>145.3</ele>
        <time>2011-11-20T09:26:14Z</time>
      </trkpt>
      <trkpt lat="44.01309" lon="4.38487">
        <ele>145.8</ele>
        <time>2011-11-20T09:26:16Z</time>
      </trkpt>
      <trkpt lat="44.01314" lon="4.38482">
        <ele>146.4</ele>
        <time>2011-11-20T09:26:18Z</time>
      </trkpt>
      <trkpt lat="44.01319" lon="4.38475">
        <ele>146.3</ele>
        <time>2011-11-20T09:26:20Z</time>
      </trkpt>
      <trkpt lat="44.01322" lon="4.38467">
        <ele>147.1</ele>
        <time>2011-11-20T09:26:22Z</time>
      </trkpt>
      <trkpt lat="44.01327" lon="4.3846">
        <ele>147.7</ele>
        <time>2011-11-20T09:26:24Z</time>
      </trkpt>
      <trkpt lat="44.01332" lon="4.38452">
        <ele>148.2</ele>
        <time>2011-11-20T09:26:26Z</time>
      </trkpt>
      <trkpt lat="44.01337" lon="4.38447">
        <ele>148.5</ele>
        <time>2011-11-20T09:26:28Z</time>
      </trkpt>
      <trkpt lat="44.01343" lon="4.38442">
        <ele>148.8</ele>
        <time>2011-11-20T09:26:30Z</time>
      </trkpt>
      <trkpt lat="44.01349" lon="4.38438">
        <ele>149</ele>
        <time>2011-11-20T09:26:32Z</time>
      </trkpt>
      <trkpt lat="44.01356" lon="4.38434">
        <ele>149.2</ele>
        <time>2011-11-20T09:26:34Z</time>
      </trkpt>
      <trkpt lat="44.01362" lon="4.38431">
        <ele>149.5</ele>
        <time>2011-11-20T09:26:36Z</time>
      </trkpt>
      <trkpt lat="44.0137" lon="4.38427">
        <ele>149.5</ele>
        <time>2011-11-20T09:26:38Z</time>
      </trkpt>
      <trkpt lat="44.01377" lon="4.38423">
        <ele>149.4</ele>
        <time>2011-11-20T09:26:40Z</time>
      </trkpt>
      <trkpt lat="44.01384" lon="4.3842">
        <ele>149.5</ele>
        <time>2011-11-20T09:26:42Z</time>
      </trkpt>
      <trkpt lat="44.0139" lon="4.38416">
        <ele>149.5</ele>
        <time>2011-11-20T09:26:44Z</time>
      </trkpt>
      <trkpt lat="44.01396" lon="4.38412">
        <ele>149.7</ele>
        <time>2011-11-20T09:26:46Z</time>
      </trkpt>
      <trkpt lat="44.01403" lon="4.38408">
        <ele>149.7</ele>
        <time>2011-11-20T09:26:48Z</time>
      </trkpt>
      <trkpt lat="44.01409" lon="4.38404">
        <ele>149.8</ele>
        <time>2011-11-20T09:26:50Z</time>
      </trkpt>
      <trkpt lat="44.01415" lon="4.38401">
        <ele>150</ele>
        <time>2011-11-20T09:26:52Z</time>
      </trkpt>
      <trkpt lat="44.01421" lon="4.38398">
        <ele>150.4</ele>
        <time>2011-11-20T09:26:54Z</time>
      </trkpt>
      <trkpt lat="44.01426" lon="4.38395">
        <ele>150.7</ele>
        <time>2011-11-20T09:26:56Z</time>
      </trkpt>
      <trkpt lat="44.01432" lon="4.38392">
        <ele>151</ele>
        <time>2011-11-20T09:26:58Z</time>
      </trkpt>
      <trkpt lat="44.01437" lon="4.3839">
        <ele>151.3</ele>
        <time>2011-11-20T09:27:00Z</time>
      </trkpt>
      <trkpt lat="44.01442" lon="4.38389">
        <ele>151.5</ele>
        <time>2011-11-20T09:27:02Z</time>
      </trkpt>
      <trkpt lat="44.01447" lon="4.38388">
        <ele>151.7</ele>
        <time>2011-11-20T09:27:04Z</time>
      </trkpt>
      <trkpt lat="44.01452" lon="4.38387">
        <ele>151.9</ele>
        <time>2011-11-20T09:27:06Z</time>
      </trkpt>
      <trkpt lat="44.01456" lon="4.38385">
        <ele>152.4</ele>
        <time>2011-11-20T09:27:08Z</time>
      </trkpt>
      <trkpt lat="44.01461" lon="4.38384">
        <ele>152.5</ele>
        <time>2011-11-20T09:27:10Z</time>
      </trkpt>
      <trkpt lat="44.01466" lon="4.38382">
        <ele>152.5</ele>
        <time>2011-11-20T09:27:12Z</time>
      </trkpt>
      <trkpt lat="44.01472" lon="4.3838">
        <ele>152.4</ele>
        <time>2011-11-20T09:27:14Z</time>
      </trkpt>
      <trkpt lat="44.01477" lon="4.38378">
        <ele>152.4</ele>
        <time>2011-11-20T09:27:16Z</time>
      </trkpt>
      <trkpt lat="44.01483" lon="4.38376">
        <ele>152.6</ele>
        <time>2011-11-20T09:27:18Z</time>
      </trkpt>
      <trkpt lat="44.01489" lon="4.38373">
        <ele>152.7</ele>
        <time>2011-11-20T09:27:20Z</time>
      </trkpt>
      <trkpt lat="44.01495" lon="4.38371">
        <ele>153</ele>
        <time>2011-11-20T09:27:22Z</time>
      </trkpt>
      <trkpt lat="44.01501" lon="4.38368">
        <ele>153.1</ele>
        <time>2011-11-20T09:27:24Z</time>
      </trkpt>
      <trkpt lat="44.01508" lon="4.38366">
        <ele>153.3</ele>
        <time>2011-11-20T09:27:26Z</time>
      </trkpt>
      <trkpt lat="44.01514" lon="4.38363">
        <ele>153.5</ele>
        <time>2011-11-20T09:27:28Z</time>
      </trkpt>
      <trkpt lat="44.0152" lon="4.38361">
        <ele>153.8</ele>
        <time>2011-11-20T09:27:30Z</time>
      </trkpt>
      <trkpt lat="44.01527" lon="4.38359">
        <ele>153.8</ele>
        <time>2011-11-20T09:27:32Z</time>
      </trkpt>
      <trkpt lat="44.01534" lon="4.38356">
        <ele>153.8</ele>
        <time>2011-11-20T09:27:34Z</time>
      </trkpt>
      <trkpt lat="44.0154" lon="4.38355">
        <ele>154.1</ele>
        <time>2011-11-20T09:27:36Z</time>
      </trkpt>
      <trkpt lat="44.01547" lon="4.38353">
        <ele>154.4</ele>
        <time>2011-11-20T09:27:38Z</time>
      </trkpt>
      <trkpt lat="44.01554" lon="4.38351">
        <ele>154.7</ele>
        <time>2011-11-20T09:27:40Z</time>
      </trkpt>
      <trkpt lat="44.01562" lon="4.38349">
        <ele>155</ele>
        <time>2011-11-20T09:27:42Z</time>
      </trkpt>
      <trkpt lat="44.0157" lon="4.38347">
        <ele>155.2</ele>
        <time>2011-11-20T09:27:44Z</time>
      </trkpt>
      <trkpt lat="44.01578" lon="4.38345">
        <ele>155.2</ele>
        <time>2011-11-20T09:27:46Z</time>
      </trkpt>
      <trkpt lat="44.01587" lon="4.38343">
        <ele>155.1</ele>
        <time>2011-11-20T09:27:48Z</time>
      </trkpt>
      <trkpt lat="44.01595" lon="4.38341">
        <ele>155.4</ele>
        <time>2011-11-20T09:27:50Z</time>
      </trkpt>
      <trkpt lat="44.016" lon="4.3834">
        <ele>155.5</ele>
        <time>2011-11-20T09:27:51Z</time>
      </trkpt>
      <trkpt lat="44.01608" lon="4.38339">
        <ele>155.5</ele>
        <time>2011-11-20T09:27:53Z</time>
      </trkpt>
      <trkpt lat="44.01616" lon="4.38337">
        <ele>155.4</ele>
        <time>2011-11-20T09:27:55Z</time>
      </trkpt>
      <trkpt lat="44.01623" lon="4.38336">
        <ele>155.5</ele>
        <time>2011-11-20T09:27:57Z</time>
      </trkpt>
      <trkpt lat="44.0163" lon="4.38335">
        <ele>155.7</ele>
        <time>2011-11-20T09:27:59Z</time>
      </trkpt>
      <trkpt lat="44.01638" lon="4.38336">
        <ele>155.6</ele>
        <time>2011-11-20T09:28:01Z</time>
      </trkpt>
      <trkpt lat="44.01646" lon="4.38338">
        <ele>155.7</ele>
        <time>2011-11-20T09:28:03Z</time>
      </trkpt>
      <trkpt lat="44.01651" lon="4.38339">
        <ele>155.9</ele>
        <time>2011-11-20T09:28:04Z</time>
      </trkpt>
      <trkpt lat="44.01656" lon="4.3834">
        <ele>156</ele>
        <time>2011-11-20T09:28:05Z</time>
      </trkpt>
      <trkpt lat="44.0166" lon="4.38342">
        <ele>156.1</ele>
        <time>2011-11-20T09:28:06Z</time>
      </trkpt>
      <trkpt lat="44.01665" lon="4.38343">
        <ele>156.1</ele>
        <time>2011-11-20T09:28:07Z</time>
      </trkpt>
      <trkpt lat="44.0167" lon="4.38344">
        <ele>156</ele>
        <time>2011-11-20T09:28:08Z</time>
      </trkpt>
      <trkpt lat="44.01674" lon="4.38345">
        <ele>155.9</ele>
        <time>2011-11-20T09:28:09Z</time>
      </trkpt>
      <trkpt lat="44.01683" lon="4.38347">
        <ele>156</ele>
        <time>2011-11-20T09:28:11Z</time>
      </trkpt>
      <trkpt lat="44.0169" lon="4.38349">
        <ele>156.1</ele>
        <time>2011-11-20T09:28:13Z</time>
      </trkpt>
      <trkpt lat="44.01698" lon="4.3835">
        <ele>156.2</ele>
        <time>2011-11-20T09:28:15Z</time>
      </trkpt>
      <trkpt lat="44.01705" lon="4.38351">
        <ele>156.1</ele>
        <time>2011-11-20T09:28:17Z</time>
      </trkpt>
      <trkpt lat="44.01713" lon="4.38352">
        <ele>156</ele>
        <time>2011-11-20T09:28:19Z</time>
      </trkpt>
      <trkpt lat="44.01722" lon="4.38353">
        <ele>156</ele>
        <time>2011-11-20T09:28:21Z</time>
      </trkpt>
      <trkpt lat="44.0173" lon="4.38354">
        <ele>156.1</ele>
        <time>2011-11-20T09:28:23Z</time>
      </trkpt>
      <trkpt lat="44.01738" lon="4.38354">
        <ele>156.1</ele>
        <time>2011-11-20T09:28:25Z</time>
      </trkpt>
      <trkpt lat="44.01747" lon="4.38355">
        <ele>156.2</ele>
        <time>2011-11-20T09:28:27Z</time>
      </trkpt>
      <trkpt lat="44.01756" lon="4.38355">
        <ele>156.1</ele>
        <time>2011-11-20T09:28:29Z</time>
      </trkpt>
      <trkpt lat="44.0176" lon="4.38355">
        <ele>156.1</ele>
        <time>2011-11-20T09:28:30Z</time>
      </trkpt>
      <trkpt lat="44.01769" lon="4.38355">
        <ele>156.2</ele>
        <time>2011-11-20T09:28:32Z</time>
      </trkpt>
      <trkpt lat="44.01777" lon="4.38354">
        <ele>156.3</ele>
        <time>2011-11-20T09:28:34Z</time>
      </trkpt>
      <trkpt lat="44.01786" lon="4.38353">
        <ele>156.6</ele>
        <time>2011-11-20T09:28:36Z</time>
      </trkpt>
      <trkpt lat="44.01791" lon="4.38352">
        <ele>156.6</ele>
        <time>2011-11-20T09:28:37Z</time>
      </trkpt>
      <trkpt lat="44.01796" lon="4.38351">
        <ele>156.5</ele>
        <time>2011-11-20T09:28:38Z</time>
      </trkpt>
      <trkpt lat="44.018" lon="4.3835">
        <ele>156.7</ele>
        <time>2011-11-20T09:28:39Z</time>
      </trkpt>
      <trkpt lat="44.01805" lon="4.38349">
        <ele>156.9</ele>
        <time>2011-11-20T09:28:40Z</time>
      </trkpt>
      <trkpt lat="44.0181" lon="4.38348">
        <ele>157.1</ele>
        <time>2011-11-20T09:28:41Z</time>
      </trkpt>
      <trkpt lat="44.01815" lon="4.38347">
        <ele>157.4</ele>
        <time>2011-11-20T09:28:42Z</time>
      </trkpt>
      <trkpt lat="44.0182" lon="4.38346">
        <ele>157.5</ele>
        <time>2011-11-20T09:28:43Z</time>
      </trkpt>
      <trkpt lat="44.01825" lon="4.38345">
        <ele>157.6</ele>
        <time>2011-11-20T09:28:44Z</time>
      </trkpt>
      <trkpt lat="44.0183" lon="4.38344">
        <ele>157.8</ele>
        <time>2011-11-20T09:28:45Z</time>
      </trkpt>
      <trkpt lat="44.01835" lon="4.38344">
        <ele>158</ele>
        <time>2011-11-20T09:28:46Z</time>
      </trkpt>
      <trkpt lat="44.0184" lon="4.38343">
        <ele>158.1</ele>
        <time>2011-11-20T09:28:47Z</time>
      </trkpt>
      <trkpt lat="44.01845" lon="4.38343">
        <ele>158</ele>
        <time>2011-11-20T09:28:48Z</time>
      </trkpt>
      <trkpt lat="44.0185" lon="4.38343">
        <ele>158.2</ele>
        <time>2011-11-20T09:28:49Z</time>
      </trkpt>
      <trkpt lat="44.01854" lon="4.38343">
        <ele>158.3</ele>
        <time>2011-11-20T09:28:50Z</time>
      </trkpt>
      <trkpt lat="44.01863" lon="4.38344">
        <ele>158.4</ele>
        <time>2011-11-20T09:28:52Z</time>
      </trkpt>
      <trkpt lat="44.01871" lon="4.38346">
        <ele>158.4</ele>
        <time>2011-11-20T09:28:54Z</time>
      </trkpt>
      <trkpt lat="44.01876" lon="4.38347">
        <ele>158.4</ele>
        <time>2011-11-20T09:28:55Z</time>
      </trkpt>
      <trkpt lat="44.01881" lon="4.38348">
        <ele>158.2</ele>
        <time>2011-11-20T09:28:56Z</time>
      </trkpt>
      <trkpt lat="44.01885" lon="4.38349">
        <ele>158</ele>
        <time>2011-11-20T09:28:57Z</time>
      </trkpt>
      <trkpt lat="44.01894" lon="4.3835">
        <ele>158</ele>
        <time>2011-11-20T09:28:59Z</time>
      </trkpt>
      <trkpt lat="44.01902" lon="4.38353">
        <ele>158.2</ele>
        <time>2011-11-20T09:29:01Z</time>
      </trkpt>
      <trkpt lat="44.01911" lon="4.38355">
        <ele>158.5</ele>
        <time>2011-11-20T09:29:03Z</time>
      </trkpt>
      <trkpt lat="44.01916" lon="4.38356">
        <ele>158.4</ele>
        <time>2011-11-20T09:29:04Z</time>
      </trkpt>
      <trkpt lat="44.01921" lon="4.38357">
        <ele>158.3</ele>
        <time>2011-11-20T09:29:05Z</time>
      </trkpt>
      <trkpt lat="44.01925" lon="4.38358">
        <ele>158.1</ele>
        <time>2011-11-20T09:29:06Z</time>
      </trkpt>
      <trkpt lat="44.0193" lon="4.38359">
        <ele>158.1</ele>
        <time>2011-11-20T09:29:07Z</time>
      </trkpt>
      <trkpt lat="44.01934" lon="4.3836">
        <ele>158</ele>
        <time>2011-11-20T09:29:08Z</time>
      </trkpt>
      <trkpt lat="44.01939" lon="4.38361">
        <ele>157.9</ele>
        <time>2011-11-20T09:29:09Z</time>
      </trkpt>
      <trkpt lat="44.01944" lon="4.38361">
        <ele>157.8</ele>
        <time>2011-11-20T09:29:10Z</time>
      </trkpt>
      <trkpt lat="44.01948" lon="4.38362">
        <ele>157.8</ele>
        <time>2011-11-20T09:29:11Z</time>
      </trkpt>
      <trkpt lat="44.01953" lon="4.38363">
        <ele>157.8</ele>
        <time>2011-11-20T09:29:12Z</time>
      </trkpt>
      <trkpt lat="44.01957" lon="4.38364">
        <ele>157.6</ele>
        <time>2011-11-20T09:29:13Z</time>
      </trkpt>
      <trkpt lat="44.01962" lon="4.38365">
        <ele>157.6</ele>
        <time>2011-11-20T09:29:14Z</time>
      </trkpt>
      <trkpt lat="44.01966" lon="4.38366">
        <ele>157.4</ele>
        <time>2011-11-20T09:29:15Z</time>
      </trkpt>
      <trkpt lat="44.01971" lon="4.38366">
        <ele>157.4</ele>
        <time>2011-11-20T09:29:16Z</time>
      </trkpt>
      <trkpt lat="44.01975" lon="4.38367">
        <ele>157.3</ele>
        <time>2011-11-20T09:29:17Z</time>
      </trkpt>
      <trkpt lat="44.0198" lon="4.38367">
        <ele>157.3</ele>
        <time>2011-11-20T09:29:18Z</time>
      </trkpt>
      <trkpt lat="44.01985" lon="4.38367">
        <ele>157.3</ele>
        <time>2011-11-20T09:29:19Z</time>
      </trkpt>
      <trkpt lat="44.01993" lon="4.38367">
        <ele>157.3</ele>
        <time>2011-11-20T09:29:21Z</time>
      </trkpt>
      <trkpt lat="44.01998" lon="4.38367">
        <ele>157.2</ele>
        <time>2011-11-20T09:29:22Z</time>
      </trkpt>
      <trkpt lat="44.02003" lon="4.38367">
        <ele>157.3</ele>
        <time>2011-11-20T09:29:23Z</time>
      </trkpt>
      <trkpt lat="44.02008" lon="4.38367">
        <ele>157.3</ele>
        <time>2011-11-20T09:29:24Z</time>
      </trkpt>
      <trkpt lat="44.02012" lon="4.38368">
        <ele>157.2</ele>
        <time>2011-11-20T09:29:25Z</time>
      </trkpt>
      <trkpt lat="44.02018" lon="4.38368">
        <ele>157.2</ele>
        <time>2011-11-20T09:29:26Z</time>
      </trkpt>
      <trkpt lat="44.02023" lon="4.38369">
        <ele>157.4</ele>
        <time>2011-11-20T09:29:27Z</time>
      </trkpt>
      <trkpt lat="44.02029" lon="4.3837">
        <ele>157.4</ele>
        <time>2011-11-20T09:29:28Z</time>
      </trkpt>
      <trkpt lat="44.02034" lon="4.38372">
        <ele>157.4</ele>
        <time>2011-11-20T09:29:29Z</time>
      </trkpt>
      <trkpt lat="44.0204" lon="4.38373">
        <ele>157.4</ele>
        <time>2011-11-20T09:29:30Z</time>
      </trkpt>
      <trkpt lat="44.02046" lon="4.38374">
        <ele>157.4</ele>
        <time>2011-11-20T09:29:31Z</time>
      </trkpt>
      <trkpt lat="44.02051" lon="4.38374">
        <ele>157.4</ele>
        <time>2011-11-20T09:29:32Z</time>
      </trkpt>
      <trkpt lat="44.02058" lon="4.38376">
        <ele>157.4</ele>
        <time>2011-11-20T09:29:33Z</time>
      </trkpt>
      <trkpt lat="44.02064" lon="4.38377">
        <ele>157.3</ele>
        <time>2011-11-20T09:29:34Z</time>
      </trkpt>
      <trkpt lat="44.0207" lon="4.38378">
        <ele>157.2</ele>
        <time>2011-11-20T09:29:35Z</time>
      </trkpt>
      <trkpt lat="44.02076" lon="4.38379">
        <ele>157.2</ele>
        <time>2011-11-20T09:29:36Z</time>
      </trkpt>
      <trkpt lat="44.02083" lon="4.3838">
        <ele>157.1</ele>
        <time>2011-11-20T09:29:37Z</time>
      </trkpt>
      <trkpt lat="44.02089" lon="4.38381">
        <ele>157.2</ele>
        <time>2011-11-20T09:29:38Z</time>
      </trkpt>
      <trkpt lat="44.02095" lon="4.38382">
        <ele>157.1</ele>
        <time>2011-11-20T09:29:39Z</time>
      </trkpt>
      <trkpt lat="44.02102" lon="4.38383">
        <ele>157.1</ele>
        <time>2011-11-20T09:29:40Z</time>
      </trkpt>
      <trkpt lat="44.02108" lon="4.38384">
        <ele>157.1</ele>
        <time>2011-11-20T09:29:41Z</time>
      </trkpt>
      <trkpt lat="44.02115" lon="4.38385">
        <ele>157</ele>
        <time>2011-11-20T09:29:42Z</time>
      </trkpt>
      <trkpt lat="44.02122" lon="4.38386">
        <ele>157</ele>
        <time>2011-11-20T09:29:43Z</time>
      </trkpt>
      <trkpt lat="44.02128" lon="4.38387">
        <ele>157</ele>
        <time>2011-11-20T09:29:44Z</time>
      </trkpt>
      <trkpt lat="44.02134" lon="4.38388">
        <ele>157.1</ele>
        <time>2011-11-20T09:29:45Z</time>
      </trkpt>
      <trkpt lat="44.02141" lon="4.38389">
        <ele>157.2</ele>
        <time>2011-11-20T09:29:46Z</time>
      </trkpt>
      <trkpt lat="44.02148" lon="4.3839">
        <ele>157.3</ele>
        <time>2011-11-20T09:29:47Z</time>
      </trkpt>
      <trkpt lat="44.02154" lon="4.38391">
        <ele>157.4</ele>
        <time>2011-11-20T09:29:48Z</time>
      </trkpt>
      <trkpt lat="44.02161" lon="4.38392">
        <ele>157.6</ele>
        <time>2011-11-20T09:29:49Z</time>
      </trkpt>
      <trkpt lat="44.02168" lon="4.38394">
        <ele>157.9</ele>
        <time>2011-11-20T09:29:50Z</time>
      </trkpt>
      <trkpt lat="44.02174" lon="4.38395">
        <ele>157.9</ele>
        <time>2011-11-20T09:29:51Z</time>
      </trkpt>
      <trkpt lat="44.02181" lon="4.38397">
        <ele>158</ele>
        <time>2011-11-20T09:29:52Z</time>
      </trkpt>
      <trkpt lat="44.02187" lon="4.38399">
        <ele>158.1</ele>
        <time>2011-11-20T09:29:53Z</time>
      </trkpt>
      <trkpt lat="44.02193" lon="4.384">
        <ele>158.2</ele>
        <time>2011-11-20T09:29:54Z</time>
      </trkpt>
      <trkpt lat="44.02199" lon="4.38402">
        <ele>158.1</ele>
        <time>2011-11-20T09:29:55Z</time>
      </trkpt>
      <trkpt lat="44.02204" lon="4.38404">
        <ele>158.2</ele>
        <time>2011-11-20T09:29:56Z</time>
      </trkpt>
      <trkpt lat="44.02211" lon="4.38408">
        <ele>158.1</ele>
        <time>2011-11-20T09:29:58Z</time>
      </trkpt>
      <trkpt lat="44.02218" lon="4.38413">
        <ele>158</ele>
        <time>2011-11-20T09:30:00Z</time>
      </trkpt>
      <trkpt lat="44.02224" lon="4.38416">
        <ele>158</ele>
        <time>2011-11-20T09:30:02Z</time>
      </trkpt>
      <trkpt lat="44.02228" lon="4.38418">
        <ele>158</ele>
        <time>2011-11-20T09:30:04Z</time>
      </trkpt>
      <trkpt lat="44.02232" lon="4.38405">
        <ele>151.3</ele>
        <time>2011-11-20T09:30:21Z</time>
      </trkpt>
      <trkpt lat="44.02225" lon="4.38412">
        <ele>157.9</ele>
        <time>2011-11-20T09:30:22Z</time>
      </trkpt>
      <trkpt lat="44.02232" lon="4.38405">
        <ele>156.5</ele>
        <time>2011-11-20T09:30:29Z</time>
      </trkpt>
      <trkpt lat="44.02237" lon="4.38399">
        <ele>157.5</ele>
        <time>2011-11-20T09:30:32Z</time>
      </trkpt>
      <trkpt lat="44.0224" lon="4.38394">
        <ele>158.5</ele>
        <time>2011-11-20T09:30:34Z</time>
      </trkpt>
      <trkpt lat="44.02244" lon="4.38388">
        <ele>159.3</ele>
        <time>2011-11-20T09:30:36Z</time>
      </trkpt>
      <trkpt lat="44.02247" lon="4.38383">
        <ele>160.5</ele>
        <time>2011-11-20T09:30:38Z</time>
      </trkpt>
      <trkpt lat="44.0225" lon="4.38378">
        <ele>161.6</ele>
        <time>2011-11-20T09:30:40Z</time>
      </trkpt>
      <trkpt lat="44.02253" lon="4.38372">
        <ele>162.3</ele>
        <time>2011-11-20T09:30:42Z</time>
      </trkpt>
      <trkpt lat="44.02257" lon="4.38366">
        <ele>163.1</ele>
        <time>2011-11-20T09:30:44Z</time>
      </trkpt>
      <trkpt lat="44.02262" lon="4.3836">
        <ele>163.5</ele>
        <time>2011-11-20T09:30:46Z</time>
      </trkpt>
      <trkpt lat="44.02266" lon="4.38354">
        <ele>164.4</ele>
        <time>2011-11-20T09:30:48Z</time>
      </trkpt>
      <trkpt lat="44.02272" lon="4.38348">
        <ele>165.2</ele>
        <time>2011-11-20T09:30:50Z</time>
      </trkpt>
      <trkpt lat="44.02276" lon="4.38341">
        <ele>166.2</ele>
        <time>2011-11-20T09:30:52Z</time>
      </trkpt>
      <trkpt lat="44.02282" lon="4.38334">
        <ele>166.3</ele>
        <time>2011-11-20T09:30:54Z</time>
      </trkpt>
      <trkpt lat="44.02288" lon="4.38327">
        <ele>166.5</ele>
        <time>2011-11-20T09:30:56Z</time>
      </trkpt>
      <trkpt lat="44.02294" lon="4.38319">
        <ele>166.2</ele>
        <time>2011-11-20T09:30:58Z</time>
      </trkpt>
      <trkpt lat="44.023" lon="4.38311">
        <ele>166</ele>
        <time>2011-11-20T09:31:00Z</time>
      </trkpt>
      <trkpt lat="44.02305" lon="4.38303">
        <ele>165.7</ele>
        <time>2011-11-20T09:31:02Z</time>
      </trkpt>
      <trkpt lat="44.02311" lon="4.38295">
        <ele>165.6</ele>
        <time>2011-11-20T09:31:04Z</time>
      </trkpt>
      <trkpt lat="44.02316" lon="4.38286">
        <ele>165.4</ele>
        <time>2011-11-20T09:31:06Z</time>
      </trkpt>
      <trkpt lat="44.02322" lon="4.38278">
        <ele>164.9</ele>
        <time>2011-11-20T09:31:08Z</time>
      </trkpt>
      <trkpt lat="44.02328" lon="4.3827">
        <ele>164.6</ele>
        <time>2011-11-20T09:31:10Z</time>
      </trkpt>
      <trkpt lat="44.02335" lon="4.38262">
        <ele>163.9</ele>
        <time>2011-11-20T09:31:12Z</time>
      </trkpt>
      <trkpt lat="44.02341" lon="4.38254">
        <ele>163.7</ele>
        <time>2011-11-20T09:31:14Z</time>
      </trkpt>
      <trkpt lat="44.02347" lon="4.38245">
        <ele>163.7</ele>
        <time>2011-11-20T09:31:16Z</time>
      </trkpt>
      <trkpt lat="44.02353" lon="4.38236">
        <ele>163.5</ele>
        <time>2011-11-20T09:31:18Z</time>
      </trkpt>
      <trkpt lat="44.02359" lon="4.38228">
        <ele>163.4</ele>
        <time>2011-11-20T09:31:20Z</time>
      </trkpt>
      <trkpt lat="44.02362" lon="4.38223">
        <ele>163.2</ele>
        <time>2011-11-20T09:31:21Z</time>
      </trkpt>
      <trkpt lat="44.02368" lon="4.38215">
        <ele>163.3</ele>
        <time>2011-11-20T09:31:23Z</time>
      </trkpt>
      <trkpt lat="44.02375" lon="4.38206">
        <ele>163.3</ele>
        <time>2011-11-20T09:31:25Z</time>
      </trkpt>
      <trkpt lat="44.02378" lon="4.38202">
        <ele>163.3</ele>
        <time>2011-11-20T09:31:26Z</time>
      </trkpt>
      <trkpt lat="44.02384" lon="4.38193">
        <ele>163.5</ele>
        <time>2011-11-20T09:31:28Z</time>
      </trkpt>
      <trkpt lat="44.0239" lon="4.38184">
        <ele>163.9</ele>
        <time>2011-11-20T09:31:30Z</time>
      </trkpt>
      <trkpt lat="44.02396" lon="4.38176">
        <ele>164.2</ele>
        <time>2011-11-20T09:31:32Z</time>
      </trkpt>
      <trkpt lat="44.02402" lon="4.38169">
        <ele>163.9</ele>
        <time>2011-11-20T09:31:34Z</time>
      </trkpt>
      <trkpt lat="44.02407" lon="4.38161">
        <ele>163.9</ele>
        <time>2011-11-20T09:31:36Z</time>
      </trkpt>
      <trkpt lat="44.0241" lon="4.38157">
        <ele>163.8</ele>
        <time>2011-11-20T09:31:37Z</time>
      </trkpt>
      <trkpt lat="44.02416" lon="4.38149">
        <ele>163.9</ele>
        <time>2011-11-20T09:31:39Z</time>
      </trkpt>
      <trkpt lat="44.02423" lon="4.38141">
        <ele>163.8</ele>
        <time>2011-11-20T09:31:41Z</time>
      </trkpt>
      <trkpt lat="44.02429" lon="4.38133">
        <ele>163.8</ele>
        <time>2011-11-20T09:31:43Z</time>
      </trkpt>
      <trkpt lat="44.02435" lon="4.38124">
        <ele>164</ele>
        <time>2011-11-20T09:31:45Z</time>
      </trkpt>
      <trkpt lat="44.02441" lon="4.38116">
        <ele>164.1</ele>
        <time>2011-11-20T09:31:47Z</time>
      </trkpt>
      <trkpt lat="44.02446" lon="4.38108">
        <ele>164.3</ele>
        <time>2011-11-20T09:31:49Z</time>
      </trkpt>
      <trkpt lat="44.02452" lon="4.381">
        <ele>164.2</ele>
        <time>2011-11-20T09:31:51Z</time>
      </trkpt>
      <trkpt lat="44.02458" lon="4.38092">
        <ele>164.5</ele>
        <time>2011-11-20T09:31:53Z</time>
      </trkpt>
      <trkpt lat="44.02464" lon="4.38085">
        <ele>164.7</ele>
        <time>2011-11-20T09:31:55Z</time>
      </trkpt>
      <trkpt lat="44.02469" lon="4.38077">
        <ele>164.6</ele>
        <time>2011-11-20T09:31:57Z</time>
      </trkpt>
      <trkpt lat="44.02476" lon="4.3807">
        <ele>164.3</ele>
        <time>2011-11-20T09:31:59Z</time>
      </trkpt>
      <trkpt lat="44.02482" lon="4.38062">
        <ele>164</ele>
        <time>2011-11-20T09:32:01Z</time>
      </trkpt>
      <trkpt lat="44.02488" lon="4.38054">
        <ele>163.5</ele>
        <time>2011-11-20T09:32:03Z</time>
      </trkpt>
      <trkpt lat="44.02494" lon="4.38046">
        <ele>162.9</ele>
        <time>2011-11-20T09:32:05Z</time>
      </trkpt>
      <trkpt lat="44.025" lon="4.38038">
        <ele>162.9</ele>
        <time>2011-11-20T09:32:07Z</time>
      </trkpt>
      <trkpt lat="44.02506" lon="4.3803">
        <ele>162.7</ele>
        <time>2011-11-20T09:32:09Z</time>
      </trkpt>
      <trkpt lat="44.02511" lon="4.38021">
        <ele>162.5</ele>
        <time>2011-11-20T09:32:11Z</time>
      </trkpt>
      <trkpt lat="44.02517" lon="4.38012">
        <ele>162.6</ele>
        <time>2011-11-20T09:32:13Z</time>
      </trkpt>
      <trkpt lat="44.02523" lon="4.38003">
        <ele>162.6</ele>
        <time>2011-11-20T09:32:15Z</time>
      </trkpt>
      <trkpt lat="44.02529" lon="4.37995">
        <ele>162.5</ele>
        <time>2011-11-20T09:32:17Z</time>
      </trkpt>
      <trkpt lat="44.02532" lon="4.3799">
        <ele>162.3</ele>
        <time>2011-11-20T09:32:18Z</time>
      </trkpt>
      <trkpt lat="44.02539" lon="4.37982">
        <ele>161.9</ele>
        <time>2011-11-20T09:32:20Z</time>
      </trkpt>
      <trkpt lat="44.02542" lon="4.37978">
        <ele>161.7</ele>
        <time>2011-11-20T09:32:21Z</time>
      </trkpt>
      <trkpt lat="44.02548" lon="4.37969">
        <ele>161.4</ele>
        <time>2011-11-20T09:32:23Z</time>
      </trkpt>
      <trkpt lat="44.02552" lon="4.37964">
        <ele>161.3</ele>
        <time>2011-11-20T09:32:24Z</time>
      </trkpt>
      <trkpt lat="44.02558" lon="4.37958">
        <ele>161.3</ele>
        <time>2011-11-20T09:32:26Z</time>
      </trkpt>
      <trkpt lat="44.02567" lon="4.37955">
        <ele>161.7</ele>
        <time>2011-11-20T09:32:28Z</time>
      </trkpt>
      <trkpt lat="44.02574" lon="4.37956">
        <ele>162.2</ele>
        <time>2011-11-20T09:32:30Z</time>
      </trkpt>
      <trkpt lat="44.0258" lon="4.37954">
        <ele>162.5</ele>
        <time>2011-11-20T09:32:32Z</time>
      </trkpt>
      <trkpt lat="44.02585" lon="4.37952">
        <ele>163</ele>
        <time>2011-11-20T09:32:34Z</time>
      </trkpt>
      <trkpt lat="44.0259" lon="4.37948">
        <ele>163.1</ele>
        <time>2011-11-20T09:32:36Z</time>
      </trkpt>
      <trkpt lat="44.02594" lon="4.37943">
        <ele>163.3</ele>
        <time>2011-11-20T09:32:38Z</time>
      </trkpt>
      <trkpt lat="44.02599" lon="4.37938">
        <ele>163.2</ele>
        <time>2011-11-20T09:32:40Z</time>
      </trkpt>
      <trkpt lat="44.02604" lon="4.37934">
        <ele>163.2</ele>
        <time>2011-11-20T09:32:42Z</time>
      </trkpt>
      <trkpt lat="44.0261" lon="4.37932">
        <ele>163.1</ele>
        <time>2011-11-20T09:32:44Z</time>
      </trkpt>
      <trkpt lat="44.02616" lon="4.37931">
        <ele>163.2</ele>
        <time>2011-11-20T09:32:46Z</time>
      </trkpt>
      <trkpt lat="44.02622" lon="4.37931">
        <ele>163.1</ele>
        <time>2011-11-20T09:32:48Z</time>
      </trkpt>
      <trkpt lat="44.02629" lon="4.3793">
        <ele>163.2</ele>
        <time>2011-11-20T09:32:50Z</time>
      </trkpt>
      <trkpt lat="44.02635" lon="4.37929">
        <ele>163.2</ele>
        <time>2011-11-20T09:32:52Z</time>
      </trkpt>
      <trkpt lat="44.02642" lon="4.37929">
        <ele>163.1</ele>
        <time>2011-11-20T09:32:54Z</time>
      </trkpt>
      <trkpt lat="44.02648" lon="4.37928">
        <ele>163.3</ele>
        <time>2011-11-20T09:32:56Z</time>
      </trkpt>
      <trkpt lat="44.02655" lon="4.37926">
        <ele>163.3</ele>
        <time>2011-11-20T09:32:58Z</time>
      </trkpt>
      <trkpt lat="44.02661" lon="4.37926">
        <ele>163.4</ele>
        <time>2011-11-20T09:33:00Z</time>
      </trkpt>
      <trkpt lat="44.02667" lon="4.37926">
        <ele>163.3</ele>
        <time>2011-11-20T09:33:02Z</time>
      </trkpt>
      <trkpt lat="44.02673" lon="4.37925">
        <ele>163.5</ele>
        <time>2011-11-20T09:33:04Z</time>
      </trkpt>
      <trkpt lat="44.02679" lon="4.37925">
        <ele>163.5</ele>
        <time>2011-11-20T09:33:06Z</time>
      </trkpt>
      <trkpt lat="44.02685" lon="4.37924">
        <ele>163.4</ele>
        <time>2011-11-20T09:33:08Z</time>
      </trkpt>
      <trkpt lat="44.02691" lon="4.37924">
        <ele>163.7</ele>
        <time>2011-11-20T09:33:10Z</time>
      </trkpt>
      <trkpt lat="44.02698" lon="4.37925">
        <ele>163.7</ele>
        <time>2011-11-20T09:33:12Z</time>
      </trkpt>
      <trkpt lat="44.02704" lon="4.37926">
        <ele>163.5</ele>
        <time>2011-11-20T09:33:14Z</time>
      </trkpt>
      <trkpt lat="44.0271" lon="4.37926">
        <ele>163.5</ele>
        <time>2011-11-20T09:33:16Z</time>
      </trkpt>
      <trkpt lat="44.02717" lon="4.37927">
        <ele>163.5</ele>
        <time>2011-11-20T09:33:18Z</time>
      </trkpt>
      <trkpt lat="44.02723" lon="4.37928">
        <ele>163.4</ele>
        <time>2011-11-20T09:33:20Z</time>
      </trkpt>
      <trkpt lat="44.02729" lon="4.3793">
        <ele>163.3</ele>
        <time>2011-11-20T09:33:22Z</time>
      </trkpt>
      <trkpt lat="44.02734" lon="4.37931">
        <ele>163.4</ele>
        <time>2011-11-20T09:33:24Z</time>
      </trkpt>
      <trkpt lat="44.02739" lon="4.37932">
        <ele>163.3</ele>
        <time>2011-11-20T09:33:26Z</time>
      </trkpt>
      <trkpt lat="44.02743" lon="4.37933">
        <ele>163.2</ele>
        <time>2011-11-20T09:33:28Z</time>
      </trkpt>
      <trkpt lat="44.02747" lon="4.37935">
        <ele>163.4</ele>
        <time>2011-11-20T09:33:30Z</time>
      </trkpt>
      <trkpt lat="44.02752" lon="4.37937">
        <ele>163.4</ele>
        <time>2011-11-20T09:33:32Z</time>
      </trkpt>
      <trkpt lat="44.02758" lon="4.3794">
        <ele>163.4</ele>
        <time>2011-11-20T09:33:34Z</time>
      </trkpt>
      <trkpt lat="44.02763" lon="4.37943">
        <ele>163.4</ele>
        <time>2011-11-20T09:33:36Z</time>
      </trkpt>
      <trkpt lat="44.02768" lon="4.37946">
        <ele>163.7</ele>
        <time>2011-11-20T09:33:38Z</time>
      </trkpt>
      <trkpt lat="44.02774" lon="4.37948">
        <ele>164.1</ele>
        <time>2011-11-20T09:33:40Z</time>
      </trkpt>
      <trkpt lat="44.02779" lon="4.37952">
        <ele>164.1</ele>
        <time>2011-11-20T09:33:42Z</time>
      </trkpt>
      <trkpt lat="44.02786" lon="4.37953">
        <ele>164</ele>
        <time>2011-11-20T09:33:44Z</time>
      </trkpt>
      <trkpt lat="44.02791" lon="4.37955">
        <ele>164.1</ele>
        <time>2011-11-20T09:33:46Z</time>
      </trkpt>
      <trkpt lat="44.02796" lon="4.37958">
        <ele>164.2</ele>
        <time>2011-11-20T09:33:48Z</time>
      </trkpt>
      <trkpt lat="44.02801" lon="4.37961">
        <ele>164.2</ele>
        <time>2011-11-20T09:33:50Z</time>
      </trkpt>
      <trkpt lat="44.02805" lon="4.37963">
        <ele>164.3</ele>
        <time>2011-11-20T09:33:52Z</time>
      </trkpt>
      <trkpt lat="44.0281" lon="4.37965">
        <ele>164.5</ele>
        <time>2011-11-20T09:33:55Z</time>
      </trkpt>
      <trkpt lat="44.02815" lon="4.37961">
        <ele>165.7</ele>
        <time>2011-11-20T09:33:59Z</time>
      </trkpt>
      <trkpt lat="44.02821" lon="4.37959">
        <ele>168</ele>
        <time>2011-11-20T09:34:13Z</time>
      </trkpt>
      <trkpt lat="44.02826" lon="4.37956">
        <ele>169</ele>
        <time>2011-11-20T09:34:17Z</time>
      </trkpt>
      <trkpt lat="44.02831" lon="4.37953">
        <ele>169.3</ele>
        <time>2011-11-20T09:34:19Z</time>
      </trkpt>
      <trkpt lat="44.02836" lon="4.37951">
        <ele>169.3</ele>
        <time>2011-11-20T09:34:21Z</time>
      </trkpt>
      <trkpt lat="44.02843" lon="4.37951">
        <ele>169.4</ele>
        <time>2011-11-20T09:34:23Z</time>
      </trkpt>
      <trkpt lat="44.0285" lon="4.3795">
        <ele>169.5</ele>
        <time>2011-11-20T09:34:25Z</time>
      </trkpt>
      <trkpt lat="44.02856" lon="4.37949">
        <ele>169.2</ele>
        <time>2011-11-20T09:34:27Z</time>
      </trkpt>
      <trkpt lat="44.02863" lon="4.37948">
        <ele>169.2</ele>
        <time>2011-11-20T09:34:29Z</time>
      </trkpt>
      <trkpt lat="44.0287" lon="4.37947">
        <ele>169.4</ele>
        <time>2011-11-20T09:34:31Z</time>
      </trkpt>
      <trkpt lat="44.02876" lon="4.37945">
        <ele>169.6</ele>
        <time>2011-11-20T09:34:33Z</time>
      </trkpt>
      <trkpt lat="44.02882" lon="4.37943">
        <ele>170.1</ele>
        <time>2011-11-20T09:34:35Z</time>
      </trkpt>
      <trkpt lat="44.02889" lon="4.3794">
        <ele>170.3</ele>
        <time>2011-11-20T09:34:37Z</time>
      </trkpt>
      <trkpt lat="44.02895" lon="4.37939">
        <ele>170.7</ele>
        <time>2011-11-20T09:34:39Z</time>
      </trkpt>
      <trkpt lat="44.029" lon="4.37938">
        <ele>170.8</ele>
        <time>2011-11-20T09:34:41Z</time>
      </trkpt>
      <trkpt lat="44.02905" lon="4.37937">
        <ele>170.6</ele>
        <time>2011-11-20T09:34:43Z</time>
      </trkpt>
      <trkpt lat="44.02911" lon="4.37937">
        <ele>170.7</ele>
        <time>2011-11-20T09:34:45Z</time>
      </trkpt>
      <trkpt lat="44.02918" lon="4.37937">
        <ele>170.7</ele>
        <time>2011-11-20T09:34:47Z</time>
      </trkpt>
      <trkpt lat="44.02924" lon="4.37936">
        <ele>170.9</ele>
        <time>2011-11-20T09:34:49Z</time>
      </trkpt>
      <trkpt lat="44.0293" lon="4.37936">
        <ele>171.1</ele>
        <time>2011-11-20T09:34:51Z</time>
      </trkpt>
      <trkpt lat="44.02936" lon="4.37935">
        <ele>171.5</ele>
        <time>2011-11-20T09:34:53Z</time>
      </trkpt>
      <trkpt lat="44.02942" lon="4.37934">
        <ele>172.3</ele>
        <time>2011-11-20T09:34:55Z</time>
      </trkpt>
      <trkpt lat="44.02947" lon="4.37931">
        <ele>173.4</ele>
        <time>2011-11-20T09:34:57Z</time>
      </trkpt>
      <trkpt lat="44.02953" lon="4.37931">
        <ele>173.2</ele>
        <time>2011-11-20T09:34:59Z</time>
      </trkpt>
      <trkpt lat="44.02959" lon="4.37929">
        <ele>173</ele>
        <time>2011-11-20T09:35:01Z</time>
      </trkpt>
      <trkpt lat="44.02966" lon="4.3793">
        <ele>172.8</ele>
        <time>2011-11-20T09:35:03Z</time>
      </trkpt>
      <trkpt lat="44.02971" lon="4.37931">
        <ele>172.8</ele>
        <time>2011-11-20T09:35:05Z</time>
      </trkpt>
      <trkpt lat="44.02977" lon="4.37933">
        <ele>173.1</ele>
        <time>2011-11-20T09:35:08Z</time>
      </trkpt>
      <trkpt lat="44.02982" lon="4.37935">
        <ele>173.1</ele>
        <time>2011-11-20T09:35:11Z</time>
      </trkpt>
      <trkpt lat="44.02986" lon="4.37937">
        <ele>173.5</ele>
        <time>2011-11-20T09:35:14Z</time>
      </trkpt>
      <trkpt lat="44.02992" lon="4.37941">
        <ele>173.7</ele>
        <time>2011-11-20T09:35:17Z</time>
      </trkpt>
      <trkpt lat="44.02997" lon="4.37943">
        <ele>173.4</ele>
        <time>2011-11-20T09:35:19Z</time>
      </trkpt>
      <trkpt lat="44.03002" lon="4.37947">
        <ele>173.2</ele>
        <time>2011-11-20T09:35:21Z</time>
      </trkpt>
      <trkpt lat="44.03005" lon="4.37952">
        <ele>173.2</ele>
        <time>2011-11-20T09:35:23Z</time>
      </trkpt>
      <trkpt lat="44.03009" lon="4.37957">
        <ele>173</ele>
        <time>2011-11-20T09:35:25Z</time>
      </trkpt>
      <trkpt lat="44.03014" lon="4.37962">
        <ele>172.9</ele>
        <time>2011-11-20T09:35:27Z</time>
      </trkpt>
      <trkpt lat="44.03018" lon="4.37968">
        <ele>172.8</ele>
        <time>2011-11-20T09:35:29Z</time>
      </trkpt>
      <trkpt lat="44.03023" lon="4.37974">
        <ele>172.6</ele>
        <time>2011-11-20T09:35:31Z</time>
      </trkpt>
      <trkpt lat="44.03028" lon="4.3798">
        <ele>172.4</ele>
        <time>2011-11-20T09:35:33Z</time>
      </trkpt>
      <trkpt lat="44.03034" lon="4.37985">
        <ele>172.3</ele>
        <time>2011-11-20T09:35:35Z</time>
      </trkpt>
      <trkpt lat="44.03039" lon="4.37989">
        <ele>172.3</ele>
        <time>2011-11-20T09:35:37Z</time>
      </trkpt>
      <trkpt lat="44.03044" lon="4.37994">
        <ele>172.6</ele>
        <time>2011-11-20T09:35:39Z</time>
      </trkpt>
      <trkpt lat="44.03049" lon="4.37998">
        <ele>172.8</ele>
        <time>2011-11-20T09:35:41Z</time>
      </trkpt>
      <trkpt lat="44.03054" lon="4.38">
        <ele>173</ele>
        <time>2011-11-20T09:35:43Z</time>
      </trkpt>
      <trkpt lat="44.0306" lon="4.38004">
        <ele>173</ele>
        <time>2011-11-20T09:35:45Z</time>
      </trkpt>
      <trkpt lat="44.03067" lon="4.38006">
        <ele>173.5</ele>
        <time>2011-11-20T09:35:47Z</time>
      </trkpt>
      <trkpt lat="44.03075" lon="4.38008">
        <ele>174.1</ele>
        <time>2011-11-20T09:35:49Z</time>
      </trkpt>
      <trkpt lat="44.03083" lon="4.38008">
        <ele>174.1</ele>
        <time>2011-11-20T09:35:51Z</time>
      </trkpt>
      <trkpt lat="44.03091" lon="4.38009">
        <ele>174.3</ele>
        <time>2011-11-20T09:35:53Z</time>
      </trkpt>
      <trkpt lat="44.03095" lon="4.38007">
        <ele>174.2</ele>
        <time>2011-11-20T09:35:54Z</time>
      </trkpt>
      <trkpt lat="44.031" lon="4.38006">
        <ele>173.9</ele>
        <time>2011-11-20T09:35:55Z</time>
      </trkpt>
      <trkpt lat="44.03105" lon="4.38006">
        <ele>173.6</ele>
        <time>2011-11-20T09:35:56Z</time>
      </trkpt>
      <trkpt lat="44.03109" lon="4.38007">
        <ele>173.8</ele>
        <time>2011-11-20T09:35:57Z</time>
      </trkpt>
      <trkpt lat="44.03115" lon="4.38009">
        <ele>174</ele>
        <time>2011-11-20T09:35:58Z</time>
      </trkpt>
      <trkpt lat="44.03119" lon="4.3801">
        <ele>174.3</ele>
        <time>2011-11-20T09:35:59Z</time>
      </trkpt>
      <trkpt lat="44.03128" lon="4.38012">
        <ele>174.4</ele>
        <time>2011-11-20T09:36:01Z</time>
      </trkpt>
      <trkpt lat="44.03134" lon="4.38015">
        <ele>174.2</ele>
        <time>2011-11-20T09:36:03Z</time>
      </trkpt>
      <trkpt lat="44.0314" lon="4.38019">
        <ele>174.3</ele>
        <time>2011-11-20T09:36:05Z</time>
      </trkpt>
      <trkpt lat="44.03145" lon="4.38023">
        <ele>174.4</ele>
        <time>2011-11-20T09:36:07Z</time>
      </trkpt>
      <trkpt lat="44.03151" lon="4.38027">
        <ele>174.5</ele>
        <time>2011-11-20T09:36:09Z</time>
      </trkpt>
      <trkpt lat="44.03156" lon="4.3803">
        <ele>174.6</ele>
        <time>2011-11-20T09:36:11Z</time>
      </trkpt>
      <trkpt lat="44.03163" lon="4.38034">
        <ele>174.7</ele>
        <time>2011-11-20T09:36:13Z</time>
      </trkpt>
      <trkpt lat="44.03171" lon="4.3804">
        <ele>174.9</ele>
        <time>2011-11-20T09:36:15Z</time>
      </trkpt>
      <trkpt lat="44.03175" lon="4.38043">
        <ele>175.1</ele>
        <time>2011-11-20T09:36:16Z</time>
      </trkpt>
      <trkpt lat="44.03179" lon="4.38047">
        <ele>175.1</ele>
        <time>2011-11-20T09:36:17Z</time>
      </trkpt>
      <trkpt lat="44.03184" lon="4.38051">
        <ele>175.4</ele>
        <time>2011-11-20T09:36:18Z</time>
      </trkpt>
      <trkpt lat="44.03188" lon="4.38056">
        <ele>175.5</ele>
        <time>2011-11-20T09:36:19Z</time>
      </trkpt>
      <trkpt lat="44.03193" lon="4.38059">
        <ele>175.4</ele>
        <time>2011-11-20T09:36:20Z</time>
      </trkpt>
      <trkpt lat="44.03198" lon="4.38064">
        <ele>175.3</ele>
        <time>2011-11-20T09:36:21Z</time>
      </trkpt>
      <trkpt lat="44.03203" lon="4.38067">
        <ele>175.4</ele>
        <time>2011-11-20T09:36:22Z</time>
      </trkpt>
      <trkpt lat="44.03208" lon="4.38071">
        <ele>175.4</ele>
        <time>2011-11-20T09:36:23Z</time>
      </trkpt>
      <trkpt lat="44.03212" lon="4.38074">
        <ele>175.4</ele>
        <time>2011-11-20T09:36:24Z</time>
      </trkpt>
      <trkpt lat="44.03218" lon="4.38078">
        <ele>175.4</ele>
        <time>2011-11-20T09:36:26Z</time>
      </trkpt>
      <trkpt lat="44.03222" lon="4.38082">
        <ele>175.4</ele>
        <time>2011-11-20T09:36:28Z</time>
      </trkpt>
      <trkpt lat="44.03226" lon="4.38085">
        <ele>175.2</ele>
        <time>2011-11-20T09:36:30Z</time>
      </trkpt>
      <trkpt lat="44.03231" lon="4.38087">
        <ele>175.3</ele>
        <time>2011-11-20T09:36:32Z</time>
      </trkpt>
      <trkpt lat="44.03236" lon="4.38089">
        <ele>175.5</ele>
        <time>2011-11-20T09:36:34Z</time>
      </trkpt>
      <trkpt lat="44.03242" lon="4.38091">
        <ele>175.6</ele>
        <time>2011-11-20T09:36:36Z</time>
      </trkpt>
      <trkpt lat="44.03248" lon="4.38093">
        <ele>175.7</ele>
        <time>2011-11-20T09:36:38Z</time>
      </trkpt>
      <trkpt lat="44.03254" lon="4.38095">
        <ele>176</ele>
        <time>2011-11-20T09:36:40Z</time>
      </trkpt>
      <trkpt lat="44.03259" lon="4.38096">
        <ele>176.1</ele>
        <time>2011-11-20T09:36:42Z</time>
      </trkpt>
      <trkpt lat="44.03265" lon="4.38096">
        <ele>176.3</ele>
        <time>2011-11-20T09:36:44Z</time>
      </trkpt>
      <trkpt lat="44.0327" lon="4.38096">
        <ele>176.3</ele>
        <time>2011-11-20T09:36:46Z</time>
      </trkpt>
      <trkpt lat="44.03274" lon="4.38097">
        <ele>176.6</ele>
        <time>2011-11-20T09:36:48Z</time>
      </trkpt>
      <trkpt lat="44.03279" lon="4.38097">
        <ele>176.6</ele>
        <time>2011-11-20T09:36:50Z</time>
      </trkpt>
      <trkpt lat="44.03284" lon="4.38097">
        <ele>176.8</ele>
        <time>2011-11-20T09:36:52Z</time>
      </trkpt>
      <trkpt lat="44.03289" lon="4.38097">
        <ele>176.8</ele>
        <time>2011-11-20T09:36:54Z</time>
      </trkpt>
      <trkpt lat="44.03295" lon="4.38095">
        <ele>176.7</ele>
        <time>2011-11-20T09:36:56Z</time>
      </trkpt>
      <trkpt lat="44.03301" lon="4.38093">
        <ele>177</ele>
        <time>2011-11-20T09:36:58Z</time>
      </trkpt>
      <trkpt lat="44.03306" lon="4.3809">
        <ele>177.2</ele>
        <time>2011-11-20T09:37:00Z</time>
      </trkpt>
      <trkpt lat="44.0331" lon="4.38089">
        <ele>177</ele>
        <time>2011-11-20T09:37:02Z</time>
      </trkpt>
      <trkpt lat="44.03316" lon="4.38086">
        <ele>176.9</ele>
        <time>2011-11-20T09:37:05Z</time>
      </trkpt>
      <trkpt lat="44.03319" lon="4.3808">
        <ele>176.9</ele>
        <time>2011-11-20T09:37:09Z</time>
      </trkpt>
      <trkpt lat="44.03322" lon="4.38074">
        <ele>177.4</ele>
        <time>2011-11-20T09:37:12Z</time>
      </trkpt>
      <trkpt lat="44.03326" lon="4.38068">
        <ele>178</ele>
        <time>2011-11-20T09:37:14Z</time>
      </trkpt>
      <trkpt lat="44.0333" lon="4.38061">
        <ele>178.4</ele>
        <time>2011-11-20T09:37:16Z</time>
      </trkpt>
      <trkpt lat="44.03335" lon="4.38054">
        <ele>178.6</ele>
        <time>2011-11-20T09:37:18Z</time>
      </trkpt>
      <trkpt lat="44.0334" lon="4.38049">
        <ele>178.4</ele>
        <time>2011-11-20T09:37:20Z</time>
      </trkpt>
      <trkpt lat="44.03348" lon="4.38045">
        <ele>178.3</ele>
        <time>2011-11-20T09:37:22Z</time>
      </trkpt>
      <trkpt lat="44.03352" lon="4.38045">
        <ele>178.6</ele>
        <time>2011-11-20T09:37:23Z</time>
      </trkpt>
      <trkpt lat="44.03357" lon="4.38045">
        <ele>179.1</ele>
        <time>2011-11-20T09:37:24Z</time>
      </trkpt>
      <trkpt lat="44.03364" lon="4.38044">
        <ele>179.6</ele>
        <time>2011-11-20T09:37:26Z</time>
      </trkpt>
      <trkpt lat="44.03371" lon="4.38041">
        <ele>179.9</ele>
        <time>2011-11-20T09:37:28Z</time>
      </trkpt>
      <trkpt lat="44.03379" lon="4.38037">
        <ele>179.9</ele>
        <time>2011-11-20T09:37:30Z</time>
      </trkpt>
      <trkpt lat="44.03386" lon="4.38029">
        <ele>180.3</ele>
        <time>2011-11-20T09:37:32Z</time>
      </trkpt>
      <trkpt lat="44.0339" lon="4.38025">
        <ele>180.6</ele>
        <time>2011-11-20T09:37:33Z</time>
      </trkpt>
      <trkpt lat="44.03394" lon="4.3802">
        <ele>180.8</ele>
        <time>2011-11-20T09:37:34Z</time>
      </trkpt>
      <trkpt lat="44.03401" lon="4.38012">
        <ele>181.1</ele>
        <time>2011-11-20T09:37:36Z</time>
      </trkpt>
      <trkpt lat="44.03405" lon="4.38004">
        <ele>181.5</ele>
        <time>2011-11-20T09:37:38Z</time>
      </trkpt>
      <trkpt lat="44.0341" lon="4.37998">
        <ele>182</ele>
        <time>2011-11-20T09:37:40Z</time>
      </trkpt>
      <trkpt lat="44.03413" lon="4.37991">
        <ele>182.6</ele>
        <time>2011-11-20T09:37:43Z</time>
      </trkpt>
      <trkpt lat="44.03416" lon="4.37984">
        <ele>183.1</ele>
        <time>2011-11-20T09:37:47Z</time>
      </trkpt>
      <trkpt lat="44.03414" lon="4.37977">
        <ele>184</ele>
        <time>2011-11-20T09:37:51Z</time>
      </trkpt>
      <trkpt lat="44.03412" lon="4.37971">
        <ele>183.8</ele>
        <time>2011-11-20T09:37:55Z</time>
      </trkpt>
      <trkpt lat="44.03412" lon="4.37964">
        <ele>184.2</ele>
        <time>2011-11-20T09:38:31Z</time>
      </trkpt>
      <trkpt lat="44.03414" lon="4.37958">
        <ele>185.1</ele>
        <time>2011-11-20T09:38:35Z</time>
      </trkpt>
      <trkpt lat="44.03418" lon="4.37953">
        <ele>185.8</ele>
        <time>2011-11-20T09:38:38Z</time>
      </trkpt>
      <trkpt lat="44.03422" lon="4.37947">
        <ele>186.6</ele>
        <time>2011-11-20T09:38:41Z</time>
      </trkpt>
      <trkpt lat="44.03425" lon="4.3794">
        <ele>187.2</ele>
        <time>2011-11-20T09:38:44Z</time>
      </trkpt>
      <trkpt lat="44.03426" lon="4.37933">
        <ele>188.3</ele>
        <time>2011-11-20T09:38:47Z</time>
      </trkpt>
      <trkpt lat="44.03429" lon="4.37925">
        <ele>188.9</ele>
        <time>2011-11-20T09:38:50Z</time>
      </trkpt>
      <trkpt lat="44.03431" lon="4.37918">
        <ele>189.4</ele>
        <time>2011-11-20T09:38:53Z</time>
      </trkpt>
      <trkpt lat="44.03434" lon="4.37913">
        <ele>190.1</ele>
        <time>2011-11-20T09:38:55Z</time>
      </trkpt>
      <trkpt lat="44.03438" lon="4.37906">
        <ele>191</ele>
        <time>2011-11-20T09:38:57Z</time>
      </trkpt>
      <trkpt lat="44.0344" lon="4.379">
        <ele>191.7</ele>
        <time>2011-11-20T09:38:59Z</time>
      </trkpt>
      <trkpt lat="44.03443" lon="4.37893">
        <ele>192.5</ele>
        <time>2011-11-20T09:39:02Z</time>
      </trkpt>
      <trkpt lat="44.03447" lon="4.37887">
        <ele>193.1</ele>
        <time>2011-11-20T09:39:05Z</time>
      </trkpt>
      <trkpt lat="44.03451" lon="4.3788">
        <ele>193.3</ele>
        <time>2011-11-20T09:39:08Z</time>
      </trkpt>
      <trkpt lat="44.03452" lon="4.37872">
        <ele>194.1</ele>
        <time>2011-11-20T09:39:11Z</time>
      </trkpt>
      <trkpt lat="44.03455" lon="4.37865">
        <ele>194.5</ele>
        <time>2011-11-20T09:39:14Z</time>
      </trkpt>
      <trkpt lat="44.03457" lon="4.37859">
        <ele>195</ele>
        <time>2011-11-20T09:39:17Z</time>
      </trkpt>
      <trkpt lat="44.03459" lon="4.37852">
        <ele>195.3</ele>
        <time>2011-11-20T09:39:20Z</time>
      </trkpt>
      <trkpt lat="44.03461" lon="4.37845">
        <ele>195.6</ele>
        <time>2011-11-20T09:39:23Z</time>
      </trkpt>
      <trkpt lat="44.03462" lon="4.37837">
        <ele>196.2</ele>
        <time>2011-11-20T09:39:27Z</time>
      </trkpt>
      <trkpt lat="44.03463" lon="4.3783">
        <ele>196.9</ele>
        <time>2011-11-20T09:39:31Z</time>
      </trkpt>
      <trkpt lat="44.03464" lon="4.37823">
        <ele>197.4</ele>
        <time>2011-11-20T09:39:34Z</time>
      </trkpt>
      <trkpt lat="44.03465" lon="4.37816">
        <ele>197.9</ele>
        <time>2011-11-20T09:39:37Z</time>
      </trkpt>
      <trkpt lat="44.03467" lon="4.37808">
        <ele>197.5</ele>
        <time>2011-11-20T09:39:40Z</time>
      </trkpt>
      <trkpt lat="44.03468" lon="4.37802">
        <ele>197.8</ele>
        <time>2011-11-20T09:39:42Z</time>
      </trkpt>
      <trkpt lat="44.0347" lon="4.37794">
        <ele>197.9</ele>
        <time>2011-11-20T09:39:45Z</time>
      </trkpt>
      <trkpt lat="44.03471" lon="4.37787">
        <ele>198.4</ele>
        <time>2011-11-20T09:39:48Z</time>
      </trkpt>
      <trkpt lat="44.03472" lon="4.37781">
        <ele>198.7</ele>
        <time>2011-11-20T09:39:51Z</time>
      </trkpt>
      <trkpt lat="44.03474" lon="4.37774">
        <ele>198.5</ele>
        <time>2011-11-20T09:39:54Z</time>
      </trkpt>
      <trkpt lat="44.03475" lon="4.37766">
        <ele>198.5</ele>
        <time>2011-11-20T09:39:57Z</time>
      </trkpt>
      <trkpt lat="44.03476" lon="4.37758">
        <ele>198.7</ele>
        <time>2011-11-20T09:40:00Z</time>
      </trkpt>
      <trkpt lat="44.03478" lon="4.37749">
        <ele>199.3</ele>
        <time>2011-11-20T09:40:03Z</time>
      </trkpt>
      <trkpt lat="44.03479" lon="4.37741">
        <ele>199.7</ele>
        <time>2011-11-20T09:40:06Z</time>
      </trkpt>
      <trkpt lat="44.0348" lon="4.37734">
        <ele>199.9</ele>
        <time>2011-11-20T09:40:08Z</time>
      </trkpt>
      <trkpt lat="44.0348" lon="4.37724">
        <ele>200.3</ele>
        <time>2011-11-20T09:40:11Z</time>
      </trkpt>
      <trkpt lat="44.03481" lon="4.37717">
        <ele>200.6</ele>
        <time>2011-11-20T09:40:13Z</time>
      </trkpt>
      <trkpt lat="44.03481" lon="4.37709">
        <ele>201.3</ele>
        <time>2011-11-20T09:40:16Z</time>
      </trkpt>
      <trkpt lat="44.03481" lon="4.377">
        <ele>201.5</ele>
        <time>2011-11-20T09:40:19Z</time>
      </trkpt>
      <trkpt lat="44.03482" lon="4.37693">
        <ele>201.9</ele>
        <time>2011-11-20T09:40:21Z</time>
      </trkpt>
      <trkpt lat="44.03483" lon="4.37685">
        <ele>203.3</ele>
        <time>2011-11-20T09:40:25Z</time>
      </trkpt>
      <trkpt lat="44.03484" lon="4.37678">
        <ele>203.3</ele>
        <time>2011-11-20T09:40:28Z</time>
      </trkpt>
      <trkpt lat="44.03486" lon="4.3767">
        <ele>204.7</ele>
        <time>2011-11-20T09:40:32Z</time>
      </trkpt>
      <trkpt lat="44.03488" lon="4.37662">
        <ele>205.4</ele>
        <time>2011-11-20T09:40:35Z</time>
      </trkpt>
      <trkpt lat="44.03489" lon="4.37655">
        <ele>206.4</ele>
        <time>2011-11-20T09:40:38Z</time>
      </trkpt>
      <trkpt lat="44.03491" lon="4.37649">
        <ele>206.8</ele>
        <time>2011-11-20T09:40:40Z</time>
      </trkpt>
      <trkpt lat="44.03492" lon="4.3764">
        <ele>207.1</ele>
        <time>2011-11-20T09:40:43Z</time>
      </trkpt>
      <trkpt lat="44.03494" lon="4.37633">
        <ele>207.3</ele>
        <time>2011-11-20T09:40:46Z</time>
      </trkpt>
      <trkpt lat="44.03496" lon="4.37624">
        <ele>207.8</ele>
        <time>2011-11-20T09:40:49Z</time>
      </trkpt>
      <trkpt lat="44.03498" lon="4.37618">
        <ele>208.3</ele>
        <time>2011-11-20T09:40:51Z</time>
      </trkpt>
      <trkpt lat="44.03499" lon="4.37612">
        <ele>208.6</ele>
        <time>2011-11-20T09:40:53Z</time>
      </trkpt>
      <trkpt lat="44.03501" lon="4.37606">
        <ele>208.7</ele>
        <time>2011-11-20T09:40:55Z</time>
      </trkpt>
      <trkpt lat="44.03503" lon="4.37599">
        <ele>208.9</ele>
        <time>2011-11-20T09:40:57Z</time>
      </trkpt>
      <trkpt lat="44.03505" lon="4.37592">
        <ele>209.1</ele>
        <time>2011-11-20T09:40:59Z</time>
      </trkpt>
      <trkpt lat="44.03507" lon="4.37583">
        <ele>209.1</ele>
        <time>2011-11-20T09:41:01Z</time>
      </trkpt>
      <trkpt lat="44.03509" lon="4.37574">
        <ele>209.2</ele>
        <time>2011-11-20T09:41:03Z</time>
      </trkpt>
      <trkpt lat="44.03511" lon="4.37567">
        <ele>209.4</ele>
        <time>2011-11-20T09:41:05Z</time>
      </trkpt>
      <trkpt lat="44.03512" lon="4.3756">
        <ele>209.2</ele>
        <time>2011-11-20T09:41:07Z</time>
      </trkpt>
      <trkpt lat="44.03514" lon="4.37552">
        <ele>209.3</ele>
        <time>2011-11-20T09:41:10Z</time>
      </trkpt>
      <trkpt lat="44.03515" lon="4.37544">
        <ele>209.4</ele>
        <time>2011-11-20T09:41:13Z</time>
      </trkpt>
      <trkpt lat="44.03515" lon="4.37536">
        <ele>209.6</ele>
        <time>2011-11-20T09:41:17Z</time>
      </trkpt>
      <trkpt lat="44.03514" lon="4.37528">
        <ele>208.6</ele>
        <time>2011-11-20T09:41:21Z</time>
      </trkpt>
      <trkpt lat="44.03515" lon="4.3752">
        <ele>208.9</ele>
        <time>2011-11-20T09:41:25Z</time>
      </trkpt>
      <trkpt lat="44.03516" lon="4.37513">
        <ele>209.6</ele>
        <time>2011-11-20T09:41:37Z</time>
      </trkpt>
      <trkpt lat="44.03518" lon="4.37508">
        <ele>209.9</ele>
        <time>2011-11-20T09:41:40Z</time>
      </trkpt>
      <trkpt lat="44.03522" lon="4.37503">
        <ele>209.9</ele>
        <time>2011-11-20T09:41:45Z</time>
      </trkpt>
      <trkpt lat="44.03524" lon="4.37497">
        <ele>211.2</ele>
        <time>2011-11-20T09:41:58Z</time>
      </trkpt>
      <trkpt lat="44.03524" lon="4.37489">
        <ele>211.8</ele>
        <time>2011-11-20T09:42:02Z</time>
      </trkpt>
      <trkpt lat="44.03525" lon="4.37483">
        <ele>212.3</ele>
        <time>2011-11-20T09:42:05Z</time>
      </trkpt>
      <trkpt lat="44.03526" lon="4.37476">
        <ele>213.2</ele>
        <time>2011-11-20T09:42:08Z</time>
      </trkpt>
      <trkpt lat="44.03526" lon="4.37469">
        <ele>213.7</ele>
        <time>2011-11-20T09:42:11Z</time>
      </trkpt>
      <trkpt lat="44.03525" lon="4.37462">
        <ele>213.9</ele>
        <time>2011-11-20T09:42:15Z</time>
      </trkpt>
      <trkpt lat="44.03525" lon="4.37455">
        <ele>214.5</ele>
        <time>2011-11-20T09:42:18Z</time>
      </trkpt>
      <trkpt lat="44.03525" lon="4.37446">
        <ele>214.9</ele>
        <time>2011-11-20T09:42:21Z</time>
      </trkpt>
      <trkpt lat="44.03526" lon="4.37438">
        <ele>214.8</ele>
        <time>2011-11-20T09:42:24Z</time>
      </trkpt>
      <trkpt lat="44.03528" lon="4.37431">
        <ele>214.9</ele>
        <time>2011-11-20T09:42:27Z</time>
      </trkpt>
      <trkpt lat="44.0353" lon="4.37424">
        <ele>214.4</ele>
        <time>2011-11-20T09:42:30Z</time>
      </trkpt>
      <trkpt lat="44.03533" lon="4.37415">
        <ele>213.4</ele>
        <time>2011-11-20T09:42:33Z</time>
      </trkpt>
      <trkpt lat="44.03535" lon="4.37408">
        <ele>213.1</ele>
        <time>2011-11-20T09:42:35Z</time>
      </trkpt>
      <trkpt lat="44.03536" lon="4.37402">
        <ele>213</ele>
        <time>2011-11-20T09:42:37Z</time>
      </trkpt>
      <trkpt lat="44.03538" lon="4.37394">
        <ele>213.1</ele>
        <time>2011-11-20T09:42:39Z</time>
      </trkpt>
      <trkpt lat="44.0354" lon="4.37386">
        <ele>213.2</ele>
        <time>2011-11-20T09:42:41Z</time>
      </trkpt>
      <trkpt lat="44.03541" lon="4.3738">
        <ele>213.2</ele>
        <time>2011-11-20T09:42:43Z</time>
      </trkpt>
      <trkpt lat="44.03542" lon="4.37373">
        <ele>213.2</ele>
        <time>2011-11-20T09:42:45Z</time>
      </trkpt>
      <trkpt lat="44.03543" lon="4.37364">
        <ele>213.7</ele>
        <time>2011-11-20T09:42:48Z</time>
      </trkpt>
      <trkpt lat="44.03548" lon="4.37352">
        <ele>213.8</ele>
        <time>2011-11-20T09:42:49Z</time>
      </trkpt>
      <trkpt lat="44.03545" lon="4.37343">
        <ele>214.2</ele>
        <time>2011-11-20T09:42:52Z</time>
      </trkpt>
      <trkpt lat="44.03543" lon="4.37337">
        <ele>214</ele>
        <time>2011-11-20T09:42:55Z</time>
      </trkpt>
      <trkpt lat="44.0354" lon="4.37332">
        <ele>214.4</ele>
        <time>2011-11-20T09:43:00Z</time>
      </trkpt>
      <trkpt lat="44.03539" lon="4.37324">
        <ele>215.2</ele>
        <time>2011-11-20T09:43:04Z</time>
      </trkpt>
      <trkpt lat="44.0354" lon="4.37317">
        <ele>215.8</ele>
        <time>2011-11-20T09:43:07Z</time>
      </trkpt>
      <trkpt lat="44.03541" lon="4.3731">
        <ele>215.9</ele>
        <time>2011-11-20T09:43:10Z</time>
      </trkpt>
      <trkpt lat="44.03542" lon="4.37303">
        <ele>216</ele>
        <time>2011-11-20T09:43:13Z</time>
      </trkpt>
      <trkpt lat="44.03544" lon="4.37297">
        <ele>216.3</ele>
        <time>2011-11-20T09:43:16Z</time>
      </trkpt>
      <trkpt lat="44.03547" lon="4.3729">
        <ele>216.4</ele>
        <time>2011-11-20T09:43:19Z</time>
      </trkpt>
      <trkpt lat="44.0355" lon="4.37283">
        <ele>216.2</ele>
        <time>2011-11-20T09:43:22Z</time>
      </trkpt>
      <trkpt lat="44.03551" lon="4.37277">
        <ele>215.8</ele>
        <time>2011-11-20T09:43:25Z</time>
      </trkpt>
      <trkpt lat="44.03552" lon="4.3727">
        <ele>215.6</ele>
        <time>2011-11-20T09:43:28Z</time>
      </trkpt>
      <trkpt lat="44.03551" lon="4.37262">
        <ele>215.6</ele>
        <time>2011-11-20T09:43:32Z</time>
      </trkpt>
      <trkpt lat="44.03552" lon="4.37255">
        <ele>215.2</ele>
        <time>2011-11-20T09:43:37Z</time>
      </trkpt>
      <trkpt lat="44.03553" lon="4.37248">
        <ele>216.8</ele>
        <time>2011-11-20T09:43:42Z</time>
      </trkpt>
      <trkpt lat="44.03552" lon="4.3724">
        <ele>218</ele>
        <time>2011-11-20T09:43:46Z</time>
      </trkpt>
      <trkpt lat="44.03553" lon="4.37233">
        <ele>218.7</ele>
        <time>2011-11-20T09:43:49Z</time>
      </trkpt>
      <trkpt lat="44.03554" lon="4.37227">
        <ele>219.2</ele>
        <time>2011-11-20T09:43:52Z</time>
      </trkpt>
      <trkpt lat="44.03555" lon="4.3722">
        <ele>219.8</ele>
        <time>2011-11-20T09:43:55Z</time>
      </trkpt>
      <trkpt lat="44.03556" lon="4.37212">
        <ele>220.1</ele>
        <time>2011-11-20T09:43:59Z</time>
      </trkpt>
      <trkpt lat="44.03556" lon="4.37205">
        <ele>221.1</ele>
        <time>2011-11-20T09:44:02Z</time>
      </trkpt>
      <trkpt lat="44.03556" lon="4.37199">
        <ele>221.9</ele>
        <time>2011-11-20T09:44:05Z</time>
      </trkpt>
      <trkpt lat="44.03556" lon="4.37192">
        <ele>222.6</ele>
        <time>2011-11-20T09:44:08Z</time>
      </trkpt>
      <trkpt lat="44.03556" lon="4.37185">
        <ele>223.2</ele>
        <time>2011-11-20T09:44:11Z</time>
      </trkpt>
      <trkpt lat="44.03557" lon="4.37178">
        <ele>224</ele>
        <time>2011-11-20T09:44:14Z</time>
      </trkpt>
      <trkpt lat="44.03558" lon="4.3717">
        <ele>224.3</ele>
        <time>2011-11-20T09:44:17Z</time>
      </trkpt>
      <trkpt lat="44.03559" lon="4.37163">
        <ele>224.1</ele>
        <time>2011-11-20T09:44:20Z</time>
      </trkpt>
      <trkpt lat="44.0356" lon="4.37155">
        <ele>224.7</ele>
        <time>2011-11-20T09:44:24Z</time>
      </trkpt>
      <trkpt lat="44.0356" lon="4.37149">
        <ele>224.9</ele>
        <time>2011-11-20T09:44:27Z</time>
      </trkpt>
      <trkpt lat="44.03559" lon="4.37141">
        <ele>225.7</ele>
        <time>2011-11-20T09:44:30Z</time>
      </trkpt>
      <trkpt lat="44.0356" lon="4.37131">
        <ele>227.4</ele>
        <time>2011-11-20T09:44:33Z</time>
      </trkpt>
      <trkpt lat="44.0356" lon="4.37131">
        <ele>227.4</ele>
        <time>2011-11-20T09:44:33Z</time>
      </trkpt>
      <trkpt lat="44.0356" lon="4.37131">
        <ele>227.4</ele>
        <time>2011-11-20T09:44:33Z</time>
      </trkpt>
      <trkpt lat="44.03561" lon="4.37122">
        <ele>228.6</ele>
        <time>2011-11-20T09:44:36Z</time>
      </trkpt>
      <trkpt lat="44.03561" lon="4.37115">
        <ele>229.1</ele>
        <time>2011-11-20T09:44:38Z</time>
      </trkpt>
      <trkpt lat="44.03562" lon="4.37108">
        <ele>229.3</ele>
        <time>2011-11-20T09:44:40Z</time>
      </trkpt>
      <trkpt lat="44.03564" lon="4.371">
        <ele>229.5</ele>
        <time>2011-11-20T09:44:42Z</time>
      </trkpt>
      <trkpt lat="44.03565" lon="4.37093">
        <ele>229.8</ele>
        <time>2011-11-20T09:44:44Z</time>
      </trkpt>
      <trkpt lat="44.03566" lon="4.37086">
        <ele>231.2</ele>
        <time>2011-11-20T09:44:46Z</time>
      </trkpt>
      <trkpt lat="44.03568" lon="4.37078">
        <ele>231.4</ele>
        <time>2011-11-20T09:44:48Z</time>
      </trkpt>
      <trkpt lat="44.0357" lon="4.3707">
        <ele>231.1</ele>
        <time>2011-11-20T09:44:50Z</time>
      </trkpt>
      <trkpt lat="44.03572" lon="4.37063">
        <ele>231.7</ele>
        <time>2011-11-20T09:44:52Z</time>
      </trkpt>
      <trkpt lat="44.03573" lon="4.37056">
        <ele>231.7</ele>
        <time>2011-11-20T09:44:54Z</time>
      </trkpt>
      <trkpt lat="44.03574" lon="4.37048">
        <ele>231.1</ele>
        <time>2011-11-20T09:44:56Z</time>
      </trkpt>
      <trkpt lat="44.03575" lon="4.3704">
        <ele>230.8</ele>
        <time>2011-11-20T09:44:58Z</time>
      </trkpt>
      <trkpt lat="44.03575" lon="4.37033">
        <ele>230.7</ele>
        <time>2011-11-20T09:45:00Z</time>
      </trkpt>
      <trkpt lat="44.03576" lon="4.37023">
        <ele>231.1</ele>
        <time>2011-11-20T09:45:02Z</time>
      </trkpt>
      <trkpt lat="44.03576" lon="4.37015">
        <ele>231.8</ele>
        <time>2011-11-20T09:45:04Z</time>
      </trkpt>
      <trkpt lat="44.03577" lon="4.37008">
        <ele>232.2</ele>
        <time>2011-11-20T09:45:06Z</time>
      </trkpt>
      <trkpt lat="44.03577" lon="4.37002">
        <ele>232</ele>
        <time>2011-11-20T09:45:08Z</time>
      </trkpt>
      <trkpt lat="44.03578" lon="4.36995">
        <ele>231.5</ele>
        <time>2011-11-20T09:45:10Z</time>
      </trkpt>
      <trkpt lat="44.03578" lon="4.36988">
        <ele>231.5</ele>
        <time>2011-11-20T09:45:12Z</time>
      </trkpt>
      <trkpt lat="44.03579" lon="4.3698">
        <ele>231.4</ele>
        <time>2011-11-20T09:45:15Z</time>
      </trkpt>
      <trkpt lat="44.0358" lon="4.36972">
        <ele>231.3</ele>
        <time>2011-11-20T09:45:18Z</time>
      </trkpt>
      <trkpt lat="44.03582" lon="4.36964">
        <ele>231.1</ele>
        <time>2011-11-20T09:45:21Z</time>
      </trkpt>
      <trkpt lat="44.03585" lon="4.36955">
        <ele>231.5</ele>
        <time>2011-11-20T09:46:55Z</time>
      </trkpt>
      <trkpt lat="44.03586" lon="4.36948">
        <ele>237.5</ele>
        <time>2011-11-20T09:46:58Z</time>
      </trkpt>
      <trkpt lat="44.03585" lon="4.3694">
        <ele>238.2</ele>
        <time>2011-11-20T09:47:02Z</time>
      </trkpt>
      <trkpt lat="44.03583" lon="4.36934">
        <ele>238.2</ele>
        <time>2011-11-20T09:47:04Z</time>
      </trkpt>
      <trkpt lat="44.03579" lon="4.36927">
        <ele>239.4</ele>
        <time>2011-11-20T09:47:07Z</time>
      </trkpt>
      <trkpt lat="44.03575" lon="4.3692">
        <ele>240.1</ele>
        <time>2011-11-20T09:47:09Z</time>
      </trkpt>
      <trkpt lat="44.03571" lon="4.36915">
        <ele>240.6</ele>
        <time>2011-11-20T09:47:11Z</time>
      </trkpt>
      <trkpt lat="44.03567" lon="4.36909">
        <ele>241</ele>
        <time>2011-11-20T09:47:13Z</time>
      </trkpt>
      <trkpt lat="44.03564" lon="4.36904">
        <ele>240.7</ele>
        <time>2011-11-20T09:47:15Z</time>
      </trkpt>
      <trkpt lat="44.03543" lon="4.3687">
        <ele>246</ele>
        <time>2011-11-20T09:47:23Z</time>
      </trkpt>
      <trkpt lat="44.03542" lon="4.36862">
        <ele>246</ele>
        <time>2011-11-20T09:47:27Z</time>
      </trkpt>
      <trkpt lat="44.03538" lon="4.36859">
        <ele>248.6</ele>
        <time>2011-11-20T09:47:28Z</time>
      </trkpt>
      <trkpt lat="44.03535" lon="4.36852">
        <ele>252.6</ele>
        <time>2011-11-20T09:47:31Z</time>
      </trkpt>
      <trkpt lat="44.03531" lon="4.36846">
        <ele>252.8</ele>
        <time>2011-11-20T09:47:33Z</time>
      </trkpt>
      <trkpt lat="44.0353" lon="4.36839">
        <ele>252.9</ele>
        <time>2011-11-20T09:47:35Z</time>
      </trkpt>
      <trkpt lat="44.03528" lon="4.36832">
        <ele>252.7</ele>
        <time>2011-11-20T09:47:38Z</time>
      </trkpt>
      <trkpt lat="44.03529" lon="4.36825">
        <ele>252.1</ele>
        <time>2011-11-20T09:47:43Z</time>
      </trkpt>
      <trkpt lat="44.03527" lon="4.36818">
        <ele>248.8</ele>
        <time>2011-11-20T09:47:47Z</time>
      </trkpt>
      <trkpt lat="44.03525" lon="4.36811">
        <ele>248</ele>
        <time>2011-11-20T09:48:22Z</time>
      </trkpt>
      <trkpt lat="44.03526" lon="4.36803">
        <ele>248</ele>
        <time>2011-11-20T09:48:25Z</time>
      </trkpt>
      <trkpt lat="44.03527" lon="4.36796">
        <ele>247.9</ele>
        <time>2011-11-20T09:48:27Z</time>
      </trkpt>
      <trkpt lat="44.0353" lon="4.36788">
        <ele>247</ele>
        <time>2011-11-20T09:48:30Z</time>
      </trkpt>
      <trkpt lat="44.03533" lon="4.36782">
        <ele>246.5</ele>
        <time>2011-11-20T09:48:32Z</time>
      </trkpt>
      <trkpt lat="44.03536" lon="4.36776">
        <ele>245.7</ele>
        <time>2011-11-20T09:48:35Z</time>
      </trkpt>
      <trkpt lat="44.03539" lon="4.3677">
        <ele>245.2</ele>
        <time>2011-11-20T09:48:38Z</time>
      </trkpt>
      <trkpt lat="44.03539" lon="4.36762">
        <ele>245</ele>
        <time>2011-11-20T09:48:41Z</time>
      </trkpt>
      <trkpt lat="44.0354" lon="4.36755">
        <ele>245.1</ele>
        <time>2011-11-20T09:48:44Z</time>
      </trkpt>
      <trkpt lat="44.0354" lon="4.36748">
        <ele>245.4</ele>
        <time>2011-11-20T09:48:46Z</time>
      </trkpt>
      <trkpt lat="44.03541" lon="4.36738">
        <ele>245.4</ele>
        <time>2011-11-20T09:48:49Z</time>
      </trkpt>
      <trkpt lat="44.03542" lon="4.36729">
        <ele>245.4</ele>
        <time>2011-11-20T09:48:51Z</time>
      </trkpt>
      <trkpt lat="44.03544" lon="4.36718">
        <ele>245.4</ele>
        <time>2011-11-20T09:48:53Z</time>
      </trkpt>
      <trkpt lat="44.03546" lon="4.36707">
        <ele>244.6</ele>
        <time>2011-11-20T09:48:55Z</time>
      </trkpt>
      <trkpt lat="44.03546" lon="4.36697">
        <ele>244.3</ele>
        <time>2011-11-20T09:48:57Z</time>
      </trkpt>
      <trkpt lat="44.03549" lon="4.36689">
        <ele>244.3</ele>
        <time>2011-11-20T09:48:59Z</time>
      </trkpt>
      <trkpt lat="44.03551" lon="4.36682">
        <ele>243.7</ele>
        <time>2011-11-20T09:49:01Z</time>
      </trkpt>
      <trkpt lat="44.03553" lon="4.36674">
        <ele>242.9</ele>
        <time>2011-11-20T09:49:03Z</time>
      </trkpt>
      <trkpt lat="44.03556" lon="4.36666">
        <ele>241.7</ele>
        <time>2011-11-20T09:49:05Z</time>
      </trkpt>
      <trkpt lat="44.03558" lon="4.3666">
        <ele>240.7</ele>
        <time>2011-11-20T09:49:07Z</time>
      </trkpt>
      <trkpt lat="44.0356" lon="4.36653">
        <ele>240</ele>
        <time>2011-11-20T09:49:10Z</time>
      </trkpt>
      <trkpt lat="44.03562" lon="4.36646">
        <ele>239.2</ele>
        <time>2011-11-20T09:49:14Z</time>
      </trkpt>
      <trkpt lat="44.03566" lon="4.36643">
        <ele>238.3</ele>
        <time>2011-11-20T09:49:18Z</time>
      </trkpt>
      <trkpt lat="44.03571" lon="4.36641">
        <ele>237.8</ele>
        <time>2011-11-20T09:49:22Z</time>
      </trkpt>
      <trkpt lat="44.03576" lon="4.36641">
        <ele>237.2</ele>
        <time>2011-11-20T09:49:27Z</time>
      </trkpt>
      <trkpt lat="44.03581" lon="4.36642">
        <ele>236</ele>
        <time>2011-11-20T09:49:31Z</time>
      </trkpt>
      <trkpt lat="44.03586" lon="4.36642">
        <ele>233.7</ele>
        <time>2011-11-20T09:49:35Z</time>
      </trkpt>
      <trkpt lat="44.03591" lon="4.36639">
        <ele>232.3</ele>
        <time>2011-11-20T09:49:38Z</time>
      </trkpt>
      <trkpt lat="44.03596" lon="4.36638">
        <ele>231.2</ele>
        <time>2011-11-20T09:49:42Z</time>
      </trkpt>
      <trkpt lat="44.03601" lon="4.3664">
        <ele>230.3</ele>
        <time>2011-11-20T09:49:46Z</time>
      </trkpt>
      <trkpt lat="44.03606" lon="4.36641">
        <ele>229</ele>
        <time>2011-11-20T09:49:51Z</time>
      </trkpt>
      <trkpt lat="44.03611" lon="4.3664">
        <ele>228.4</ele>
        <time>2011-11-20T09:49:54Z</time>
      </trkpt>
      <trkpt lat="44.03616" lon="4.3664">
        <ele>227.6</ele>
        <time>2011-11-20T09:49:57Z</time>
      </trkpt>
      <trkpt lat="44.03622" lon="4.36639">
        <ele>226.3</ele>
        <time>2011-11-20T09:50:00Z</time>
      </trkpt>
      <trkpt lat="44.03628" lon="4.36636">
        <ele>225.1</ele>
        <time>2011-11-20T09:50:03Z</time>
      </trkpt>
      <trkpt lat="44.03633" lon="4.36635">
        <ele>224.5</ele>
        <time>2011-11-20T09:50:07Z</time>
      </trkpt>
      <trkpt lat="44.03633" lon="4.36635">
        <ele>224.5</ele>
        <time>2011-11-20T09:50:07Z</time>
      </trkpt>
      <trkpt lat="44.03633" lon="4.36635">
        <ele>224.5</ele>
        <time>2011-11-20T09:50:40Z</time>
      </trkpt>
      <trkpt lat="44.03635" lon="4.36641">
        <ele>224.2</ele>
        <time>2011-11-20T09:50:44Z</time>
      </trkpt>
      <trkpt lat="44.03638" lon="4.36647">
        <ele>222.7</ele>
        <time>2011-11-20T09:50:48Z</time>
      </trkpt>
      <trkpt lat="44.03644" lon="4.36647">
        <ele>221.8</ele>
        <time>2011-11-20T09:50:52Z</time>
      </trkpt>
      <trkpt lat="44.03651" lon="4.36649">
        <ele>219.4</ele>
        <time>2011-11-20T09:50:56Z</time>
      </trkpt>
      <trkpt lat="44.03656" lon="4.36651">
        <ele>218.8</ele>
        <time>2011-11-20T09:50:58Z</time>
      </trkpt>
      <trkpt lat="44.03661" lon="4.36654">
        <ele>218.9</ele>
        <time>2011-11-20T09:51:00Z</time>
      </trkpt>
      <trkpt lat="44.03665" lon="4.36656">
        <ele>218.8</ele>
        <time>2011-11-20T09:51:02Z</time>
      </trkpt>
      <trkpt lat="44.0367" lon="4.36658">
        <ele>218.3</ele>
        <time>2011-11-20T09:51:05Z</time>
      </trkpt>
      <trkpt lat="44.03676" lon="4.36658">
        <ele>218.3</ele>
        <time>2011-11-20T09:51:08Z</time>
      </trkpt>
      <trkpt lat="44.03682" lon="4.36657">
        <ele>217.8</ele>
        <time>2011-11-20T09:51:11Z</time>
      </trkpt>
      <trkpt lat="44.03689" lon="4.36657">
        <ele>217.3</ele>
        <time>2011-11-20T09:51:14Z</time>
      </trkpt>
      <trkpt lat="44.03694" lon="4.36657">
        <ele>216.7</ele>
        <time>2011-11-20T09:51:16Z</time>
      </trkpt>
      <trkpt lat="44.0372" lon="4.36637">
        <ele>205.7</ele>
        <time>2011-11-20T09:51:23Z</time>
      </trkpt>
      <trkpt lat="44.03726" lon="4.36639">
        <ele>204.2</ele>
        <time>2011-11-20T09:51:24Z</time>
      </trkpt>
      <trkpt lat="44.03738" lon="4.36644">
        <ele>202.9</ele>
        <time>2011-11-20T09:51:25Z</time>
      </trkpt>
      <trkpt lat="44.03743" lon="4.36637">
        <ele>198.9</ele>
        <time>2011-11-20T09:51:27Z</time>
      </trkpt>
      <trkpt lat="44.03749" lon="4.36631">
        <ele>198.6</ele>
        <time>2011-11-20T09:51:29Z</time>
      </trkpt>
      <trkpt lat="44.03754" lon="4.36627">
        <ele>198.4</ele>
        <time>2011-11-20T09:51:31Z</time>
      </trkpt>
      <trkpt lat="44.0376" lon="4.36624">
        <ele>198</ele>
        <time>2011-11-20T09:51:33Z</time>
      </trkpt>
      <trkpt lat="44.03766" lon="4.3662">
        <ele>199.1</ele>
        <time>2011-11-20T09:51:35Z</time>
      </trkpt>
      <trkpt lat="44.03771" lon="4.36616">
        <ele>200</ele>
        <time>2011-11-20T09:51:37Z</time>
      </trkpt>
      <trkpt lat="44.03776" lon="4.36615">
        <ele>201</ele>
        <time>2011-11-20T09:51:39Z</time>
      </trkpt>
      <trkpt lat="44.03782" lon="4.36615">
        <ele>202.7</ele>
        <time>2011-11-20T09:51:41Z</time>
      </trkpt>
      <trkpt lat="44.03787" lon="4.36616">
        <ele>202.7</ele>
        <time>2011-11-20T09:51:43Z</time>
      </trkpt>
      <trkpt lat="44.03791" lon="4.36619">
        <ele>203.8</ele>
        <time>2011-11-20T09:51:45Z</time>
      </trkpt>
      <trkpt lat="44.03795" lon="4.36624">
        <ele>204.2</ele>
        <time>2011-11-20T09:51:47Z</time>
      </trkpt>
      <trkpt lat="44.03799" lon="4.36627">
        <ele>204.5</ele>
        <time>2011-11-20T09:51:49Z</time>
      </trkpt>
      <trkpt lat="44.03804" lon="4.3663">
        <ele>206</ele>
        <time>2011-11-20T09:51:51Z</time>
      </trkpt>
      <trkpt lat="44.03811" lon="4.36634">
        <ele>204.9</ele>
        <time>2011-11-20T09:51:53Z</time>
      </trkpt>
      <trkpt lat="44.03818" lon="4.36637">
        <ele>203.7</ele>
        <time>2011-11-20T09:51:55Z</time>
      </trkpt>
      <trkpt lat="44.03827" lon="4.36638">
        <ele>203.3</ele>
        <time>2011-11-20T09:51:57Z</time>
      </trkpt>
      <trkpt lat="44.03833" lon="4.36638">
        <ele>202.9</ele>
        <time>2011-11-20T09:51:58Z</time>
      </trkpt>
      <trkpt lat="44.03838" lon="4.36638">
        <ele>202.8</ele>
        <time>2011-11-20T09:51:59Z</time>
      </trkpt>
      <trkpt lat="44.03844" lon="4.36637">
        <ele>202.6</ele>
        <time>2011-11-20T09:52:00Z</time>
      </trkpt>
      <trkpt lat="44.03849" lon="4.36637">
        <ele>202.5</ele>
        <time>2011-11-20T09:52:01Z</time>
      </trkpt>
      <trkpt lat="44.03854" lon="4.36637">
        <ele>202.4</ele>
        <time>2011-11-20T09:52:02Z</time>
      </trkpt>
      <trkpt lat="44.03863" lon="4.36639">
        <ele>202.1</ele>
        <time>2011-11-20T09:52:04Z</time>
      </trkpt>
      <trkpt lat="44.03868" lon="4.36641">
        <ele>202.1</ele>
        <time>2011-11-20T09:52:05Z</time>
      </trkpt>
      <trkpt lat="44.03874" lon="4.36642">
        <ele>202.5</ele>
        <time>2011-11-20T09:52:06Z</time>
      </trkpt>
      <trkpt lat="44.03879" lon="4.36644">
        <ele>202.6</ele>
        <time>2011-11-20T09:52:07Z</time>
      </trkpt>
      <trkpt lat="44.03884" lon="4.36647">
        <ele>202.2</ele>
        <time>2011-11-20T09:52:08Z</time>
      </trkpt>
      <trkpt lat="44.03889" lon="4.36651">
        <ele>201.4</ele>
        <time>2011-11-20T09:52:09Z</time>
      </trkpt>
      <trkpt lat="44.03894" lon="4.36656">
        <ele>200.7</ele>
        <time>2011-11-20T09:52:10Z</time>
      </trkpt>
      <trkpt lat="44.03898" lon="4.36661">
        <ele>200</ele>
        <time>2011-11-20T09:52:11Z</time>
      </trkpt>
      <trkpt lat="44.03903" lon="4.36666">
        <ele>199.4</ele>
        <time>2011-11-20T09:52:12Z</time>
      </trkpt>
      <trkpt lat="44.03907" lon="4.3667">
        <ele>198.8</ele>
        <time>2011-11-20T09:52:13Z</time>
      </trkpt>
      <trkpt lat="44.03911" lon="4.36673">
        <ele>197.9</ele>
        <time>2011-11-20T09:52:14Z</time>
      </trkpt>
      <trkpt lat="44.03919" lon="4.36678">
        <ele>196.2</ele>
        <time>2011-11-20T09:52:16Z</time>
      </trkpt>
      <trkpt lat="44.03924" lon="4.36681">
        <ele>195.3</ele>
        <time>2011-11-20T09:52:18Z</time>
      </trkpt>
      <trkpt lat="44.03928" lon="4.36684">
        <ele>193.6</ele>
        <time>2011-11-20T09:52:22Z</time>
      </trkpt>
      <trkpt lat="44.03932" lon="4.36683">
        <ele>192</ele>
        <time>2011-11-20T09:53:39Z</time>
      </trkpt>
      <trkpt lat="44.03938" lon="4.36684">
        <ele>191.7</ele>
        <time>2011-11-20T09:53:42Z</time>
      </trkpt>
      <trkpt lat="44.03944" lon="4.36683">
        <ele>191.7</ele>
        <time>2011-11-20T09:53:45Z</time>
      </trkpt>
      <trkpt lat="44.03948" lon="4.36679">
        <ele>191.5</ele>
        <time>2011-11-20T09:53:48Z</time>
      </trkpt>
      <trkpt lat="44.03951" lon="4.36673">
        <ele>191.8</ele>
        <time>2011-11-20T09:53:50Z</time>
      </trkpt>
      <trkpt lat="44.03952" lon="4.36662">
        <ele>192.5</ele>
        <time>2011-11-20T09:53:52Z</time>
      </trkpt>
      <trkpt lat="44.03954" lon="4.36652">
        <ele>193</ele>
        <time>2011-11-20T09:53:54Z</time>
      </trkpt>
      <trkpt lat="44.03955" lon="4.36642">
        <ele>193.1</ele>
        <time>2011-11-20T09:53:56Z</time>
      </trkpt>
      <trkpt lat="44.03956" lon="4.36632">
        <ele>193.2</ele>
        <time>2011-11-20T09:53:58Z</time>
      </trkpt>
      <trkpt lat="44.03958" lon="4.36622">
        <ele>193.1</ele>
        <time>2011-11-20T09:54:00Z</time>
      </trkpt>
      <trkpt lat="44.0396" lon="4.36612">
        <ele>193.1</ele>
        <time>2011-11-20T09:54:02Z</time>
      </trkpt>
      <trkpt lat="44.03961" lon="4.36601">
        <ele>193</ele>
        <time>2011-11-20T09:54:04Z</time>
      </trkpt>
      <trkpt lat="44.03961" lon="4.3659">
        <ele>192.8</ele>
        <time>2011-11-20T09:54:06Z</time>
      </trkpt>
      <trkpt lat="44.0396" lon="4.3658">
        <ele>192.7</ele>
        <time>2011-11-20T09:54:08Z</time>
      </trkpt>
      <trkpt lat="44.03959" lon="4.36569">
        <ele>192.5</ele>
        <time>2011-11-20T09:54:10Z</time>
      </trkpt>
      <trkpt lat="44.03957" lon="4.36559">
        <ele>192.3</ele>
        <time>2011-11-20T09:54:12Z</time>
      </trkpt>
      <trkpt lat="44.03955" lon="4.36548">
        <ele>191.8</ele>
        <time>2011-11-20T09:54:14Z</time>
      </trkpt>
      <trkpt lat="44.03953" lon="4.36538">
        <ele>191.5</ele>
        <time>2011-11-20T09:54:16Z</time>
      </trkpt>
      <trkpt lat="44.0395" lon="4.3653">
        <ele>191.2</ele>
        <time>2011-11-20T09:54:18Z</time>
      </trkpt>
      <trkpt lat="44.03946" lon="4.3652">
        <ele>191.4</ele>
        <time>2011-11-20T09:54:20Z</time>
      </trkpt>
      <trkpt lat="44.03943" lon="4.36511">
        <ele>191.6</ele>
        <time>2011-11-20T09:54:22Z</time>
      </trkpt>
      <trkpt lat="44.03941" lon="4.36501">
        <ele>191.8</ele>
        <time>2011-11-20T09:54:24Z</time>
      </trkpt>
      <trkpt lat="44.0394" lon="4.36491">
        <ele>191.9</ele>
        <time>2011-11-20T09:54:26Z</time>
      </trkpt>
      <trkpt lat="44.0394" lon="4.36481">
        <ele>191.7</ele>
        <time>2011-11-20T09:54:28Z</time>
      </trkpt>
      <trkpt lat="44.0394" lon="4.36471">
        <ele>191.4</ele>
        <time>2011-11-20T09:54:30Z</time>
      </trkpt>
      <trkpt lat="44.03938" lon="4.36461">
        <ele>191.3</ele>
        <time>2011-11-20T09:54:32Z</time>
      </trkpt>
      <trkpt lat="44.03937" lon="4.3645">
        <ele>191.2</ele>
        <time>2011-11-20T09:54:34Z</time>
      </trkpt>
      <trkpt lat="44.03936" lon="4.3644">
        <ele>191.3</ele>
        <time>2011-11-20T09:54:36Z</time>
      </trkpt>
      <trkpt lat="44.03934" lon="4.3643">
        <ele>190.7</ele>
        <time>2011-11-20T09:54:38Z</time>
      </trkpt>
      <trkpt lat="44.03931" lon="4.3642">
        <ele>190.3</ele>
        <time>2011-11-20T09:54:40Z</time>
      </trkpt>
      <trkpt lat="44.03927" lon="4.36411">
        <ele>190.1</ele>
        <time>2011-11-20T09:54:42Z</time>
      </trkpt>
      <trkpt lat="44.03923" lon="4.36401">
        <ele>189.7</ele>
        <time>2011-11-20T09:54:44Z</time>
      </trkpt>
      <trkpt lat="44.0392" lon="4.36391">
        <ele>189.1</ele>
        <time>2011-11-20T09:54:46Z</time>
      </trkpt>
      <trkpt lat="44.03917" lon="4.3638">
        <ele>188.7</ele>
        <time>2011-11-20T09:54:48Z</time>
      </trkpt>
      <trkpt lat="44.03915" lon="4.36374">
        <ele>188.4</ele>
        <time>2011-11-20T09:54:49Z</time>
      </trkpt>
      <trkpt lat="44.03914" lon="4.36366">
        <ele>188.2</ele>
        <time>2011-11-20T09:54:50Z</time>
      </trkpt>
      <trkpt lat="44.03913" lon="4.36359">
        <ele>188.1</ele>
        <time>2011-11-20T09:54:51Z</time>
      </trkpt>
      <trkpt lat="44.03912" lon="4.36352">
        <ele>187.8</ele>
        <time>2011-11-20T09:54:52Z</time>
      </trkpt>
      <trkpt lat="44.03912" lon="4.36344">
        <ele>187.6</ele>
        <time>2011-11-20T09:54:53Z</time>
      </trkpt>
      <trkpt lat="44.03912" lon="4.36337">
        <ele>187.4</ele>
        <time>2011-11-20T09:54:54Z</time>
      </trkpt>
      <trkpt lat="44.03912" lon="4.36331">
        <ele>187.1</ele>
        <time>2011-11-20T09:54:55Z</time>
      </trkpt>
      <trkpt lat="44.03912" lon="4.36319">
        <ele>186.8</ele>
        <time>2011-11-20T09:54:57Z</time>
      </trkpt>
      <trkpt lat="44.03912" lon="4.36313">
        <ele>186.6</ele>
        <time>2011-11-20T09:54:58Z</time>
      </trkpt>
      <trkpt lat="44.03912" lon="4.36306">
        <ele>186.2</ele>
        <time>2011-11-20T09:54:59Z</time>
      </trkpt>
      <trkpt lat="44.03913" lon="4.36299">
        <ele>185.8</ele>
        <time>2011-11-20T09:55:00Z</time>
      </trkpt>
      <trkpt lat="44.03913" lon="4.36292">
        <ele>185.5</ele>
        <time>2011-11-20T09:55:01Z</time>
      </trkpt>
      <trkpt lat="44.03913" lon="4.36284">
        <ele>185.2</ele>
        <time>2011-11-20T09:55:02Z</time>
      </trkpt>
      <trkpt lat="44.03913" lon="4.36277">
        <ele>185</ele>
        <time>2011-11-20T09:55:03Z</time>
      </trkpt>
      <trkpt lat="44.03913" lon="4.3627">
        <ele>184.9</ele>
        <time>2011-11-20T09:55:04Z</time>
      </trkpt>
      <trkpt lat="44.03912" lon="4.36264">
        <ele>184.9</ele>
        <time>2011-11-20T09:55:05Z</time>
      </trkpt>
      <trkpt lat="44.0391" lon="4.36257">
        <ele>184.9</ele>
        <time>2011-11-20T09:55:06Z</time>
      </trkpt>
      <trkpt lat="44.03908" lon="4.36251">
        <ele>184.9</ele>
        <time>2011-11-20T09:55:07Z</time>
      </trkpt>
      <trkpt lat="44.03904" lon="4.36244">
        <ele>184.5</ele>
        <time>2011-11-20T09:55:08Z</time>
      </trkpt>
      <trkpt lat="44.03899" lon="4.36239">
        <ele>184.3</ele>
        <time>2011-11-20T09:55:09Z</time>
      </trkpt>
      <trkpt lat="44.03894" lon="4.36233">
        <ele>184.3</ele>
        <time>2011-11-20T09:55:10Z</time>
      </trkpt>
      <trkpt lat="44.0389" lon="4.36227">
        <ele>184.2</ele>
        <time>2011-11-20T09:55:11Z</time>
      </trkpt>
      <trkpt lat="44.03886" lon="4.36221">
        <ele>184.1</ele>
        <time>2011-11-20T09:55:12Z</time>
      </trkpt>
      <trkpt lat="44.03882" lon="4.36214">
        <ele>184.1</ele>
        <time>2011-11-20T09:55:13Z</time>
      </trkpt>
      <trkpt lat="44.03878" lon="4.36207">
        <ele>184</ele>
        <time>2011-11-20T09:55:14Z</time>
      </trkpt>
      <trkpt lat="44.03875" lon="4.362">
        <ele>184</ele>
        <time>2011-11-20T09:55:15Z</time>
      </trkpt>
      <trkpt lat="44.03872" lon="4.36192">
        <ele>183.8</ele>
        <time>2011-11-20T09:55:16Z</time>
      </trkpt>
      <trkpt lat="44.0387" lon="4.36184">
        <ele>183.6</ele>
        <time>2011-11-20T09:55:17Z</time>
      </trkpt>
      <trkpt lat="44.03866" lon="4.36144">
        <ele>177.3</ele>
        <time>2011-11-20T09:55:21Z</time>
      </trkpt>
      <trkpt lat="44.03866" lon="4.3613">
        <ele>170.7</ele>
        <time>2011-11-20T09:55:23Z</time>
      </trkpt>
      <trkpt lat="44.03861" lon="4.36125">
        <ele>167.8</ele>
        <time>2011-11-20T09:55:24Z</time>
      </trkpt>
      <trkpt lat="44.03861" lon="4.36118">
        <ele>167.9</ele>
        <time>2011-11-20T09:55:25Z</time>
      </trkpt>
      <trkpt lat="44.03863" lon="4.3611">
        <ele>168.9</ele>
        <time>2011-11-20T09:55:26Z</time>
      </trkpt>
      <trkpt lat="44.03863" lon="4.36102">
        <ele>168.9</ele>
        <time>2011-11-20T09:55:27Z</time>
      </trkpt>
      <trkpt lat="44.03862" lon="4.36092">
        <ele>168.8</ele>
        <time>2011-11-20T09:55:28Z</time>
      </trkpt>
      <trkpt lat="44.03862" lon="4.36083">
        <ele>168.9</ele>
        <time>2011-11-20T09:55:29Z</time>
      </trkpt>
      <trkpt lat="44.03862" lon="4.36073">
        <ele>168.8</ele>
        <time>2011-11-20T09:55:30Z</time>
      </trkpt>
      <trkpt lat="44.03861" lon="4.36064">
        <ele>168.6</ele>
        <time>2011-11-20T09:55:31Z</time>
      </trkpt>
      <trkpt lat="44.03861" lon="4.36054">
        <ele>168.4</ele>
        <time>2011-11-20T09:55:32Z</time>
      </trkpt>
      <trkpt lat="44.03861" lon="4.36044">
        <ele>168.1</ele>
        <time>2011-11-20T09:55:33Z</time>
      </trkpt>
      <trkpt lat="44.03862" lon="4.36034">
        <ele>168.3</ele>
        <time>2011-11-20T09:55:34Z</time>
      </trkpt>
      <trkpt lat="44.03861" lon="4.36024">
        <ele>168.3</ele>
        <time>2011-11-20T09:55:35Z</time>
      </trkpt>
      <trkpt lat="44.03861" lon="4.36014">
        <ele>168.4</ele>
        <time>2011-11-20T09:55:36Z</time>
      </trkpt>
      <trkpt lat="44.03861" lon="4.36004">
        <ele>168.3</ele>
        <time>2011-11-20T09:55:37Z</time>
      </trkpt>
      <trkpt lat="44.03862" lon="4.35994">
        <ele>168.1</ele>
        <time>2011-11-20T09:55:38Z</time>
      </trkpt>
      <trkpt lat="44.03862" lon="4.35984">
        <ele>168</ele>
        <time>2011-11-20T09:55:39Z</time>
      </trkpt>
      <trkpt lat="44.03862" lon="4.35975">
        <ele>168.2</ele>
        <time>2011-11-20T09:55:40Z</time>
      </trkpt>
      <trkpt lat="44.03862" lon="4.35966">
        <ele>168.1</ele>
        <time>2011-11-20T09:55:41Z</time>
      </trkpt>
      <trkpt lat="44.03862" lon="4.35957">
        <ele>167.9</ele>
        <time>2011-11-20T09:55:42Z</time>
      </trkpt>
      <trkpt lat="44.03863" lon="4.35948">
        <ele>167.8</ele>
        <time>2011-11-20T09:55:43Z</time>
      </trkpt>
      <trkpt lat="44.03864" lon="4.3594">
        <ele>167.7</ele>
        <time>2011-11-20T09:55:44Z</time>
      </trkpt>
      <trkpt lat="44.03864" lon="4.35932">
        <ele>167.6</ele>
        <time>2011-11-20T09:55:45Z</time>
      </trkpt>
      <trkpt lat="44.03865" lon="4.35924">
        <ele>167.8</ele>
        <time>2011-11-20T09:55:46Z</time>
      </trkpt>
      <trkpt lat="44.03866" lon="4.35917">
        <ele>167.7</ele>
        <time>2011-11-20T09:55:47Z</time>
      </trkpt>
      <trkpt lat="44.03866" lon="4.3591">
        <ele>167.8</ele>
        <time>2011-11-20T09:55:48Z</time>
      </trkpt>
      <trkpt lat="44.03866" lon="4.35903">
        <ele>167.4</ele>
        <time>2011-11-20T09:55:49Z</time>
      </trkpt>
      <trkpt lat="44.03865" lon="4.35892">
        <ele>168</ele>
        <time>2011-11-20T09:55:51Z</time>
      </trkpt>
      <trkpt lat="44.0386" lon="4.35887">
        <ele>170.4</ele>
        <time>2011-11-20T09:55:53Z</time>
      </trkpt>
      <trkpt lat="44.03852" lon="4.35888">
        <ele>172.9</ele>
        <time>2011-11-20T09:55:55Z</time>
      </trkpt>
      <trkpt lat="44.03847" lon="4.3589">
        <ele>174</ele>
        <time>2011-11-20T09:55:56Z</time>
      </trkpt>
      <trkpt lat="44.03843" lon="4.35892">
        <ele>174.2</ele>
        <time>2011-11-20T09:55:57Z</time>
      </trkpt>
      <trkpt lat="44.03837" lon="4.35895">
        <ele>174.5</ele>
        <time>2011-11-20T09:55:58Z</time>
      </trkpt>
      <trkpt lat="44.03832" lon="4.359">
        <ele>173.9</ele>
        <time>2011-11-20T09:55:59Z</time>
      </trkpt>
      <trkpt lat="44.03827" lon="4.35902">
        <ele>173.6</ele>
        <time>2011-11-20T09:56:00Z</time>
      </trkpt>
      <trkpt lat="44.03822" lon="4.35904">
        <ele>173.3</ele>
        <time>2011-11-20T09:56:01Z</time>
      </trkpt>
      <trkpt lat="44.03817" lon="4.35905">
        <ele>173</ele>
        <time>2011-11-20T09:56:02Z</time>
      </trkpt>
      <trkpt lat="44.03812" lon="4.35905">
        <ele>172.6</ele>
        <time>2011-11-20T09:56:03Z</time>
      </trkpt>
      <trkpt lat="44.03804" lon="4.359">
        <ele>172.1</ele>
        <time>2011-11-20T09:56:05Z</time>
      </trkpt>
      <trkpt lat="44.03799" lon="4.3589">
        <ele>171.7</ele>
        <time>2011-11-20T09:56:07Z</time>
      </trkpt>
      <trkpt lat="44.03792" lon="4.35883">
        <ele>171.6</ele>
        <time>2011-11-20T09:56:09Z</time>
      </trkpt>
      <trkpt lat="44.03784" lon="4.35879">
        <ele>171.6</ele>
        <time>2011-11-20T09:56:11Z</time>
      </trkpt>
      <trkpt lat="44.0378" lon="4.35878">
        <ele>171.5</ele>
        <time>2011-11-20T09:56:12Z</time>
      </trkpt>
      <trkpt lat="44.03771" lon="4.35874">
        <ele>171.2</ele>
        <time>2011-11-20T09:56:14Z</time>
      </trkpt>
      <trkpt lat="44.03763" lon="4.35869">
        <ele>170.5</ele>
        <time>2011-11-20T09:56:16Z</time>
      </trkpt>
      <trkpt lat="44.03757" lon="4.35864">
        <ele>169.6</ele>
        <time>2011-11-20T09:56:18Z</time>
      </trkpt>
      <trkpt lat="44.03752" lon="4.35858">
        <ele>168.5</ele>
        <time>2011-11-20T09:56:21Z</time>
      </trkpt>
      <trkpt lat="44.0375" lon="4.35852">
        <ele>168.2</ele>
        <time>2011-11-20T09:56:24Z</time>
      </trkpt>
      <trkpt lat="44.03748" lon="4.35846">
        <ele>168.2</ele>
        <time>2011-11-20T09:56:27Z</time>
      </trkpt>
      <trkpt lat="44.03752" lon="4.35845">
        <ele>168.5</ele>
        <time>2011-11-20T09:56:35Z</time>
      </trkpt>
      <trkpt lat="44.03756" lon="4.35841">
        <ele>167.8</ele>
        <time>2011-11-20T09:56:38Z</time>
      </trkpt>
      <trkpt lat="44.03759" lon="4.35836">
        <ele>167.8</ele>
        <time>2011-11-20T09:56:40Z</time>
      </trkpt>
      <trkpt lat="44.03762" lon="4.35831">
        <ele>168.1</ele>
        <time>2011-11-20T09:56:42Z</time>
      </trkpt>
      <trkpt lat="44.03767" lon="4.35826">
        <ele>168.1</ele>
        <time>2011-11-20T09:56:44Z</time>
      </trkpt>
      <trkpt lat="44.03771" lon="4.35821">
        <ele>167.8</ele>
        <time>2011-11-20T09:56:46Z</time>
      </trkpt>
      <trkpt lat="44.03777" lon="4.35814">
        <ele>167.9</ele>
        <time>2011-11-20T09:56:48Z</time>
      </trkpt>
      <trkpt lat="44.03782" lon="4.35807">
        <ele>168.2</ele>
        <time>2011-11-20T09:56:50Z</time>
      </trkpt>
      <trkpt lat="44.03788" lon="4.35801">
        <ele>168.4</ele>
        <time>2011-11-20T09:56:52Z</time>
      </trkpt>
      <trkpt lat="44.03794" lon="4.35794">
        <ele>168.3</ele>
        <time>2011-11-20T09:56:54Z</time>
      </trkpt>
      <trkpt lat="44.03798" lon="4.35787">
        <ele>168.2</ele>
        <time>2011-11-20T09:56:56Z</time>
      </trkpt>
      <trkpt lat="44.03804" lon="4.35778">
        <ele>168.1</ele>
        <time>2011-11-20T09:56:58Z</time>
      </trkpt>
      <trkpt lat="44.03811" lon="4.3577">
        <ele>167.7</ele>
        <time>2011-11-20T09:57:00Z</time>
      </trkpt>
      <trkpt lat="44.03817" lon="4.35763">
        <ele>167.6</ele>
        <time>2011-11-20T09:57:02Z</time>
      </trkpt>
      <trkpt lat="44.03824" lon="4.35755">
        <ele>167.3</ele>
        <time>2011-11-20T09:57:04Z</time>
      </trkpt>
      <trkpt lat="44.0383" lon="4.35746">
        <ele>166.8</ele>
        <time>2011-11-20T09:57:06Z</time>
      </trkpt>
      <trkpt lat="44.03833" lon="4.35741">
        <ele>166.8</ele>
        <time>2011-11-20T09:57:07Z</time>
      </trkpt>
      <trkpt lat="44.03837" lon="4.35737">
        <ele>166.7</ele>
        <time>2011-11-20T09:57:08Z</time>
      </trkpt>
      <trkpt lat="44.0384" lon="4.35732">
        <ele>166.8</ele>
        <time>2011-11-20T09:57:09Z</time>
      </trkpt>
      <trkpt lat="44.03843" lon="4.35727">
        <ele>166.8</ele>
        <time>2011-11-20T09:57:10Z</time>
      </trkpt>
      <trkpt lat="44.03846" lon="4.35721">
        <ele>166.9</ele>
        <time>2011-11-20T09:57:11Z</time>
      </trkpt>
      <trkpt lat="44.0385" lon="4.35711">
        <ele>167.2</ele>
        <time>2011-11-20T09:57:13Z</time>
      </trkpt>
      <trkpt lat="44.03851" lon="4.35698">
        <ele>167.2</ele>
        <time>2011-11-20T09:57:15Z</time>
      </trkpt>
      <trkpt lat="44.0385" lon="4.35691">
        <ele>167.1</ele>
        <time>2011-11-20T09:57:16Z</time>
      </trkpt>
      <trkpt lat="44.03851" lon="4.35679">
        <ele>166.7</ele>
        <time>2011-11-20T09:57:18Z</time>
      </trkpt>
      <trkpt lat="44.03854" lon="4.35668">
        <ele>166.3</ele>
        <time>2011-11-20T09:57:20Z</time>
      </trkpt>
      <trkpt lat="44.03857" lon="4.35656">
        <ele>165.8</ele>
        <time>2011-11-20T09:57:22Z</time>
      </trkpt>
      <trkpt lat="44.03859" lon="4.3565">
        <ele>165.7</ele>
        <time>2011-11-20T09:57:23Z</time>
      </trkpt>
      <trkpt lat="44.0386" lon="4.35643">
        <ele>165.5</ele>
        <time>2011-11-20T09:57:24Z</time>
      </trkpt>
      <trkpt lat="44.03861" lon="4.35636">
        <ele>165.5</ele>
        <time>2011-11-20T09:57:25Z</time>
      </trkpt>
      <trkpt lat="44.03862" lon="4.3563">
        <ele>165.5</ele>
        <time>2011-11-20T09:57:26Z</time>
      </trkpt>
      <trkpt lat="44.03863" lon="4.35618">
        <ele>165.3</ele>
        <time>2011-11-20T09:57:28Z</time>
      </trkpt>
      <trkpt lat="44.03862" lon="4.35607">
        <ele>164.8</ele>
        <time>2011-11-20T09:57:30Z</time>
      </trkpt>
      <trkpt lat="44.0386" lon="4.35597">
        <ele>164.5</ele>
        <time>2011-11-20T09:57:32Z</time>
      </trkpt>
      <trkpt lat="44.03855" lon="4.3559">
        <ele>164.3</ele>
        <time>2011-11-20T09:57:34Z</time>
      </trkpt>
      <trkpt lat="44.0385" lon="4.35582">
        <ele>164.2</ele>
        <time>2011-11-20T09:57:36Z</time>
      </trkpt>
      <trkpt lat="44.03845" lon="4.35577">
        <ele>164.2</ele>
        <time>2011-11-20T09:57:38Z</time>
      </trkpt>
      <trkpt lat="44.03841" lon="4.35574">
        <ele>164.7</ele>
        <time>2011-11-20T09:57:40Z</time>
      </trkpt>
      <trkpt lat="44.03834" lon="4.35573">
        <ele>165.2</ele>
        <time>2011-11-20T09:57:43Z</time>
      </trkpt>
      <trkpt lat="44.03828" lon="4.35575">
        <ele>165.4</ele>
        <time>2011-11-20T09:57:46Z</time>
      </trkpt>
      <trkpt lat="44.03822" lon="4.35577">
        <ele>165.6</ele>
        <time>2011-11-20T09:57:49Z</time>
      </trkpt>
      <trkpt lat="44.03817" lon="4.35578">
        <ele>165.8</ele>
        <time>2011-11-20T09:57:51Z</time>
      </trkpt>
      <trkpt lat="44.03812" lon="4.35579">
        <ele>166.3</ele>
        <time>2011-11-20T09:57:53Z</time>
      </trkpt>
      <trkpt lat="44.03806" lon="4.3558">
        <ele>166.5</ele>
        <time>2011-11-20T09:57:55Z</time>
      </trkpt>
      <trkpt lat="44.038" lon="4.35582">
        <ele>166.9</ele>
        <time>2011-11-20T09:57:57Z</time>
      </trkpt>
      <trkpt lat="44.03795" lon="4.35584">
        <ele>167</ele>
        <time>2011-11-20T09:57:59Z</time>
      </trkpt>
      <trkpt lat="44.03789" lon="4.35585">
        <ele>167.2</ele>
        <time>2011-11-20T09:58:01Z</time>
      </trkpt>
      <trkpt lat="44.03783" lon="4.35585">
        <ele>167.4</ele>
        <time>2011-11-20T09:58:03Z</time>
      </trkpt>
      <trkpt lat="44.03778" lon="4.35585">
        <ele>167.6</ele>
        <time>2011-11-20T09:58:05Z</time>
      </trkpt>
      <trkpt lat="44.03772" lon="4.35583">
        <ele>167.9</ele>
        <time>2011-11-20T09:58:07Z</time>
      </trkpt>
      <trkpt lat="44.03767" lon="4.35581">
        <ele>168.2</ele>
        <time>2011-11-20T09:58:09Z</time>
      </trkpt>
      <trkpt lat="44.03762" lon="4.35578">
        <ele>168.2</ele>
        <time>2011-11-20T09:58:11Z</time>
      </trkpt>
      <trkpt lat="44.03757" lon="4.35573">
        <ele>168.3</ele>
        <time>2011-11-20T09:58:13Z</time>
      </trkpt>
      <trkpt lat="44.03752" lon="4.3557">
        <ele>168.6</ele>
        <time>2011-11-20T09:58:15Z</time>
      </trkpt>
      <trkpt lat="44.03748" lon="4.35566">
        <ele>168.9</ele>
        <time>2011-11-20T09:58:17Z</time>
      </trkpt>
      <trkpt lat="44.03744" lon="4.35562">
        <ele>169.1</ele>
        <time>2011-11-20T09:58:19Z</time>
      </trkpt>
      <trkpt lat="44.03739" lon="4.35558">
        <ele>169.2</ele>
        <time>2011-11-20T09:58:21Z</time>
      </trkpt>
      <trkpt lat="44.03734" lon="4.35553">
        <ele>169.3</ele>
        <time>2011-11-20T09:58:23Z</time>
      </trkpt>
      <trkpt lat="44.0373" lon="4.35548">
        <ele>169.5</ele>
        <time>2011-11-20T09:58:25Z</time>
      </trkpt>
      <trkpt lat="44.03726" lon="4.35544">
        <ele>169.6</ele>
        <time>2011-11-20T09:58:27Z</time>
      </trkpt>
      <trkpt lat="44.03722" lon="4.35538">
        <ele>169.6</ele>
        <time>2011-11-20T09:58:29Z</time>
      </trkpt>
      <trkpt lat="44.03717" lon="4.35534">
        <ele>169.8</ele>
        <time>2011-11-20T09:58:31Z</time>
      </trkpt>
      <trkpt lat="44.03713" lon="4.35529">
        <ele>169.9</ele>
        <time>2011-11-20T09:58:33Z</time>
      </trkpt>
      <trkpt lat="44.03709" lon="4.35525">
        <ele>170.2</ele>
        <time>2011-11-20T09:58:35Z</time>
      </trkpt>
      <trkpt lat="44.03704" lon="4.35521">
        <ele>170.6</ele>
        <time>2011-11-20T09:58:37Z</time>
      </trkpt>
      <trkpt lat="44.03699" lon="4.35517">
        <ele>170.9</ele>
        <time>2011-11-20T09:58:39Z</time>
      </trkpt>
      <trkpt lat="44.03694" lon="4.35512">
        <ele>171.2</ele>
        <time>2011-11-20T09:58:41Z</time>
      </trkpt>
      <trkpt lat="44.0369" lon="4.35508">
        <ele>171.5</ele>
        <time>2011-11-20T09:58:43Z</time>
      </trkpt>
      <trkpt lat="44.03685" lon="4.35504">
        <ele>172.1</ele>
        <time>2011-11-20T09:58:45Z</time>
      </trkpt>
      <trkpt lat="44.0368" lon="4.35499">
        <ele>172.3</ele>
        <time>2011-11-20T09:58:47Z</time>
      </trkpt>
      <trkpt lat="44.03676" lon="4.35494">
        <ele>172.8</ele>
        <time>2011-11-20T09:58:49Z</time>
      </trkpt>
      <trkpt lat="44.03671" lon="4.35489">
        <ele>173.5</ele>
        <time>2011-11-20T09:58:51Z</time>
      </trkpt>
      <trkpt lat="44.03667" lon="4.35483">
        <ele>173.9</ele>
        <time>2011-11-20T09:58:53Z</time>
      </trkpt>
      <trkpt lat="44.03664" lon="4.35477">
        <ele>174.4</ele>
        <time>2011-11-20T09:58:55Z</time>
      </trkpt>
      <trkpt lat="44.03661" lon="4.3547">
        <ele>174.7</ele>
        <time>2011-11-20T09:58:57Z</time>
      </trkpt>
      <trkpt lat="44.03658" lon="4.35464">
        <ele>175.3</ele>
        <time>2011-11-20T09:58:59Z</time>
      </trkpt>
      <trkpt lat="44.03655" lon="4.35457">
        <ele>175.8</ele>
        <time>2011-11-20T09:59:01Z</time>
      </trkpt>
      <trkpt lat="44.03652" lon="4.35451">
        <ele>176.3</ele>
        <time>2011-11-20T09:59:03Z</time>
      </trkpt>
      <trkpt lat="44.03649" lon="4.35444">
        <ele>176.6</ele>
        <time>2011-11-20T09:59:05Z</time>
      </trkpt>
      <trkpt lat="44.03646" lon="4.35437">
        <ele>176.8</ele>
        <time>2011-11-20T09:59:07Z</time>
      </trkpt>
      <trkpt lat="44.03644" lon="4.3543">
        <ele>177.1</ele>
        <time>2011-11-20T09:59:09Z</time>
      </trkpt>
      <trkpt lat="44.03642" lon="4.35422">
        <ele>177.1</ele>
        <time>2011-11-20T09:59:11Z</time>
      </trkpt>
      <trkpt lat="44.0364" lon="4.35414">
        <ele>177.6</ele>
        <time>2011-11-20T09:59:13Z</time>
      </trkpt>
      <trkpt lat="44.03639" lon="4.35406">
        <ele>177.7</ele>
        <time>2011-11-20T09:59:15Z</time>
      </trkpt>
      <trkpt lat="44.03638" lon="4.35397">
        <ele>177.9</ele>
        <time>2011-11-20T09:59:17Z</time>
      </trkpt>
      <trkpt lat="44.0364" lon="4.35382">
        <ele>181</ele>
        <time>2011-11-20T09:59:22Z</time>
      </trkpt>
      <trkpt lat="44.03642" lon="4.35369">
        <ele>177.4</ele>
        <time>2011-11-20T09:59:23Z</time>
      </trkpt>
      <trkpt lat="44.03638" lon="4.35361">
        <ele>181.2</ele>
        <time>2011-11-20T09:59:25Z</time>
      </trkpt>
      <trkpt lat="44.03639" lon="4.35354">
        <ele>179.7</ele>
        <time>2011-11-20T09:59:27Z</time>
      </trkpt>
      <trkpt lat="44.03639" lon="4.35345">
        <ele>180.6</ele>
        <time>2011-11-20T09:59:29Z</time>
      </trkpt>
      <trkpt lat="44.03639" lon="4.35337">
        <ele>180.2</ele>
        <time>2011-11-20T09:59:31Z</time>
      </trkpt>
      <trkpt lat="44.03639" lon="4.35329">
        <ele>180.3</ele>
        <time>2011-11-20T09:59:33Z</time>
      </trkpt>
      <trkpt lat="44.0364" lon="4.35321">
        <ele>181</ele>
        <time>2011-11-20T09:59:35Z</time>
      </trkpt>
      <trkpt lat="44.0364" lon="4.35314">
        <ele>182.5</ele>
        <time>2011-11-20T09:59:37Z</time>
      </trkpt>
      <trkpt lat="44.03642" lon="4.35307">
        <ele>184</ele>
        <time>2011-11-20T09:59:39Z</time>
      </trkpt>
      <trkpt lat="44.03645" lon="4.35301">
        <ele>184.9</ele>
        <time>2011-11-20T09:59:41Z</time>
      </trkpt>
      <trkpt lat="44.03648" lon="4.35296">
        <ele>185.7</ele>
        <time>2011-11-20T09:59:43Z</time>
      </trkpt>
      <trkpt lat="44.03651" lon="4.35289">
        <ele>187.2</ele>
        <time>2011-11-20T09:59:46Z</time>
      </trkpt>
      <trkpt lat="44.03652" lon="4.35281">
        <ele>188</ele>
        <time>2011-11-20T09:59:49Z</time>
      </trkpt>
      <trkpt lat="44.03653" lon="4.35272">
        <ele>187.6</ele>
        <time>2011-11-20T09:59:52Z</time>
      </trkpt>
      <trkpt lat="44.03653" lon="4.35264">
        <ele>187.5</ele>
        <time>2011-11-20T09:59:55Z</time>
      </trkpt>
      <trkpt lat="44.03653" lon="4.35258">
        <ele>187.6</ele>
        <time>2011-11-20T09:59:58Z</time>
      </trkpt>
      <trkpt lat="44.03653" lon="4.35251">
        <ele>187.6</ele>
        <time>2011-11-20T10:00:01Z</time>
      </trkpt>
      <trkpt lat="44.03652" lon="4.35244">
        <ele>188.3</ele>
        <time>2011-11-20T10:00:04Z</time>
      </trkpt>
      <trkpt lat="44.03652" lon="4.35238">
        <ele>189.7</ele>
        <time>2011-11-20T10:00:07Z</time>
      </trkpt>
      <trkpt lat="44.0365" lon="4.3523">
        <ele>189.8</ele>
        <time>2011-11-20T10:00:10Z</time>
      </trkpt>
      <trkpt lat="44.0365" lon="4.35222">
        <ele>190.2</ele>
        <time>2011-11-20T10:00:13Z</time>
      </trkpt>
      <trkpt lat="44.03648" lon="4.35213">
        <ele>190.8</ele>
        <time>2011-11-20T10:00:16Z</time>
      </trkpt>
      <trkpt lat="44.03648" lon="4.35207">
        <ele>191.1</ele>
        <time>2011-11-20T10:00:18Z</time>
      </trkpt>
      <trkpt lat="44.03646" lon="4.35198">
        <ele>191.1</ele>
        <time>2011-11-20T10:00:21Z</time>
      </trkpt>
      <trkpt lat="44.03645" lon="4.3519">
        <ele>190.7</ele>
        <time>2011-11-20T10:00:24Z</time>
      </trkpt>
      <trkpt lat="44.03643" lon="4.35182">
        <ele>190.7</ele>
        <time>2011-11-20T10:00:27Z</time>
      </trkpt>
      <trkpt lat="44.03641" lon="4.35176">
        <ele>190.8</ele>
        <time>2011-11-20T10:00:29Z</time>
      </trkpt>
      <trkpt lat="44.0364" lon="4.3517">
        <ele>191.1</ele>
        <time>2011-11-20T10:00:31Z</time>
      </trkpt>
      <trkpt lat="44.03637" lon="4.35161">
        <ele>191.7</ele>
        <time>2011-11-20T10:00:34Z</time>
      </trkpt>
      <trkpt lat="44.03635" lon="4.35155">
        <ele>191.9</ele>
        <time>2011-11-20T10:00:36Z</time>
      </trkpt>
      <trkpt lat="44.03632" lon="4.35149">
        <ele>192</ele>
        <time>2011-11-20T10:00:38Z</time>
      </trkpt>
      <trkpt lat="44.0363" lon="4.35144">
        <ele>191.9</ele>
        <time>2011-11-20T10:00:40Z</time>
      </trkpt>
      <trkpt lat="44.03629" lon="4.35136">
        <ele>191.4</ele>
        <time>2011-11-20T10:00:42Z</time>
      </trkpt>
      <trkpt lat="44.03627" lon="4.35129">
        <ele>191.4</ele>
        <time>2011-11-20T10:00:44Z</time>
      </trkpt>
      <trkpt lat="44.03626" lon="4.35123">
        <ele>191.5</ele>
        <time>2011-11-20T10:00:46Z</time>
      </trkpt>
      <trkpt lat="44.03623" lon="4.35116">
        <ele>191.2</ele>
        <time>2011-11-20T10:00:48Z</time>
      </trkpt>
      <trkpt lat="44.03621" lon="4.3511">
        <ele>191.3</ele>
        <time>2011-11-20T10:00:50Z</time>
      </trkpt>
      <trkpt lat="44.03619" lon="4.35102">
        <ele>191.2</ele>
        <time>2011-11-20T10:00:52Z</time>
      </trkpt>
      <trkpt lat="44.03617" lon="4.35096">
        <ele>191.2</ele>
        <time>2011-11-20T10:00:54Z</time>
      </trkpt>
      <trkpt lat="44.03615" lon="4.35089">
        <ele>191.5</ele>
        <time>2011-11-20T10:00:56Z</time>
      </trkpt>
      <trkpt lat="44.03612" lon="4.35081">
        <ele>191.4</ele>
        <time>2011-11-20T10:00:58Z</time>
      </trkpt>
      <trkpt lat="44.0361" lon="4.35073">
        <ele>191.2</ele>
        <time>2011-11-20T10:01:00Z</time>
      </trkpt>
      <trkpt lat="44.03608" lon="4.35064">
        <ele>190.9</ele>
        <time>2011-11-20T10:01:02Z</time>
      </trkpt>
      <trkpt lat="44.03606" lon="4.35056">
        <ele>190.9</ele>
        <time>2011-11-20T10:01:04Z</time>
      </trkpt>
      <trkpt lat="44.03603" lon="4.35049">
        <ele>191</ele>
        <time>2011-11-20T10:01:06Z</time>
      </trkpt>
      <trkpt lat="44.03602" lon="4.35042">
        <ele>191</ele>
        <time>2011-11-20T10:01:08Z</time>
      </trkpt>
      <trkpt lat="44.036" lon="4.35036">
        <ele>191.1</ele>
        <time>2011-11-20T10:01:10Z</time>
      </trkpt>
      <trkpt lat="44.03599" lon="4.3503">
        <ele>191.2</ele>
        <time>2011-11-20T10:01:12Z</time>
      </trkpt>
      <trkpt lat="44.03597" lon="4.35024">
        <ele>191.4</ele>
        <time>2011-11-20T10:01:14Z</time>
      </trkpt>
      <trkpt lat="44.03594" lon="4.35018">
        <ele>191.5</ele>
        <time>2011-11-20T10:01:16Z</time>
      </trkpt>
      <trkpt lat="44.03584" lon="4.3499">
        <ele>190.5</ele>
        <time>2011-11-20T10:01:23Z</time>
      </trkpt>
      <trkpt lat="44.0358" lon="4.34977">
        <ele>192.9</ele>
        <time>2011-11-20T10:01:24Z</time>
      </trkpt>
      <trkpt lat="44.03589" lon="4.3498">
        <ele>194.5</ele>
        <time>2011-11-20T10:01:25Z</time>
      </trkpt>
      <trkpt lat="44.03575" lon="4.34976">
        <ele>197.4</ele>
        <time>2011-11-20T10:01:26Z</time>
      </trkpt>
      <trkpt lat="44.03579" lon="4.34972">
        <ele>196.4</ele>
        <time>2011-11-20T10:01:27Z</time>
      </trkpt>
      <trkpt lat="44.0358" lon="4.34966">
        <ele>195.4</ele>
        <time>2011-11-20T10:01:29Z</time>
      </trkpt>
      <trkpt lat="44.03578" lon="4.34959">
        <ele>203.2</ele>
        <time>2011-11-20T10:01:32Z</time>
      </trkpt>
      <trkpt lat="44.03575" lon="4.34954">
        <ele>204.5</ele>
        <time>2011-11-20T10:01:34Z</time>
      </trkpt>
      <trkpt lat="44.03572" lon="4.34947">
        <ele>205.3</ele>
        <time>2011-11-20T10:01:36Z</time>
      </trkpt>
      <trkpt lat="44.03568" lon="4.34942">
        <ele>206.5</ele>
        <time>2011-11-20T10:01:38Z</time>
      </trkpt>
      <trkpt lat="44.03565" lon="4.34936">
        <ele>206.9</ele>
        <time>2011-11-20T10:01:40Z</time>
      </trkpt>
      <trkpt lat="44.03562" lon="4.34931">
        <ele>206.8</ele>
        <time>2011-11-20T10:01:42Z</time>
      </trkpt>
      <trkpt lat="44.03558" lon="4.34926">
        <ele>207.4</ele>
        <time>2011-11-20T10:01:44Z</time>
      </trkpt>
      <trkpt lat="44.03555" lon="4.34921">
        <ele>207.6</ele>
        <time>2011-11-20T10:01:46Z</time>
      </trkpt>
      <trkpt lat="44.03552" lon="4.34916">
        <ele>207.9</ele>
        <time>2011-11-20T10:01:48Z</time>
      </trkpt>
      <trkpt lat="44.03548" lon="4.34908">
        <ele>208.9</ele>
        <time>2011-11-20T10:01:51Z</time>
      </trkpt>
      <trkpt lat="44.03544" lon="4.34903">
        <ele>209.3</ele>
        <time>2011-11-20T10:01:53Z</time>
      </trkpt>
      <trkpt lat="44.03541" lon="4.34897">
        <ele>209.1</ele>
        <time>2011-11-20T10:01:55Z</time>
      </trkpt>
      <trkpt lat="44.03538" lon="4.3489">
        <ele>208.3</ele>
        <time>2011-11-20T10:01:57Z</time>
      </trkpt>
      <trkpt lat="44.03535" lon="4.34883">
        <ele>207.3</ele>
        <time>2011-11-20T10:01:59Z</time>
      </trkpt>
      <trkpt lat="44.03531" lon="4.34875">
        <ele>207.4</ele>
        <time>2011-11-20T10:02:01Z</time>
      </trkpt>
      <trkpt lat="44.03528" lon="4.34868">
        <ele>206.9</ele>
        <time>2011-11-20T10:02:03Z</time>
      </trkpt>
      <trkpt lat="44.03525" lon="4.34858">
        <ele>206.1</ele>
        <time>2011-11-20T10:02:05Z</time>
      </trkpt>
      <trkpt lat="44.03522" lon="4.34848">
        <ele>205</ele>
        <time>2011-11-20T10:02:07Z</time>
      </trkpt>
      <trkpt lat="44.03519" lon="4.34839">
        <ele>205.1</ele>
        <time>2011-11-20T10:02:09Z</time>
      </trkpt>
      <trkpt lat="44.03517" lon="4.34831">
        <ele>204.6</ele>
        <time>2011-11-20T10:02:11Z</time>
      </trkpt>
      <trkpt lat="44.03514" lon="4.34823">
        <ele>204.1</ele>
        <time>2011-11-20T10:02:13Z</time>
      </trkpt>
      <trkpt lat="44.0351" lon="4.34815">
        <ele>204.1</ele>
        <time>2011-11-20T10:02:15Z</time>
      </trkpt>
      <trkpt lat="44.03507" lon="4.34806">
        <ele>203.9</ele>
        <time>2011-11-20T10:02:17Z</time>
      </trkpt>
      <trkpt lat="44.03504" lon="4.34799">
        <ele>203.9</ele>
        <time>2011-11-20T10:02:19Z</time>
      </trkpt>
      <trkpt lat="44.03502" lon="4.34791">
        <ele>203.7</ele>
        <time>2011-11-20T10:02:21Z</time>
      </trkpt>
      <trkpt lat="44.035" lon="4.34784">
        <ele>203.8</ele>
        <time>2011-11-20T10:02:23Z</time>
      </trkpt>
      <trkpt lat="44.03498" lon="4.34776">
        <ele>203.8</ele>
        <time>2011-11-20T10:02:25Z</time>
      </trkpt>
      <trkpt lat="44.03495" lon="4.34768">
        <ele>203.9</ele>
        <time>2011-11-20T10:02:27Z</time>
      </trkpt>
      <trkpt lat="44.03491" lon="4.3476">
        <ele>204.1</ele>
        <time>2011-11-20T10:02:29Z</time>
      </trkpt>
      <trkpt lat="44.03488" lon="4.34752">
        <ele>204.3</ele>
        <time>2011-11-20T10:02:31Z</time>
      </trkpt>
      <trkpt lat="44.03484" lon="4.34744">
        <ele>205</ele>
        <time>2011-11-20T10:02:33Z</time>
      </trkpt>
      <trkpt lat="44.03481" lon="4.34735">
        <ele>205.7</ele>
        <time>2011-11-20T10:02:35Z</time>
      </trkpt>
      <trkpt lat="44.03479" lon="4.34728">
        <ele>206.1</ele>
        <time>2011-11-20T10:02:37Z</time>
      </trkpt>
      <trkpt lat="44.03477" lon="4.34721">
        <ele>206.6</ele>
        <time>2011-11-20T10:02:39Z</time>
      </trkpt>
      <trkpt lat="44.03474" lon="4.34714">
        <ele>207.4</ele>
        <time>2011-11-20T10:02:41Z</time>
      </trkpt>
      <trkpt lat="44.03473" lon="4.34707">
        <ele>207.7</ele>
        <time>2011-11-20T10:02:43Z</time>
      </trkpt>
      <trkpt lat="44.03471" lon="4.34699">
        <ele>208</ele>
        <time>2011-11-20T10:02:45Z</time>
      </trkpt>
      <trkpt lat="44.0347" lon="4.34692">
        <ele>208</ele>
        <time>2011-11-20T10:02:47Z</time>
      </trkpt>
      <trkpt lat="44.03469" lon="4.34685">
        <ele>208.1</ele>
        <time>2011-11-20T10:02:49Z</time>
      </trkpt>
      <trkpt lat="44.03468" lon="4.34679">
        <ele>208.2</ele>
        <time>2011-11-20T10:02:51Z</time>
      </trkpt>
      <trkpt lat="44.03467" lon="4.34672">
        <ele>208.7</ele>
        <time>2011-11-20T10:02:53Z</time>
      </trkpt>
      <trkpt lat="44.03466" lon="4.34666">
        <ele>209.3</ele>
        <time>2011-11-20T10:02:55Z</time>
      </trkpt>
      <trkpt lat="44.03465" lon="4.34657">
        <ele>209.9</ele>
        <time>2011-11-20T10:02:58Z</time>
      </trkpt>
      <trkpt lat="44.03463" lon="4.34648">
        <ele>210</ele>
        <time>2011-11-20T10:03:01Z</time>
      </trkpt>
      <trkpt lat="44.03462" lon="4.34642">
        <ele>209.9</ele>
        <time>2011-11-20T10:03:03Z</time>
      </trkpt>
      <trkpt lat="44.03461" lon="4.34633">
        <ele>210.1</ele>
        <time>2011-11-20T10:03:06Z</time>
      </trkpt>
      <trkpt lat="44.0346" lon="4.34625">
        <ele>210.4</ele>
        <time>2011-11-20T10:03:09Z</time>
      </trkpt>
      <trkpt lat="44.03458" lon="4.34616">
        <ele>210.7</ele>
        <time>2011-11-20T10:03:12Z</time>
      </trkpt>
      <trkpt lat="44.03457" lon="4.34609">
        <ele>211</ele>
        <time>2011-11-20T10:03:15Z</time>
      </trkpt>
      <trkpt lat="44.03457" lon="4.34602">
        <ele>210.9</ele>
        <time>2011-11-20T10:03:18Z</time>
      </trkpt>
      <trkpt lat="44.03457" lon="4.34594">
        <ele>211.3</ele>
        <time>2011-11-20T10:03:22Z</time>
      </trkpt>
      <trkpt lat="44.03456" lon="4.34587">
        <ele>211.3</ele>
        <time>2011-11-20T10:03:26Z</time>
      </trkpt>
      <trkpt lat="44.03454" lon="4.34581">
        <ele>212.7</ele>
        <time>2011-11-20T10:03:37Z</time>
      </trkpt>
      <trkpt lat="44.03454" lon="4.34573">
        <ele>213.2</ele>
        <time>2011-11-20T10:03:41Z</time>
      </trkpt>
      <trkpt lat="44.03452" lon="4.34565">
        <ele>213.5</ele>
        <time>2011-11-20T10:03:44Z</time>
      </trkpt>
      <trkpt lat="44.03451" lon="4.34556">
        <ele>212.8</ele>
        <time>2011-11-20T10:03:47Z</time>
      </trkpt>
      <trkpt lat="44.03449" lon="4.34549">
        <ele>213.2</ele>
        <time>2011-11-20T10:03:50Z</time>
      </trkpt>
      <trkpt lat="44.03448" lon="4.34543">
        <ele>212.9</ele>
        <time>2011-11-20T10:03:52Z</time>
      </trkpt>
      <trkpt lat="44.03446" lon="4.34534">
        <ele>213.3</ele>
        <time>2011-11-20T10:03:55Z</time>
      </trkpt>
      <trkpt lat="44.03444" lon="4.34528">
        <ele>213.3</ele>
        <time>2011-11-20T10:03:57Z</time>
      </trkpt>
      <trkpt lat="44.03442" lon="4.3452">
        <ele>213.3</ele>
        <time>2011-11-20T10:03:59Z</time>
      </trkpt>
      <trkpt lat="44.0344" lon="4.34511">
        <ele>213.4</ele>
        <time>2011-11-20T10:04:00Z</time>
      </trkpt>
      <trkpt lat="44.03437" lon="4.34504">
        <ele>213.5</ele>
        <time>2011-11-20T10:04:02Z</time>
      </trkpt>
      <trkpt lat="44.03433" lon="4.34497">
        <ele>213.6</ele>
        <time>2011-11-20T10:04:04Z</time>
      </trkpt>
      <trkpt lat="44.03429" lon="4.3449">
        <ele>213.9</ele>
        <time>2011-11-20T10:04:06Z</time>
      </trkpt>
      <trkpt lat="44.03426" lon="4.34482">
        <ele>214</ele>
        <time>2011-11-20T10:04:08Z</time>
      </trkpt>
      <trkpt lat="44.03423" lon="4.34475">
        <ele>214.3</ele>
        <time>2011-11-20T10:04:10Z</time>
      </trkpt>
      <trkpt lat="44.0342" lon="4.3447">
        <ele>214.7</ele>
        <time>2011-11-20T10:04:12Z</time>
      </trkpt>
      <trkpt lat="44.03417" lon="4.34463">
        <ele>215.2</ele>
        <time>2011-11-20T10:04:14Z</time>
      </trkpt>
      <trkpt lat="44.03414" lon="4.34456">
        <ele>215.2</ele>
        <time>2011-11-20T10:04:16Z</time>
      </trkpt>
      <trkpt lat="44.0341" lon="4.34449">
        <ele>215.9</ele>
        <time>2011-11-20T10:04:18Z</time>
      </trkpt>
      <trkpt lat="44.03407" lon="4.34442">
        <ele>216</ele>
        <time>2011-11-20T10:04:20Z</time>
      </trkpt>
      <trkpt lat="44.03404" lon="4.34436">
        <ele>216</ele>
        <time>2011-11-20T10:04:22Z</time>
      </trkpt>
      <trkpt lat="44.03401" lon="4.34429">
        <ele>216.8</ele>
        <time>2011-11-20T10:04:24Z</time>
      </trkpt>
      <trkpt lat="44.03398" lon="4.34422">
        <ele>217</ele>
        <time>2011-11-20T10:04:26Z</time>
      </trkpt>
      <trkpt lat="44.03396" lon="4.34415">
        <ele>217</ele>
        <time>2011-11-20T10:04:28Z</time>
      </trkpt>
      <trkpt lat="44.03393" lon="4.34409">
        <ele>216.9</ele>
        <time>2011-11-20T10:04:30Z</time>
      </trkpt>
      <trkpt lat="44.0339" lon="4.34403">
        <ele>217</ele>
        <time>2011-11-20T10:04:32Z</time>
      </trkpt>
      <trkpt lat="44.03388" lon="4.34396">
        <ele>217.1</ele>
        <time>2011-11-20T10:04:34Z</time>
      </trkpt>
      <trkpt lat="44.03386" lon="4.34388">
        <ele>217.1</ele>
        <time>2011-11-20T10:04:36Z</time>
      </trkpt>
      <trkpt lat="44.03385" lon="4.34381">
        <ele>217.2</ele>
        <time>2011-11-20T10:04:38Z</time>
      </trkpt>
      <trkpt lat="44.03384" lon="4.34374">
        <ele>217.5</ele>
        <time>2011-11-20T10:04:40Z</time>
      </trkpt>
      <trkpt lat="44.03382" lon="4.34366">
        <ele>218.1</ele>
        <time>2011-11-20T10:04:42Z</time>
      </trkpt>
      <trkpt lat="44.0338" lon="4.34358">
        <ele>218.7</ele>
        <time>2011-11-20T10:04:44Z</time>
      </trkpt>
      <trkpt lat="44.03377" lon="4.34351">
        <ele>219.1</ele>
        <time>2011-11-20T10:04:46Z</time>
      </trkpt>
      <trkpt lat="44.03374" lon="4.34343">
        <ele>219.2</ele>
        <time>2011-11-20T10:04:48Z</time>
      </trkpt>
      <trkpt lat="44.03371" lon="4.34335">
        <ele>219.3</ele>
        <time>2011-11-20T10:04:50Z</time>
      </trkpt>
      <trkpt lat="44.03368" lon="4.34327">
        <ele>219.4</ele>
        <time>2011-11-20T10:04:52Z</time>
      </trkpt>
      <trkpt lat="44.03365" lon="4.34319">
        <ele>219.5</ele>
        <time>2011-11-20T10:04:54Z</time>
      </trkpt>
      <trkpt lat="44.03362" lon="4.34312">
        <ele>219.5</ele>
        <time>2011-11-20T10:04:56Z</time>
      </trkpt>
      <trkpt lat="44.03359" lon="4.34304">
        <ele>219.6</ele>
        <time>2011-11-20T10:04:58Z</time>
      </trkpt>
      <trkpt lat="44.03356" lon="4.34297">
        <ele>220</ele>
        <time>2011-11-20T10:05:00Z</time>
      </trkpt>
      <trkpt lat="44.03354" lon="4.3429">
        <ele>220.3</ele>
        <time>2011-11-20T10:05:02Z</time>
      </trkpt>
      <trkpt lat="44.03352" lon="4.34284">
        <ele>220.4</ele>
        <time>2011-11-20T10:05:04Z</time>
      </trkpt>
      <trkpt lat="44.03349" lon="4.34276">
        <ele>220.3</ele>
        <time>2011-11-20T10:05:07Z</time>
      </trkpt>
      <trkpt lat="44.03345" lon="4.34269">
        <ele>220.8</ele>
        <time>2011-11-20T10:05:10Z</time>
      </trkpt>
      <trkpt lat="44.03342" lon="4.34264">
        <ele>221</ele>
        <time>2011-11-20T10:05:12Z</time>
      </trkpt>
      <trkpt lat="44.03339" lon="4.34258">
        <ele>221</ele>
        <time>2011-11-20T10:05:14Z</time>
      </trkpt>
      <trkpt lat="44.03336" lon="4.34253">
        <ele>221.4</ele>
        <time>2011-11-20T10:05:16Z</time>
      </trkpt>
      <trkpt lat="44.03333" lon="4.34248">
        <ele>221.5</ele>
        <time>2011-11-20T10:05:18Z</time>
      </trkpt>
      <trkpt lat="44.0333" lon="4.34242">
        <ele>221.7</ele>
        <time>2011-11-20T10:05:20Z</time>
      </trkpt>
      <trkpt lat="44.03327" lon="4.34235">
        <ele>221.2</ele>
        <time>2011-11-20T10:05:23Z</time>
      </trkpt>
      <trkpt lat="44.03323" lon="4.34228">
        <ele>221.1</ele>
        <time>2011-11-20T10:05:26Z</time>
      </trkpt>
      <trkpt lat="44.03319" lon="4.34221">
        <ele>221.6</ele>
        <time>2011-11-20T10:05:28Z</time>
      </trkpt>
      <trkpt lat="44.03316" lon="4.34215">
        <ele>222</ele>
        <time>2011-11-20T10:05:30Z</time>
      </trkpt>
      <trkpt lat="44.03312" lon="4.34209">
        <ele>222.1</ele>
        <time>2011-11-20T10:05:32Z</time>
      </trkpt>
      <trkpt lat="44.03309" lon="4.34202">
        <ele>222.3</ele>
        <time>2011-11-20T10:05:34Z</time>
      </trkpt>
      <trkpt lat="44.03306" lon="4.34196">
        <ele>222.8</ele>
        <time>2011-11-20T10:05:36Z</time>
      </trkpt>
      <trkpt lat="44.03303" lon="4.3419">
        <ele>223.2</ele>
        <time>2011-11-20T10:05:38Z</time>
      </trkpt>
      <trkpt lat="44.033" lon="4.34184">
        <ele>223.5</ele>
        <time>2011-11-20T10:05:40Z</time>
      </trkpt>
      <trkpt lat="44.03296" lon="4.34177">
        <ele>223.9</ele>
        <time>2011-11-20T10:05:42Z</time>
      </trkpt>
      <trkpt lat="44.03293" lon="4.3417">
        <ele>224</ele>
        <time>2011-11-20T10:05:44Z</time>
      </trkpt>
      <trkpt lat="44.0329" lon="4.34163">
        <ele>224</ele>
        <time>2011-11-20T10:05:46Z</time>
      </trkpt>
      <trkpt lat="44.03287" lon="4.34156">
        <ele>224.1</ele>
        <time>2011-11-20T10:05:48Z</time>
      </trkpt>
      <trkpt lat="44.03283" lon="4.34148">
        <ele>224.4</ele>
        <time>2011-11-20T10:05:50Z</time>
      </trkpt>
      <trkpt lat="44.03279" lon="4.34139">
        <ele>224.5</ele>
        <time>2011-11-20T10:05:52Z</time>
      </trkpt>
      <trkpt lat="44.03275" lon="4.34129">
        <ele>224.5</ele>
        <time>2011-11-20T10:05:54Z</time>
      </trkpt>
      <trkpt lat="44.03271" lon="4.34118">
        <ele>224.7</ele>
        <time>2011-11-20T10:05:56Z</time>
      </trkpt>
      <trkpt lat="44.03269" lon="4.34112">
        <ele>224.6</ele>
        <time>2011-11-20T10:05:57Z</time>
      </trkpt>
      <trkpt lat="44.03266" lon="4.34106">
        <ele>224.5</ele>
        <time>2011-11-20T10:05:58Z</time>
      </trkpt>
      <trkpt lat="44.03264" lon="4.341">
        <ele>224.5</ele>
        <time>2011-11-20T10:05:59Z</time>
      </trkpt>
      <trkpt lat="44.03262" lon="4.34095">
        <ele>224.5</ele>
        <time>2011-11-20T10:06:00Z</time>
      </trkpt>
      <trkpt lat="44.03259" lon="4.3409">
        <ele>224.5</ele>
        <time>2011-11-20T10:06:01Z</time>
      </trkpt>
      <trkpt lat="44.03254" lon="4.3408">
        <ele>224.7</ele>
        <time>2011-11-20T10:06:03Z</time>
      </trkpt>
      <trkpt lat="44.03251" lon="4.34074">
        <ele>224.9</ele>
        <time>2011-11-20T10:06:04Z</time>
      </trkpt>
      <trkpt lat="44.03248" lon="4.34067">
        <ele>225.3</ele>
        <time>2011-11-20T10:06:05Z</time>
      </trkpt>
      <trkpt lat="44.03245" lon="4.3406">
        <ele>225.4</ele>
        <time>2011-11-20T10:06:06Z</time>
      </trkpt>
      <trkpt lat="44.03244" lon="4.34054">
        <ele>225.2</ele>
        <time>2011-11-20T10:06:07Z</time>
      </trkpt>
      <trkpt lat="44.03241" lon="4.34048">
        <ele>225.3</ele>
        <time>2011-11-20T10:06:08Z</time>
      </trkpt>
      <trkpt lat="44.03238" lon="4.34042">
        <ele>225.3</ele>
        <time>2011-11-20T10:06:09Z</time>
      </trkpt>
      <trkpt lat="44.03236" lon="4.34036">
        <ele>225.3</ele>
        <time>2011-11-20T10:06:10Z</time>
      </trkpt>
      <trkpt lat="44.03234" lon="4.3403">
        <ele>225.4</ele>
        <time>2011-11-20T10:06:11Z</time>
      </trkpt>
      <trkpt lat="44.03231" lon="4.34019">
        <ele>225.7</ele>
        <time>2011-11-20T10:06:13Z</time>
      </trkpt>
      <trkpt lat="44.03229" lon="4.3401">
        <ele>225.4</ele>
        <time>2011-11-20T10:06:15Z</time>
      </trkpt>
      <trkpt lat="44.03228" lon="4.34002">
        <ele>225.7</ele>
        <time>2011-11-20T10:06:17Z</time>
      </trkpt>
      <trkpt lat="44.03233" lon="4.33998">
        <ele>226</ele>
        <time>2011-11-20T10:06:22Z</time>
      </trkpt>
      <trkpt lat="44.03228" lon="4.34002">
        <ele>225.7</ele>
        <time>2011-11-20T10:06:37Z</time>
      </trkpt>
      <trkpt lat="44.03228" lon="4.34009">
        <ele>226.1</ele>
        <time>2011-11-20T10:06:41Z</time>
      </trkpt>
      <trkpt lat="44.03228" lon="4.34009">
        <ele>226.1</ele>
        <time>2011-11-20T10:06:41Z</time>
      </trkpt>
      <trkpt lat="44.03228" lon="4.34009">
        <ele>226.1</ele>
        <time>2011-11-20T10:06:47Z</time>
      </trkpt>
      <trkpt lat="44.03231" lon="4.34014">
        <ele>227</ele>
        <time>2011-11-20T10:06:54Z</time>
      </trkpt>
      <trkpt lat="44.03235" lon="4.34013">
        <ele>226.7</ele>
        <time>2011-11-20T10:07:02Z</time>
      </trkpt>
      <trkpt lat="44.03234" lon="4.34007">
        <ele>226.3</ele>
        <time>2011-11-20T10:09:55Z</time>
      </trkpt>
      <trkpt lat="44.0323" lon="4.34">
        <ele>226.3</ele>
        <time>2011-11-20T10:10:00Z</time>
      </trkpt>
      <trkpt lat="44.03227" lon="4.33993">
        <ele>226.5</ele>
        <time>2011-11-20T10:10:03Z</time>
      </trkpt>
      <trkpt lat="44.03225" lon="4.33986">
        <ele>226.8</ele>
        <time>2011-11-20T10:10:05Z</time>
      </trkpt>
      <trkpt lat="44.03222" lon="4.33978">
        <ele>226.9</ele>
        <time>2011-11-20T10:10:07Z</time>
      </trkpt>
      <trkpt lat="44.0322" lon="4.33969">
        <ele>227</ele>
        <time>2011-11-20T10:10:09Z</time>
      </trkpt>
      <trkpt lat="44.03218" lon="4.3396">
        <ele>227.1</ele>
        <time>2011-11-20T10:10:11Z</time>
      </trkpt>
      <trkpt lat="44.03215" lon="4.3395">
        <ele>227.1</ele>
        <time>2011-11-20T10:10:13Z</time>
      </trkpt>
      <trkpt lat="44.03212" lon="4.33941">
        <ele>227.2</ele>
        <time>2011-11-20T10:10:15Z</time>
      </trkpt>
      <trkpt lat="44.03209" lon="4.33933">
        <ele>227.5</ele>
        <time>2011-11-20T10:10:17Z</time>
      </trkpt>
      <trkpt lat="44.03206" lon="4.33925">
        <ele>227.7</ele>
        <time>2011-11-20T10:10:19Z</time>
      </trkpt>
      <trkpt lat="44.03203" lon="4.33919">
        <ele>227.9</ele>
        <time>2011-11-20T10:10:21Z</time>
      </trkpt>
      <trkpt lat="44.03198" lon="4.33913">
        <ele>227.7</ele>
        <time>2011-11-20T10:10:23Z</time>
      </trkpt>
      <trkpt lat="44.03193" lon="4.33907">
        <ele>227.7</ele>
        <time>2011-11-20T10:10:25Z</time>
      </trkpt>
      <trkpt lat="44.03188" lon="4.33901">
        <ele>227.7</ele>
        <time>2011-11-20T10:10:27Z</time>
      </trkpt>
      <trkpt lat="44.03183" lon="4.33896">
        <ele>227.8</ele>
        <time>2011-11-20T10:10:29Z</time>
      </trkpt>
      <trkpt lat="44.03181" lon="4.33889">
        <ele>227.9</ele>
        <time>2011-11-20T10:10:31Z</time>
      </trkpt>
      <trkpt lat="44.03181" lon="4.33882">
        <ele>227.8</ele>
        <time>2011-11-20T10:10:33Z</time>
      </trkpt>
      <trkpt lat="44.03182" lon="4.33873">
        <ele>227.8</ele>
        <time>2011-11-20T10:10:35Z</time>
      </trkpt>
      <trkpt lat="44.03182" lon="4.33863">
        <ele>227.7</ele>
        <time>2011-11-20T10:10:37Z</time>
      </trkpt>
      <trkpt lat="44.03181" lon="4.33855">
        <ele>227.7</ele>
        <time>2011-11-20T10:10:38Z</time>
      </trkpt>
      <trkpt lat="44.0318" lon="4.33848">
        <ele>227.6</ele>
        <time>2011-11-20T10:10:39Z</time>
      </trkpt>
      <trkpt lat="44.03178" lon="4.33839">
        <ele>227.8</ele>
        <time>2011-11-20T10:10:40Z</time>
      </trkpt>
      <trkpt lat="44.03176" lon="4.33831">
        <ele>227.9</ele>
        <time>2011-11-20T10:10:41Z</time>
      </trkpt>
      <trkpt lat="44.03175" lon="4.33824">
        <ele>227.9</ele>
        <time>2011-11-20T10:10:42Z</time>
      </trkpt>
      <trkpt lat="44.03173" lon="4.33816">
        <ele>227.8</ele>
        <time>2011-11-20T10:10:43Z</time>
      </trkpt>
      <trkpt lat="44.03172" lon="4.33808">
        <ele>227.9</ele>
        <time>2011-11-20T10:10:44Z</time>
      </trkpt>
      <trkpt lat="44.0317" lon="4.33801">
        <ele>227.8</ele>
        <time>2011-11-20T10:10:45Z</time>
      </trkpt>
      <trkpt lat="44.03168" lon="4.33794">
        <ele>227.7</ele>
        <time>2011-11-20T10:10:46Z</time>
      </trkpt>
      <trkpt lat="44.03166" lon="4.33787">
        <ele>227.6</ele>
        <time>2011-11-20T10:10:47Z</time>
      </trkpt>
      <trkpt lat="44.03164" lon="4.3378">
        <ele>227.5</ele>
        <time>2011-11-20T10:10:48Z</time>
      </trkpt>
      <trkpt lat="44.03162" lon="4.33774">
        <ele>227.3</ele>
        <time>2011-11-20T10:10:49Z</time>
      </trkpt>
      <trkpt lat="44.0316" lon="4.33767">
        <ele>227.1</ele>
        <time>2011-11-20T10:10:50Z</time>
      </trkpt>
      <trkpt lat="44.03157" lon="4.3376">
        <ele>227</ele>
        <time>2011-11-20T10:10:51Z</time>
      </trkpt>
      <trkpt lat="44.03154" lon="4.33752">
        <ele>227.1</ele>
        <time>2011-11-20T10:10:52Z</time>
      </trkpt>
      <trkpt lat="44.03151" lon="4.33745">
        <ele>227.2</ele>
        <time>2011-11-20T10:10:53Z</time>
      </trkpt>
      <trkpt lat="44.03148" lon="4.33737">
        <ele>227.2</ele>
        <time>2011-11-20T10:10:54Z</time>
      </trkpt>
      <trkpt lat="44.03145" lon="4.3373">
        <ele>227.2</ele>
        <time>2011-11-20T10:10:55Z</time>
      </trkpt>
      <trkpt lat="44.03143" lon="4.33723">
        <ele>227.2</ele>
        <time>2011-11-20T10:10:56Z</time>
      </trkpt>
      <trkpt lat="44.0314" lon="4.33716">
        <ele>227.1</ele>
        <time>2011-11-20T10:10:57Z</time>
      </trkpt>
      <trkpt lat="44.03139" lon="4.33709">
        <ele>227.1</ele>
        <time>2011-11-20T10:10:58Z</time>
      </trkpt>
      <trkpt lat="44.03137" lon="4.33702">
        <ele>227.3</ele>
        <time>2011-11-20T10:10:59Z</time>
      </trkpt>
      <trkpt lat="44.03135" lon="4.33696">
        <ele>227.2</ele>
        <time>2011-11-20T10:11:00Z</time>
      </trkpt>
      <trkpt lat="44.03134" lon="4.3369">
        <ele>227</ele>
        <time>2011-11-20T10:11:01Z</time>
      </trkpt>
      <trkpt lat="44.0313" lon="4.33678">
        <ele>226.9</ele>
        <time>2011-11-20T10:11:03Z</time>
      </trkpt>
      <trkpt lat="44.03128" lon="4.33672">
        <ele>226.7</ele>
        <time>2011-11-20T10:11:04Z</time>
      </trkpt>
      <trkpt lat="44.03127" lon="4.33662">
        <ele>226.7</ele>
        <time>2011-11-20T10:11:06Z</time>
      </trkpt>
      <trkpt lat="44.03126" lon="4.33653">
        <ele>227</ele>
        <time>2011-11-20T10:11:08Z</time>
      </trkpt>
      <trkpt lat="44.03129" lon="4.33657">
        <ele>227.1</ele>
        <time>2011-11-20T10:11:42Z</time>
      </trkpt>
      <trkpt lat="44.03134" lon="4.33651">
        <ele>227.6</ele>
        <time>2011-11-20T10:11:47Z</time>
      </trkpt>
      <trkpt lat="44.03136" lon="4.33646">
        <ele>227.5</ele>
        <time>2011-11-20T10:11:49Z</time>
      </trkpt>
      <trkpt lat="44.03141" lon="4.33641">
        <ele>227.3</ele>
        <time>2011-11-20T10:11:51Z</time>
      </trkpt>
      <trkpt lat="44.03147" lon="4.33638">
        <ele>227.6</ele>
        <time>2011-11-20T10:11:53Z</time>
      </trkpt>
      <trkpt lat="44.03155" lon="4.33637">
        <ele>227.6</ele>
        <time>2011-11-20T10:11:55Z</time>
      </trkpt>
      <trkpt lat="44.03163" lon="4.33632">
        <ele>227.5</ele>
        <time>2011-11-20T10:11:57Z</time>
      </trkpt>
      <trkpt lat="44.03167" lon="4.33629">
        <ele>227.5</ele>
        <time>2011-11-20T10:11:58Z</time>
      </trkpt>
      <trkpt lat="44.0317" lon="4.33625">
        <ele>227.6</ele>
        <time>2011-11-20T10:11:59Z</time>
      </trkpt>
      <trkpt lat="44.03175" lon="4.33614">
        <ele>227.6</ele>
        <time>2011-11-20T10:12:01Z</time>
      </trkpt>
      <trkpt lat="44.03177" lon="4.33608">
        <ele>227.7</ele>
        <time>2011-11-20T10:12:02Z</time>
      </trkpt>
      <trkpt lat="44.03179" lon="4.33597">
        <ele>227.8</ele>
        <time>2011-11-20T10:12:04Z</time>
      </trkpt>
      <trkpt lat="44.03179" lon="4.3359">
        <ele>228.2</ele>
        <time>2011-11-20T10:12:05Z</time>
      </trkpt>
      <trkpt lat="44.03179" lon="4.33584">
        <ele>228.2</ele>
        <time>2011-11-20T10:12:06Z</time>
      </trkpt>
      <trkpt lat="44.0318" lon="4.33573">
        <ele>227.9</ele>
        <time>2011-11-20T10:12:08Z</time>
      </trkpt>
      <trkpt lat="44.03184" lon="4.33563">
        <ele>227.4</ele>
        <time>2011-11-20T10:12:10Z</time>
      </trkpt>
      <trkpt lat="44.03189" lon="4.33556">
        <ele>227.1</ele>
        <time>2011-11-20T10:12:12Z</time>
      </trkpt>
      <trkpt lat="44.03193" lon="4.33553">
        <ele>227</ele>
        <time>2011-11-20T10:12:13Z</time>
      </trkpt>
      <trkpt lat="44.03199" lon="4.33551">
        <ele>226.7</ele>
        <time>2011-11-20T10:12:14Z</time>
      </trkpt>
      <trkpt lat="44.03204" lon="4.33549">
        <ele>226.3</ele>
        <time>2011-11-20T10:12:15Z</time>
      </trkpt>
      <trkpt lat="44.03208" lon="4.33547">
        <ele>226</ele>
        <time>2011-11-20T10:12:16Z</time>
      </trkpt>
      <trkpt lat="44.03214" lon="4.3354">
        <ele>225.7</ele>
        <time>2011-11-20T10:12:18Z</time>
      </trkpt>
      <trkpt lat="44.03219" lon="4.33536">
        <ele>225</ele>
        <time>2011-11-20T10:12:20Z</time>
      </trkpt>
      <trkpt lat="44.03224" lon="4.33533">
        <ele>222.8</ele>
        <time>2011-11-20T10:12:25Z</time>
      </trkpt>
      <trkpt lat="44.03225" lon="4.33526">
        <ele>220.4</ele>
        <time>2011-11-20T10:12:49Z</time>
      </trkpt>
      <trkpt lat="44.03224" lon="4.33519">
        <ele>220.2</ele>
        <time>2011-11-20T10:12:51Z</time>
      </trkpt>
      <trkpt lat="44.03222" lon="4.33512">
        <ele>220.1</ele>
        <time>2011-11-20T10:12:53Z</time>
      </trkpt>
      <trkpt lat="44.0322" lon="4.33504">
        <ele>219.8</ele>
        <time>2011-11-20T10:12:55Z</time>
      </trkpt>
      <trkpt lat="44.03216" lon="4.33494">
        <ele>219.6</ele>
        <time>2011-11-20T10:12:57Z</time>
      </trkpt>
      <trkpt lat="44.03214" lon="4.33484">
        <ele>219.5</ele>
        <time>2011-11-20T10:12:59Z</time>
      </trkpt>
      <trkpt lat="44.0321" lon="4.33476">
        <ele>219.4</ele>
        <time>2011-11-20T10:13:01Z</time>
      </trkpt>
      <trkpt lat="44.03207" lon="4.33469">
        <ele>219.2</ele>
        <time>2011-11-20T10:13:03Z</time>
      </trkpt>
      <trkpt lat="44.03203" lon="4.33463">
        <ele>219.1</ele>
        <time>2011-11-20T10:13:05Z</time>
      </trkpt>
      <trkpt lat="44.03199" lon="4.33457">
        <ele>218.8</ele>
        <time>2011-11-20T10:13:07Z</time>
      </trkpt>
      <trkpt lat="44.03195" lon="4.33454">
        <ele>218.9</ele>
        <time>2011-11-20T10:13:10Z</time>
      </trkpt>
      <trkpt lat="44.03193" lon="4.33448">
        <ele>218.8</ele>
        <time>2011-11-20T10:13:13Z</time>
      </trkpt>
      <trkpt lat="44.03193" lon="4.3344">
        <ele>218.8</ele>
        <time>2011-11-20T10:13:16Z</time>
      </trkpt>
      <trkpt lat="44.03192" lon="4.33432">
        <ele>218.7</ele>
        <time>2011-11-20T10:13:18Z</time>
      </trkpt>
      <trkpt lat="44.0319" lon="4.33421">
        <ele>219</ele>
        <time>2011-11-20T10:13:20Z</time>
      </trkpt>
      <trkpt lat="44.03189" lon="4.3341">
        <ele>219.2</ele>
        <time>2011-11-20T10:13:22Z</time>
      </trkpt>
      <trkpt lat="44.03188" lon="4.33398">
        <ele>219.1</ele>
        <time>2011-11-20T10:13:24Z</time>
      </trkpt>
      <trkpt lat="44.03187" lon="4.33391">
        <ele>219.1</ele>
        <time>2011-11-20T10:13:25Z</time>
      </trkpt>
      <trkpt lat="44.03187" lon="4.33384">
        <ele>219</ele>
        <time>2011-11-20T10:13:26Z</time>
      </trkpt>
      <trkpt lat="44.03187" lon="4.33378">
        <ele>219</ele>
        <time>2011-11-20T10:13:27Z</time>
      </trkpt>
      <trkpt lat="44.03188" lon="4.33371">
        <ele>218.9</ele>
        <time>2011-11-20T10:13:28Z</time>
      </trkpt>
      <trkpt lat="44.03187" lon="4.33364">
        <ele>218.7</ele>
        <time>2011-11-20T10:13:29Z</time>
      </trkpt>
      <trkpt lat="44.03187" lon="4.33356">
        <ele>218.6</ele>
        <time>2011-11-20T10:13:30Z</time>
      </trkpt>
      <trkpt lat="44.03186" lon="4.33349">
        <ele>218.7</ele>
        <time>2011-11-20T10:13:31Z</time>
      </trkpt>
      <trkpt lat="44.03185" lon="4.33342">
        <ele>218.5</ele>
        <time>2011-11-20T10:13:32Z</time>
      </trkpt>
      <trkpt lat="44.03184" lon="4.33334">
        <ele>218.5</ele>
        <time>2011-11-20T10:13:33Z</time>
      </trkpt>
      <trkpt lat="44.03183" lon="4.33327">
        <ele>218.6</ele>
        <time>2011-11-20T10:13:34Z</time>
      </trkpt>
      <trkpt lat="44.03182" lon="4.33319">
        <ele>218.6</ele>
        <time>2011-11-20T10:13:35Z</time>
      </trkpt>
      <trkpt lat="44.03181" lon="4.33311">
        <ele>218.5</ele>
        <time>2011-11-20T10:13:36Z</time>
      </trkpt>
      <trkpt lat="44.0318" lon="4.33304">
        <ele>218.4</ele>
        <time>2011-11-20T10:13:37Z</time>
      </trkpt>
      <trkpt lat="44.03179" lon="4.33296">
        <ele>218</ele>
        <time>2011-11-20T10:13:38Z</time>
      </trkpt>
      <trkpt lat="44.03178" lon="4.33288">
        <ele>217.7</ele>
        <time>2011-11-20T10:13:39Z</time>
      </trkpt>
      <trkpt lat="44.03178" lon="4.33279">
        <ele>217.8</ele>
        <time>2011-11-20T10:13:40Z</time>
      </trkpt>
      <trkpt lat="44.03178" lon="4.33271">
        <ele>217.8</ele>
        <time>2011-11-20T10:13:41Z</time>
      </trkpt>
      <trkpt lat="44.03177" lon="4.33263">
        <ele>217.6</ele>
        <time>2011-11-20T10:13:42Z</time>
      </trkpt>
      <trkpt lat="44.03177" lon="4.33255">
        <ele>217.7</ele>
        <time>2011-11-20T10:13:43Z</time>
      </trkpt>
      <trkpt lat="44.03176" lon="4.33247">
        <ele>218</ele>
        <time>2011-11-20T10:13:44Z</time>
      </trkpt>
      <trkpt lat="44.03175" lon="4.33239">
        <ele>217.8</ele>
        <time>2011-11-20T10:13:45Z</time>
      </trkpt>
      <trkpt lat="44.03174" lon="4.33231">
        <ele>217.3</ele>
        <time>2011-11-20T10:13:46Z</time>
      </trkpt>
      <trkpt lat="44.03173" lon="4.33223">
        <ele>217.1</ele>
        <time>2011-11-20T10:13:47Z</time>
      </trkpt>
      <trkpt lat="44.03173" lon="4.33215">
        <ele>216.8</ele>
        <time>2011-11-20T10:13:48Z</time>
      </trkpt>
      <trkpt lat="44.03173" lon="4.33207">
        <ele>216.9</ele>
        <time>2011-11-20T10:13:49Z</time>
      </trkpt>
      <trkpt lat="44.03173" lon="4.33199">
        <ele>216.9</ele>
        <time>2011-11-20T10:13:50Z</time>
      </trkpt>
      <trkpt lat="44.03173" lon="4.33191">
        <ele>216.5</ele>
        <time>2011-11-20T10:13:51Z</time>
      </trkpt>
      <trkpt lat="44.03173" lon="4.33184">
        <ele>216.3</ele>
        <time>2011-11-20T10:13:52Z</time>
      </trkpt>
      <trkpt lat="44.03173" lon="4.33177">
        <ele>216.3</ele>
        <time>2011-11-20T10:13:53Z</time>
      </trkpt>
      <trkpt lat="44.03174" lon="4.33171">
        <ele>216.1</ele>
        <time>2011-11-20T10:13:54Z</time>
      </trkpt>
      <trkpt lat="44.03174" lon="4.33159">
        <ele>215.7</ele>
        <time>2011-11-20T10:13:56Z</time>
      </trkpt>
      <trkpt lat="44.03174" lon="4.33149">
        <ele>215.4</ele>
        <time>2011-11-20T10:13:58Z</time>
      </trkpt>
      <trkpt lat="44.03175" lon="4.33139">
        <ele>215.2</ele>
        <time>2011-11-20T10:14:00Z</time>
      </trkpt>
      <trkpt lat="44.03176" lon="4.33129">
        <ele>214.9</ele>
        <time>2011-11-20T10:14:02Z</time>
      </trkpt>
      <trkpt lat="44.03176" lon="4.33117">
        <ele>214.9</ele>
        <time>2011-11-20T10:14:04Z</time>
      </trkpt>
      <trkpt lat="44.03178" lon="4.33106">
        <ele>215</ele>
        <time>2011-11-20T10:14:06Z</time>
      </trkpt>
      <trkpt lat="44.0318" lon="4.33096">
        <ele>215.2</ele>
        <time>2011-11-20T10:14:08Z</time>
      </trkpt>
      <trkpt lat="44.03185" lon="4.33087">
        <ele>215.5</ele>
        <time>2011-11-20T10:14:10Z</time>
      </trkpt>
      <trkpt lat="44.0319" lon="4.33079">
        <ele>215.4</ele>
        <time>2011-11-20T10:14:12Z</time>
      </trkpt>
      <trkpt lat="44.03194" lon="4.33071">
        <ele>215.3</ele>
        <time>2011-11-20T10:14:14Z</time>
      </trkpt>
      <trkpt lat="44.03199" lon="4.33064">
        <ele>215</ele>
        <time>2011-11-20T10:14:16Z</time>
      </trkpt>
      <trkpt lat="44.03202" lon="4.33058">
        <ele>214.8</ele>
        <time>2011-11-20T10:14:21Z</time>
      </trkpt>
      <trkpt lat="44.03205" lon="4.33054">
        <ele>214</ele>
        <time>2011-11-20T10:14:25Z</time>
      </trkpt>
      <trkpt lat="44.03202" lon="4.33059">
        <ele>213.9</ele>
        <time>2011-11-20T10:14:47Z</time>
      </trkpt>
      <trkpt lat="44.03197" lon="4.33055">
        <ele>213.9</ele>
        <time>2011-11-20T10:14:50Z</time>
      </trkpt>
      <trkpt lat="44.03193" lon="4.3305">
        <ele>213.8</ele>
        <time>2011-11-20T10:14:54Z</time>
      </trkpt>
      <trkpt lat="44.03188" lon="4.33045">
        <ele>213.8</ele>
        <time>2011-11-20T10:14:59Z</time>
      </trkpt>
      <trkpt lat="44.03184" lon="4.3304">
        <ele>214</ele>
        <time>2011-11-20T10:15:03Z</time>
      </trkpt>
      <trkpt lat="44.0318" lon="4.33034">
        <ele>213.9</ele>
        <time>2011-11-20T10:15:07Z</time>
      </trkpt>
      <trkpt lat="44.03177" lon="4.33027">
        <ele>214.1</ele>
        <time>2011-11-20T10:15:11Z</time>
      </trkpt>
      <trkpt lat="44.03174" lon="4.33021">
        <ele>214.3</ele>
        <time>2011-11-20T10:15:14Z</time>
      </trkpt>
      <trkpt lat="44.0317" lon="4.33015">
        <ele>214.5</ele>
        <time>2011-11-20T10:15:17Z</time>
      </trkpt>
      <trkpt lat="44.03166" lon="4.33011">
        <ele>214.6</ele>
        <time>2011-11-20T10:15:19Z</time>
      </trkpt>
      <trkpt lat="44.0316" lon="4.33005">
        <ele>214.5</ele>
        <time>2011-11-20T10:15:22Z</time>
      </trkpt>
      <trkpt lat="44.03157" lon="4.32999">
        <ele>214.5</ele>
        <time>2011-11-20T10:15:24Z</time>
      </trkpt>
      <trkpt lat="44.03153" lon="4.32993">
        <ele>214.4</ele>
        <time>2011-11-20T10:15:26Z</time>
      </trkpt>
      <trkpt lat="44.0315" lon="4.32986">
        <ele>214.4</ele>
        <time>2011-11-20T10:15:28Z</time>
      </trkpt>
      <trkpt lat="44.03146" lon="4.3298">
        <ele>214.4</ele>
        <time>2011-11-20T10:15:30Z</time>
      </trkpt>
      <trkpt lat="44.03142" lon="4.32974">
        <ele>214.4</ele>
        <time>2011-11-20T10:15:32Z</time>
      </trkpt>
      <trkpt lat="44.03138" lon="4.32968">
        <ele>214.5</ele>
        <time>2011-11-20T10:15:34Z</time>
      </trkpt>
      <trkpt lat="44.03134" lon="4.32961">
        <ele>214.5</ele>
        <time>2011-11-20T10:15:36Z</time>
      </trkpt>
      <trkpt lat="44.03131" lon="4.32955">
        <ele>214.6</ele>
        <time>2011-11-20T10:15:38Z</time>
      </trkpt>
      <trkpt lat="44.03127" lon="4.32949">
        <ele>214.7</ele>
        <time>2011-11-20T10:15:40Z</time>
      </trkpt>
      <trkpt lat="44.03122" lon="4.32943">
        <ele>214.7</ele>
        <time>2011-11-20T10:15:42Z</time>
      </trkpt>
      <trkpt lat="44.03118" lon="4.32936">
        <ele>214.6</ele>
        <time>2011-11-20T10:15:44Z</time>
      </trkpt>
      <trkpt lat="44.03114" lon="4.3293">
        <ele>214.6</ele>
        <time>2011-11-20T10:15:46Z</time>
      </trkpt>
      <trkpt lat="44.0311" lon="4.32922">
        <ele>214.6</ele>
        <time>2011-11-20T10:15:48Z</time>
      </trkpt>
      <trkpt lat="44.03106" lon="4.32916">
        <ele>214.6</ele>
        <time>2011-11-20T10:15:50Z</time>
      </trkpt>
      <trkpt lat="44.03101" lon="4.32908">
        <ele>214.7</ele>
        <time>2011-11-20T10:15:52Z</time>
      </trkpt>
      <trkpt lat="44.03096" lon="4.329">
        <ele>214.6</ele>
        <time>2011-11-20T10:15:54Z</time>
      </trkpt>
      <trkpt lat="44.03092" lon="4.32893">
        <ele>214.5</ele>
        <time>2011-11-20T10:15:56Z</time>
      </trkpt>
      <trkpt lat="44.03087" lon="4.32886">
        <ele>214.4</ele>
        <time>2011-11-20T10:15:58Z</time>
      </trkpt>
      <trkpt lat="44.03082" lon="4.32879">
        <ele>214.3</ele>
        <time>2011-11-20T10:16:00Z</time>
      </trkpt>
      <trkpt lat="44.03076" lon="4.32872">
        <ele>214.2</ele>
        <time>2011-11-20T10:16:02Z</time>
      </trkpt>
      <trkpt lat="44.0307" lon="4.32865">
        <ele>214</ele>
        <time>2011-11-20T10:16:04Z</time>
      </trkpt>
      <trkpt lat="44.03064" lon="4.32859">
        <ele>213.9</ele>
        <time>2011-11-20T10:16:06Z</time>
      </trkpt>
      <trkpt lat="44.03057" lon="4.32852">
        <ele>213.8</ele>
        <time>2011-11-20T10:16:08Z</time>
      </trkpt>
      <trkpt lat="44.03051" lon="4.32846">
        <ele>213.6</ele>
        <time>2011-11-20T10:16:10Z</time>
      </trkpt>
      <trkpt lat="44.03044" lon="4.32839">
        <ele>213.4</ele>
        <time>2011-11-20T10:16:12Z</time>
      </trkpt>
      <trkpt lat="44.03038" lon="4.32833">
        <ele>213.2</ele>
        <time>2011-11-20T10:16:14Z</time>
      </trkpt>
      <trkpt lat="44.03031" lon="4.32826">
        <ele>213.1</ele>
        <time>2011-11-20T10:16:16Z</time>
      </trkpt>
      <trkpt lat="44.03024" lon="4.3282">
        <ele>212.9</ele>
        <time>2011-11-20T10:16:18Z</time>
      </trkpt>
      <trkpt lat="44.03018" lon="4.32813">
        <ele>212.7</ele>
        <time>2011-11-20T10:16:20Z</time>
      </trkpt>
      <trkpt lat="44.03011" lon="4.32806">
        <ele>212.4</ele>
        <time>2011-11-20T10:16:22Z</time>
      </trkpt>
      <trkpt lat="44.03005" lon="4.328">
        <ele>212.1</ele>
        <time>2011-11-20T10:16:24Z</time>
      </trkpt>
      <trkpt lat="44.02998" lon="4.32793">
        <ele>211.9</ele>
        <time>2011-11-20T10:16:26Z</time>
      </trkpt>
      <trkpt lat="44.02994" lon="4.32785">
        <ele>212</ele>
        <time>2011-11-20T10:16:28Z</time>
      </trkpt>
      <trkpt lat="44.02989" lon="4.32779">
        <ele>212.1</ele>
        <time>2011-11-20T10:16:30Z</time>
      </trkpt>
      <trkpt lat="44.02984" lon="4.32773">
        <ele>212.1</ele>
        <time>2011-11-20T10:16:32Z</time>
      </trkpt>
      <trkpt lat="44.02979" lon="4.32768">
        <ele>211.9</ele>
        <time>2011-11-20T10:16:34Z</time>
      </trkpt>
      <trkpt lat="44.02973" lon="4.32762">
        <ele>211.8</ele>
        <time>2011-11-20T10:16:36Z</time>
      </trkpt>
      <trkpt lat="44.02967" lon="4.32755">
        <ele>211.6</ele>
        <time>2011-11-20T10:16:38Z</time>
      </trkpt>
      <trkpt lat="44.0296" lon="4.32749">
        <ele>211.6</ele>
        <time>2011-11-20T10:16:40Z</time>
      </trkpt>
      <trkpt lat="44.02953" lon="4.32744">
        <ele>211.6</ele>
        <time>2011-11-20T10:16:42Z</time>
      </trkpt>
      <trkpt lat="44.02947" lon="4.32739">
        <ele>211.4</ele>
        <time>2011-11-20T10:16:44Z</time>
      </trkpt>
      <trkpt lat="44.0294" lon="4.32736">
        <ele>211.2</ele>
        <time>2011-11-20T10:16:46Z</time>
      </trkpt>
      <trkpt lat="44.02933" lon="4.32733">
        <ele>211.3</ele>
        <time>2011-11-20T10:16:48Z</time>
      </trkpt>
      <trkpt lat="44.02926" lon="4.32729">
        <ele>211.3</ele>
        <time>2011-11-20T10:16:50Z</time>
      </trkpt>
      <trkpt lat="44.02919" lon="4.32726">
        <ele>211.3</ele>
        <time>2011-11-20T10:16:52Z</time>
      </trkpt>
      <trkpt lat="44.02911" lon="4.32723">
        <ele>211.1</ele>
        <time>2011-11-20T10:16:54Z</time>
      </trkpt>
      <trkpt lat="44.02904" lon="4.32721">
        <ele>210.5</ele>
        <time>2011-11-20T10:16:56Z</time>
      </trkpt>
      <trkpt lat="44.02897" lon="4.32719">
        <ele>209.8</ele>
        <time>2011-11-20T10:16:58Z</time>
      </trkpt>
      <trkpt lat="44.0289" lon="4.32717">
        <ele>209.6</ele>
        <time>2011-11-20T10:17:00Z</time>
      </trkpt>
      <trkpt lat="44.02883" lon="4.32714">
        <ele>209.3</ele>
        <time>2011-11-20T10:17:02Z</time>
      </trkpt>
      <trkpt lat="44.02877" lon="4.32713">
        <ele>209.1</ele>
        <time>2011-11-20T10:17:04Z</time>
      </trkpt>
      <trkpt lat="44.0287" lon="4.32711">
        <ele>208.6</ele>
        <time>2011-11-20T10:17:06Z</time>
      </trkpt>
      <trkpt lat="44.02861" lon="4.32708">
        <ele>208.4</ele>
        <time>2011-11-20T10:17:08Z</time>
      </trkpt>
      <trkpt lat="44.02857" lon="4.32706">
        <ele>208.3</ele>
        <time>2011-11-20T10:17:09Z</time>
      </trkpt>
      <trkpt lat="44.02852" lon="4.32704">
        <ele>208.2</ele>
        <time>2011-11-20T10:17:10Z</time>
      </trkpt>
      <trkpt lat="44.02848" lon="4.32702">
        <ele>208</ele>
        <time>2011-11-20T10:17:11Z</time>
      </trkpt>
      <trkpt lat="44.02843" lon="4.327">
        <ele>208</ele>
        <time>2011-11-20T10:17:12Z</time>
      </trkpt>
      <trkpt lat="44.02839" lon="4.32698">
        <ele>208.1</ele>
        <time>2011-11-20T10:17:13Z</time>
      </trkpt>
      <trkpt lat="44.02834" lon="4.32696">
        <ele>207.9</ele>
        <time>2011-11-20T10:17:14Z</time>
      </trkpt>
      <trkpt lat="44.02829" lon="4.32694">
        <ele>207.8</ele>
        <time>2011-11-20T10:17:15Z</time>
      </trkpt>
      <trkpt lat="44.02825" lon="4.32692">
        <ele>207.7</ele>
        <time>2011-11-20T10:17:16Z</time>
      </trkpt>
      <trkpt lat="44.0282" lon="4.32691">
        <ele>207.8</ele>
        <time>2011-11-20T10:17:17Z</time>
      </trkpt>
      <trkpt lat="44.02815" lon="4.32689">
        <ele>207.7</ele>
        <time>2011-11-20T10:17:18Z</time>
      </trkpt>
      <trkpt lat="44.0281" lon="4.32687">
        <ele>207.5</ele>
        <time>2011-11-20T10:17:19Z</time>
      </trkpt>
      <trkpt lat="44.02806" lon="4.32686">
        <ele>207.4</ele>
        <time>2011-11-20T10:17:20Z</time>
      </trkpt>
      <trkpt lat="44.02801" lon="4.32684">
        <ele>207.5</ele>
        <time>2011-11-20T10:17:21Z</time>
      </trkpt>
      <trkpt lat="44.02797" lon="4.32682">
        <ele>207.5</ele>
        <time>2011-11-20T10:17:22Z</time>
      </trkpt>
      <trkpt lat="44.02788" lon="4.32679">
        <ele>207.6</ele>
        <time>2011-11-20T10:17:24Z</time>
      </trkpt>
      <trkpt lat="44.0278" lon="4.32675">
        <ele>207.4</ele>
        <time>2011-11-20T10:17:26Z</time>
      </trkpt>
      <trkpt lat="44.02771" lon="4.32672">
        <ele>207.4</ele>
        <time>2011-11-20T10:17:28Z</time>
      </trkpt>
      <trkpt lat="44.02763" lon="4.32671">
        <ele>207.4</ele>
        <time>2011-11-20T10:17:30Z</time>
      </trkpt>
      <trkpt lat="44.02754" lon="4.3267">
        <ele>207.5</ele>
        <time>2011-11-20T10:17:32Z</time>
      </trkpt>
      <trkpt lat="44.02746" lon="4.32669">
        <ele>207.5</ele>
        <time>2011-11-20T10:17:34Z</time>
      </trkpt>
      <trkpt lat="44.02738" lon="4.32664">
        <ele>207.9</ele>
        <time>2011-11-20T10:17:36Z</time>
      </trkpt>
      <trkpt lat="44.02731" lon="4.32655">
        <ele>207.8</ele>
        <time>2011-11-20T10:17:38Z</time>
      </trkpt>
      <trkpt lat="44.02728" lon="4.32649">
        <ele>207.9</ele>
        <time>2011-11-20T10:17:39Z</time>
      </trkpt>
      <trkpt lat="44.02726" lon="4.32644">
        <ele>207.8</ele>
        <time>2011-11-20T10:17:40Z</time>
      </trkpt>
      <trkpt lat="44.02723" lon="4.32638">
        <ele>207.7</ele>
        <time>2011-11-20T10:17:41Z</time>
      </trkpt>
      <trkpt lat="44.0272" lon="4.32632">
        <ele>207.4</ele>
        <time>2011-11-20T10:17:42Z</time>
      </trkpt>
      <trkpt lat="44.02717" lon="4.32626">
        <ele>207.3</ele>
        <time>2011-11-20T10:17:43Z</time>
      </trkpt>
      <trkpt lat="44.02714" lon="4.3262">
        <ele>207.3</ele>
        <time>2011-11-20T10:17:44Z</time>
      </trkpt>
      <trkpt lat="44.02711" lon="4.32614">
        <ele>207.1</ele>
        <time>2011-11-20T10:17:45Z</time>
      </trkpt>
      <trkpt lat="44.02708" lon="4.32607">
        <ele>207.1</ele>
        <time>2011-11-20T10:17:46Z</time>
      </trkpt>
      <trkpt lat="44.02706" lon="4.326">
        <ele>207.1</ele>
        <time>2011-11-20T10:17:47Z</time>
      </trkpt>
      <trkpt lat="44.02704" lon="4.32594">
        <ele>207</ele>
        <time>2011-11-20T10:17:48Z</time>
      </trkpt>
      <trkpt lat="44.02702" lon="4.32587">
        <ele>206.9</ele>
        <time>2011-11-20T10:17:49Z</time>
      </trkpt>
      <trkpt lat="44.027" lon="4.32581">
        <ele>206.8</ele>
        <time>2011-11-20T10:17:50Z</time>
      </trkpt>
      <trkpt lat="44.02698" lon="4.32575">
        <ele>206.7</ele>
        <time>2011-11-20T10:17:51Z</time>
      </trkpt>
      <trkpt lat="44.02697" lon="4.32569">
        <ele>206.6</ele>
        <time>2011-11-20T10:17:52Z</time>
      </trkpt>
      <trkpt lat="44.02696" lon="4.32557">
        <ele>206.4</ele>
        <time>2011-11-20T10:17:54Z</time>
      </trkpt>
      <trkpt lat="44.02696" lon="4.32546">
        <ele>206.5</ele>
        <time>2011-11-20T10:17:56Z</time>
      </trkpt>
      <trkpt lat="44.02695" lon="4.32536">
        <ele>206.5</ele>
        <time>2011-11-20T10:17:58Z</time>
      </trkpt>
      <trkpt lat="44.02693" lon="4.32527">
        <ele>206.4</ele>
        <time>2011-11-20T10:18:00Z</time>
      </trkpt>
      <trkpt lat="44.02689" lon="4.32518">
        <ele>206.5</ele>
        <time>2011-11-20T10:18:02Z</time>
      </trkpt>
      <trkpt lat="44.02683" lon="4.32514">
        <ele>206.6</ele>
        <time>2011-11-20T10:18:04Z</time>
      </trkpt>
      <trkpt lat="44.02677" lon="4.3251">
        <ele>206.7</ele>
        <time>2011-11-20T10:18:06Z</time>
      </trkpt>
      <trkpt lat="44.02671" lon="4.32506">
        <ele>206.9</ele>
        <time>2011-11-20T10:18:08Z</time>
      </trkpt>
      <trkpt lat="44.02665" lon="4.32503">
        <ele>207</ele>
        <time>2011-11-20T10:18:10Z</time>
      </trkpt>
      <trkpt lat="44.0266" lon="4.32499">
        <ele>207.2</ele>
        <time>2011-11-20T10:18:12Z</time>
      </trkpt>
      <trkpt lat="44.02654" lon="4.32493">
        <ele>207.1</ele>
        <time>2011-11-20T10:18:14Z</time>
      </trkpt>
      <trkpt lat="44.02649" lon="4.32488">
        <ele>207</ele>
        <time>2011-11-20T10:18:16Z</time>
      </trkpt>
      <trkpt lat="44.02643" lon="4.32483">
        <ele>206.9</ele>
        <time>2011-11-20T10:18:18Z</time>
      </trkpt>
      <trkpt lat="44.02637" lon="4.32478">
        <ele>206.6</ele>
        <time>2011-11-20T10:18:20Z</time>
      </trkpt>
      <trkpt lat="44.0263" lon="4.32473">
        <ele>206.5</ele>
        <time>2011-11-20T10:18:22Z</time>
      </trkpt>
      <trkpt lat="44.02623" lon="4.32467">
        <ele>206.5</ele>
        <time>2011-11-20T10:18:24Z</time>
      </trkpt>
      <trkpt lat="44.02616" lon="4.3246">
        <ele>206.6</ele>
        <time>2011-11-20T10:18:26Z</time>
      </trkpt>
      <trkpt lat="44.02608" lon="4.32455">
        <ele>206.4</ele>
        <time>2011-11-20T10:18:28Z</time>
      </trkpt>
      <trkpt lat="44.026" lon="4.3245">
        <ele>206.1</ele>
        <time>2011-11-20T10:18:30Z</time>
      </trkpt>
      <trkpt lat="44.02596" lon="4.32446">
        <ele>206.1</ele>
        <time>2011-11-20T10:18:31Z</time>
      </trkpt>
      <trkpt lat="44.02592" lon="4.32444">
        <ele>206.1</ele>
        <time>2011-11-20T10:18:32Z</time>
      </trkpt>
      <trkpt lat="44.02588" lon="4.32441">
        <ele>205.8</ele>
        <time>2011-11-20T10:18:33Z</time>
      </trkpt>
      <trkpt lat="44.02584" lon="4.32438">
        <ele>205.6</ele>
        <time>2011-11-20T10:18:34Z</time>
      </trkpt>
      <trkpt lat="44.02576" lon="4.32431">
        <ele>205.6</ele>
        <time>2011-11-20T10:18:36Z</time>
      </trkpt>
      <trkpt lat="44.02568" lon="4.32425">
        <ele>205.5</ele>
        <time>2011-11-20T10:18:38Z</time>
      </trkpt>
      <trkpt lat="44.02564" lon="4.32422">
        <ele>205.4</ele>
        <time>2011-11-20T10:18:39Z</time>
      </trkpt>
      <trkpt lat="44.02559" lon="4.32419">
        <ele>205.3</ele>
        <time>2011-11-20T10:18:40Z</time>
      </trkpt>
      <trkpt lat="44.02555" lon="4.32416">
        <ele>205.4</ele>
        <time>2011-11-20T10:18:41Z</time>
      </trkpt>
      <trkpt lat="44.0255" lon="4.32412">
        <ele>205.3</ele>
        <time>2011-11-20T10:18:42Z</time>
      </trkpt>
      <trkpt lat="44.02545" lon="4.32409">
        <ele>205.2</ele>
        <time>2011-11-20T10:18:43Z</time>
      </trkpt>
      <trkpt lat="44.0254" lon="4.32406">
        <ele>205.2</ele>
        <time>2011-11-20T10:18:44Z</time>
      </trkpt>
      <trkpt lat="44.02535" lon="4.32402">
        <ele>205.3</ele>
        <time>2011-11-20T10:18:45Z</time>
      </trkpt>
      <trkpt lat="44.0253" lon="4.32399">
        <ele>205.2</ele>
        <time>2011-11-20T10:18:46Z</time>
      </trkpt>
      <trkpt lat="44.02524" lon="4.32395">
        <ele>205.2</ele>
        <time>2011-11-20T10:18:47Z</time>
      </trkpt>
      <trkpt lat="44.02519" lon="4.32392">
        <ele>205</ele>
        <time>2011-11-20T10:18:48Z</time>
      </trkpt>
      <trkpt lat="44.02513" lon="4.32388">
        <ele>205</ele>
        <time>2011-11-20T10:18:49Z</time>
      </trkpt>
      <trkpt lat="44.02507" lon="4.32385">
        <ele>205</ele>
        <time>2011-11-20T10:18:50Z</time>
      </trkpt>
      <trkpt lat="44.02502" lon="4.32382">
        <ele>204.9</ele>
        <time>2011-11-20T10:18:51Z</time>
      </trkpt>
      <trkpt lat="44.02496" lon="4.32379">
        <ele>205.1</ele>
        <time>2011-11-20T10:18:52Z</time>
      </trkpt>
      <trkpt lat="44.02491" lon="4.32377">
        <ele>205.2</ele>
        <time>2011-11-20T10:18:53Z</time>
      </trkpt>
      <trkpt lat="44.02486" lon="4.32375">
        <ele>205</ele>
        <time>2011-11-20T10:18:54Z</time>
      </trkpt>
      <trkpt lat="44.02482" lon="4.32373">
        <ele>204.9</ele>
        <time>2011-11-20T10:18:55Z</time>
      </trkpt>
      <trkpt lat="44.02473" lon="4.3237">
        <ele>204.5</ele>
        <time>2011-11-20T10:18:57Z</time>
      </trkpt>
      <trkpt lat="44.02468" lon="4.3237">
        <ele>204.4</ele>
        <time>2011-11-20T10:18:58Z</time>
      </trkpt>
      <trkpt lat="44.0246" lon="4.32369">
        <ele>204.5</ele>
        <time>2011-11-20T10:19:00Z</time>
      </trkpt>
      <trkpt lat="44.02452" lon="4.32368">
        <ele>204.6</ele>
        <time>2011-11-20T10:19:02Z</time>
      </trkpt>
      <trkpt lat="44.02444" lon="4.32368">
        <ele>204.8</ele>
        <time>2011-11-20T10:19:04Z</time>
      </trkpt>
      <trkpt lat="44.02438" lon="4.32368">
        <ele>204.8</ele>
        <time>2011-11-20T10:19:06Z</time>
      </trkpt>
      <trkpt lat="44.02433" lon="4.32371">
        <ele>205.2</ele>
        <time>2011-11-20T10:19:08Z</time>
      </trkpt>
      <trkpt lat="44.02428" lon="4.32374">
        <ele>205.5</ele>
        <time>2011-11-20T10:19:10Z</time>
      </trkpt>
      <trkpt lat="44.02422" lon="4.32376">
        <ele>206</ele>
        <time>2011-11-20T10:19:12Z</time>
      </trkpt>
      <trkpt lat="44.02415" lon="4.32382">
        <ele>206.3</ele>
        <time>2011-11-20T10:19:14Z</time>
      </trkpt>
      <trkpt lat="44.02411" lon="4.32384">
        <ele>206.4</ele>
        <time>2011-11-20T10:19:15Z</time>
      </trkpt>
      <trkpt lat="44.02407" lon="4.32387">
        <ele>206.7</ele>
        <time>2011-11-20T10:19:16Z</time>
      </trkpt>
      <trkpt lat="44.02402" lon="4.32391">
        <ele>206.7</ele>
        <time>2011-11-20T10:19:17Z</time>
      </trkpt>
      <trkpt lat="44.02398" lon="4.32394">
        <ele>206.8</ele>
        <time>2011-11-20T10:19:18Z</time>
      </trkpt>
      <trkpt lat="44.02393" lon="4.32398">
        <ele>206.8</ele>
        <time>2011-11-20T10:19:19Z</time>
      </trkpt>
      <trkpt lat="44.02388" lon="4.32402">
        <ele>207</ele>
        <time>2011-11-20T10:19:20Z</time>
      </trkpt>
      <trkpt lat="44.02384" lon="4.32406">
        <ele>207.1</ele>
        <time>2011-11-20T10:19:21Z</time>
      </trkpt>
      <trkpt lat="44.02379" lon="4.3241">
        <ele>207.1</ele>
        <time>2011-11-20T10:19:22Z</time>
      </trkpt>
      <trkpt lat="44.02374" lon="4.32415">
        <ele>207.1</ele>
        <time>2011-11-20T10:19:23Z</time>
      </trkpt>
      <trkpt lat="44.0237" lon="4.32419">
        <ele>207.1</ele>
        <time>2011-11-20T10:19:24Z</time>
      </trkpt>
      <trkpt lat="44.02366" lon="4.32424">
        <ele>207</ele>
        <time>2011-11-20T10:19:25Z</time>
      </trkpt>
      <trkpt lat="44.02362" lon="4.32429">
        <ele>207</ele>
        <time>2011-11-20T10:19:26Z</time>
      </trkpt>
      <trkpt lat="44.02358" lon="4.32434">
        <ele>207.2</ele>
        <time>2011-11-20T10:19:27Z</time>
      </trkpt>
      <trkpt lat="44.02354" lon="4.32439">
        <ele>207.3</ele>
        <time>2011-11-20T10:19:28Z</time>
      </trkpt>
      <trkpt lat="44.0235" lon="4.32444">
        <ele>207.3</ele>
        <time>2011-11-20T10:19:29Z</time>
      </trkpt>
      <trkpt lat="44.02347" lon="4.32448">
        <ele>207.3</ele>
        <time>2011-11-20T10:19:30Z</time>
      </trkpt>
      <trkpt lat="44.02341" lon="4.32456">
        <ele>207</ele>
        <time>2011-11-20T10:19:32Z</time>
      </trkpt>
      <trkpt lat="44.02335" lon="4.32463">
        <ele>207</ele>
        <time>2011-11-20T10:19:34Z</time>
      </trkpt>
      <trkpt lat="44.02331" lon="4.32471">
        <ele>207</ele>
        <time>2011-11-20T10:19:36Z</time>
      </trkpt>
      <trkpt lat="44.02326" lon="4.32477">
        <ele>206.8</ele>
        <time>2011-11-20T10:19:38Z</time>
      </trkpt>
      <trkpt lat="44.02322" lon="4.32482">
        <ele>206.4</ele>
        <time>2011-11-20T10:19:40Z</time>
      </trkpt>
      <trkpt lat="44.02317" lon="4.32482">
        <ele>206.3</ele>
        <time>2011-11-20T10:19:42Z</time>
      </trkpt>
      <trkpt lat="44.02313" lon="4.3248">
        <ele>206.5</ele>
        <time>2011-11-20T10:19:44Z</time>
      </trkpt>
      <trkpt lat="44.02315" lon="4.32472">
        <ele>205.6</ele>
        <time>2011-11-20T10:19:48Z</time>
      </trkpt>
      <trkpt lat="44.02314" lon="4.32464">
        <ele>205</ele>
        <time>2011-11-20T10:19:50Z</time>
      </trkpt>
      <trkpt lat="44.02313" lon="4.32457">
        <ele>204.3</ele>
        <time>2011-11-20T10:19:52Z</time>
      </trkpt>
      <trkpt lat="44.02307" lon="4.32449">
        <ele>204.5</ele>
        <time>2011-11-20T10:19:54Z</time>
      </trkpt>
      <trkpt lat="44.023" lon="4.32444">
        <ele>204.3</ele>
        <time>2011-11-20T10:19:56Z</time>
      </trkpt>
      <trkpt lat="44.02289" lon="4.32439">
        <ele>204.1</ele>
        <time>2011-11-20T10:19:58Z</time>
      </trkpt>
      <trkpt lat="44.02283" lon="4.32436">
        <ele>203.7</ele>
        <time>2011-11-20T10:20:00Z</time>
      </trkpt>
      <trkpt lat="44.02276" lon="4.32433">
        <ele>203.3</ele>
        <time>2011-11-20T10:20:02Z</time>
      </trkpt>
      <trkpt lat="44.02269" lon="4.32431">
        <ele>202.9</ele>
        <time>2011-11-20T10:20:04Z</time>
      </trkpt>
      <trkpt lat="44.02263" lon="4.3243">
        <ele>202.5</ele>
        <time>2011-11-20T10:20:06Z</time>
      </trkpt>
      <trkpt lat="44.02257" lon="4.32428">
        <ele>202</ele>
        <time>2011-11-20T10:20:08Z</time>
      </trkpt>
      <trkpt lat="44.02251" lon="4.32427">
        <ele>201.5</ele>
        <time>2011-11-20T10:20:10Z</time>
      </trkpt>
      <trkpt lat="44.02244" lon="4.32426">
        <ele>201.1</ele>
        <time>2011-11-20T10:20:12Z</time>
      </trkpt>
      <trkpt lat="44.02237" lon="4.32425">
        <ele>200.6</ele>
        <time>2011-11-20T10:20:14Z</time>
      </trkpt>
      <trkpt lat="44.0223" lon="4.32424">
        <ele>200.3</ele>
        <time>2011-11-20T10:20:16Z</time>
      </trkpt>
      <trkpt lat="44.02223" lon="4.32424">
        <ele>200.3</ele>
        <time>2011-11-20T10:20:18Z</time>
      </trkpt>
      <trkpt lat="44.02216" lon="4.32425">
        <ele>200.3</ele>
        <time>2011-11-20T10:20:20Z</time>
      </trkpt>
      <trkpt lat="44.02209" lon="4.32426">
        <ele>200.3</ele>
        <time>2011-11-20T10:20:22Z</time>
      </trkpt>
      <trkpt lat="44.02202" lon="4.32428">
        <ele>200.1</ele>
        <time>2011-11-20T10:20:24Z</time>
      </trkpt>
      <trkpt lat="44.02195" lon="4.32429">
        <ele>200</ele>
        <time>2011-11-20T10:20:26Z</time>
      </trkpt>
      <trkpt lat="44.02189" lon="4.3243">
        <ele>199.9</ele>
        <time>2011-11-20T10:20:28Z</time>
      </trkpt>
      <trkpt lat="44.02182" lon="4.32431">
        <ele>199.6</ele>
        <time>2011-11-20T10:20:30Z</time>
      </trkpt>
      <trkpt lat="44.02176" lon="4.32431">
        <ele>199.1</ele>
        <time>2011-11-20T10:20:32Z</time>
      </trkpt>
      <trkpt lat="44.0217" lon="4.32431">
        <ele>198.9</ele>
        <time>2011-11-20T10:20:34Z</time>
      </trkpt>
      <trkpt lat="44.02164" lon="4.32431">
        <ele>198.7</ele>
        <time>2011-11-20T10:20:36Z</time>
      </trkpt>
      <trkpt lat="44.02158" lon="4.3243">
        <ele>198.7</ele>
        <time>2011-11-20T10:20:38Z</time>
      </trkpt>
      <trkpt lat="44.02152" lon="4.3243">
        <ele>198.5</ele>
        <time>2011-11-20T10:20:40Z</time>
      </trkpt>
      <trkpt lat="44.02146" lon="4.32431">
        <ele>198.2</ele>
        <time>2011-11-20T10:20:42Z</time>
      </trkpt>
      <trkpt lat="44.02138" lon="4.32432">
        <ele>197.8</ele>
        <time>2011-11-20T10:20:44Z</time>
      </trkpt>
      <trkpt lat="44.02131" lon="4.32434">
        <ele>197.4</ele>
        <time>2011-11-20T10:20:46Z</time>
      </trkpt>
      <trkpt lat="44.02124" lon="4.32437">
        <ele>197</ele>
        <time>2011-11-20T10:20:48Z</time>
      </trkpt>
      <trkpt lat="44.02117" lon="4.32439">
        <ele>196.7</ele>
        <time>2011-11-20T10:20:50Z</time>
      </trkpt>
      <trkpt lat="44.0211" lon="4.32441">
        <ele>196.5</ele>
        <time>2011-11-20T10:20:52Z</time>
      </trkpt>
      <trkpt lat="44.02102" lon="4.32442">
        <ele>196.5</ele>
        <time>2011-11-20T10:20:54Z</time>
      </trkpt>
      <trkpt lat="44.02092" lon="4.32442">
        <ele>195.9</ele>
        <time>2011-11-20T10:20:56Z</time>
      </trkpt>
      <trkpt lat="44.02088" lon="4.32442">
        <ele>195.6</ele>
        <time>2011-11-20T10:20:57Z</time>
      </trkpt>
      <trkpt lat="44.02083" lon="4.32443">
        <ele>195.5</ele>
        <time>2011-11-20T10:20:58Z</time>
      </trkpt>
      <trkpt lat="44.02077" lon="4.32443">
        <ele>195.2</ele>
        <time>2011-11-20T10:20:59Z</time>
      </trkpt>
      <trkpt lat="44.02071" lon="4.32444">
        <ele>194.8</ele>
        <time>2011-11-20T10:21:00Z</time>
      </trkpt>
      <trkpt lat="44.02064" lon="4.32443">
        <ele>194.6</ele>
        <time>2011-11-20T10:21:01Z</time>
      </trkpt>
      <trkpt lat="44.02057" lon="4.32442">
        <ele>194.4</ele>
        <time>2011-11-20T10:21:02Z</time>
      </trkpt>
      <trkpt lat="44.0205" lon="4.32442">
        <ele>194.5</ele>
        <time>2011-11-20T10:21:03Z</time>
      </trkpt>
      <trkpt lat="44.02042" lon="4.32442">
        <ele>194.3</ele>
        <time>2011-11-20T10:21:04Z</time>
      </trkpt>
      <trkpt lat="44.02034" lon="4.32441">
        <ele>194.3</ele>
        <time>2011-11-20T10:21:05Z</time>
      </trkpt>
      <trkpt lat="44.02025" lon="4.32441">
        <ele>194.1</ele>
        <time>2011-11-20T10:21:06Z</time>
      </trkpt>
      <trkpt lat="44.02016" lon="4.32441">
        <ele>193.2</ele>
        <time>2011-11-20T10:21:07Z</time>
      </trkpt>
      <trkpt lat="44.02007" lon="4.32442">
        <ele>192.6</ele>
        <time>2011-11-20T10:21:08Z</time>
      </trkpt>
      <trkpt lat="44.01998" lon="4.32445">
        <ele>192.1</ele>
        <time>2011-11-20T10:21:09Z</time>
      </trkpt>
      <trkpt lat="44.0199" lon="4.32448">
        <ele>192</ele>
        <time>2011-11-20T10:21:10Z</time>
      </trkpt>
      <trkpt lat="44.01982" lon="4.32452">
        <ele>191.7</ele>
        <time>2011-11-20T10:21:11Z</time>
      </trkpt>
      <trkpt lat="44.01975" lon="4.32457">
        <ele>191.6</ele>
        <time>2011-11-20T10:21:12Z</time>
      </trkpt>
      <trkpt lat="44.01967" lon="4.32462">
        <ele>191.1</ele>
        <time>2011-11-20T10:21:13Z</time>
      </trkpt>
      <trkpt lat="44.0196" lon="4.32466">
        <ele>190.8</ele>
        <time>2011-11-20T10:21:14Z</time>
      </trkpt>
      <trkpt lat="44.01953" lon="4.32471">
        <ele>190.6</ele>
        <time>2011-11-20T10:21:15Z</time>
      </trkpt>
      <trkpt lat="44.01946" lon="4.32474">
        <ele>190.4</ele>
        <time>2011-11-20T10:21:16Z</time>
      </trkpt>
      <trkpt lat="44.0194" lon="4.32478">
        <ele>190.2</ele>
        <time>2011-11-20T10:21:17Z</time>
      </trkpt>
      <trkpt lat="44.01933" lon="4.32482">
        <ele>189.9</ele>
        <time>2011-11-20T10:21:18Z</time>
      </trkpt>
      <trkpt lat="44.01926" lon="4.32485">
        <ele>189.6</ele>
        <time>2011-11-20T10:21:19Z</time>
      </trkpt>
      <trkpt lat="44.0192" lon="4.32488">
        <ele>189.1</ele>
        <time>2011-11-20T10:21:20Z</time>
      </trkpt>
      <trkpt lat="44.01914" lon="4.32491">
        <ele>188.7</ele>
        <time>2011-11-20T10:21:21Z</time>
      </trkpt>
      <trkpt lat="44.01908" lon="4.32494">
        <ele>188.2</ele>
        <time>2011-11-20T10:21:22Z</time>
      </trkpt>
      <trkpt lat="44.01902" lon="4.32494">
        <ele>187.5</ele>
        <time>2011-11-20T10:21:23Z</time>
      </trkpt>
      <trkpt lat="44.01898" lon="4.32492">
        <ele>186.9</ele>
        <time>2011-11-20T10:21:24Z</time>
      </trkpt>
      <trkpt lat="44.01893" lon="4.32488">
        <ele>181.7</ele>
        <time>2011-11-20T10:21:26Z</time>
      </trkpt>
      <trkpt lat="44.01891" lon="4.32482">
        <ele>179.2</ele>
        <time>2011-11-20T10:21:28Z</time>
      </trkpt>
      <trkpt lat="44.01886" lon="4.3248">
        <ele>177.7</ele>
        <time>2011-11-20T10:21:31Z</time>
      </trkpt>
      <trkpt lat="44.0188" lon="4.32481">
        <ele>176.9</ele>
        <time>2011-11-20T10:21:33Z</time>
      </trkpt>
      <trkpt lat="44.01874" lon="4.32482">
        <ele>175.9</ele>
        <time>2011-11-20T10:21:35Z</time>
      </trkpt>
      <trkpt lat="44.01868" lon="4.32484">
        <ele>175.3</ele>
        <time>2011-11-20T10:21:37Z</time>
      </trkpt>
      <trkpt lat="44.01863" lon="4.32488">
        <ele>174.9</ele>
        <time>2011-11-20T10:21:39Z</time>
      </trkpt>
      <trkpt lat="44.01858" lon="4.32492">
        <ele>174</ele>
        <time>2011-11-20T10:21:41Z</time>
      </trkpt>
      <trkpt lat="44.01853" lon="4.32497">
        <ele>173.1</ele>
        <time>2011-11-20T10:21:43Z</time>
      </trkpt>
      <trkpt lat="44.01848" lon="4.32503">
        <ele>172.6</ele>
        <time>2011-11-20T10:21:45Z</time>
      </trkpt>
      <trkpt lat="44.01843" lon="4.3251">
        <ele>172.7</ele>
        <time>2011-11-20T10:21:47Z</time>
      </trkpt>
      <trkpt lat="44.0184" lon="4.32519">
        <ele>172.7</ele>
        <time>2011-11-20T10:21:49Z</time>
      </trkpt>
      <trkpt lat="44.01836" lon="4.32527">
        <ele>173</ele>
        <time>2011-11-20T10:21:51Z</time>
      </trkpt>
      <trkpt lat="44.01835" lon="4.32533">
        <ele>173</ele>
        <time>2011-11-20T10:21:53Z</time>
      </trkpt>
      <trkpt lat="44.01832" lon="4.3254">
        <ele>173.4</ele>
        <time>2011-11-20T10:21:56Z</time>
      </trkpt>
      <trkpt lat="44.0183" lon="4.32546">
        <ele>173.6</ele>
        <time>2011-11-20T10:21:58Z</time>
      </trkpt>
      <trkpt lat="44.01829" lon="4.32553">
        <ele>172.1</ele>
        <time>2011-11-20T10:22:00Z</time>
      </trkpt>
      <trkpt lat="44.01827" lon="4.32559">
        <ele>172.7</ele>
        <time>2011-11-20T10:22:04Z</time>
      </trkpt>
      <trkpt lat="44.01826" lon="4.32566">
        <ele>173.1</ele>
        <time>2011-11-20T10:22:07Z</time>
      </trkpt>
      <trkpt lat="44.01826" lon="4.32576">
        <ele>174</ele>
        <time>2011-11-20T10:22:12Z</time>
      </trkpt>
      <trkpt lat="44.01827" lon="4.32584">
        <ele>174.4</ele>
        <time>2011-11-20T10:22:15Z</time>
      </trkpt>
      <trkpt lat="44.01826" lon="4.3259">
        <ele>174.6</ele>
        <time>2011-11-20T10:22:17Z</time>
      </trkpt>
      <trkpt lat="44.01824" lon="4.32597">
        <ele>174.8</ele>
        <time>2011-11-20T10:22:19Z</time>
      </trkpt>
      <trkpt lat="44.01824" lon="4.32605">
        <ele>174.7</ele>
        <time>2011-11-20T10:22:21Z</time>
      </trkpt>
      <trkpt lat="44.01822" lon="4.32612">
        <ele>174.5</ele>
        <time>2011-11-20T10:22:23Z</time>
      </trkpt>
      <trkpt lat="44.0182" lon="4.32619">
        <ele>174.7</ele>
        <time>2011-11-20T10:22:25Z</time>
      </trkpt>
      <trkpt lat="44.01817" lon="4.32625">
        <ele>174.7</ele>
        <time>2011-11-20T10:22:27Z</time>
      </trkpt>
      <trkpt lat="44.01814" lon="4.32633">
        <ele>174.4</ele>
        <time>2011-11-20T10:22:29Z</time>
      </trkpt>
      <trkpt lat="44.01812" lon="4.3264">
        <ele>174.3</ele>
        <time>2011-11-20T10:22:31Z</time>
      </trkpt>
      <trkpt lat="44.0181" lon="4.32649">
        <ele>173.8</ele>
        <time>2011-11-20T10:22:33Z</time>
      </trkpt>
      <trkpt lat="44.01808" lon="4.32655">
        <ele>173.6</ele>
        <time>2011-11-20T10:22:35Z</time>
      </trkpt>
      <trkpt lat="44.01805" lon="4.32661">
        <ele>174</ele>
        <time>2011-11-20T10:22:37Z</time>
      </trkpt>
      <trkpt lat="44.01803" lon="4.32668">
        <ele>174</ele>
        <time>2011-11-20T10:22:39Z</time>
      </trkpt>
      <trkpt lat="44.018" lon="4.32674">
        <ele>173.9</ele>
        <time>2011-11-20T10:22:41Z</time>
      </trkpt>
      <trkpt lat="44.01798" lon="4.32682">
        <ele>173.5</ele>
        <time>2011-11-20T10:22:43Z</time>
      </trkpt>
      <trkpt lat="44.01796" lon="4.3269">
        <ele>173</ele>
        <time>2011-11-20T10:22:45Z</time>
      </trkpt>
      <trkpt lat="44.01794" lon="4.32697">
        <ele>173.1</ele>
        <time>2011-11-20T10:22:47Z</time>
      </trkpt>
      <trkpt lat="44.01792" lon="4.32704">
        <ele>172.9</ele>
        <time>2011-11-20T10:22:49Z</time>
      </trkpt>
      <trkpt lat="44.0179" lon="4.32712">
        <ele>172</ele>
        <time>2011-11-20T10:22:51Z</time>
      </trkpt>
      <trkpt lat="44.01786" lon="4.3272">
        <ele>171.6</ele>
        <time>2011-11-20T10:22:53Z</time>
      </trkpt>
      <trkpt lat="44.01784" lon="4.32726">
        <ele>171.6</ele>
        <time>2011-11-20T10:22:55Z</time>
      </trkpt>
      <trkpt lat="44.01781" lon="4.32733">
        <ele>171.8</ele>
        <time>2011-11-20T10:22:57Z</time>
      </trkpt>
      <trkpt lat="44.01777" lon="4.3274">
        <ele>172.1</ele>
        <time>2011-11-20T10:22:59Z</time>
      </trkpt>
      <trkpt lat="44.01773" lon="4.32747">
        <ele>172.2</ele>
        <time>2011-11-20T10:23:01Z</time>
      </trkpt>
      <trkpt lat="44.01768" lon="4.32752">
        <ele>171.8</ele>
        <time>2011-11-20T10:23:03Z</time>
      </trkpt>
      <trkpt lat="44.01766" lon="4.32758">
        <ele>171.2</ele>
        <time>2011-11-20T10:23:05Z</time>
      </trkpt>
      <trkpt lat="44.01762" lon="4.32764">
        <ele>171.1</ele>
        <time>2011-11-20T10:23:07Z</time>
      </trkpt>
      <trkpt lat="44.01757" lon="4.32771">
        <ele>171.6</ele>
        <time>2011-11-20T10:23:09Z</time>
      </trkpt>
      <trkpt lat="44.01752" lon="4.32778">
        <ele>171.5</ele>
        <time>2011-11-20T10:23:11Z</time>
      </trkpt>
      <trkpt lat="44.01747" lon="4.32784">
        <ele>171.9</ele>
        <time>2011-11-20T10:23:13Z</time>
      </trkpt>
      <trkpt lat="44.0174" lon="4.32788">
        <ele>172.1</ele>
        <time>2011-11-20T10:23:15Z</time>
      </trkpt>
      <trkpt lat="44.01733" lon="4.32791">
        <ele>171.7</ele>
        <time>2011-11-20T10:23:17Z</time>
      </trkpt>
      <trkpt lat="44.01728" lon="4.32792">
        <ele>171.4</ele>
        <time>2011-11-20T10:23:19Z</time>
      </trkpt>
      <trkpt lat="44.01721" lon="4.32791">
        <ele>171.2</ele>
        <time>2011-11-20T10:23:22Z</time>
      </trkpt>
      <trkpt lat="44.01715" lon="4.32791">
        <ele>171.1</ele>
        <time>2011-11-20T10:23:24Z</time>
      </trkpt>
      <trkpt lat="44.01707" lon="4.3279">
        <ele>170.7</ele>
        <time>2011-11-20T10:23:26Z</time>
      </trkpt>
      <trkpt lat="44.01702" lon="4.3279">
        <ele>170.4</ele>
        <time>2011-11-20T10:23:27Z</time>
      </trkpt>
      <trkpt lat="44.01694" lon="4.32789">
        <ele>170.3</ele>
        <time>2011-11-20T10:23:29Z</time>
      </trkpt>
      <trkpt lat="44.01686" lon="4.32788">
        <ele>170.4</ele>
        <time>2011-11-20T10:23:31Z</time>
      </trkpt>
      <trkpt lat="44.01679" lon="4.32789">
        <ele>171.3</ele>
        <time>2011-11-20T10:23:33Z</time>
      </trkpt>
      <trkpt lat="44.01672" lon="4.32794">
        <ele>172.3</ele>
        <time>2011-11-20T10:23:35Z</time>
      </trkpt>
      <trkpt lat="44.01666" lon="4.32798">
        <ele>173.1</ele>
        <time>2011-11-20T10:23:37Z</time>
      </trkpt>
      <trkpt lat="44.0166" lon="4.32804">
        <ele>174.6</ele>
        <time>2011-11-20T10:23:39Z</time>
      </trkpt>
      <trkpt lat="44.01657" lon="4.32809">
        <ele>175.3</ele>
        <time>2011-11-20T10:23:41Z</time>
      </trkpt>
      <trkpt lat="44.01654" lon="4.32817">
        <ele>175.7</ele>
        <time>2011-11-20T10:23:43Z</time>
      </trkpt>
      <trkpt lat="44.0165" lon="4.32824">
        <ele>176.2</ele>
        <time>2011-11-20T10:23:45Z</time>
      </trkpt>
      <trkpt lat="44.01647" lon="4.3283">
        <ele>176.6</ele>
        <time>2011-11-20T10:23:47Z</time>
      </trkpt>
      <trkpt lat="44.01645" lon="4.32837">
        <ele>177.4</ele>
        <time>2011-11-20T10:23:49Z</time>
      </trkpt>
      <trkpt lat="44.01644" lon="4.32845">
        <ele>177.9</ele>
        <time>2011-11-20T10:23:51Z</time>
      </trkpt>
      <trkpt lat="44.01643" lon="4.32852">
        <ele>178.1</ele>
        <time>2011-11-20T10:23:53Z</time>
      </trkpt>
      <trkpt lat="44.01641" lon="4.3286">
        <ele>179.1</ele>
        <time>2011-11-20T10:23:56Z</time>
      </trkpt>
      <trkpt lat="44.01638" lon="4.32868">
        <ele>178.9</ele>
        <time>2011-11-20T10:23:59Z</time>
      </trkpt>
      <trkpt lat="44.01636" lon="4.32875">
        <ele>179.3</ele>
        <time>2011-11-20T10:24:01Z</time>
      </trkpt>
      <trkpt lat="44.01636" lon="4.32883">
        <ele>179.8</ele>
        <time>2011-11-20T10:24:03Z</time>
      </trkpt>
      <trkpt lat="44.01635" lon="4.3289">
        <ele>179.7</ele>
        <time>2011-11-20T10:24:05Z</time>
      </trkpt>
      <trkpt lat="44.01633" lon="4.32896">
        <ele>179.8</ele>
        <time>2011-11-20T10:24:07Z</time>
      </trkpt>
      <trkpt lat="44.01632" lon="4.32904">
        <ele>180.2</ele>
        <time>2011-11-20T10:24:09Z</time>
      </trkpt>
      <trkpt lat="44.01631" lon="4.32912">
        <ele>180.5</ele>
        <time>2011-11-20T10:24:11Z</time>
      </trkpt>
      <trkpt lat="44.0163" lon="4.32919">
        <ele>181.2</ele>
        <time>2011-11-20T10:24:13Z</time>
      </trkpt>
      <trkpt lat="44.01627" lon="4.32926">
        <ele>181.4</ele>
        <time>2011-11-20T10:24:15Z</time>
      </trkpt>
      <trkpt lat="44.01624" lon="4.32932">
        <ele>181.5</ele>
        <time>2011-11-20T10:24:17Z</time>
      </trkpt>
      <trkpt lat="44.01619" lon="4.32937">
        <ele>181.8</ele>
        <time>2011-11-20T10:24:19Z</time>
      </trkpt>
      <trkpt lat="44.01616" lon="4.32943">
        <ele>182</ele>
        <time>2011-11-20T10:24:21Z</time>
      </trkpt>
      <trkpt lat="44.01612" lon="4.32948">
        <ele>182.3</ele>
        <time>2011-11-20T10:24:23Z</time>
      </trkpt>
      <trkpt lat="44.01607" lon="4.32953">
        <ele>182.3</ele>
        <time>2011-11-20T10:24:25Z</time>
      </trkpt>
      <trkpt lat="44.01603" lon="4.32959">
        <ele>182.2</ele>
        <time>2011-11-20T10:24:27Z</time>
      </trkpt>
      <trkpt lat="44.01599" lon="4.32965">
        <ele>182.6</ele>
        <time>2011-11-20T10:24:29Z</time>
      </trkpt>
      <trkpt lat="44.01595" lon="4.32971">
        <ele>183</ele>
        <time>2011-11-20T10:24:31Z</time>
      </trkpt>
      <trkpt lat="44.01592" lon="4.32977">
        <ele>183.5</ele>
        <time>2011-11-20T10:24:33Z</time>
      </trkpt>
      <trkpt lat="44.01589" lon="4.32986">
        <ele>184.1</ele>
        <time>2011-11-20T10:24:36Z</time>
      </trkpt>
      <trkpt lat="44.01586" lon="4.32991">
        <ele>184.5</ele>
        <time>2011-11-20T10:24:38Z</time>
      </trkpt>
      <trkpt lat="44.01581" lon="4.32998">
        <ele>185.6</ele>
        <time>2011-11-20T10:24:41Z</time>
      </trkpt>
      <trkpt lat="44.01576" lon="4.33003">
        <ele>186.3</ele>
        <time>2011-11-20T10:24:43Z</time>
      </trkpt>
      <trkpt lat="44.01572" lon="4.33008">
        <ele>186.1</ele>
        <time>2011-11-20T10:24:45Z</time>
      </trkpt>
      <trkpt lat="44.01567" lon="4.33013">
        <ele>186.5</ele>
        <time>2011-11-20T10:24:47Z</time>
      </trkpt>
      <trkpt lat="44.01562" lon="4.33018">
        <ele>187.1</ele>
        <time>2011-11-20T10:24:49Z</time>
      </trkpt>
      <trkpt lat="44.01557" lon="4.33022">
        <ele>186.8</ele>
        <time>2011-11-20T10:24:51Z</time>
      </trkpt>
      <trkpt lat="44.01552" lon="4.33026">
        <ele>186.4</ele>
        <time>2011-11-20T10:24:53Z</time>
      </trkpt>
      <trkpt lat="44.01546" lon="4.3303">
        <ele>186.4</ele>
        <time>2011-11-20T10:24:55Z</time>
      </trkpt>
      <trkpt lat="44.01541" lon="4.33034">
        <ele>186.6</ele>
        <time>2011-11-20T10:24:57Z</time>
      </trkpt>
      <trkpt lat="44.01537" lon="4.33038">
        <ele>186.6</ele>
        <time>2011-11-20T10:24:59Z</time>
      </trkpt>
      <trkpt lat="44.01531" lon="4.33041">
        <ele>186.8</ele>
        <time>2011-11-20T10:25:01Z</time>
      </trkpt>
      <trkpt lat="44.01526" lon="4.33044">
        <ele>186.6</ele>
        <time>2011-11-20T10:25:03Z</time>
      </trkpt>
      <trkpt lat="44.01521" lon="4.33046">
        <ele>186.7</ele>
        <time>2011-11-20T10:25:05Z</time>
      </trkpt>
      <trkpt lat="44.01516" lon="4.33048">
        <ele>187</ele>
        <time>2011-11-20T10:25:07Z</time>
      </trkpt>
      <trkpt lat="44.01511" lon="4.33048">
        <ele>186.8</ele>
        <time>2011-11-20T10:25:09Z</time>
      </trkpt>
      <trkpt lat="44.01506" lon="4.33045">
        <ele>186.7</ele>
        <time>2011-11-20T10:25:11Z</time>
      </trkpt>
      <trkpt lat="44.015" lon="4.33042">
        <ele>186.5</ele>
        <time>2011-11-20T10:25:13Z</time>
      </trkpt>
      <trkpt lat="44.01495" lon="4.33036">
        <ele>186.1</ele>
        <time>2011-11-20T10:25:15Z</time>
      </trkpt>
      <trkpt lat="44.01491" lon="4.33032">
        <ele>186.2</ele>
        <time>2011-11-20T10:25:17Z</time>
      </trkpt>
      <trkpt lat="44.01486" lon="4.33027">
        <ele>185.6</ele>
        <time>2011-11-20T10:25:19Z</time>
      </trkpt>
      <trkpt lat="44.01482" lon="4.33022">
        <ele>185.5</ele>
        <time>2011-11-20T10:25:21Z</time>
      </trkpt>
      <trkpt lat="44.01478" lon="4.33017">
        <ele>185.3</ele>
        <time>2011-11-20T10:25:23Z</time>
      </trkpt>
      <trkpt lat="44.01473" lon="4.33012">
        <ele>185.7</ele>
        <time>2011-11-20T10:25:26Z</time>
      </trkpt>
      <trkpt lat="44.0147" lon="4.33006">
        <ele>185.7</ele>
        <time>2011-11-20T10:25:28Z</time>
      </trkpt>
      <trkpt lat="44.01466" lon="4.33">
        <ele>186</ele>
        <time>2011-11-20T10:25:31Z</time>
      </trkpt>
      <trkpt lat="44.01463" lon="4.32993">
        <ele>186.3</ele>
        <time>2011-11-20T10:25:33Z</time>
      </trkpt>
      <trkpt lat="44.01459" lon="4.32988">
        <ele>186.1</ele>
        <time>2011-11-20T10:25:35Z</time>
      </trkpt>
      <trkpt lat="44.01456" lon="4.32983">
        <ele>186.4</ele>
        <time>2011-11-20T10:25:37Z</time>
      </trkpt>
      <trkpt lat="44.01451" lon="4.32978">
        <ele>187.3</ele>
        <time>2011-11-20T10:25:40Z</time>
      </trkpt>
      <trkpt lat="44.01447" lon="4.32975">
        <ele>188.2</ele>
        <time>2011-11-20T10:25:42Z</time>
      </trkpt>
      <trkpt lat="44.01442" lon="4.32972">
        <ele>188.9</ele>
        <time>2011-11-20T10:25:44Z</time>
      </trkpt>
      <trkpt lat="44.01438" lon="4.32969">
        <ele>189.3</ele>
        <time>2011-11-20T10:25:46Z</time>
      </trkpt>
      <trkpt lat="44.01433" lon="4.32966">
        <ele>189.2</ele>
        <time>2011-11-20T10:25:48Z</time>
      </trkpt>
      <trkpt lat="44.01429" lon="4.32963">
        <ele>189</ele>
        <time>2011-11-20T10:25:50Z</time>
      </trkpt>
      <trkpt lat="44.01423" lon="4.32958">
        <ele>188.8</ele>
        <time>2011-11-20T10:25:53Z</time>
      </trkpt>
      <trkpt lat="44.01418" lon="4.32954">
        <ele>189.2</ele>
        <time>2011-11-20T10:25:55Z</time>
      </trkpt>
      <trkpt lat="44.01412" lon="4.32951">
        <ele>189.7</ele>
        <time>2011-11-20T10:25:57Z</time>
      </trkpt>
      <trkpt lat="44.01407" lon="4.32948">
        <ele>190.3</ele>
        <time>2011-11-20T10:25:59Z</time>
      </trkpt>
      <trkpt lat="44.01402" lon="4.32944">
        <ele>190.4</ele>
        <time>2011-11-20T10:26:01Z</time>
      </trkpt>
      <trkpt lat="44.01398" lon="4.32939">
        <ele>190.7</ele>
        <time>2011-11-20T10:26:03Z</time>
      </trkpt>
      <trkpt lat="44.01395" lon="4.32933">
        <ele>190.7</ele>
        <time>2011-11-20T10:26:05Z</time>
      </trkpt>
      <trkpt lat="44.01391" lon="4.32927">
        <ele>190.7</ele>
        <time>2011-11-20T10:26:07Z</time>
      </trkpt>
      <trkpt lat="44.01387" lon="4.3292">
        <ele>190.9</ele>
        <time>2011-11-20T10:26:09Z</time>
      </trkpt>
      <trkpt lat="44.01384" lon="4.32913">
        <ele>191</ele>
        <time>2011-11-20T10:26:11Z</time>
      </trkpt>
      <trkpt lat="44.01381" lon="4.32906">
        <ele>191.2</ele>
        <time>2011-11-20T10:26:13Z</time>
      </trkpt>
      <trkpt lat="44.01378" lon="4.32898">
        <ele>191</ele>
        <time>2011-11-20T10:26:15Z</time>
      </trkpt>
      <trkpt lat="44.01374" lon="4.3289">
        <ele>190.9</ele>
        <time>2011-11-20T10:26:17Z</time>
      </trkpt>
      <trkpt lat="44.01371" lon="4.32884">
        <ele>190.7</ele>
        <time>2011-11-20T10:26:19Z</time>
      </trkpt>
      <trkpt lat="44.01368" lon="4.32879">
        <ele>191</ele>
        <time>2011-11-20T10:26:21Z</time>
      </trkpt>
      <trkpt lat="44.01364" lon="4.32874">
        <ele>190.9</ele>
        <time>2011-11-20T10:26:23Z</time>
      </trkpt>
      <trkpt lat="44.01361" lon="4.32868">
        <ele>190.6</ele>
        <time>2011-11-20T10:26:25Z</time>
      </trkpt>
      <trkpt lat="44.01357" lon="4.32862">
        <ele>190.9</ele>
        <time>2011-11-20T10:26:28Z</time>
      </trkpt>
      <trkpt lat="44.01354" lon="4.32855">
        <ele>191.4</ele>
        <time>2011-11-20T10:26:31Z</time>
      </trkpt>
      <trkpt lat="44.01337" lon="4.32833">
        <ele>192.8</ele>
        <time>2011-11-20T10:28:05Z</time>
      </trkpt>
      <trkpt lat="44.01334" lon="4.32826">
        <ele>192.7</ele>
        <time>2011-11-20T10:28:07Z</time>
      </trkpt>
      <trkpt lat="44.01331" lon="4.32819">
        <ele>192.9</ele>
        <time>2011-11-20T10:28:09Z</time>
      </trkpt>
      <trkpt lat="44.01329" lon="4.32813">
        <ele>193.1</ele>
        <time>2011-11-20T10:28:11Z</time>
      </trkpt>
      <trkpt lat="44.01326" lon="4.32805">
        <ele>193.4</ele>
        <time>2011-11-20T10:28:13Z</time>
      </trkpt>
      <trkpt lat="44.01324" lon="4.32797">
        <ele>193.6</ele>
        <time>2011-11-20T10:28:15Z</time>
      </trkpt>
      <trkpt lat="44.01324" lon="4.32788">
        <ele>194.1</ele>
        <time>2011-11-20T10:28:17Z</time>
      </trkpt>
      <trkpt lat="44.01326" lon="4.32779">
        <ele>194.7</ele>
        <time>2011-11-20T10:28:19Z</time>
      </trkpt>
      <trkpt lat="44.01328" lon="4.32769">
        <ele>195.1</ele>
        <time>2011-11-20T10:28:21Z</time>
      </trkpt>
      <trkpt lat="44.01328" lon="4.32758">
        <ele>194.9</ele>
        <time>2011-11-20T10:28:23Z</time>
      </trkpt>
      <trkpt lat="44.01329" lon="4.32747">
        <ele>195</ele>
        <time>2011-11-20T10:28:25Z</time>
      </trkpt>
      <trkpt lat="44.01328" lon="4.32737">
        <ele>194.9</ele>
        <time>2011-11-20T10:28:27Z</time>
      </trkpt>
      <trkpt lat="44.01324" lon="4.32729">
        <ele>195</ele>
        <time>2011-11-20T10:28:29Z</time>
      </trkpt>
      <trkpt lat="44.0132" lon="4.32721">
        <ele>195</ele>
        <time>2011-11-20T10:28:31Z</time>
      </trkpt>
      <trkpt lat="44.01318" lon="4.32714">
        <ele>195.2</ele>
        <time>2011-11-20T10:28:33Z</time>
      </trkpt>
      <trkpt lat="44.01319" lon="4.32706">
        <ele>195</ele>
        <time>2011-11-20T10:28:35Z</time>
      </trkpt>
      <trkpt lat="44.01323" lon="4.32698">
        <ele>195.1</ele>
        <time>2011-11-20T10:28:37Z</time>
      </trkpt>
      <trkpt lat="44.01327" lon="4.32691">
        <ele>195.5</ele>
        <time>2011-11-20T10:28:39Z</time>
      </trkpt>
      <trkpt lat="44.01331" lon="4.32685">
        <ele>195.7</ele>
        <time>2011-11-20T10:28:41Z</time>
      </trkpt>
      <trkpt lat="44.01336" lon="4.32678">
        <ele>195.6</ele>
        <time>2011-11-20T10:28:43Z</time>
      </trkpt>
      <trkpt lat="44.01341" lon="4.32672">
        <ele>195.7</ele>
        <time>2011-11-20T10:28:45Z</time>
      </trkpt>
      <trkpt lat="44.01346" lon="4.32665">
        <ele>195.9</ele>
        <time>2011-11-20T10:28:47Z</time>
      </trkpt>
      <trkpt lat="44.0135" lon="4.32657">
        <ele>196.2</ele>
        <time>2011-11-20T10:28:49Z</time>
      </trkpt>
      <trkpt lat="44.01354" lon="4.3265">
        <ele>196.6</ele>
        <time>2011-11-20T10:28:51Z</time>
      </trkpt>
      <trkpt lat="44.01358" lon="4.32643">
        <ele>197</ele>
        <time>2011-11-20T10:28:53Z</time>
      </trkpt>
      <trkpt lat="44.01362" lon="4.32638">
        <ele>197.4</ele>
        <time>2011-11-20T10:28:55Z</time>
      </trkpt>
      <trkpt lat="44.01368" lon="4.32632">
        <ele>197.6</ele>
        <time>2011-11-20T10:28:57Z</time>
      </trkpt>
      <trkpt lat="44.01373" lon="4.32625">
        <ele>198.1</ele>
        <time>2011-11-20T10:28:59Z</time>
      </trkpt>
      <trkpt lat="44.01378" lon="4.32619">
        <ele>198.6</ele>
        <time>2011-11-20T10:29:01Z</time>
      </trkpt>
      <trkpt lat="44.01383" lon="4.32613">
        <ele>199</ele>
        <time>2011-11-20T10:29:03Z</time>
      </trkpt>
      <trkpt lat="44.01386" lon="4.32607">
        <ele>199.2</ele>
        <time>2011-11-20T10:29:05Z</time>
      </trkpt>
      <trkpt lat="44.0139" lon="4.32602">
        <ele>199.2</ele>
        <time>2011-11-20T10:29:07Z</time>
      </trkpt>
      <trkpt lat="44.01394" lon="4.32596">
        <ele>199.4</ele>
        <time>2011-11-20T10:29:09Z</time>
      </trkpt>
      <trkpt lat="44.01398" lon="4.3259">
        <ele>199.4</ele>
        <time>2011-11-20T10:29:11Z</time>
      </trkpt>
      <trkpt lat="44.01402" lon="4.32583">
        <ele>199.6</ele>
        <time>2011-11-20T10:29:13Z</time>
      </trkpt>
      <trkpt lat="44.01405" lon="4.32576">
        <ele>199.9</ele>
        <time>2011-11-20T10:29:15Z</time>
      </trkpt>
      <trkpt lat="44.01407" lon="4.3257">
        <ele>200.3</ele>
        <time>2011-11-20T10:29:17Z</time>
      </trkpt>
      <trkpt lat="44.01411" lon="4.32564">
        <ele>200.8</ele>
        <time>2011-11-20T10:29:19Z</time>
      </trkpt>
      <trkpt lat="44.01415" lon="4.32557">
        <ele>201.7</ele>
        <time>2011-11-20T10:29:21Z</time>
      </trkpt>
      <trkpt lat="44.01417" lon="4.3255">
        <ele>202.2</ele>
        <time>2011-11-20T10:29:23Z</time>
      </trkpt>
      <trkpt lat="44.01418" lon="4.32544">
        <ele>202.7</ele>
        <time>2011-11-20T10:29:25Z</time>
      </trkpt>
      <trkpt lat="44.01419" lon="4.32536">
        <ele>203.5</ele>
        <time>2011-11-20T10:29:28Z</time>
      </trkpt>
      <trkpt lat="44.01422" lon="4.32531">
        <ele>203.8</ele>
        <time>2011-11-20T10:29:30Z</time>
      </trkpt>
      <trkpt lat="44.01425" lon="4.32525">
        <ele>203.9</ele>
        <time>2011-11-20T10:29:32Z</time>
      </trkpt>
      <trkpt lat="44.01426" lon="4.32518">
        <ele>204</ele>
        <time>2011-11-20T10:29:34Z</time>
      </trkpt>
      <trkpt lat="44.01429" lon="4.32513">
        <ele>204.5</ele>
        <time>2011-11-20T10:29:36Z</time>
      </trkpt>
      <trkpt lat="44.01433" lon="4.32509">
        <ele>204.7</ele>
        <time>2011-11-20T10:29:38Z</time>
      </trkpt>
      <trkpt lat="44.01436" lon="4.32503">
        <ele>204.6</ele>
        <time>2011-11-20T10:29:40Z</time>
      </trkpt>
      <trkpt lat="44.01435" lon="4.32496">
        <ele>204.9</ele>
        <time>2011-11-20T10:29:42Z</time>
      </trkpt>
      <trkpt lat="44.01435" lon="4.32489">
        <ele>204.9</ele>
        <time>2011-11-20T10:29:44Z</time>
      </trkpt>
      <trkpt lat="44.01435" lon="4.32481">
        <ele>205.2</ele>
        <time>2011-11-20T10:29:46Z</time>
      </trkpt>
      <trkpt lat="44.01436" lon="4.32473">
        <ele>205.5</ele>
        <time>2011-11-20T10:29:48Z</time>
      </trkpt>
      <trkpt lat="44.01437" lon="4.32466">
        <ele>205.6</ele>
        <time>2011-11-20T10:29:50Z</time>
      </trkpt>
      <trkpt lat="44.01438" lon="4.32457">
        <ele>205.9</ele>
        <time>2011-11-20T10:29:52Z</time>
      </trkpt>
      <trkpt lat="44.01439" lon="4.3245">
        <ele>206.7</ele>
        <time>2011-11-20T10:29:54Z</time>
      </trkpt>
      <trkpt lat="44.0144" lon="4.3244">
        <ele>207.3</ele>
        <time>2011-11-20T10:29:57Z</time>
      </trkpt>
      <trkpt lat="44.01437" lon="4.32434">
        <ele>208</ele>
        <time>2011-11-20T10:30:00Z</time>
      </trkpt>
      <trkpt lat="44.01435" lon="4.32426">
        <ele>209.1</ele>
        <time>2011-11-20T10:30:03Z</time>
      </trkpt>
      <trkpt lat="44.01436" lon="4.32419">
        <ele>209.5</ele>
        <time>2011-11-20T10:30:05Z</time>
      </trkpt>
      <trkpt lat="44.01435" lon="4.32412">
        <ele>210</ele>
        <time>2011-11-20T10:30:07Z</time>
      </trkpt>
      <trkpt lat="44.01432" lon="4.32405">
        <ele>210.3</ele>
        <time>2011-11-20T10:30:09Z</time>
      </trkpt>
      <trkpt lat="44.01429" lon="4.32399">
        <ele>210.7</ele>
        <time>2011-11-20T10:30:11Z</time>
      </trkpt>
      <trkpt lat="44.01426" lon="4.3239">
        <ele>211.2</ele>
        <time>2011-11-20T10:30:13Z</time>
      </trkpt>
      <trkpt lat="44.01424" lon="4.32381">
        <ele>211.7</ele>
        <time>2011-11-20T10:30:15Z</time>
      </trkpt>
      <trkpt lat="44.01422" lon="4.32372">
        <ele>212</ele>
        <time>2011-11-20T10:30:17Z</time>
      </trkpt>
      <trkpt lat="44.01413" lon="4.32357">
        <ele>212.4</ele>
        <time>2011-11-20T10:30:20Z</time>
      </trkpt>
      <trkpt lat="44.01414" lon="4.32343">
        <ele>213.5</ele>
        <time>2011-11-20T10:30:21Z</time>
      </trkpt>
      <trkpt lat="44.01421" lon="4.32353">
        <ele>213.2</ele>
        <time>2011-11-20T10:30:22Z</time>
      </trkpt>
      <trkpt lat="44.01418" lon="4.3234">
        <ele>209.6</ele>
        <time>2011-11-20T10:30:23Z</time>
      </trkpt>
      <trkpt lat="44.01413" lon="4.32339">
        <ele>214.6</ele>
        <time>2011-11-20T10:30:25Z</time>
      </trkpt>
      <trkpt lat="44.01408" lon="4.32338">
        <ele>221</ele>
        <time>2011-11-20T10:30:30Z</time>
      </trkpt>
      <trkpt lat="44.01403" lon="4.32339">
        <ele>221.7</ele>
        <time>2011-11-20T10:33:27Z</time>
      </trkpt>
      <trkpt lat="44.01397" lon="4.32343">
        <ele>221.9</ele>
        <time>2011-11-20T10:33:31Z</time>
      </trkpt>
      <trkpt lat="44.01392" lon="4.32347">
        <ele>221.9</ele>
        <time>2011-11-20T10:33:35Z</time>
      </trkpt>
      <trkpt lat="44.01388" lon="4.32349">
        <ele>222.2</ele>
        <time>2011-11-20T10:33:38Z</time>
      </trkpt>
      <trkpt lat="44.01382" lon="4.32352">
        <ele>222.9</ele>
        <time>2011-11-20T10:33:41Z</time>
      </trkpt>
      <trkpt lat="44.01377" lon="4.32355">
        <ele>222.7</ele>
        <time>2011-11-20T10:33:43Z</time>
      </trkpt>
      <trkpt lat="44.01371" lon="4.32357">
        <ele>222.5</ele>
        <time>2011-11-20T10:33:46Z</time>
      </trkpt>
      <trkpt lat="44.01366" lon="4.32357">
        <ele>222.4</ele>
        <time>2011-11-20T10:33:48Z</time>
      </trkpt>
      <trkpt lat="44.01358" lon="4.32355">
        <ele>222</ele>
        <time>2011-11-20T10:33:50Z</time>
      </trkpt>
      <trkpt lat="44.01353" lon="4.32351">
        <ele>220.6</ele>
        <time>2011-11-20T10:34:10Z</time>
      </trkpt>
      <trkpt lat="44.01348" lon="4.32345">
        <ele>220.4</ele>
        <time>2011-11-20T10:34:13Z</time>
      </trkpt>
      <trkpt lat="44.01346" lon="4.32338">
        <ele>220.4</ele>
        <time>2011-11-20T10:34:15Z</time>
      </trkpt>
      <trkpt lat="44.01343" lon="4.3233">
        <ele>220.1</ele>
        <time>2011-11-20T10:34:17Z</time>
      </trkpt>
      <trkpt lat="44.0134" lon="4.32321">
        <ele>220.2</ele>
        <time>2011-11-20T10:34:19Z</time>
      </trkpt>
      <trkpt lat="44.01337" lon="4.32312">
        <ele>219.9</ele>
        <time>2011-11-20T10:34:21Z</time>
      </trkpt>
      <trkpt lat="44.01333" lon="4.32303">
        <ele>219.7</ele>
        <time>2011-11-20T10:34:23Z</time>
      </trkpt>
      <trkpt lat="44.01328" lon="4.32294">
        <ele>219.3</ele>
        <time>2011-11-20T10:34:25Z</time>
      </trkpt>
      <trkpt lat="44.01322" lon="4.32287">
        <ele>219.1</ele>
        <time>2011-11-20T10:34:27Z</time>
      </trkpt>
      <trkpt lat="44.01315" lon="4.32281">
        <ele>218.9</ele>
        <time>2011-11-20T10:34:29Z</time>
      </trkpt>
      <trkpt lat="44.01306" lon="4.32276">
        <ele>218.8</ele>
        <time>2011-11-20T10:34:31Z</time>
      </trkpt>
      <trkpt lat="44.01302" lon="4.32274">
        <ele>218.8</ele>
        <time>2011-11-20T10:34:32Z</time>
      </trkpt>
      <trkpt lat="44.01298" lon="4.32271">
        <ele>218.8</ele>
        <time>2011-11-20T10:34:33Z</time>
      </trkpt>
      <trkpt lat="44.01294" lon="4.32268">
        <ele>218.8</ele>
        <time>2011-11-20T10:34:34Z</time>
      </trkpt>
      <trkpt lat="44.0129" lon="4.32264">
        <ele>218.9</ele>
        <time>2011-11-20T10:34:35Z</time>
      </trkpt>
      <trkpt lat="44.01282" lon="4.32258">
        <ele>218.9</ele>
        <time>2011-11-20T10:34:37Z</time>
      </trkpt>
      <trkpt lat="44.01278" lon="4.32255">
        <ele>218.9</ele>
        <time>2011-11-20T10:34:38Z</time>
      </trkpt>
      <trkpt lat="44.01273" lon="4.32252">
        <ele>219</ele>
        <time>2011-11-20T10:34:39Z</time>
      </trkpt>
      <trkpt lat="44.01269" lon="4.3225">
        <ele>219.1</ele>
        <time>2011-11-20T10:34:40Z</time>
      </trkpt>
      <trkpt lat="44.01265" lon="4.32247">
        <ele>219</ele>
        <time>2011-11-20T10:34:41Z</time>
      </trkpt>
      <trkpt lat="44.0126" lon="4.32243">
        <ele>219</ele>
        <time>2011-11-20T10:34:42Z</time>
      </trkpt>
      <trkpt lat="44.01256" lon="4.3224">
        <ele>219</ele>
        <time>2011-11-20T10:34:43Z</time>
      </trkpt>
      <trkpt lat="44.01252" lon="4.32235">
        <ele>219</ele>
        <time>2011-11-20T10:34:44Z</time>
      </trkpt>
      <trkpt lat="44.01248" lon="4.3223">
        <ele>218.9</ele>
        <time>2011-11-20T10:34:45Z</time>
      </trkpt>
      <trkpt lat="44.01245" lon="4.32224">
        <ele>218.7</ele>
        <time>2011-11-20T10:34:46Z</time>
      </trkpt>
      <trkpt lat="44.01242" lon="4.32219">
        <ele>218.6</ele>
        <time>2011-11-20T10:34:47Z</time>
      </trkpt>
      <trkpt lat="44.0124" lon="4.32213">
        <ele>218.3</ele>
        <time>2011-11-20T10:34:48Z</time>
      </trkpt>
      <trkpt lat="44.01235" lon="4.32202">
        <ele>218</ele>
        <time>2011-11-20T10:34:50Z</time>
      </trkpt>
      <trkpt lat="44.01233" lon="4.32192">
        <ele>217.6</ele>
        <time>2011-11-20T10:34:52Z</time>
      </trkpt>
      <trkpt lat="44.01232" lon="4.32184">
        <ele>217.6</ele>
        <time>2011-11-20T10:34:54Z</time>
      </trkpt>
      <trkpt lat="44.01236" lon="4.32176">
        <ele>217.7</ele>
        <time>2011-11-20T10:34:57Z</time>
      </trkpt>
      <trkpt lat="44.0124" lon="4.32172">
        <ele>217.1</ele>
        <time>2011-11-20T10:34:59Z</time>
      </trkpt>
      <trkpt lat="44.01245" lon="4.32169">
        <ele>217.2</ele>
        <time>2011-11-20T10:35:02Z</time>
      </trkpt>
      <trkpt lat="44.0125" lon="4.32166">
        <ele>216.8</ele>
        <time>2011-11-20T10:35:05Z</time>
      </trkpt>
      <trkpt lat="44.01254" lon="4.32163">
        <ele>216.8</ele>
        <time>2011-11-20T10:35:08Z</time>
      </trkpt>
      <trkpt lat="44.01259" lon="4.3216">
        <ele>217.3</ele>
        <time>2011-11-20T10:35:12Z</time>
      </trkpt>
      <trkpt lat="44.01263" lon="4.32155">
        <ele>217.7</ele>
        <time>2011-11-20T10:35:16Z</time>
      </trkpt>
      <trkpt lat="44.01267" lon="4.32149">
        <ele>218.5</ele>
        <time>2011-11-20T10:35:20Z</time>
      </trkpt>
      <trkpt lat="44.01271" lon="4.32144">
        <ele>218.8</ele>
        <time>2011-11-20T10:35:23Z</time>
      </trkpt>
      <trkpt lat="44.01274" lon="4.32138">
        <ele>219.1</ele>
        <time>2011-11-20T10:35:26Z</time>
      </trkpt>
      <trkpt lat="44.01276" lon="4.3213">
        <ele>219.6</ele>
        <time>2011-11-20T10:35:29Z</time>
      </trkpt>
      <trkpt lat="44.01278" lon="4.32122">
        <ele>220.1</ele>
        <time>2011-11-20T10:35:32Z</time>
      </trkpt>
      <trkpt lat="44.0128" lon="4.32116">
        <ele>220.4</ele>
        <time>2011-11-20T10:35:34Z</time>
      </trkpt>
      <trkpt lat="44.01282" lon="4.3211">
        <ele>220.7</ele>
        <time>2011-11-20T10:35:36Z</time>
      </trkpt>
      <trkpt lat="44.01284" lon="4.32104">
        <ele>221</ele>
        <time>2011-11-20T10:35:38Z</time>
      </trkpt>
      <trkpt lat="44.01286" lon="4.32098">
        <ele>221.3</ele>
        <time>2011-11-20T10:35:40Z</time>
      </trkpt>
      <trkpt lat="44.01289" lon="4.32091">
        <ele>221.6</ele>
        <time>2011-11-20T10:35:42Z</time>
      </trkpt>
      <trkpt lat="44.01291" lon="4.32084">
        <ele>222</ele>
        <time>2011-11-20T10:35:44Z</time>
      </trkpt>
      <trkpt lat="44.01294" lon="4.32076">
        <ele>222.2</ele>
        <time>2011-11-20T10:35:46Z</time>
      </trkpt>
      <trkpt lat="44.01297" lon="4.32067">
        <ele>222.7</ele>
        <time>2011-11-20T10:35:48Z</time>
      </trkpt>
      <trkpt lat="44.013" lon="4.32057">
        <ele>223.1</ele>
        <time>2011-11-20T10:35:50Z</time>
      </trkpt>
      <trkpt lat="44.01302" lon="4.32047">
        <ele>223.3</ele>
        <time>2011-11-20T10:35:52Z</time>
      </trkpt>
      <trkpt lat="44.01305" lon="4.32038">
        <ele>223.5</ele>
        <time>2011-11-20T10:35:54Z</time>
      </trkpt>
      <trkpt lat="44.01307" lon="4.32028">
        <ele>223.7</ele>
        <time>2011-11-20T10:35:56Z</time>
      </trkpt>
      <trkpt lat="44.01309" lon="4.32019">
        <ele>223.9</ele>
        <time>2011-11-20T10:35:58Z</time>
      </trkpt>
      <trkpt lat="44.0131" lon="4.32009">
        <ele>224</ele>
        <time>2011-11-20T10:36:00Z</time>
      </trkpt>
      <trkpt lat="44.01311" lon="4.31999">
        <ele>224.2</ele>
        <time>2011-11-20T10:36:02Z</time>
      </trkpt>
      <trkpt lat="44.01313" lon="4.31988">
        <ele>224.6</ele>
        <time>2011-11-20T10:36:04Z</time>
      </trkpt>
      <trkpt lat="44.01315" lon="4.31978">
        <ele>224.9</ele>
        <time>2011-11-20T10:36:06Z</time>
      </trkpt>
      <trkpt lat="44.01318" lon="4.31968">
        <ele>225.4</ele>
        <time>2011-11-20T10:36:08Z</time>
      </trkpt>
      <trkpt lat="44.01321" lon="4.31958">
        <ele>225.6</ele>
        <time>2011-11-20T10:36:10Z</time>
      </trkpt>
      <trkpt lat="44.01325" lon="4.31949">
        <ele>226.1</ele>
        <time>2011-11-20T10:36:12Z</time>
      </trkpt>
      <trkpt lat="44.01329" lon="4.3194">
        <ele>226.4</ele>
        <time>2011-11-20T10:36:14Z</time>
      </trkpt>
      <trkpt lat="44.01333" lon="4.31931">
        <ele>226.7</ele>
        <time>2011-11-20T10:36:16Z</time>
      </trkpt>
      <trkpt lat="44.01337" lon="4.31921">
        <ele>227.2</ele>
        <time>2011-11-20T10:36:18Z</time>
      </trkpt>
      <trkpt lat="44.01339" lon="4.31912">
        <ele>227.5</ele>
        <time>2011-11-20T10:36:20Z</time>
      </trkpt>
      <trkpt lat="44.01341" lon="4.31901">
        <ele>227.9</ele>
        <time>2011-11-20T10:36:22Z</time>
      </trkpt>
      <trkpt lat="44.01343" lon="4.3189">
        <ele>228.3</ele>
        <time>2011-11-20T10:36:24Z</time>
      </trkpt>
      <trkpt lat="44.01344" lon="4.3188">
        <ele>228.5</ele>
        <time>2011-11-20T10:36:26Z</time>
      </trkpt>
      <trkpt lat="44.01346" lon="4.31869">
        <ele>228.8</ele>
        <time>2011-11-20T10:36:28Z</time>
      </trkpt>
      <trkpt lat="44.01347" lon="4.31858">
        <ele>229.2</ele>
        <time>2011-11-20T10:36:30Z</time>
      </trkpt>
      <trkpt lat="44.0135" lon="4.31848">
        <ele>229.5</ele>
        <time>2011-11-20T10:36:32Z</time>
      </trkpt>
      <trkpt lat="44.01352" lon="4.31839">
        <ele>229.9</ele>
        <time>2011-11-20T10:36:34Z</time>
      </trkpt>
      <trkpt lat="44.01355" lon="4.3183">
        <ele>230.1</ele>
        <time>2011-11-20T10:36:36Z</time>
      </trkpt>
      <trkpt lat="44.01358" lon="4.3182">
        <ele>230.4</ele>
        <time>2011-11-20T10:36:38Z</time>
      </trkpt>
      <trkpt lat="44.01361" lon="4.31811">
        <ele>231</ele>
        <time>2011-11-20T10:36:40Z</time>
      </trkpt>
      <trkpt lat="44.01362" lon="4.31801">
        <ele>231.4</ele>
        <time>2011-11-20T10:36:42Z</time>
      </trkpt>
      <trkpt lat="44.01363" lon="4.31792">
        <ele>231.8</ele>
        <time>2011-11-20T10:36:44Z</time>
      </trkpt>
      <trkpt lat="44.01364" lon="4.31784">
        <ele>231.9</ele>
        <time>2011-11-20T10:36:46Z</time>
      </trkpt>
      <trkpt lat="44.01362" lon="4.31778">
        <ele>232.9</ele>
        <time>2011-11-20T10:36:49Z</time>
      </trkpt>
      <trkpt lat="44.01356" lon="4.3178">
        <ele>234.7</ele>
        <time>2011-11-20T10:36:52Z</time>
      </trkpt>
      <trkpt lat="44.01355" lon="4.31788">
        <ele>233.3</ele>
        <time>2011-11-20T10:37:18Z</time>
      </trkpt>
      <trkpt lat="44.0136" lon="4.31791">
        <ele>233.7</ele>
        <time>2011-11-20T10:37:23Z</time>
      </trkpt>
      <trkpt lat="44.01365" lon="4.31787">
        <ele>234</ele>
        <time>2011-11-20T10:37:26Z</time>
      </trkpt>
      <trkpt lat="44.01368" lon="4.31782">
        <ele>234.5</ele>
        <time>2011-11-20T10:37:28Z</time>
      </trkpt>
      <trkpt lat="44.0137" lon="4.31776">
        <ele>234.7</ele>
        <time>2011-11-20T10:37:30Z</time>
      </trkpt>
      <trkpt lat="44.01373" lon="4.31768">
        <ele>235.1</ele>
        <time>2011-11-20T10:37:32Z</time>
      </trkpt>
      <trkpt lat="44.01376" lon="4.31761">
        <ele>235.4</ele>
        <time>2011-11-20T10:37:34Z</time>
      </trkpt>
      <trkpt lat="44.01379" lon="4.31754">
        <ele>235.8</ele>
        <time>2011-11-20T10:37:36Z</time>
      </trkpt>
      <trkpt lat="44.01382" lon="4.31748">
        <ele>236.1</ele>
        <time>2011-11-20T10:37:38Z</time>
      </trkpt>
      <trkpt lat="44.01386" lon="4.31741">
        <ele>236.5</ele>
        <time>2011-11-20T10:37:40Z</time>
      </trkpt>
      <trkpt lat="44.0139" lon="4.31734">
        <ele>236.8</ele>
        <time>2011-11-20T10:37:42Z</time>
      </trkpt>
      <trkpt lat="44.01394" lon="4.31727">
        <ele>237</ele>
        <time>2011-11-20T10:37:44Z</time>
      </trkpt>
      <trkpt lat="44.01397" lon="4.31719">
        <ele>237.4</ele>
        <time>2011-11-20T10:37:46Z</time>
      </trkpt>
      <trkpt lat="44.014" lon="4.31711">
        <ele>237.6</ele>
        <time>2011-11-20T10:37:48Z</time>
      </trkpt>
      <trkpt lat="44.01402" lon="4.31702">
        <ele>237.9</ele>
        <time>2011-11-20T10:37:50Z</time>
      </trkpt>
      <trkpt lat="44.01403" lon="4.31692">
        <ele>238.1</ele>
        <time>2011-11-20T10:37:52Z</time>
      </trkpt>
      <trkpt lat="44.01403" lon="4.31682">
        <ele>238.2</ele>
        <time>2011-11-20T10:37:54Z</time>
      </trkpt>
      <trkpt lat="44.01403" lon="4.31672">
        <ele>238.4</ele>
        <time>2011-11-20T10:37:56Z</time>
      </trkpt>
      <trkpt lat="44.01404" lon="4.31662">
        <ele>238.6</ele>
        <time>2011-11-20T10:37:58Z</time>
      </trkpt>
      <trkpt lat="44.01404" lon="4.31653">
        <ele>238.7</ele>
        <time>2011-11-20T10:38:00Z</time>
      </trkpt>
      <trkpt lat="44.01406" lon="4.31643">
        <ele>239.3</ele>
        <time>2011-11-20T10:38:02Z</time>
      </trkpt>
      <trkpt lat="44.01408" lon="4.31634">
        <ele>239.6</ele>
        <time>2011-11-20T10:38:04Z</time>
      </trkpt>
      <trkpt lat="44.0141" lon="4.31625">
        <ele>239.9</ele>
        <time>2011-11-20T10:38:06Z</time>
      </trkpt>
      <trkpt lat="44.01412" lon="4.31615">
        <ele>240.5</ele>
        <time>2011-11-20T10:38:08Z</time>
      </trkpt>
      <trkpt lat="44.01415" lon="4.31606">
        <ele>240.8</ele>
        <time>2011-11-20T10:38:10Z</time>
      </trkpt>
      <trkpt lat="44.01418" lon="4.31597">
        <ele>241.1</ele>
        <time>2011-11-20T10:38:12Z</time>
      </trkpt>
      <trkpt lat="44.01419" lon="4.31588">
        <ele>241.3</ele>
        <time>2011-11-20T10:38:14Z</time>
      </trkpt>
      <trkpt lat="44.01421" lon="4.31578">
        <ele>241.8</ele>
        <time>2011-11-20T10:38:16Z</time>
      </trkpt>
      <trkpt lat="44.01422" lon="4.31569">
        <ele>242.1</ele>
        <time>2011-11-20T10:38:18Z</time>
      </trkpt>
      <trkpt lat="44.01422" lon="4.31559">
        <ele>242.5</ele>
        <time>2011-11-20T10:38:20Z</time>
      </trkpt>
      <trkpt lat="44.01422" lon="4.31548">
        <ele>242.5</ele>
        <time>2011-11-20T10:38:22Z</time>
      </trkpt>
      <trkpt lat="44.01422" lon="4.31538">
        <ele>242.6</ele>
        <time>2011-11-20T10:38:24Z</time>
      </trkpt>
      <trkpt lat="44.01422" lon="4.31526">
        <ele>242.8</ele>
        <time>2011-11-20T10:38:26Z</time>
      </trkpt>
      <trkpt lat="44.01423" lon="4.31514">
        <ele>243</ele>
        <time>2011-11-20T10:38:28Z</time>
      </trkpt>
      <trkpt lat="44.01423" lon="4.31508">
        <ele>243.1</ele>
        <time>2011-11-20T10:38:29Z</time>
      </trkpt>
      <trkpt lat="44.01423" lon="4.31495">
        <ele>243.2</ele>
        <time>2011-11-20T10:38:31Z</time>
      </trkpt>
      <trkpt lat="44.01423" lon="4.31483">
        <ele>243.4</ele>
        <time>2011-11-20T10:38:33Z</time>
      </trkpt>
      <trkpt lat="44.01423" lon="4.31477">
        <ele>243.4</ele>
        <time>2011-11-20T10:38:34Z</time>
      </trkpt>
      <trkpt lat="44.01423" lon="4.3147">
        <ele>243.5</ele>
        <time>2011-11-20T10:38:35Z</time>
      </trkpt>
      <trkpt lat="44.01423" lon="4.31463">
        <ele>243.7</ele>
        <time>2011-11-20T10:38:36Z</time>
      </trkpt>
      <trkpt lat="44.01424" lon="4.31457">
        <ele>243.8</ele>
        <time>2011-11-20T10:38:37Z</time>
      </trkpt>
      <trkpt lat="44.01423" lon="4.3145">
        <ele>243.9</ele>
        <time>2011-11-20T10:38:38Z</time>
      </trkpt>
      <trkpt lat="44.01423" lon="4.31442">
        <ele>244</ele>
        <time>2011-11-20T10:38:39Z</time>
      </trkpt>
      <trkpt lat="44.01423" lon="4.31435">
        <ele>244.2</ele>
        <time>2011-11-20T10:38:40Z</time>
      </trkpt>
      <trkpt lat="44.01424" lon="4.31428">
        <ele>244.4</ele>
        <time>2011-11-20T10:38:41Z</time>
      </trkpt>
      <trkpt lat="44.01424" lon="4.31421">
        <ele>244.6</ele>
        <time>2011-11-20T10:38:42Z</time>
      </trkpt>
      <trkpt lat="44.01424" lon="4.31414">
        <ele>244.7</ele>
        <time>2011-11-20T10:38:43Z</time>
      </trkpt>
      <trkpt lat="44.01424" lon="4.31407">
        <ele>244.8</ele>
        <time>2011-11-20T10:38:44Z</time>
      </trkpt>
      <trkpt lat="44.01424" lon="4.314">
        <ele>244.9</ele>
        <time>2011-11-20T10:38:45Z</time>
      </trkpt>
      <trkpt lat="44.01424" lon="4.31392">
        <ele>245</ele>
        <time>2011-11-20T10:38:46Z</time>
      </trkpt>
      <trkpt lat="44.01424" lon="4.31385">
        <ele>245</ele>
        <time>2011-11-20T10:38:47Z</time>
      </trkpt>
      <trkpt lat="44.01424" lon="4.31378">
        <ele>244.9</ele>
        <time>2011-11-20T10:38:48Z</time>
      </trkpt>
      <trkpt lat="44.01424" lon="4.31371">
        <ele>245</ele>
        <time>2011-11-20T10:38:49Z</time>
      </trkpt>
      <trkpt lat="44.01423" lon="4.31364">
        <ele>244.9</ele>
        <time>2011-11-20T10:38:50Z</time>
      </trkpt>
      <trkpt lat="44.01423" lon="4.31356">
        <ele>245</ele>
        <time>2011-11-20T10:38:51Z</time>
      </trkpt>
      <trkpt lat="44.01423" lon="4.31349">
        <ele>245.1</ele>
        <time>2011-11-20T10:38:52Z</time>
      </trkpt>
      <trkpt lat="44.01423" lon="4.31342">
        <ele>245.2</ele>
        <time>2011-11-20T10:38:53Z</time>
      </trkpt>
      <trkpt lat="44.01422" lon="4.31336">
        <ele>245.3</ele>
        <time>2011-11-20T10:38:54Z</time>
      </trkpt>
      <trkpt lat="44.01422" lon="4.31328">
        <ele>245.3</ele>
        <time>2011-11-20T10:38:55Z</time>
      </trkpt>
      <trkpt lat="44.01422" lon="4.31322">
        <ele>245.4</ele>
        <time>2011-11-20T10:38:56Z</time>
      </trkpt>
      <trkpt lat="44.01421" lon="4.31315">
        <ele>245.5</ele>
        <time>2011-11-20T10:38:57Z</time>
      </trkpt>
      <trkpt lat="44.01421" lon="4.31309">
        <ele>245.5</ele>
        <time>2011-11-20T10:38:58Z</time>
      </trkpt>
      <trkpt lat="44.0142" lon="4.31297">
        <ele>245.9</ele>
        <time>2011-11-20T10:39:00Z</time>
      </trkpt>
      <trkpt lat="44.0142" lon="4.31288">
        <ele>246.1</ele>
        <time>2011-11-20T10:39:02Z</time>
      </trkpt>
      <trkpt lat="44.01419" lon="4.31282">
        <ele>246.3</ele>
        <time>2011-11-20T10:39:04Z</time>
      </trkpt>
      <trkpt lat="44.01413" lon="4.31285">
        <ele>252.6</ele>
        <time>2011-11-20T10:40:21Z</time>
      </trkpt>
      <trkpt lat="44.01408" lon="4.31286">
        <ele>253</ele>
        <time>2011-11-20T10:40:26Z</time>
      </trkpt>
      <trkpt lat="44.01402" lon="4.31286">
        <ele>253.4</ele>
        <time>2011-11-20T10:40:29Z</time>
      </trkpt>
      <trkpt lat="44.01394" lon="4.31284">
        <ele>253.6</ele>
        <time>2011-11-20T10:40:32Z</time>
      </trkpt>
      <trkpt lat="44.01388" lon="4.3128">
        <ele>253.7</ele>
        <time>2011-11-20T10:40:34Z</time>
      </trkpt>
      <trkpt lat="44.01382" lon="4.31275">
        <ele>253.7</ele>
        <time>2011-11-20T10:40:36Z</time>
      </trkpt>
      <trkpt lat="44.01376" lon="4.3127">
        <ele>253.8</ele>
        <time>2011-11-20T10:40:38Z</time>
      </trkpt>
      <trkpt lat="44.01368" lon="4.31265">
        <ele>253.6</ele>
        <time>2011-11-20T10:40:40Z</time>
      </trkpt>
      <trkpt lat="44.0136" lon="4.31261">
        <ele>253.3</ele>
        <time>2011-11-20T10:40:42Z</time>
      </trkpt>
      <trkpt lat="44.01356" lon="4.31259">
        <ele>253.2</ele>
        <time>2011-11-20T10:40:43Z</time>
      </trkpt>
      <trkpt lat="44.0135" lon="4.31257">
        <ele>253.2</ele>
        <time>2011-11-20T10:40:44Z</time>
      </trkpt>
      <trkpt lat="44.01345" lon="4.31256">
        <ele>253.1</ele>
        <time>2011-11-20T10:40:45Z</time>
      </trkpt>
      <trkpt lat="44.01339" lon="4.31254">
        <ele>253.1</ele>
        <time>2011-11-20T10:40:46Z</time>
      </trkpt>
      <trkpt lat="44.01333" lon="4.31252">
        <ele>253.2</ele>
        <time>2011-11-20T10:40:47Z</time>
      </trkpt>
      <trkpt lat="44.01328" lon="4.3125">
        <ele>253.2</ele>
        <time>2011-11-20T10:40:48Z</time>
      </trkpt>
      <trkpt lat="44.01323" lon="4.31246">
        <ele>253</ele>
        <time>2011-11-20T10:40:49Z</time>
      </trkpt>
      <trkpt lat="44.01318" lon="4.31242">
        <ele>252.9</ele>
        <time>2011-11-20T10:40:50Z</time>
      </trkpt>
      <trkpt lat="44.01312" lon="4.31238">
        <ele>252.8</ele>
        <time>2011-11-20T10:40:51Z</time>
      </trkpt>
      <trkpt lat="44.01306" lon="4.31234">
        <ele>252.8</ele>
        <time>2011-11-20T10:40:52Z</time>
      </trkpt>
      <trkpt lat="44.013" lon="4.3123">
        <ele>252.8</ele>
        <time>2011-11-20T10:40:53Z</time>
      </trkpt>
      <trkpt lat="44.01293" lon="4.31226">
        <ele>252.8</ele>
        <time>2011-11-20T10:40:54Z</time>
      </trkpt>
      <trkpt lat="44.01287" lon="4.31222">
        <ele>252.7</ele>
        <time>2011-11-20T10:40:55Z</time>
      </trkpt>
      <trkpt lat="44.0128" lon="4.31217">
        <ele>252.5</ele>
        <time>2011-11-20T10:40:56Z</time>
      </trkpt>
      <trkpt lat="44.01273" lon="4.31211">
        <ele>252.4</ele>
        <time>2011-11-20T10:40:57Z</time>
      </trkpt>
      <trkpt lat="44.01267" lon="4.31205">
        <ele>252.3</ele>
        <time>2011-11-20T10:40:58Z</time>
      </trkpt>
      <trkpt lat="44.01261" lon="4.312">
        <ele>252.1</ele>
        <time>2011-11-20T10:40:59Z</time>
      </trkpt>
      <trkpt lat="44.01254" lon="4.31195">
        <ele>252</ele>
        <time>2011-11-20T10:41:00Z</time>
      </trkpt>
      <trkpt lat="44.01248" lon="4.3119">
        <ele>251.9</ele>
        <time>2011-11-20T10:41:01Z</time>
      </trkpt>
      <trkpt lat="44.01242" lon="4.31185">
        <ele>251.9</ele>
        <time>2011-11-20T10:41:02Z</time>
      </trkpt>
      <trkpt lat="44.01235" lon="4.3118">
        <ele>251.8</ele>
        <time>2011-11-20T10:41:03Z</time>
      </trkpt>
      <trkpt lat="44.01227" lon="4.31175">
        <ele>251.7</ele>
        <time>2011-11-20T10:41:04Z</time>
      </trkpt>
      <trkpt lat="44.01222" lon="4.31172">
        <ele>251.7</ele>
        <time>2011-11-20T10:41:05Z</time>
      </trkpt>
      <trkpt lat="44.01216" lon="4.31168">
        <ele>251.6</ele>
        <time>2011-11-20T10:41:06Z</time>
      </trkpt>
      <trkpt lat="44.0121" lon="4.31165">
        <ele>251.5</ele>
        <time>2011-11-20T10:41:07Z</time>
      </trkpt>
      <trkpt lat="44.01203" lon="4.31162">
        <ele>251.5</ele>
        <time>2011-11-20T10:41:08Z</time>
      </trkpt>
      <trkpt lat="44.01197" lon="4.31159">
        <ele>251.5</ele>
        <time>2011-11-20T10:41:09Z</time>
      </trkpt>
      <trkpt lat="44.0119" lon="4.31156">
        <ele>251.5</ele>
        <time>2011-11-20T10:41:10Z</time>
      </trkpt>
      <trkpt lat="44.01183" lon="4.31154">
        <ele>251.5</ele>
        <time>2011-11-20T10:41:11Z</time>
      </trkpt>
      <trkpt lat="44.01177" lon="4.31152">
        <ele>251.3</ele>
        <time>2011-11-20T10:41:12Z</time>
      </trkpt>
      <trkpt lat="44.0117" lon="4.31152">
        <ele>251.2</ele>
        <time>2011-11-20T10:41:13Z</time>
      </trkpt>
      <trkpt lat="44.01164" lon="4.31152">
        <ele>251.1</ele>
        <time>2011-11-20T10:41:14Z</time>
      </trkpt>
      <trkpt lat="44.01157" lon="4.31153">
        <ele>251.2</ele>
        <time>2011-11-20T10:41:15Z</time>
      </trkpt>
      <trkpt lat="44.0115" lon="4.31155">
        <ele>251</ele>
        <time>2011-11-20T10:41:16Z</time>
      </trkpt>
      <trkpt lat="44.01144" lon="4.31157">
        <ele>251</ele>
        <time>2011-11-20T10:41:17Z</time>
      </trkpt>
      <trkpt lat="44.01138" lon="4.31159">
        <ele>251</ele>
        <time>2011-11-20T10:41:18Z</time>
      </trkpt>
      <trkpt lat="44.01132" lon="4.31162">
        <ele>250.8</ele>
        <time>2011-11-20T10:41:19Z</time>
      </trkpt>
      <trkpt lat="44.01126" lon="4.31163">
        <ele>250.8</ele>
        <time>2011-11-20T10:41:20Z</time>
      </trkpt>
      <trkpt lat="44.0112" lon="4.31165">
        <ele>250.8</ele>
        <time>2011-11-20T10:41:21Z</time>
      </trkpt>
      <trkpt lat="44.01114" lon="4.31166">
        <ele>250.6</ele>
        <time>2011-11-20T10:41:22Z</time>
      </trkpt>
      <trkpt lat="44.01108" lon="4.31168">
        <ele>250.5</ele>
        <time>2011-11-20T10:41:23Z</time>
      </trkpt>
      <trkpt lat="44.01102" lon="4.31168">
        <ele>250.4</ele>
        <time>2011-11-20T10:41:24Z</time>
      </trkpt>
      <trkpt lat="44.01097" lon="4.31168">
        <ele>250.3</ele>
        <time>2011-11-20T10:41:25Z</time>
      </trkpt>
      <trkpt lat="44.01092" lon="4.31167">
        <ele>250.2</ele>
        <time>2011-11-20T10:41:26Z</time>
      </trkpt>
      <trkpt lat="44.01086" lon="4.31164">
        <ele>250</ele>
        <time>2011-11-20T10:41:27Z</time>
      </trkpt>
      <trkpt lat="44.01082" lon="4.31162">
        <ele>249.9</ele>
        <time>2011-11-20T10:41:28Z</time>
      </trkpt>
      <trkpt lat="44.01074" lon="4.31158">
        <ele>249.6</ele>
        <time>2011-11-20T10:41:30Z</time>
      </trkpt>
      <trkpt lat="44.01068" lon="4.31155">
        <ele>248.2</ele>
        <time>2011-11-20T10:41:32Z</time>
      </trkpt>
      <trkpt lat="44.01062" lon="4.31153">
        <ele>245.9</ele>
        <time>2011-11-20T10:41:35Z</time>
      </trkpt>
      <trkpt lat="44.01057" lon="4.31152">
        <ele>244.9</ele>
        <time>2011-11-20T10:41:39Z</time>
      </trkpt>
      <trkpt lat="44.01054" lon="4.31158">
        <ele>244.3</ele>
        <time>2011-11-20T10:41:46Z</time>
      </trkpt>
      <trkpt lat="44.01053" lon="4.31166">
        <ele>243.7</ele>
        <time>2011-11-20T10:41:50Z</time>
      </trkpt>
      <trkpt lat="44.01054" lon="4.31175">
        <ele>243.3</ele>
        <time>2011-11-20T10:41:53Z</time>
      </trkpt>
      <trkpt lat="44.01055" lon="4.31182">
        <ele>242.8</ele>
        <time>2011-11-20T10:41:55Z</time>
      </trkpt>
      <trkpt lat="44.01057" lon="4.31188">
        <ele>242.7</ele>
        <time>2011-11-20T10:41:57Z</time>
      </trkpt>
      <trkpt lat="44.0106" lon="4.31195">
        <ele>242.5</ele>
        <time>2011-11-20T10:41:59Z</time>
      </trkpt>
      <trkpt lat="44.01064" lon="4.31202">
        <ele>242.1</ele>
        <time>2011-11-20T10:42:01Z</time>
      </trkpt>
      <trkpt lat="44.01071" lon="4.3121">
        <ele>242.7</ele>
        <time>2011-11-20T10:42:03Z</time>
      </trkpt>
      <trkpt lat="44.01077" lon="4.31219">
        <ele>243.7</ele>
        <time>2011-11-20T10:42:05Z</time>
      </trkpt>
      <trkpt lat="44.0108" lon="4.31224">
        <ele>243.8</ele>
        <time>2011-11-20T10:42:06Z</time>
      </trkpt>
      <trkpt lat="44.01083" lon="4.31229">
        <ele>243.9</ele>
        <time>2011-11-20T10:42:07Z</time>
      </trkpt>
      <trkpt lat="44.01085" lon="4.31235">
        <ele>243.9</ele>
        <time>2011-11-20T10:42:08Z</time>
      </trkpt>
      <trkpt lat="44.01088" lon="4.31242">
        <ele>243.7</ele>
        <time>2011-11-20T10:42:09Z</time>
      </trkpt>
      <trkpt lat="44.01091" lon="4.31249">
        <ele>243.4</ele>
        <time>2011-11-20T10:42:10Z</time>
      </trkpt>
      <trkpt lat="44.01094" lon="4.31255">
        <ele>243.4</ele>
        <time>2011-11-20T10:42:11Z</time>
      </trkpt>
      <trkpt lat="44.01096" lon="4.31262">
        <ele>243.4</ele>
        <time>2011-11-20T10:42:12Z</time>
      </trkpt>
      <trkpt lat="44.01099" lon="4.31269">
        <ele>243</ele>
        <time>2011-11-20T10:42:13Z</time>
      </trkpt>
      <trkpt lat="44.01101" lon="4.31276">
        <ele>242.7</ele>
        <time>2011-11-20T10:42:14Z</time>
      </trkpt>
      <trkpt lat="44.01103" lon="4.31282">
        <ele>242.4</ele>
        <time>2011-11-20T10:42:15Z</time>
      </trkpt>
      <trkpt lat="44.01106" lon="4.3129">
        <ele>241.9</ele>
        <time>2011-11-20T10:42:16Z</time>
      </trkpt>
      <trkpt lat="44.01109" lon="4.31303">
        <ele>241.4</ele>
        <time>2011-11-20T10:42:18Z</time>
      </trkpt>
      <trkpt lat="44.0111" lon="4.3131">
        <ele>241</ele>
        <time>2011-11-20T10:42:19Z</time>
      </trkpt>
      <trkpt lat="44.0111" lon="4.31317">
        <ele>240.8</ele>
        <time>2011-11-20T10:42:20Z</time>
      </trkpt>
      <trkpt lat="44.0111" lon="4.31324">
        <ele>240.4</ele>
        <time>2011-11-20T10:42:21Z</time>
      </trkpt>
      <trkpt lat="44.01109" lon="4.31332">
        <ele>240.1</ele>
        <time>2011-11-20T10:42:22Z</time>
      </trkpt>
      <trkpt lat="44.01108" lon="4.3134">
        <ele>239.6</ele>
        <time>2011-11-20T10:42:23Z</time>
      </trkpt>
      <trkpt lat="44.01107" lon="4.31348">
        <ele>239.3</ele>
        <time>2011-11-20T10:42:24Z</time>
      </trkpt>
      <trkpt lat="44.01106" lon="4.31385">
        <ele>238.9</ele>
        <time>2011-11-20T10:42:25Z</time>
      </trkpt>
      <trkpt lat="44.01103" lon="4.31392">
        <ele>238.5</ele>
        <time>2011-11-20T10:42:26Z</time>
      </trkpt>
      <trkpt lat="44.01099" lon="4.31398">
        <ele>238.2</ele>
        <time>2011-11-20T10:42:27Z</time>
      </trkpt>
      <trkpt lat="44.01096" lon="4.31403">
        <ele>237.9</ele>
        <time>2011-11-20T10:42:28Z</time>
      </trkpt>
      <trkpt lat="44.01093" lon="4.31408">
        <ele>237.6</ele>
        <time>2011-11-20T10:42:29Z</time>
      </trkpt>
      <trkpt lat="44.0109" lon="4.31414">
        <ele>237.2</ele>
        <time>2011-11-20T10:42:30Z</time>
      </trkpt>
      <trkpt lat="44.01086" lon="4.31425">
        <ele>236.5</ele>
        <time>2011-11-20T10:42:32Z</time>
      </trkpt>
      <trkpt lat="44.01084" lon="4.3143">
        <ele>236.2</ele>
        <time>2011-11-20T10:42:33Z</time>
      </trkpt>
      <trkpt lat="44.0108" lon="4.31436">
        <ele>235.9</ele>
        <time>2011-11-20T10:42:34Z</time>
      </trkpt>
      <trkpt lat="44.01078" lon="4.31441">
        <ele>235.8</ele>
        <time>2011-11-20T10:42:35Z</time>
      </trkpt>
      <trkpt lat="44.01075" lon="4.31446">
        <ele>235.6</ele>
        <time>2011-11-20T10:42:36Z</time>
      </trkpt>
      <trkpt lat="44.01069" lon="4.31454">
        <ele>235.4</ele>
        <time>2011-11-20T10:42:38Z</time>
      </trkpt>
      <trkpt lat="44.01062" lon="4.31458">
        <ele>235.3</ele>
        <time>2011-11-20T10:42:40Z</time>
      </trkpt>
      <trkpt lat="44.01054" lon="4.31456">
        <ele>235.3</ele>
        <time>2011-11-20T10:42:42Z</time>
      </trkpt>
      <trkpt lat="44.01046" lon="4.31451">
        <ele>235.5</ele>
        <time>2011-11-20T10:42:44Z</time>
      </trkpt>
      <trkpt lat="44.01041" lon="4.31448">
        <ele>235.7</ele>
        <time>2011-11-20T10:42:45Z</time>
      </trkpt>
      <trkpt lat="44.01037" lon="4.31444">
        <ele>235.7</ele>
        <time>2011-11-20T10:42:46Z</time>
      </trkpt>
      <trkpt lat="44.01029" lon="4.31442">
        <ele>235.7</ele>
        <time>2011-11-20T10:42:48Z</time>
      </trkpt>
      <trkpt lat="44.01022" lon="4.31441">
        <ele>235.7</ele>
        <time>2011-11-20T10:42:50Z</time>
      </trkpt>
      <trkpt lat="44.01015" lon="4.31436">
        <ele>235.7</ele>
        <time>2011-11-20T10:42:52Z</time>
      </trkpt>
      <trkpt lat="44.01008" lon="4.31433">
        <ele>235.6</ele>
        <time>2011-11-20T10:42:54Z</time>
      </trkpt>
      <trkpt lat="44.01" lon="4.31431">
        <ele>235.5</ele>
        <time>2011-11-20T10:42:56Z</time>
      </trkpt>
      <trkpt lat="44.00992" lon="4.31431">
        <ele>235.1</ele>
        <time>2011-11-20T10:42:58Z</time>
      </trkpt>
      <trkpt lat="44.00984" lon="4.31434">
        <ele>234.7</ele>
        <time>2011-11-20T10:43:00Z</time>
      </trkpt>
      <trkpt lat="44.0098" lon="4.31434">
        <ele>234.7</ele>
        <time>2011-11-20T10:43:01Z</time>
      </trkpt>
      <trkpt lat="44.0097" lon="4.31437">
        <ele>234.5</ele>
        <time>2011-11-20T10:43:03Z</time>
      </trkpt>
      <trkpt lat="44.00962" lon="4.31439">
        <ele>234.3</ele>
        <time>2011-11-20T10:43:05Z</time>
      </trkpt>
      <trkpt lat="44.00953" lon="4.31441">
        <ele>234.4</ele>
        <time>2011-11-20T10:43:07Z</time>
      </trkpt>
      <trkpt lat="44.00948" lon="4.31442">
        <ele>234.2</ele>
        <time>2011-11-20T10:43:08Z</time>
      </trkpt>
      <trkpt lat="44.00943" lon="4.31444">
        <ele>234</ele>
        <time>2011-11-20T10:43:09Z</time>
      </trkpt>
      <trkpt lat="44.00935" lon="4.31446">
        <ele>233.6</ele>
        <time>2011-11-20T10:43:11Z</time>
      </trkpt>
      <trkpt lat="44.00927" lon="4.31446">
        <ele>233.3</ele>
        <time>2011-11-20T10:43:13Z</time>
      </trkpt>
      <trkpt lat="44.00922" lon="4.31446">
        <ele>232.4</ele>
        <time>2011-11-20T10:43:15Z</time>
      </trkpt>
      <trkpt lat="44.00922" lon="4.31438">
        <ele>226.3</ele>
        <time>2011-11-20T10:44:00Z</time>
      </trkpt>
      <trkpt lat="44.00921" lon="4.31431">
        <ele>226.3</ele>
        <time>2011-11-20T10:44:03Z</time>
      </trkpt>
      <trkpt lat="44.00918" lon="4.31423">
        <ele>226.1</ele>
        <time>2011-11-20T10:44:06Z</time>
      </trkpt>
      <trkpt lat="44.00912" lon="4.31418">
        <ele>225.9</ele>
        <time>2011-11-20T10:44:09Z</time>
      </trkpt>
      <trkpt lat="44.00905" lon="4.31418">
        <ele>226.1</ele>
        <time>2011-11-20T10:44:11Z</time>
      </trkpt>
      <trkpt lat="44.00899" lon="4.31418">
        <ele>225.8</ele>
        <time>2011-11-20T10:44:13Z</time>
      </trkpt>
      <trkpt lat="44.00892" lon="4.31419">
        <ele>225</ele>
        <time>2011-11-20T10:44:15Z</time>
      </trkpt>
      <trkpt lat="44.00884" lon="4.31422">
        <ele>223.9</ele>
        <time>2011-11-20T10:44:17Z</time>
      </trkpt>
      <trkpt lat="44.00876" lon="4.31425">
        <ele>223.3</ele>
        <time>2011-11-20T10:44:19Z</time>
      </trkpt>
      <trkpt lat="44.00871" lon="4.31426">
        <ele>222.9</ele>
        <time>2011-11-20T10:44:20Z</time>
      </trkpt>
      <trkpt lat="44.00866" lon="4.31428">
        <ele>222.7</ele>
        <time>2011-11-20T10:44:21Z</time>
      </trkpt>
      <trkpt lat="44.00862" lon="4.3143">
        <ele>222.3</ele>
        <time>2011-11-20T10:44:22Z</time>
      </trkpt>
      <trkpt lat="44.00853" lon="4.31432">
        <ele>221.8</ele>
        <time>2011-11-20T10:44:24Z</time>
      </trkpt>
      <trkpt lat="44.00845" lon="4.31432">
        <ele>221.7</ele>
        <time>2011-11-20T10:44:26Z</time>
      </trkpt>
      <trkpt lat="44.00838" lon="4.31431">
        <ele>221.7</ele>
        <time>2011-11-20T10:44:28Z</time>
      </trkpt>
      <trkpt lat="44.00829" lon="4.31426">
        <ele>221.7</ele>
        <time>2011-11-20T10:44:30Z</time>
      </trkpt>
      <trkpt lat="44.00825" lon="4.31423">
        <ele>221.8</ele>
        <time>2011-11-20T10:44:31Z</time>
      </trkpt>
      <trkpt lat="44.0082" lon="4.31419">
        <ele>222</ele>
        <time>2011-11-20T10:44:32Z</time>
      </trkpt>
      <trkpt lat="44.00816" lon="4.31415">
        <ele>222.1</ele>
        <time>2011-11-20T10:44:33Z</time>
      </trkpt>
      <trkpt lat="44.00812" lon="4.31411">
        <ele>222.1</ele>
        <time>2011-11-20T10:44:34Z</time>
      </trkpt>
      <trkpt lat="44.00806" lon="4.31408">
        <ele>222</ele>
        <time>2011-11-20T10:44:35Z</time>
      </trkpt>
      <trkpt lat="44.00801" lon="4.31404">
        <ele>221.9</ele>
        <time>2011-11-20T10:44:36Z</time>
      </trkpt>
      <trkpt lat="44.00796" lon="4.314">
        <ele>222</ele>
        <time>2011-11-20T10:44:37Z</time>
      </trkpt>
      <trkpt lat="44.00791" lon="4.31396">
        <ele>221.8</ele>
        <time>2011-11-20T10:44:38Z</time>
      </trkpt>
      <trkpt lat="44.00785" lon="4.31393">
        <ele>221.8</ele>
        <time>2011-11-20T10:44:39Z</time>
      </trkpt>
      <trkpt lat="44.0078" lon="4.3139">
        <ele>221.8</ele>
        <time>2011-11-20T10:44:40Z</time>
      </trkpt>
      <trkpt lat="44.00774" lon="4.31388">
        <ele>221.7</ele>
        <time>2011-11-20T10:44:41Z</time>
      </trkpt>
      <trkpt lat="44.00769" lon="4.31385">
        <ele>220.6</ele>
        <time>2011-11-20T10:44:42Z</time>
      </trkpt>
      <trkpt lat="44.00763" lon="4.31384">
        <ele>220.2</ele>
        <time>2011-11-20T10:44:43Z</time>
      </trkpt>
      <trkpt lat="44.00757" lon="4.31384">
        <ele>219.9</ele>
        <time>2011-11-20T10:44:44Z</time>
      </trkpt>
      <trkpt lat="44.00751" lon="4.31383">
        <ele>219.8</ele>
        <time>2011-11-20T10:44:45Z</time>
      </trkpt>
      <trkpt lat="44.00746" lon="4.31383">
        <ele>219.4</ele>
        <time>2011-11-20T10:44:46Z</time>
      </trkpt>
      <trkpt lat="44.0074" lon="4.31382">
        <ele>219.1</ele>
        <time>2011-11-20T10:44:47Z</time>
      </trkpt>
      <trkpt lat="44.00733" lon="4.31381">
        <ele>218.8</ele>
        <time>2011-11-20T10:44:48Z</time>
      </trkpt>
      <trkpt lat="44.00727" lon="4.3138">
        <ele>218.5</ele>
        <time>2011-11-20T10:44:49Z</time>
      </trkpt>
      <trkpt lat="44.00722" lon="4.31377">
        <ele>218.2</ele>
        <time>2011-11-20T10:44:50Z</time>
      </trkpt>
      <trkpt lat="44.00716" lon="4.31374">
        <ele>217.7</ele>
        <time>2011-11-20T10:44:51Z</time>
      </trkpt>
      <trkpt lat="44.0071" lon="4.31371">
        <ele>217.1</ele>
        <time>2011-11-20T10:44:52Z</time>
      </trkpt>
      <trkpt lat="44.00705" lon="4.31368">
        <ele>216.9</ele>
        <time>2011-11-20T10:44:53Z</time>
      </trkpt>
      <trkpt lat="44.007" lon="4.31365">
        <ele>216.8</ele>
        <time>2011-11-20T10:44:54Z</time>
      </trkpt>
      <trkpt lat="44.00695" lon="4.31362">
        <ele>216.5</ele>
        <time>2011-11-20T10:44:55Z</time>
      </trkpt>
      <trkpt lat="44.0069" lon="4.31359">
        <ele>216.4</ele>
        <time>2011-11-20T10:44:56Z</time>
      </trkpt>
      <trkpt lat="44.00684" lon="4.31356">
        <ele>216</ele>
        <time>2011-11-20T10:44:57Z</time>
      </trkpt>
      <trkpt lat="44.00679" lon="4.31354">
        <ele>215.7</ele>
        <time>2011-11-20T10:44:58Z</time>
      </trkpt>
      <trkpt lat="44.00674" lon="4.31352">
        <ele>215.3</ele>
        <time>2011-11-20T10:44:59Z</time>
      </trkpt>
      <trkpt lat="44.00668" lon="4.31352">
        <ele>214.9</ele>
        <time>2011-11-20T10:45:00Z</time>
      </trkpt>
      <trkpt lat="44.00662" lon="4.31353">
        <ele>214.6</ele>
        <time>2011-11-20T10:45:01Z</time>
      </trkpt>
      <trkpt lat="44.00657" lon="4.31354">
        <ele>214.2</ele>
        <time>2011-11-20T10:45:02Z</time>
      </trkpt>
      <trkpt lat="44.00652" lon="4.31355">
        <ele>213.8</ele>
        <time>2011-11-20T10:45:03Z</time>
      </trkpt>
      <trkpt lat="44.00647" lon="4.31357">
        <ele>213.5</ele>
        <time>2011-11-20T10:45:04Z</time>
      </trkpt>
      <trkpt lat="44.00642" lon="4.31362">
        <ele>213.2</ele>
        <time>2011-11-20T10:45:05Z</time>
      </trkpt>
      <trkpt lat="44.00639" lon="4.31367">
        <ele>212.9</ele>
        <time>2011-11-20T10:45:06Z</time>
      </trkpt>
      <trkpt lat="44.00636" lon="4.31374">
        <ele>212.3</ele>
        <time>2011-11-20T10:45:07Z</time>
      </trkpt>
      <trkpt lat="44.00635" lon="4.31382">
        <ele>211.9</ele>
        <time>2011-11-20T10:45:08Z</time>
      </trkpt>
      <trkpt lat="44.00632" lon="4.31387">
        <ele>211.6</ele>
        <time>2011-11-20T10:45:09Z</time>
      </trkpt>
      <trkpt lat="44.0063" lon="4.31392">
        <ele>211.2</ele>
        <time>2011-11-20T10:45:10Z</time>
      </trkpt>
      <trkpt lat="44.00626" lon="4.31398">
        <ele>211</ele>
        <time>2011-11-20T10:45:11Z</time>
      </trkpt>
      <trkpt lat="44.00622" lon="4.31402">
        <ele>210.8</ele>
        <time>2011-11-20T10:45:12Z</time>
      </trkpt>
      <trkpt lat="44.00619" lon="4.31406">
        <ele>210.7</ele>
        <time>2011-11-20T10:45:13Z</time>
      </trkpt>
      <trkpt lat="44.00613" lon="4.31413">
        <ele>210.4</ele>
        <time>2011-11-20T10:45:15Z</time>
      </trkpt>
      <trkpt lat="44.00609" lon="4.31421">
        <ele>208</ele>
        <time>2011-11-20T10:45:17Z</time>
      </trkpt>
      <trkpt lat="44.00607" lon="4.31431">
        <ele>206.9</ele>
        <time>2011-11-20T10:45:19Z</time>
      </trkpt>
      <trkpt lat="44.00608" lon="4.31437">
        <ele>206.6</ele>
        <time>2011-11-20T10:45:20Z</time>
      </trkpt>
      <trkpt lat="44.00609" lon="4.31444">
        <ele>206.2</ele>
        <time>2011-11-20T10:45:21Z</time>
      </trkpt>
      <trkpt lat="44.0061" lon="4.31452">
        <ele>205.8</ele>
        <time>2011-11-20T10:45:22Z</time>
      </trkpt>
      <trkpt lat="44.0061" lon="4.31459">
        <ele>205.3</ele>
        <time>2011-11-20T10:45:23Z</time>
      </trkpt>
      <trkpt lat="44.0061" lon="4.31466">
        <ele>204.8</ele>
        <time>2011-11-20T10:45:24Z</time>
      </trkpt>
      <trkpt lat="44.0061" lon="4.31473">
        <ele>204.4</ele>
        <time>2011-11-20T10:45:25Z</time>
      </trkpt>
      <trkpt lat="44.0061" lon="4.3148">
        <ele>204</ele>
        <time>2011-11-20T10:45:26Z</time>
      </trkpt>
      <trkpt lat="44.0061" lon="4.31486">
        <ele>203.7</ele>
        <time>2011-11-20T10:45:27Z</time>
      </trkpt>
      <trkpt lat="44.00609" lon="4.31492">
        <ele>203.4</ele>
        <time>2011-11-20T10:45:28Z</time>
      </trkpt>
      <trkpt lat="44.00606" lon="4.31503">
        <ele>202.8</ele>
        <time>2011-11-20T10:45:30Z</time>
      </trkpt>
      <trkpt lat="44.00603" lon="4.31514">
        <ele>201.5</ele>
        <time>2011-11-20T10:45:32Z</time>
      </trkpt>
      <trkpt lat="44.006" lon="4.31525">
        <ele>199.8</ele>
        <time>2011-11-20T10:45:34Z</time>
      </trkpt>
      <trkpt lat="44.00598" lon="4.31537">
        <ele>198.3</ele>
        <time>2011-11-20T10:45:36Z</time>
      </trkpt>
      <trkpt lat="44.00596" lon="4.31548">
        <ele>197</ele>
        <time>2011-11-20T10:45:38Z</time>
      </trkpt>
      <trkpt lat="44.00594" lon="4.31554">
        <ele>196.4</ele>
        <time>2011-11-20T10:45:39Z</time>
      </trkpt>
      <trkpt lat="44.00592" lon="4.3156">
        <ele>195.9</ele>
        <time>2011-11-20T10:45:40Z</time>
      </trkpt>
      <trkpt lat="44.0059" lon="4.31566">
        <ele>195.4</ele>
        <time>2011-11-20T10:45:41Z</time>
      </trkpt>
      <trkpt lat="44.00587" lon="4.31572">
        <ele>195</ele>
        <time>2011-11-20T10:45:42Z</time>
      </trkpt>
      <trkpt lat="44.00584" lon="4.31577">
        <ele>194.7</ele>
        <time>2011-11-20T10:45:43Z</time>
      </trkpt>
      <trkpt lat="44.00581" lon="4.31582">
        <ele>194.3</ele>
        <time>2011-11-20T10:45:44Z</time>
      </trkpt>
      <trkpt lat="44.00578" lon="4.31588">
        <ele>194</ele>
        <time>2011-11-20T10:45:45Z</time>
      </trkpt>
      <trkpt lat="44.00575" lon="4.31593">
        <ele>193.7</ele>
        <time>2011-11-20T10:45:46Z</time>
      </trkpt>
      <trkpt lat="44.00572" lon="4.31598">
        <ele>193.4</ele>
        <time>2011-11-20T10:45:47Z</time>
      </trkpt>
      <trkpt lat="44.0057" lon="4.31604">
        <ele>193</ele>
        <time>2011-11-20T10:45:48Z</time>
      </trkpt>
      <trkpt lat="44.00567" lon="4.31609">
        <ele>192.7</ele>
        <time>2011-11-20T10:45:49Z</time>
      </trkpt>
      <trkpt lat="44.00565" lon="4.31615">
        <ele>192.4</ele>
        <time>2011-11-20T10:45:50Z</time>
      </trkpt>
      <trkpt lat="44.00563" lon="4.31621">
        <ele>192.1</ele>
        <time>2011-11-20T10:45:51Z</time>
      </trkpt>
      <trkpt lat="44.0056" lon="4.31627">
        <ele>191.9</ele>
        <time>2011-11-20T10:45:52Z</time>
      </trkpt>
      <trkpt lat="44.00558" lon="4.31632">
        <ele>191.8</ele>
        <time>2011-11-20T10:45:53Z</time>
      </trkpt>
      <trkpt lat="44.00557" lon="4.31638">
        <ele>191.6</ele>
        <time>2011-11-20T10:45:54Z</time>
      </trkpt>
      <trkpt lat="44.00555" lon="4.3165">
        <ele>191.5</ele>
        <time>2011-11-20T10:45:56Z</time>
      </trkpt>
      <trkpt lat="44.00556" lon="4.31659">
        <ele>191.5</ele>
        <time>2011-11-20T10:45:58Z</time>
      </trkpt>
      <trkpt lat="44.00558" lon="4.31668">
        <ele>191.6</ele>
        <time>2011-11-20T10:46:00Z</time>
      </trkpt>
      <trkpt lat="44.0056" lon="4.3168">
        <ele>191.6</ele>
        <time>2011-11-20T10:46:02Z</time>
      </trkpt>
      <trkpt lat="44.00562" lon="4.31692">
        <ele>191.7</ele>
        <time>2011-11-20T10:46:04Z</time>
      </trkpt>
      <trkpt lat="44.00564" lon="4.31698">
        <ele>191.7</ele>
        <time>2011-11-20T10:46:05Z</time>
      </trkpt>
      <trkpt lat="44.00565" lon="4.31704">
        <ele>191.9</ele>
        <time>2011-11-20T10:46:06Z</time>
      </trkpt>
      <trkpt lat="44.00566" lon="4.3171">
        <ele>191.9</ele>
        <time>2011-11-20T10:46:07Z</time>
      </trkpt>
      <trkpt lat="44.00568" lon="4.31716">
        <ele>191.4</ele>
        <time>2011-11-20T10:46:08Z</time>
      </trkpt>
      <trkpt lat="44.0057" lon="4.31727">
        <ele>191.5</ele>
        <time>2011-11-20T10:46:10Z</time>
      </trkpt>
      <trkpt lat="44.00573" lon="4.31736">
        <ele>191.8</ele>
        <time>2011-11-20T10:46:12Z</time>
      </trkpt>
      <trkpt lat="44.00575" lon="4.31745">
        <ele>191.6</ele>
        <time>2011-11-20T10:46:14Z</time>
      </trkpt>
      <trkpt lat="44.00578" lon="4.31753">
        <ele>191.6</ele>
        <time>2011-11-20T10:46:16Z</time>
      </trkpt>
      <trkpt lat="44.0058" lon="4.31746">
        <ele>192.9</ele>
        <time>2011-11-20T10:46:22Z</time>
      </trkpt>
      <trkpt lat="44.00584" lon="4.3174">
        <ele>193.3</ele>
        <time>2011-11-20T10:46:25Z</time>
      </trkpt>
      <trkpt lat="44.00589" lon="4.31735">
        <ele>193.6</ele>
        <time>2011-11-20T10:46:28Z</time>
      </trkpt>
      <trkpt lat="44.00593" lon="4.3173">
        <ele>193.9</ele>
        <time>2011-11-20T10:46:31Z</time>
      </trkpt>
    </trkseg>
  </trk>
</gpx>